﻿<?xml version="1.0" encoding="utf-8"?><gpx creator="Garmin Desktop App" version="1.1" xsi:schemaLocation="http://www.topografix.com/GPX/1/1 http://www.topografix.com/GPX/1/1/gpx.xsd http://www.garmin.com/xmlschemas/WaypointExtension/v1 http://www8.garmin.com/xmlschemas/WaypointExtensionv1.xsd http://www.garmin.com/xmlschemas/TrackPointExtension/v1 http://www.garmin.com/xmlschemas/TrackPointExtensionv1.xsd http://www.garmin.com/xmlschemas/GpxExtensions/v3 http://www8.garmin.com/xmlschemas/GpxExtensionsv3.xsd http://www.garmin.com/xmlschemas/ActivityExtension/v1 http://www8.garmin.com/xmlschemas/ActivityExtensionv1.xsd http://www.garmin.com/xmlschemas/AdventuresExtensions/v1 http://www8.garmin.com/xmlschemas/AdventuresExtensionv1.xsd http://www.garmin.com/xmlschemas/PressureExtension/v1 http://www.garmin.com/xmlschemas/PressureExtensionv1.xsd http://www.garmin.com/xmlschemas/TripExtensions/v1 http://www.garmin.com/xmlschemas/TripExtensionsv1.xsd http://www.garmin.com/xmlschemas/TripMetaDataExtensions/v1 http://www.garmin.com/xmlschemas/TripMetaDataExtensionsv1.xsd http://www.garmin.com/xmlschemas/ViaPointTransportationModeExtensions/v1 http://www.garmin.com/xmlschemas/ViaPointTransportationModeExtensionsv1.xsd http://www.garmin.com/xmlschemas/CreationTimeExtension/v1 http://www.garmin.com/xmlschemas/CreationTimeExtensionsv1.xsd http://www.garmin.com/xmlschemas/AccelerationExtension/v1 http://www.garmin.com/xmlschemas/AccelerationExtensionv1.xsd http://www.garmin.com/xmlschemas/PowerExtension/v1 http://www.garmin.com/xmlschemas/PowerExtensionv1.xsd http://www.garmin.com/xmlschemas/VideoExtension/v1 http://www.garmin.com/xmlschemas/VideoExtensionv1.xsd" xmlns="http://www.topografix.com/GPX/1/1" xmlns:xsi="http://www.w3.org/2001/XMLSchema-instance" xmlns:wptx1="http://www.garmin.com/xmlschemas/WaypointExtension/v1" xmlns:gpxtrx="http://www.garmin.com/xmlschemas/GpxExtensions/v3" xmlns:gpxtpx="http://www.garmin.com/xmlschemas/TrackPointExtension/v1" xmlns:gpxx="http://www.garmin.com/xmlschemas/GpxExtensions/v3" xmlns:trp="http://www.garmin.com/xmlschemas/TripExtensions/v1" xmlns:adv="http://www.garmin.com/xmlschemas/AdventuresExtensions/v1" xmlns:prs="http://www.garmin.com/xmlschemas/PressureExtension/v1" xmlns:tmd="http://www.garmin.com/xmlschemas/TripMetaDataExtensions/v1" xmlns:vptm="http://www.garmin.com/xmlschemas/ViaPointTransportationModeExtensions/v1" xmlns:ctx="http://www.garmin.com/xmlschemas/CreationTimeExtension/v1" xmlns:gpxacc="http://www.garmin.com/xmlschemas/AccelerationExtension/v1" xmlns:gpxpx="http://www.garmin.com/xmlschemas/PowerExtension/v1" xmlns:vidx1="http://www.garmin.com/xmlschemas/VideoExtension/v1">

  <metadata>
    <link href="http://www.garmin.com">
      <text>Garmin International</text>
    </link>
    <time>2026-06-29T12:27:48Z</time>
    <bounds maxlat="52.170807011425495" maxlon="-9.488227972760797" minlat="51.758609991520643" minlon="-10.404422963038087" />
  </metadata>

  <trk>
    <name>260629_Ring_of_Kerry_Track</name>
    <extensions>
      <gpxx:TrackExtension>
        <gpxx:DisplayColor>DarkGray</gpxx:DisplayColor>
      </gpxx:TrackExtension>
    </extensions>
    <trkseg>
      <trkpt lat="52.111222995445132" lon="-9.505649004131556">
        <ele>98.670000000000002</ele>
        <time>2026-06-29T04:19:31Z</time>
      </trkpt>
      <trkpt lat="52.111219977959991" lon="-9.505628971382976">
        <ele>95.790000000000006</ele>
        <time>2026-06-29T04:19:32Z</time>
      </trkpt>
      <trkpt lat="52.111200029030442" lon="-9.505597958341241">
        <ele>95.790000000000006</ele>
        <time>2026-06-29T04:19:34Z</time>
      </trkpt>
      <trkpt lat="52.111191982403398" lon="-9.505574991926551">
        <ele>101.08</ele>
        <time>2026-06-29T04:19:42Z</time>
      </trkpt>
      <trkpt lat="52.11123900488019" lon="-9.505560994148254">
        <ele>99.150000000000006</ele>
        <time>2026-06-29T04:19:46Z</time>
      </trkpt>
      <trkpt lat="52.111272029578686" lon="-9.505558982491493">
        <ele>98.189999999999998</ele>
        <time>2026-06-29T04:19:47Z</time>
      </trkpt>
      <trkpt lat="52.111314022913575" lon="-9.505557976663113">
        <ele>97.709999999999994</ele>
        <time>2026-06-29T04:19:48Z</time>
      </trkpt>
      <trkpt lat="52.111362973228097" lon="-9.505555965006352">
        <ele>97.230000000000004</ele>
        <time>2026-06-29T04:19:49Z</time>
      </trkpt>
      <trkpt lat="52.111418964341283" lon="-9.505554037168622">
        <ele>96.75</ele>
        <time>2026-06-29T04:19:50Z</time>
      </trkpt>
      <trkpt lat="52.11147797293961" lon="-9.50555101968348">
        <ele>96.75</ele>
        <time>2026-06-29T04:19:51Z</time>
      </trkpt>
      <trkpt lat="52.111801011487842" lon="-9.505538027733564">
        <ele>97.230000000000004</ele>
        <time>2026-06-29T04:20:01Z</time>
      </trkpt>
      <trkpt lat="52.111895978450775" lon="-9.505565017461777">
        <ele>97.230000000000004</ele>
        <time>2026-06-29T04:20:02Z</time>
      </trkpt>
      <trkpt lat="52.111906036734581" lon="-9.505610028281808">
        <ele>97.230000000000004</ele>
        <time>2026-06-29T04:20:03Z</time>
      </trkpt>
      <trkpt lat="52.111924979835749" lon="-9.505692003294826">
        <ele>97.230000000000004</ele>
        <time>2026-06-29T04:20:04Z</time>
      </trkpt>
      <trkpt lat="52.11195096373558" lon="-9.505801973864436">
        <ele>96.75</ele>
        <time>2026-06-29T04:20:05Z</time>
      </trkpt>
      <trkpt lat="52.111978959292173" lon="-9.505925020202994">
        <ele>96.75</ele>
        <time>2026-06-29T04:20:06Z</time>
      </trkpt>
      <trkpt lat="52.112333010882139" lon="-9.50718498788774">
        <ele>94.829999999999998</ele>
        <time>2026-06-29T04:20:14Z</time>
      </trkpt>
      <trkpt lat="52.112630987539887" lon="-9.508177991956472">
        <ele>92.900000000000006</ele>
        <time>2026-06-29T04:20:19Z</time>
      </trkpt>
      <trkpt lat="52.112685972824693" lon="-9.50838603079319">
        <ele>92.420000000000002</ele>
        <time>2026-06-29T04:20:20Z</time>
      </trkpt>
      <trkpt lat="52.112730983644724" lon="-9.508591974154115">
        <ele>91.939999999999998</ele>
        <time>2026-06-29T04:20:21Z</time>
      </trkpt>
      <trkpt lat="52.112941034138203" lon="-9.510775962844491">
        <ele>89.540000000000006</ele>
        <time>2026-06-29T04:20:32Z</time>
      </trkpt>
      <trkpt lat="52.113037006929517" lon="-9.512973027303815">
        <ele>86.180000000000007</ele>
        <time>2026-06-29T04:20:43Z</time>
      </trkpt>
      <trkpt lat="52.113038012757897" lon="-9.514988958835602">
        <ele>83.769999999999996</ele>
        <time>2026-06-29T04:20:54Z</time>
      </trkpt>
      <trkpt lat="52.112997025251389" lon="-9.515794040635228">
        <ele>83.290000000000006</ele>
        <time>2026-06-29T04:20:59Z</time>
      </trkpt>
      <trkpt lat="52.112989984452724" lon="-9.515926977619529">
        <ele>83.290000000000006</ele>
        <time>2026-06-29T04:21:00Z</time>
      </trkpt>
      <trkpt lat="52.112940028309822" lon="-9.516488984227181">
        <ele>83.290000000000006</ele>
        <time>2026-06-29T04:21:06Z</time>
      </trkpt>
      <trkpt lat="52.112909015268087" lon="-9.516472974792123">
        <ele>83.290000000000006</ele>
        <time>2026-06-29T04:21:07Z</time>
      </trkpt>
      <trkpt lat="52.112856041640043" lon="-9.516446990892291">
        <ele>82.810000000000002</ele>
        <time>2026-06-29T04:21:08Z</time>
      </trkpt>
      <trkpt lat="52.112218011170626" lon="-9.516127975657582">
        <ele>82.810000000000002</ele>
        <time>2026-06-29T04:21:14Z</time>
      </trkpt>
      <trkpt lat="52.110744975507259" lon="-9.515592958778143">
        <ele>85.209999999999994</ele>
        <time>2026-06-29T04:21:24Z</time>
      </trkpt>
      <trkpt lat="52.110438030213118" lon="-9.515565969049931">
        <ele>85.209999999999994</ele>
        <time>2026-06-29T04:21:26Z</time>
      </trkpt>
      <trkpt lat="52.108893999829888" lon="-9.516030997037888">
        <ele>80.409999999999997</ele>
        <time>2026-06-29T04:21:35Z</time>
      </trkpt>
      <trkpt lat="52.10685602389276" lon="-9.516687970608473">
        <ele>77.519999999999996</ele>
        <time>2026-06-29T04:21:46Z</time>
      </trkpt>
      <trkpt lat="52.104204995557666" lon="-9.517413005232811">
        <ele>73.200000000000003</ele>
        <time>2026-06-29T04:22:00Z</time>
      </trkpt>
      <trkpt lat="52.101474003866315" lon="-9.518160000443459">
        <ele>77.040000000000006</ele>
        <time>2026-06-29T04:22:14Z</time>
      </trkpt>
      <trkpt lat="52.10039097815752" lon="-9.518407015129924">
        <ele>78</ele>
        <time>2026-06-29T04:22:19Z</time>
      </trkpt>
      <trkpt lat="52.100172964856029" lon="-9.518414977937937">
        <ele>78</ele>
        <time>2026-06-29T04:22:20Z</time>
      </trkpt>
      <trkpt lat="52.099956963211298" lon="-9.518383964896202">
        <ele>78</ele>
        <time>2026-06-29T04:22:21Z</time>
      </trkpt>
      <trkpt lat="52.099741967394948" lon="-9.51835404150188">
        <ele>78.480000000000004</ele>
        <time>2026-06-29T04:22:22Z</time>
      </trkpt>
      <trkpt lat="52.099536024034023" lon="-9.518261002376676">
        <ele>78.480000000000004</ele>
        <time>2026-06-29T04:22:23Z</time>
      </trkpt>
      <trkpt lat="52.099332008510828" lon="-9.51814197935164">
        <ele>78.480000000000004</ele>
        <time>2026-06-29T04:22:24Z</time>
      </trkpt>
      <trkpt lat="52.099131010472775" lon="-9.51801398769021">
        <ele>78.969999999999999</ele>
        <time>2026-06-29T04:22:25Z</time>
      </trkpt>
      <trkpt lat="52.098943004384637" lon="-9.51784098520875">
        <ele>78.969999999999999</ele>
        <time>2026-06-29T04:22:26Z</time>
      </trkpt>
      <trkpt lat="52.097151037305593" lon="-9.516642037779093">
        <ele>81.849999999999994</ele>
        <time>2026-06-29T04:22:35Z</time>
      </trkpt>
      <trkpt lat="52.096363976597786" lon="-9.51627298258245">
        <ele>81.849999999999994</ele>
        <time>2026-06-29T04:22:39Z</time>
      </trkpt>
      <trkpt lat="52.096159961074591" lon="-9.516217997297645">
        <ele>81.849999999999994</ele>
        <time>2026-06-29T04:22:40Z</time>
      </trkpt>
      <trkpt lat="52.094368999823928" lon="-9.516101991757751">
        <ele>78.969999999999999</ele>
        <time>2026-06-29T04:22:49Z</time>
      </trkpt>
      <trkpt lat="52.09254995919764" lon="-9.515617014840245">
        <ele>79.450000000000003</ele>
        <time>2026-06-29T04:22:59Z</time>
      </trkpt>
      <trkpt lat="52.090947004035115" lon="-9.514179015532136">
        <ele>80.409999999999997</ele>
        <time>2026-06-29T04:23:08Z</time>
      </trkpt>
      <trkpt lat="52.089304989203811" lon="-9.513133959844708">
        <ele>79.930000000000007</ele>
        <time>2026-06-29T04:23:17Z</time>
      </trkpt>
      <trkpt lat="52.088145017623901" lon="-9.513231022283435">
        <ele>78.480000000000004</ele>
        <time>2026-06-29T04:23:23Z</time>
      </trkpt>
      <trkpt lat="52.086457991972566" lon="-9.514041971415281">
        <ele>75.599999999999994</ele>
        <time>2026-06-29T04:23:32Z</time>
      </trkpt>
      <trkpt lat="52.08470500074327" lon="-9.51560502871871">
        <ele>74.640000000000001</ele>
        <time>2026-06-29T04:23:42Z</time>
      </trkpt>
      <trkpt lat="52.082969024777412" lon="-9.516311036422849">
        <ele>75.120000000000005</ele>
        <time>2026-06-29T04:23:51Z</time>
      </trkpt>
      <trkpt lat="52.081600008532405" lon="-9.516097968444228">
        <ele>77.040000000000006</ele>
        <time>2026-06-29T04:23:58Z</time>
      </trkpt>
      <trkpt lat="52.080201990902424" lon="-9.515031035989523">
        <ele>82.329999999999998</ele>
        <time>2026-06-29T04:24:06Z</time>
      </trkpt>
      <trkpt lat="52.080031000077724" lon="-9.514915030449629">
        <ele>82.329999999999998</ele>
        <time>2026-06-29T04:24:07Z</time>
      </trkpt>
      <trkpt lat="52.079851040616632" lon="-9.514857027679682">
        <ele>82.329999999999998</ele>
        <time>2026-06-29T04:24:08Z</time>
      </trkpt>
      <trkpt lat="52.079664962366223" lon="-9.514798019081354">
        <ele>82.329999999999998</ele>
        <time>2026-06-29T04:24:09Z</time>
      </trkpt>
      <trkpt lat="52.077718013897538" lon="-9.514761976897717">
        <ele>81.370000000000005</ele>
        <time>2026-06-29T04:24:19Z</time>
      </trkpt>
      <trkpt lat="52.077526990324259" lon="-9.514820985496044">
        <ele>80.890000000000001</ele>
        <time>2026-06-29T04:24:20Z</time>
      </trkpt>
      <trkpt lat="52.077335966750979" lon="-9.5149199757725">
        <ele>80.409999999999997</ele>
        <time>2026-06-29T04:24:21Z</time>
      </trkpt>
      <trkpt lat="52.077149972319603" lon="-9.515017038211227">
        <ele>79.930000000000007</ele>
        <time>2026-06-29T04:24:22Z</time>
      </trkpt>
      <trkpt lat="52.077002031728625" lon="-9.515167996287346">
        <ele>79.450000000000003</ele>
        <time>2026-06-29T04:24:23Z</time>
      </trkpt>
      <trkpt lat="52.076860964298248" lon="-9.515342004597187">
        <ele>78.480000000000004</ele>
        <time>2026-06-29T04:24:24Z</time>
      </trkpt>
      <trkpt lat="52.076730038970709" lon="-9.51551903039217">
        <ele>78</ele>
        <time>2026-06-29T04:24:25Z</time>
      </trkpt>
      <trkpt lat="52.076635994017124" lon="-9.515765961259604">
        <ele>77.519999999999996</ele>
        <time>2026-06-29T04:24:26Z</time>
      </trkpt>
      <trkpt lat="52.076548989862204" lon="-9.516024962067604">
        <ele>76.560000000000002</ele>
        <time>2026-06-29T04:24:27Z</time>
      </trkpt>
      <trkpt lat="52.076481012627482" lon="-9.516310030594468">
        <ele>76.079999999999998</ele>
        <time>2026-06-29T04:24:28Z</time>
      </trkpt>
      <trkpt lat="52.076412029564381" lon="-9.516602978110313">
        <ele>75.120000000000005</ele>
        <time>2026-06-29T04:24:29Z</time>
      </trkpt>
      <trkpt lat="52.075739968568087" lon="-9.519416028633714">
        <ele>69.829999999999998</ele>
        <time>2026-06-29T04:24:38Z</time>
      </trkpt>
      <trkpt lat="52.074788035824895" lon="-9.52153698541224">
        <ele>64.549999999999997</ele>
        <time>2026-06-29T04:24:46Z</time>
      </trkpt>
      <trkpt lat="52.074664989486337" lon="-9.521748041734099">
        <ele>64.069999999999993</ele>
        <time>2026-06-29T04:24:47Z</time>
      </trkpt>
      <trkpt lat="52.074515037238598" lon="-9.521875027567148">
        <ele>63.100000000000001</ele>
        <time>2026-06-29T04:24:48Z</time>
      </trkpt>
      <trkpt lat="52.074362989515066" lon="-9.522005030885339">
        <ele>62.140000000000001</ele>
        <time>2026-06-29T04:24:49Z</time>
      </trkpt>
      <trkpt lat="52.07419996149838" lon="-9.522115001454949">
        <ele>61.18</ele>
        <time>2026-06-29T04:24:50Z</time>
      </trkpt>
      <trkpt lat="52.074029976502061" lon="-9.522165041416884">
        <ele>60.219999999999999</ele>
        <time>2026-06-29T04:24:51Z</time>
      </trkpt>
      <trkpt lat="52.073886981233954" lon="-9.522207034751773">
        <ele>59.740000000000002</ele>
        <time>2026-06-29T04:24:52Z</time>
      </trkpt>
      <trkpt lat="52.073673997074366" lon="-9.522165963426232">
        <ele>59.259999999999998</ele>
        <time>2026-06-29T04:24:53Z</time>
      </trkpt>
      <trkpt lat="52.073491020128131" lon="-9.522132016718388">
        <ele>58.780000000000001</ele>
        <time>2026-06-29T04:24:54Z</time>
      </trkpt>
      <trkpt lat="52.073316005989909" lon="-9.522053981199861">
        <ele>58.299999999999997</ele>
        <time>2026-06-29T04:24:55Z</time>
      </trkpt>
      <trkpt lat="52.073151972144842" lon="-9.521931018680334">
        <ele>57.82</ele>
        <time>2026-06-29T04:24:56Z</time>
      </trkpt>
      <trkpt lat="52.073000008240342" lon="-9.521790035068989">
        <ele>57.340000000000003</ele>
        <time>2026-06-29T04:24:57Z</time>
      </trkpt>
      <trkpt lat="52.072861036285758" lon="-9.521615020930767">
        <ele>57.340000000000003</ele>
        <time>2026-06-29T04:24:58Z</time>
      </trkpt>
      <trkpt lat="52.072099037468433" lon="-9.520651018247008">
        <ele>55.890000000000001</ele>
        <time>2026-06-29T04:25:04Z</time>
      </trkpt>
      <trkpt lat="52.071985965594649" lon="-9.520496958866715">
        <ele>55.409999999999997</ele>
        <time>2026-06-29T04:25:05Z</time>
      </trkpt>
      <trkpt lat="52.071153977885842" lon="-9.519328018650413">
        <ele>52.049999999999997</ele>
        <time>2026-06-29T04:25:13Z</time>
      </trkpt>
      <trkpt lat="52.070489963516593" lon="-9.5181630179286">
        <ele>47.240000000000002</ele>
        <time>2026-06-29T04:25:20Z</time>
      </trkpt>
      <trkpt lat="52.069649007171392" lon="-9.517022995278239">
        <ele>46.759999999999998</ele>
        <time>2026-06-29T04:25:29Z</time>
      </trkpt>
      <trkpt lat="52.069229995831847" lon="-9.516326040029526">
        <ele>46.280000000000001</ele>
        <time>2026-06-29T04:25:36Z</time>
      </trkpt>
      <trkpt lat="52.069166963919997" lon="-9.516264013946056">
        <ele>45.799999999999997</ele>
        <time>2026-06-29T04:25:37Z</time>
      </trkpt>
      <trkpt lat="52.069016005843878" lon="-9.516263008117676">
        <ele>45.799999999999997</ele>
        <time>2026-06-29T04:25:38Z</time>
      </trkpt>
      <trkpt lat="52.068909974768758" lon="-9.516235012561083">
        <ele>45.799999999999997</ele>
        <time>2026-06-29T04:25:40Z</time>
      </trkpt>
      <trkpt lat="52.068114029243588" lon="-9.515834022313356">
        <ele>44.840000000000003</ele>
        <time>2026-06-29T04:25:49Z</time>
      </trkpt>
      <trkpt lat="52.067331997677684" lon="-9.515423979610205">
        <ele>45.32</ele>
        <time>2026-06-29T04:25:58Z</time>
      </trkpt>
      <trkpt lat="52.066201027482748" lon="-9.51483397744596">
        <ele>45.799999999999997</ele>
        <time>2026-06-29T04:26:09Z</time>
      </trkpt>
      <trkpt lat="52.065585041418672" lon="-9.514481015503407">
        <ele>43.880000000000003</ele>
        <time>2026-06-29T04:26:17Z</time>
      </trkpt>
      <trkpt lat="52.064918009564281" lon="-9.51391096226871">
        <ele>42.920000000000002</ele>
        <time>2026-06-29T04:26:25Z</time>
      </trkpt>
      <trkpt lat="52.064389027655125" lon="-9.513410981744528">
        <ele>41.950000000000003</ele>
        <time>2026-06-29T04:26:33Z</time>
      </trkpt>
      <trkpt lat="52.063432987779379" lon="-9.512699022889137">
        <ele>40.030000000000001</ele>
        <time>2026-06-29T04:26:42Z</time>
      </trkpt>
      <trkpt lat="52.062823958694935" lon="-9.512140033766627">
        <ele>38.109999999999999</ele>
        <time>2026-06-29T04:26:48Z</time>
      </trkpt>
      <trkpt lat="52.062737960368395" lon="-9.512022016569972">
        <ele>38.109999999999999</ele>
        <time>2026-06-29T04:26:49Z</time>
      </trkpt>
      <trkpt lat="52.062312997877598" lon="-9.511226993054152">
        <ele>35.710000000000001</ele>
        <time>2026-06-29T04:26:57Z</time>
      </trkpt>
      <trkpt lat="52.062008986249566" lon="-9.510614024475217">
        <ele>34.740000000000002</ele>
        <time>2026-06-29T04:27:02Z</time>
      </trkpt>
      <trkpt lat="52.061954000964761" lon="-9.510460970923305">
        <ele>35.229999999999997</ele>
        <time>2026-06-29T04:27:03Z</time>
      </trkpt>
      <trkpt lat="52.061915025115013" lon="-9.510303977876902">
        <ele>34.740000000000002</ele>
        <time>2026-06-29T04:27:04Z</time>
      </trkpt>
      <trkpt lat="52.061918964609504" lon="-9.510114965960383">
        <ele>34.740000000000002</ele>
        <time>2026-06-29T04:27:05Z</time>
      </trkpt>
      <trkpt lat="52.061924999579787" lon="-9.509941963478923">
        <ele>34.740000000000002</ele>
        <time>2026-06-29T04:27:06Z</time>
      </trkpt>
      <trkpt lat="52.06193002872169" lon="-9.509777007624507">
        <ele>34.740000000000002</ele>
        <time>2026-06-29T04:27:07Z</time>
      </trkpt>
      <trkpt lat="52.061947965994477" lon="-9.509584978222847">
        <ele>34.740000000000002</ele>
        <time>2026-06-29T04:27:08Z</time>
      </trkpt>
      <trkpt lat="52.062012003734708" lon="-9.509457992389798">
        <ele>35.229999999999997</ele>
        <time>2026-06-29T04:27:09Z</time>
      </trkpt>
      <trkpt lat="52.062076963484287" lon="-9.509326983243227">
        <ele>35.229999999999997</ele>
        <time>2026-06-29T04:27:10Z</time>
      </trkpt>
      <trkpt lat="52.06214401870966" lon="-9.509193962439895">
        <ele>35.710000000000001</ele>
        <time>2026-06-29T04:27:11Z</time>
      </trkpt>
      <trkpt lat="52.062219958752394" lon="-9.509060019627214">
        <ele>36.189999999999998</ele>
        <time>2026-06-29T04:27:12Z</time>
      </trkpt>
      <trkpt lat="52.062306040897965" lon="-9.5089450199157">
        <ele>36.670000000000002</ele>
        <time>2026-06-29T04:27:13Z</time>
      </trkpt>
      <trkpt lat="52.063427958637476" lon="-9.507426973432303">
        <ele>42.920000000000002</ele>
        <time>2026-06-29T04:27:27Z</time>
      </trkpt>
      <trkpt lat="52.063870020210743" lon="-9.506426006555557">
        <ele>44.359999999999999</ele>
        <time>2026-06-29T04:27:36Z</time>
      </trkpt>
      <trkpt lat="52.063904972746968" lon="-9.506345959380269">
        <ele>44.359999999999999</ele>
        <time>2026-06-29T04:27:37Z</time>
      </trkpt>
      <trkpt lat="52.063902961090207" lon="-9.506248980760574">
        <ele>44.840000000000003</ele>
        <time>2026-06-29T04:27:38Z</time>
      </trkpt>
      <trkpt lat="52.063865996897221" lon="-9.506199024617672">
        <ele>44.840000000000003</ele>
        <time>2026-06-29T04:27:39Z</time>
      </trkpt>
      <trkpt lat="52.063797013834119" lon="-9.506241017952561">
        <ele>44.840000000000003</ele>
        <time>2026-06-29T04:27:40Z</time>
      </trkpt>
      <trkpt lat="52.063726019114256" lon="-9.506213022395968">
        <ele>44.840000000000003</ele>
        <time>2026-06-29T04:27:41Z</time>
      </trkpt>
      <trkpt lat="52.063641026616096" lon="-9.506181003525853">
        <ele>44.840000000000003</ele>
        <time>2026-06-29T04:27:42Z</time>
      </trkpt>
      <trkpt lat="52.063523009419441" lon="-9.506134986877441">
        <ele>45.32</ele>
        <time>2026-06-29T04:27:43Z</time>
      </trkpt>
      <trkpt lat="52.062448030337691" lon="-9.506134986877441">
        <ele>42.439999999999998</ele>
        <time>2026-06-29T04:27:53Z</time>
      </trkpt>
      <trkpt lat="52.061153026297688" lon="-9.506134986877441">
        <ele>38.590000000000003</ele>
        <time>2026-06-29T04:28:05Z</time>
      </trkpt>
      <trkpt lat="52.060230011120439" lon="-9.506120989099145">
        <ele>33.299999999999997</ele>
        <time>2026-06-29T04:28:14Z</time>
      </trkpt>
      <trkpt lat="52.060145018622279" lon="-9.506115037947893">
        <ele>32.82</ele>
        <time>2026-06-29T04:28:15Z</time>
      </trkpt>
      <trkpt lat="52.060068994760513" lon="-9.50610900297761">
        <ele>32.340000000000003</ele>
        <time>2026-06-29T04:28:16Z</time>
      </trkpt>
      <trkpt lat="52.060001017525792" lon="-9.506103973835707">
        <ele>31.859999999999999</ele>
        <time>2026-06-29T04:28:17Z</time>
      </trkpt>
      <trkpt lat="52.059946032240987" lon="-9.506100034341216">
        <ele>30.899999999999999</ele>
        <time>2026-06-29T04:28:18Z</time>
      </trkpt>
      <trkpt lat="52.059896998107433" lon="-9.505985034629703">
        <ele>30.420000000000002</ele>
        <time>2026-06-29T04:28:19Z</time>
      </trkpt>
      <trkpt lat="52.059893980622292" lon="-9.505978999659419">
        <ele>29.460000000000001</ele>
        <time>2026-06-29T04:28:20Z</time>
      </trkpt>
      <trkpt lat="52.059853998944163" lon="-9.505899036303163">
        <ele>28.98</ele>
        <time>2026-06-29T04:28:21Z</time>
      </trkpt>
      <trkpt lat="52.059865985065699" lon="-9.505814965814352">
        <ele>28.02</ele>
        <time>2026-06-29T04:28:22Z</time>
      </trkpt>
      <trkpt lat="52.059992970898747" lon="-9.504638984799385">
        <ele>25.129999999999999</ele>
        <time>2026-06-29T04:28:31Z</time>
      </trkpt>
      <trkpt lat="52.060001017525792" lon="-9.50452197343111">
        <ele>25.129999999999999</ele>
        <time>2026-06-29T04:28:32Z</time>
      </trkpt>
      <trkpt lat="52.060015015304089" lon="-9.504414014518261">
        <ele>25.609999999999999</ele>
        <time>2026-06-29T04:28:33Z</time>
      </trkpt>
      <trkpt lat="52.059986013919115" lon="-9.504341008141637">
        <ele>25.609999999999999</ele>
        <time>2026-06-29T04:28:34Z</time>
      </trkpt>
      <trkpt lat="52.059947960078716" lon="-9.504344025626779">
        <ele>26.09</ele>
        <time>2026-06-29T04:28:35Z</time>
      </trkpt>
      <trkpt lat="52.059893980622292" lon="-9.504365986213088">
        <ele>26.09</ele>
        <time>2026-06-29T04:28:36Z</time>
      </trkpt>
      <trkpt lat="52.059817034751177" lon="-9.504404962062836">
        <ele>26.09</ele>
        <time>2026-06-29T04:28:37Z</time>
      </trkpt>
      <trkpt lat="52.059723995625973" lon="-9.504450978711247">
        <ele>26.57</ele>
        <time>2026-06-29T04:28:38Z</time>
      </trkpt>
      <trkpt lat="52.059318982064724" lon="-9.504622975364327">
        <ele>28.02</ele>
        <time>2026-06-29T04:28:42Z</time>
      </trkpt>
      <trkpt lat="52.059012036770582" lon="-9.504774017259479">
        <ele>27.530000000000001</ele>
        <time>2026-06-29T04:28:45Z</time>
      </trkpt>
      <trkpt lat="52.058820007368922" lon="-9.504893040284514">
        <ele>27.050000000000001</ele>
        <time>2026-06-29T04:28:47Z</time>
      </trkpt>
      <trkpt lat="52.058725040405989" lon="-9.504979960620403">
        <ele>26.57</ele>
        <time>2026-06-29T04:28:48Z</time>
      </trkpt>
      <trkpt lat="52.058353973552585" lon="-9.505408024415374">
        <ele>25.129999999999999</ele>
        <time>2026-06-29T04:28:52Z</time>
      </trkpt>
      <trkpt lat="52.058271998539567" lon="-9.505538027733564">
        <ele>24.649999999999999</ele>
        <time>2026-06-29T04:28:53Z</time>
      </trkpt>
      <trkpt lat="52.058066977187991" lon="-9.505956033244729">
        <ele>23.210000000000001</ele>
        <time>2026-06-29T04:28:56Z</time>
      </trkpt>
      <trkpt lat="52.058032024651766" lon="-9.506116965785623">
        <ele>23.210000000000001</ele>
        <time>2026-06-29T04:28:57Z</time>
      </trkpt>
      <trkpt lat="52.057929011061788" lon="-9.506574030965567">
        <ele>22.73</ele>
        <time>2026-06-29T04:29:00Z</time>
      </trkpt>
      <trkpt lat="52.057908978313208" lon="-9.506673021242023">
        <ele>22.73</ele>
        <time>2026-06-29T04:29:01Z</time>
      </trkpt>
      <trkpt lat="52.057857010513544" lon="-9.506742004305124">
        <ele>22.73</ele>
        <time>2026-06-29T04:29:02Z</time>
      </trkpt>
      <trkpt lat="52.057819040492177" lon="-9.506766982376576">
        <ele>22.73</ele>
        <time>2026-06-29T04:29:03Z</time>
      </trkpt>
      <trkpt lat="52.057777969166636" lon="-9.506791960448027">
        <ele>22.73</ele>
        <time>2026-06-29T04:29:04Z</time>
      </trkpt>
      <trkpt lat="52.057729018852115" lon="-9.506823979318142">
        <ele>22.73</ele>
        <time>2026-06-29T04:29:05Z</time>
      </trkpt>
      <trkpt lat="52.057646038010716" lon="-9.506859015673399">
        <ele>23.210000000000001</ele>
        <time>2026-06-29T04:29:06Z</time>
      </trkpt>
      <trkpt lat="52.057415032759309" lon="-9.506855998188257">
        <ele>24.649999999999999</ele>
        <time>2026-06-29T04:29:09Z</time>
      </trkpt>
      <trkpt lat="52.057327022776008" lon="-9.50686102733016">
        <ele>25.129999999999999</ele>
        <time>2026-06-29T04:29:10Z</time>
      </trkpt>
      <trkpt lat="52.057246975600719" lon="-9.506886005401611">
        <ele>25.609999999999999</ele>
        <time>2026-06-29T04:29:11Z</time>
      </trkpt>
      <trkpt lat="52.057172963395715" lon="-9.506935039535165">
        <ele>25.609999999999999</ele>
        <time>2026-06-29T04:29:12Z</time>
      </trkpt>
      <trkpt lat="52.057100962847471" lon="-9.506982984021306">
        <ele>26.09</ele>
        <time>2026-06-29T04:29:13Z</time>
      </trkpt>
      <trkpt lat="52.057028962299228" lon="-9.507031012326479">
        <ele>26.57</ele>
        <time>2026-06-29T04:29:14Z</time>
      </trkpt>
      <trkpt lat="52.056959979236126" lon="-9.507077028974891">
        <ele>26.57</ele>
        <time>2026-06-29T04:29:15Z</time>
      </trkpt>
      <trkpt lat="52.056913962587714" lon="-9.507107958197594">
        <ele>27.050000000000001</ele>
        <time>2026-06-29T04:29:16Z</time>
      </trkpt>
      <trkpt lat="52.056827964261174" lon="-9.507165038958192">
        <ele>28.5</ele>
        <time>2026-06-29T04:29:22Z</time>
      </trkpt>
      <trkpt lat="52.056219018995762" lon="-9.507150035351515">
        <ele>30.420000000000002</ele>
        <time>2026-06-29T04:29:28Z</time>
      </trkpt>
      <trkpt lat="52.054977994412184" lon="-9.507048027589917">
        <ele>31.379999999999999</ele>
        <time>2026-06-29T04:29:37Z</time>
      </trkpt>
      <trkpt lat="52.054062020033598" lon="-9.506961023434997">
        <ele>31.379999999999999</ele>
        <time>2026-06-29T04:29:45Z</time>
      </trkpt>
      <trkpt lat="52.052660984918475" lon="-9.506829008460045">
        <ele>29.940000000000001</ele>
        <time>2026-06-29T04:29:58Z</time>
      </trkpt>
      <trkpt lat="52.051413003355265" lon="-9.506718032062054">
        <ele>29.940000000000001</ele>
        <time>2026-06-29T04:30:09Z</time>
      </trkpt>
      <trkpt lat="52.050253031775355" lon="-9.50660596601665">
        <ele>30.420000000000002</ele>
        <time>2026-06-29T04:30:19Z</time>
      </trkpt>
      <trkpt lat="52.048960039392114" lon="-9.506480991840363">
        <ele>31.859999999999999</ele>
        <time>2026-06-29T04:30:30Z</time>
      </trkpt>
      <trkpt lat="52.047357000410557" lon="-9.506364986300468">
        <ele>33.299999999999997</ele>
        <time>2026-06-29T04:30:43Z</time>
      </trkpt>
      <trkpt lat="52.046398026868701" lon="-9.506115037947893">
        <ele>33.780000000000001</ele>
        <time>2026-06-29T04:30:51Z</time>
      </trkpt>
      <trkpt lat="52.045481968671083" lon="-9.505242984741926">
        <ele>34.740000000000002</ele>
        <time>2026-06-29T04:31:00Z</time>
      </trkpt>
      <trkpt lat="52.044545039534569" lon="-9.504116037860513">
        <ele>34.259999999999998</ele>
        <time>2026-06-29T04:31:10Z</time>
      </trkpt>
      <trkpt lat="52.044478990137577" lon="-9.503953009843826">
        <ele>34.259999999999998</ele>
        <time>2026-06-29T04:31:11Z</time>
      </trkpt>
      <trkpt lat="52.043694024905562" lon="-9.501912016421557">
        <ele>33.299999999999997</ele>
        <time>2026-06-29T04:31:23Z</time>
      </trkpt>
      <trkpt lat="52.042900007218122" lon="-9.499871022999287">
        <ele>30.420000000000002</ele>
        <time>2026-06-29T04:31:35Z</time>
      </trkpt>
      <trkpt lat="52.042189976200461" lon="-9.498174022883177">
        <ele>30.899999999999999</ele>
        <time>2026-06-29T04:31:45Z</time>
      </trkpt>
      <trkpt lat="52.041996018961072" lon="-9.497826006263495">
        <ele>30.899999999999999</ele>
        <time>2026-06-29T04:31:47Z</time>
      </trkpt>
      <trkpt lat="52.041878001764417" lon="-9.497707989066839">
        <ele>30.420000000000002</ele>
        <time>2026-06-29T04:31:48Z</time>
      </trkpt>
      <trkpt lat="52.040761029347777" lon="-9.496811041608453">
        <ele>31.859999999999999</ele>
        <time>2026-06-29T04:31:57Z</time>
      </trkpt>
      <trkpt lat="52.039455967023969" lon="-9.495738996192813">
        <ele>36.189999999999998</ele>
        <time>2026-06-29T04:32:06Z</time>
      </trkpt>
      <trkpt lat="52.037837002426386" lon="-9.494129000231624">
        <ele>37.149999999999999</ele>
        <time>2026-06-29T04:32:17Z</time>
      </trkpt>
      <trkpt lat="52.036374025046825" lon="-9.49257398955524">
        <ele>32.82</ele>
        <time>2026-06-29T04:32:26Z</time>
      </trkpt>
      <trkpt lat="52.035167030990124" lon="-9.491979964077473">
        <ele>30.899999999999999</ele>
        <time>2026-06-29T04:32:33Z</time>
      </trkpt>
      <trkpt lat="52.034998973831534" lon="-9.491902012377977">
        <ele>30.420000000000002</ele>
        <time>2026-06-29T04:32:34Z</time>
      </trkpt>
      <trkpt lat="52.034835023805499" lon="-9.491825988516212">
        <ele>30.420000000000002</ele>
        <time>2026-06-29T04:32:35Z</time>
      </trkpt>
      <trkpt lat="52.034669984132051" lon="-9.491749964654446">
        <ele>30.420000000000002</ele>
        <time>2026-06-29T04:32:36Z</time>
      </trkpt>
      <trkpt lat="52.034501004964113" lon="-9.49167201295495">
        <ele>30.420000000000002</ele>
        <time>2026-06-29T04:32:37Z</time>
      </trkpt>
      <trkpt lat="52.033280013129115" lon="-9.49111201800406">
        <ele>31.379999999999999</ele>
        <time>2026-06-29T04:32:44Z</time>
      </trkpt>
      <trkpt lat="52.032777015119791" lon="-9.490847988054156">
        <ele>32.340000000000003</ele>
        <time>2026-06-29T04:32:47Z</time>
      </trkpt>
      <trkpt lat="52.031027963384986" lon="-9.489735960960388">
        <ele>28.98</ele>
        <time>2026-06-29T04:32:57Z</time>
      </trkpt>
      <trkpt lat="52.029621982946992" lon="-9.488812023773789">
        <ele>28.5</ele>
        <time>2026-06-29T04:33:05Z</time>
      </trkpt>
      <trkpt lat="52.028938019648194" lon="-9.488416984677315">
        <ele>28.98</ele>
        <time>2026-06-29T04:33:09Z</time>
      </trkpt>
      <trkpt lat="52.028767028823495" lon="-9.488379014655948">
        <ele>29.460000000000001</ele>
        <time>2026-06-29T04:33:10Z</time>
      </trkpt>
      <trkpt lat="52.028594026342034" lon="-9.488379014655948">
        <ele>29.460000000000001</ele>
        <time>2026-06-29T04:33:11Z</time>
      </trkpt>
      <trkpt lat="52.028418006375432" lon="-9.488394018262625">
        <ele>29.940000000000001</ele>
        <time>2026-06-29T04:33:12Z</time>
      </trkpt>
      <trkpt lat="52.028239974752069" lon="-9.488409021869302">
        <ele>29.940000000000001</ele>
        <time>2026-06-29T04:33:13Z</time>
      </trkpt>
      <trkpt lat="52.027883995324373" lon="-9.488408016040921">
        <ele>29.940000000000001</ele>
        <time>2026-06-29T04:33:15Z</time>
      </trkpt>
      <trkpt lat="52.027715016156435" lon="-9.488357976078987">
        <ele>29.940000000000001</ele>
        <time>2026-06-29T04:33:16Z</time>
      </trkpt>
      <trkpt lat="52.027557017281651" lon="-9.488309025764465">
        <ele>29.940000000000001</ele>
        <time>2026-06-29T04:33:17Z</time>
      </trkpt>
      <trkpt lat="52.027412010356784" lon="-9.48825697414577">
        <ele>29.460000000000001</ele>
        <time>2026-06-29T04:33:18Z</time>
      </trkpt>
      <trkpt lat="52.027285024523735" lon="-9.488227972760797">
        <ele>28.98</ele>
        <time>2026-06-29T04:33:19Z</time>
      </trkpt>
      <trkpt lat="52.027159966528416" lon="-9.48829703964293">
        <ele>28.98</ele>
        <time>2026-06-29T04:33:20Z</time>
      </trkpt>
      <trkpt lat="52.02703800983727" lon="-9.488420002162457">
        <ele>28.98</ele>
        <time>2026-06-29T04:33:21Z</time>
      </trkpt>
      <trkpt lat="52.026905994862318" lon="-9.488571966066957">
        <ele>28.98</ele>
        <time>2026-06-29T04:33:22Z</time>
      </trkpt>
      <trkpt lat="52.026764005422592" lon="-9.488713033497334">
        <ele>28.98</ele>
        <time>2026-06-29T04:33:23Z</time>
      </trkpt>
      <trkpt lat="52.026601983234286" lon="-9.488829039037228">
        <ele>28.5</ele>
        <time>2026-06-29T04:33:24Z</time>
      </trkpt>
      <trkpt lat="52.025955989956856" lon="-9.489317033439875">
        <ele>27.530000000000001</ele>
        <time>2026-06-29T04:33:28Z</time>
      </trkpt>
      <trkpt lat="52.024920992553234" lon="-9.490077020600438">
        <ele>26.09</ele>
        <time>2026-06-29T04:33:35Z</time>
      </trkpt>
      <trkpt lat="52.023507971316576" lon="-9.49124202132225">
        <ele>28.02</ele>
        <time>2026-06-29T04:33:44Z</time>
      </trkpt>
      <trkpt lat="52.022259989753366" lon="-9.492786973714829">
        <ele>27.530000000000001</ele>
        <time>2026-06-29T04:33:52Z</time>
      </trkpt>
      <trkpt lat="52.021939968690276" lon="-9.49309098534286">
        <ele>28.5</ele>
        <time>2026-06-29T04:33:54Z</time>
      </trkpt>
      <trkpt lat="52.02158197760582" lon="-9.493289971724153">
        <ele>30.899999999999999</ele>
        <time>2026-06-29T04:33:56Z</time>
      </trkpt>
      <trkpt lat="52.021397994831204" lon="-9.49336800724268">
        <ele>31.859999999999999</ele>
        <time>2026-06-29T04:33:57Z</time>
      </trkpt>
      <trkpt lat="52.021208982914686" lon="-9.493397008627653">
        <ele>32.340000000000003</ele>
        <time>2026-06-29T04:33:58Z</time>
      </trkpt>
      <trkpt lat="52.019348032772541" lon="-9.493676964193583">
        <ele>38.109999999999999</ele>
        <time>2026-06-29T04:34:08Z</time>
      </trkpt>
      <trkpt lat="52.017912967130542" lon="-9.493914004415274">
        <ele>41.950000000000003</ele>
        <time>2026-06-29T04:34:16Z</time>
      </trkpt>
      <trkpt lat="52.015996025875211" lon="-9.494239976629615">
        <ele>42.920000000000002</ele>
        <time>2026-06-29T04:34:26Z</time>
      </trkpt>
      <trkpt lat="52.015026994049549" lon="-9.494495037943125">
        <ele>45.32</ele>
        <time>2026-06-29T04:34:31Z</time>
      </trkpt>
      <trkpt lat="52.014853991568089" lon="-9.494581036269665">
        <ele>46.280000000000001</ele>
        <time>2026-06-29T04:34:32Z</time>
      </trkpt>
      <trkpt lat="52.014692975208163" lon="-9.494662005454302">
        <ele>47.240000000000002</ele>
        <time>2026-06-29T04:34:33Z</time>
      </trkpt>
      <trkpt lat="52.014554003253579" lon="-9.494755966588855">
        <ele>47.719999999999999</ele>
        <time>2026-06-29T04:34:34Z</time>
      </trkpt>
      <trkpt lat="52.01444998383522" lon="-9.494908014312387">
        <ele>48.68</ele>
        <time>2026-06-29T04:34:35Z</time>
      </trkpt>
      <trkpt lat="52.014342024922371" lon="-9.495068024843931">
        <ele>49.159999999999997</ele>
        <time>2026-06-29T04:34:36Z</time>
      </trkpt>
      <trkpt lat="52.014231970533729" lon="-9.495229963213205">
        <ele>49.159999999999997</ele>
        <time>2026-06-29T04:34:37Z</time>
      </trkpt>
      <trkpt lat="52.014116970822215" lon="-9.495399026200175">
        <ele>49.159999999999997</ele>
        <time>2026-06-29T04:34:38Z</time>
      </trkpt>
      <trkpt lat="52.013147016987205" lon="-9.496829984709621">
        <ele>48.200000000000003</ele>
        <time>2026-06-29T04:34:45Z</time>
      </trkpt>
      <trkpt lat="52.012234982103109" lon="-9.498261027038097">
        <ele>47.240000000000002</ele>
        <time>2026-06-29T04:34:51Z</time>
      </trkpt>
      <trkpt lat="52.011528974398971" lon="-9.499414963647723">
        <ele>45.799999999999997</ele>
        <time>2026-06-29T04:34:56Z</time>
      </trkpt>
      <trkpt lat="52.011405006051064" lon="-9.499634988605976">
        <ele>45.799999999999997</ele>
        <time>2026-06-29T04:34:57Z</time>
      </trkpt>
      <trkpt lat="52.010907037183642" lon="-9.500500001013279">
        <ele>44.359999999999999</ele>
        <time>2026-06-29T04:35:01Z</time>
      </trkpt>
      <trkpt lat="52.010643007233739" lon="-9.500907026231289">
        <ele>43.880000000000003</ele>
        <time>2026-06-29T04:35:03Z</time>
      </trkpt>
      <trkpt lat="52.010488025844097" lon="-9.501051027327776">
        <ele>43.399999999999999</ele>
        <time>2026-06-29T04:35:04Z</time>
      </trkpt>
      <trkpt lat="52.00944397598505" lon="-9.501744965091348">
        <ele>41.950000000000003</ele>
        <time>2026-06-29T04:35:10Z</time>
      </trkpt>
      <trkpt lat="52.008295990526676" lon="-9.50256303884089">
        <ele>38.109999999999999</ele>
        <time>2026-06-29T04:35:17Z</time>
      </trkpt>
      <trkpt lat="52.00727297924459" lon="-9.503655033186078">
        <ele>38.109999999999999</ele>
        <time>2026-06-29T04:35:24Z</time>
      </trkpt>
      <trkpt lat="52.006679959595203" lon="-9.504854986444116">
        <ele>38.590000000000003</ele>
        <time>2026-06-29T04:35:29Z</time>
      </trkpt>
      <trkpt lat="52.006575018167496" lon="-9.505096971988678">
        <ele>38.590000000000003</ele>
        <time>2026-06-29T04:35:30Z</time>
      </trkpt>
      <trkpt lat="52.00617897324264" lon="-9.50600297190249">
        <ele>37.630000000000003</ele>
        <time>2026-06-29T04:35:34Z</time>
      </trkpt>
      <trkpt lat="52.006092974916101" lon="-9.506213022395968">
        <ele>37.630000000000003</ele>
        <time>2026-06-29T04:35:35Z</time>
      </trkpt>
      <trkpt lat="52.005647979676723" lon="-9.507880015298724">
        <ele>38.109999999999999</ele>
        <time>2026-06-29T04:35:42Z</time>
      </trkpt>
      <trkpt lat="52.005514958873391" lon="-9.508719965815544">
        <ele>38.590000000000003</ele>
        <time>2026-06-29T04:35:45Z</time>
      </trkpt>
      <trkpt lat="52.005471037700772" lon="-9.508994976058602">
        <ele>38.590000000000003</ele>
        <time>2026-06-29T04:35:46Z</time>
      </trkpt>
      <trkpt lat="52.005151016637683" lon="-9.510673033073545">
        <ele>39.549999999999997</ele>
        <time>2026-06-29T04:35:52Z</time>
      </trkpt>
      <trkpt lat="52.005092008039355" lon="-9.510919963940978">
        <ele>40.030000000000001</ele>
        <time>2026-06-29T04:35:53Z</time>
      </trkpt>
      <trkpt lat="52.00503702275455" lon="-9.511186005547643">
        <ele>40.990000000000002</ele>
        <time>2026-06-29T04:35:54Z</time>
      </trkpt>
      <trkpt lat="52.004997963085771" lon="-9.511457998305559">
        <ele>40.990000000000002</ele>
        <time>2026-06-29T04:35:55Z</time>
      </trkpt>
      <trkpt lat="52.004960998892784" lon="-9.511719010770321">
        <ele>41.469999999999999</ele>
        <time>2026-06-29T04:35:56Z</time>
      </trkpt>
      <trkpt lat="52.004852034151554" lon="-9.512710003182292">
        <ele>41.950000000000003</ele>
        <time>2026-06-29T04:36:00Z</time>
      </trkpt>
      <trkpt lat="52.004845999181271" lon="-9.512983001768589">
        <ele>42.439999999999998</ele>
        <time>2026-06-29T04:36:01Z</time>
      </trkpt>
      <trkpt lat="52.004786990582943" lon="-9.515411993488669">
        <ele>40.509999999999998</ele>
        <time>2026-06-29T04:36:09Z</time>
      </trkpt>
      <trkpt lat="52.004730999469757" lon="-9.516291003674269">
        <ele>37.630000000000003</ele>
        <time>2026-06-29T04:36:12Z</time>
      </trkpt>
      <trkpt lat="52.004718007519841" lon="-9.516801964491606">
        <ele>36.670000000000002</ele>
        <time>2026-06-29T04:36:14Z</time>
      </trkpt>
      <trkpt lat="52.004749020561576" lon="-9.517060965299606">
        <ele>36.189999999999998</ele>
        <time>2026-06-29T04:36:15Z</time>
      </trkpt>
      <trkpt lat="52.004781039431691" lon="-9.517330024391413">
        <ele>35.710000000000001</ele>
        <time>2026-06-29T04:36:16Z</time>
      </trkpt>
      <trkpt lat="52.004812974482775" lon="-9.517600005492568">
        <ele>35.710000000000001</ele>
        <time>2026-06-29T04:36:17Z</time>
      </trkpt>
      <trkpt lat="52.004842981696129" lon="-9.517850959673524">
        <ele>35.229999999999997</ele>
        <time>2026-06-29T04:36:18Z</time>
      </trkpt>
      <trkpt lat="52.004871983081102" lon="-9.518095040693879">
        <ele>34.740000000000002</ele>
        <time>2026-06-29T04:36:19Z</time>
      </trkpt>
      <trkpt lat="52.004879023879766" lon="-9.518348006531596">
        <ele>33.780000000000001</ele>
        <time>2026-06-29T04:36:20Z</time>
      </trkpt>
      <trkpt lat="52.004950018599629" lon="-9.520416995510459">
        <ele>32.82</ele>
        <time>2026-06-29T04:36:28Z</time>
      </trkpt>
      <trkpt lat="52.005001986399293" lon="-9.520611958578229">
        <ele>33.299999999999997</ele>
        <time>2026-06-29T04:36:29Z</time>
      </trkpt>
      <trkpt lat="52.005064012482762" lon="-9.520818991586566">
        <ele>33.299999999999997</ele>
        <time>2026-06-29T04:36:30Z</time>
      </trkpt>
      <trkpt lat="52.005128972232342" lon="-9.521032981574535">
        <ele>33.780000000000001</ele>
        <time>2026-06-29T04:36:31Z</time>
      </trkpt>
      <trkpt lat="52.005184963345528" lon="-9.521250994876027">
        <ele>34.259999999999998</ele>
        <time>2026-06-29T04:36:32Z</time>
      </trkpt>
      <trkpt lat="52.005213964730501" lon="-9.521505972370505">
        <ele>34.740000000000002</ele>
        <time>2026-06-29T04:36:33Z</time>
      </trkpt>
      <trkpt lat="52.00529501773417" lon="-9.522241987287998">
        <ele>36.189999999999998</ele>
        <time>2026-06-29T04:36:36Z</time>
      </trkpt>
      <trkpt lat="52.005343968048692" lon="-9.522682037204504">
        <ele>37.149999999999999</ele>
        <time>2026-06-29T04:36:38Z</time>
      </trkpt>
      <trkpt lat="52.005327036604285" lon="-9.523328030481935">
        <ele>37.630000000000003</ele>
        <time>2026-06-29T04:36:41Z</time>
      </trkpt>
      <trkpt lat="52.005096031352878" lon="-9.525322001427412">
        <ele>39.549999999999997</ele>
        <time>2026-06-29T04:36:48Z</time>
      </trkpt>
      <trkpt lat="52.004858991131186" lon="-9.526942977681756">
        <ele>41.469999999999999</ele>
        <time>2026-06-29T04:36:54Z</time>
      </trkpt>
      <trkpt lat="52.004866031929851" lon="-9.527198961004615">
        <ele>41.950000000000003</ele>
        <time>2026-06-29T04:36:55Z</time>
      </trkpt>
      <trkpt lat="52.004853961989284" lon="-9.528998974710703">
        <ele>42.920000000000002</ele>
        <time>2026-06-29T04:37:02Z</time>
      </trkpt>
      <trkpt lat="52.004737034440041" lon="-9.530293978750706">
        <ele>42.920000000000002</ele>
        <time>2026-06-29T04:37:07Z</time>
      </trkpt>
      <trkpt lat="52.004755977541208" lon="-9.530576029792428">
        <ele>42.920000000000002</ele>
        <time>2026-06-29T04:37:08Z</time>
      </trkpt>
      <trkpt lat="52.004775004461408" lon="-9.530862020328641">
        <ele>42.439999999999998</ele>
        <time>2026-06-29T04:37:09Z</time>
      </trkpt>
      <trkpt lat="52.005019001662731" lon="-9.53287803567946">
        <ele>44.840000000000003</ele>
        <time>2026-06-29T04:37:16Z</time>
      </trkpt>
      <trkpt lat="52.005243971943855" lon="-9.534968985244632">
        <ele>44.840000000000003</ele>
        <time>2026-06-29T04:37:24Z</time>
      </trkpt>
      <trkpt lat="52.005243971943855" lon="-9.535228991881013">
        <ele>44.359999999999999</ele>
        <time>2026-06-29T04:37:25Z</time>
      </trkpt>
      <trkpt lat="52.005268028005958" lon="-9.535984033718705">
        <ele>42.920000000000002</ele>
        <time>2026-06-29T04:37:28Z</time>
      </trkpt>
      <trkpt lat="52.005304992198944" lon="-9.53621000982821">
        <ele>43.399999999999999</ele>
        <time>2026-06-29T04:37:29Z</time>
      </trkpt>
      <trkpt lat="52.005377998575568" lon="-9.536690041422844">
        <ele>43.399999999999999</ele>
        <time>2026-06-29T04:37:31Z</time>
      </trkpt>
      <trkpt lat="52.005398031324148" lon="-9.536948036402464">
        <ele>42.920000000000002</ele>
        <time>2026-06-29T04:37:32Z</time>
      </trkpt>
      <trkpt lat="52.005417980253696" lon="-9.537207037210465">
        <ele>42.439999999999998</ele>
        <time>2026-06-29T04:37:33Z</time>
      </trkpt>
      <trkpt lat="52.005459973588586" lon="-9.537734007462859">
        <ele>41.469999999999999</ele>
        <time>2026-06-29T04:37:35Z</time>
      </trkpt>
      <trkpt lat="52.005500961095095" lon="-9.539914978668094">
        <ele>38.109999999999999</ele>
        <time>2026-06-29T04:37:43Z</time>
      </trkpt>
      <trkpt lat="52.005472965538502" lon="-9.54044102691114">
        <ele>37.149999999999999</ele>
        <time>2026-06-29T04:37:45Z</time>
      </trkpt>
      <trkpt lat="52.005432983860373" lon="-9.54067999497056">
        <ele>36.189999999999998</ele>
        <time>2026-06-29T04:37:46Z</time>
      </trkpt>
      <trkpt lat="52.005390990525484" lon="-9.540929021313787">
        <ele>35.710000000000001</ele>
        <time>2026-06-29T04:37:47Z</time>
      </trkpt>
      <trkpt lat="52.005107011646032" lon="-9.543249970301986">
        <ele>32.340000000000003</ele>
        <time>2026-06-29T04:37:56Z</time>
      </trkpt>
      <trkpt lat="52.005062000826001" lon="-9.543487010523677">
        <ele>31.859999999999999</ele>
        <time>2026-06-29T04:37:57Z</time>
      </trkpt>
      <trkpt lat="52.00499402359128" lon="-9.543703012168407">
        <ele>31.379999999999999</ele>
        <time>2026-06-29T04:37:58Z</time>
      </trkpt>
      <trkpt lat="52.004906013607979" lon="-9.543891018256545">
        <ele>30.899999999999999</ele>
        <time>2026-06-29T04:37:59Z</time>
      </trkpt>
      <trkpt lat="52.004800988361239" lon="-9.544066032394767">
        <ele>30.899999999999999</ele>
        <time>2026-06-29T04:38:00Z</time>
      </trkpt>
      <trkpt lat="52.004677020013332" lon="-9.544197963550687">
        <ele>30.899999999999999</ele>
        <time>2026-06-29T04:38:01Z</time>
      </trkpt>
      <trkpt lat="52.004536958411336" lon="-9.544320004060864">
        <ele>31.379999999999999</ele>
        <time>2026-06-29T04:38:02Z</time>
      </trkpt>
      <trkpt lat="52.0043920353055" lon="-9.54443802125752">
        <ele>31.859999999999999</ele>
        <time>2026-06-29T04:38:03Z</time>
      </trkpt>
      <trkpt lat="52.004236970096827" lon="-9.544534999877214">
        <ele>31.859999999999999</ele>
        <time>2026-06-29T04:38:04Z</time>
      </trkpt>
      <trkpt lat="52.003288976848125" lon="-9.545073034241796">
        <ele>32.340000000000003</ele>
        <time>2026-06-29T04:38:10Z</time>
      </trkpt>
      <trkpt lat="52.003126032650471" lon="-9.545093988999724">
        <ele>32.340000000000003</ele>
        <time>2026-06-29T04:38:11Z</time>
      </trkpt>
      <trkpt lat="52.001574961468577" lon="-9.545294987037778">
        <ele>31.859999999999999</ele>
        <time>2026-06-29T04:38:20Z</time>
      </trkpt>
      <trkpt lat="52.001414028927684" lon="-9.545361958444119">
        <ele>32.340000000000003</ele>
        <time>2026-06-29T04:38:21Z</time>
      </trkpt>
      <trkpt lat="52.001280002295971" lon="-9.545446028932929">
        <ele>32.82</ele>
        <time>2026-06-29T04:38:22Z</time>
      </trkpt>
      <trkpt lat="52.001159973442554" lon="-9.545583995059133">
        <ele>32.82</ele>
        <time>2026-06-29T04:38:23Z</time>
      </trkpt>
      <trkpt lat="52.001036005094647" lon="-9.54572799615562">
        <ele>32.82</ele>
        <time>2026-06-29T04:38:24Z</time>
      </trkpt>
      <trkpt lat="52.000919999554753" lon="-9.545931005850434">
        <ele>32.82</ele>
        <time>2026-06-29T04:38:25Z</time>
      </trkpt>
      <trkpt lat="52.000435022637248" lon="-9.546797024086118">
        <ele>31.379999999999999</ele>
        <time>2026-06-29T04:38:29Z</time>
      </trkpt>
      <trkpt lat="52.000338966026902" lon="-9.547055019065738">
        <ele>30.899999999999999</ele>
        <time>2026-06-29T04:38:30Z</time>
      </trkpt>
      <trkpt lat="52.000238969922066" lon="-9.547320976853371">
        <ele>30.899999999999999</ele>
        <time>2026-06-29T04:38:31Z</time>
      </trkpt>
      <trkpt lat="51.999411005526781" lon="-9.5491430349648">
        <ele>29.940000000000001</ele>
        <time>2026-06-29T04:38:39Z</time>
      </trkpt>
      <trkpt lat="51.999190980568528" lon="-9.549503037706018">
        <ele>31.379999999999999</ele>
        <time>2026-06-29T04:38:41Z</time>
      </trkpt>
      <trkpt lat="51.999056031927466" lon="-9.549633963033557">
        <ele>31.859999999999999</ele>
        <time>2026-06-29T04:38:42Z</time>
      </trkpt>
      <trkpt lat="51.997978035360575" lon="-9.550487995147705">
        <ele>29.940000000000001</ele>
        <time>2026-06-29T04:38:49Z</time>
      </trkpt>
      <trkpt lat="51.997817019000649" lon="-9.550533005967736">
        <ele>29.940000000000001</ele>
        <time>2026-06-29T04:38:50Z</time>
      </trkpt>
      <trkpt lat="51.99766899459064" lon="-9.550573993474245">
        <ele>29.460000000000001</ele>
        <time>2026-06-29T04:38:51Z</time>
      </trkpt>
      <trkpt lat="51.997491968795657" lon="-9.550524959340692">
        <ele>28.98</ele>
        <time>2026-06-29T04:38:52Z</time>
      </trkpt>
      <trkpt lat="51.9973239954561" lon="-9.550479026511312">
        <ele>28.5</ele>
        <time>2026-06-29T04:38:53Z</time>
      </trkpt>
      <trkpt lat="51.997157027944922" lon="-9.5504330098629">
        <ele>28.02</ele>
        <time>2026-06-29T04:38:54Z</time>
      </trkpt>
      <trkpt lat="51.99700296856463" lon="-9.55039101652801">
        <ele>27.530000000000001</ele>
        <time>2026-06-29T04:38:55Z</time>
      </trkpt>
      <trkpt lat="51.9968749769032" lon="-9.550358997657895">
        <ele>28.02</ele>
        <time>2026-06-29T04:38:56Z</time>
      </trkpt>
      <trkpt lat="51.996747991070151" lon="-9.55039101652801">
        <ele>28.5</ele>
        <time>2026-06-29T04:38:57Z</time>
      </trkpt>
      <trkpt lat="51.996649000793695" lon="-9.550467040389776">
        <ele>28.98</ele>
        <time>2026-06-29T04:38:58Z</time>
      </trkpt>
      <trkpt lat="51.99655001051724" lon="-9.550582962110639">
        <ele>29.460000000000001</ele>
        <time>2026-06-29T04:38:59Z</time>
      </trkpt>
      <trkpt lat="51.996438028290868" lon="-9.55071497708559">
        <ele>29.940000000000001</ele>
        <time>2026-06-29T04:39:00Z</time>
      </trkpt>
      <trkpt lat="51.99631498195231" lon="-9.550858978182077">
        <ele>30.420000000000002</ele>
        <time>2026-06-29T04:39:01Z</time>
      </trkpt>
      <trkpt lat="51.996179027482867" lon="-9.551000967621803">
        <ele>30.899999999999999</ele>
        <time>2026-06-29T04:39:02Z</time>
      </trkpt>
      <trkpt lat="51.996031003072858" lon="-9.551096018403769">
        <ele>30.899999999999999</ele>
        <time>2026-06-29T04:39:03Z</time>
      </trkpt>
      <trkpt lat="51.995895970612764" lon="-9.551182016730309">
        <ele>31.379999999999999</ele>
        <time>2026-06-29T04:39:04Z</time>
      </trkpt>
      <trkpt lat="51.99577602557838" lon="-9.551258040592074">
        <ele>32.340000000000003</ele>
        <time>2026-06-29T04:39:05Z</time>
      </trkpt>
      <trkpt lat="51.995655996724963" lon="-9.55127103254199">
        <ele>32.340000000000003</ele>
        <time>2026-06-29T04:39:06Z</time>
      </trkpt>
      <trkpt lat="51.995526999235153" lon="-9.551255023106933">
        <ele>32.82</ele>
        <time>2026-06-29T04:39:07Z</time>
      </trkpt>
      <trkpt lat="51.994196036830544" lon="-9.551070034503937">
        <ele>40.990000000000002</ele>
        <time>2026-06-29T04:39:16Z</time>
      </trkpt>
      <trkpt lat="51.993592036888003" lon="-9.550916980952025">
        <ele>43.880000000000003</ele>
        <time>2026-06-29T04:39:21Z</time>
      </trkpt>
      <trkpt lat="51.993442000821233" lon="-9.551032986491919">
        <ele>43.880000000000003</ele>
        <time>2026-06-29T04:39:22Z</time>
      </trkpt>
      <trkpt lat="51.993195991963148" lon="-9.551317971199751">
        <ele>43.399999999999999</ele>
        <time>2026-06-29T04:39:24Z</time>
      </trkpt>
      <trkpt lat="51.99307101778686" lon="-9.551517041400075">
        <ele>43.399999999999999</ele>
        <time>2026-06-29T04:39:25Z</time>
      </trkpt>
      <trkpt lat="51.992940008640289" lon="-9.551726002246141">
        <ele>42.920000000000002</ele>
        <time>2026-06-29T04:39:26Z</time>
      </trkpt>
      <trkpt lat="51.992688970640302" lon="-9.552124980837107">
        <ele>41.950000000000003</ele>
        <time>2026-06-29T04:39:28Z</time>
      </trkpt>
      <trkpt lat="51.991776013746858" lon="-9.55311899073422">
        <ele>37.630000000000003</ele>
        <time>2026-06-29T04:39:35Z</time>
      </trkpt>
      <trkpt lat="51.990760965272784" lon="-9.554091962054372">
        <ele>32.340000000000003</ele>
        <time>2026-06-29T04:39:42Z</time>
      </trkpt>
      <trkpt lat="51.989231016486883" lon="-9.556275028735399">
        <ele>27.050000000000001</ele>
        <time>2026-06-29T04:39:53Z</time>
      </trkpt>
      <trkpt lat="51.988217979669571" lon="-9.557807995006442">
        <ele>27.050000000000001</ele>
        <time>2026-06-29T04:40:01Z</time>
      </trkpt>
      <trkpt lat="51.987524963915348" lon="-9.558808039873838">
        <ele>27.530000000000001</ele>
        <time>2026-06-29T04:40:06Z</time>
      </trkpt>
      <trkpt lat="51.987378029152751" lon="-9.558954974636436">
        <ele>27.530000000000001</ele>
        <time>2026-06-29T04:40:07Z</time>
      </trkpt>
      <trkpt lat="51.987233022227883" lon="-9.559100987389684">
        <ele>28.02</ele>
        <time>2026-06-29T04:40:08Z</time>
      </trkpt>
      <trkpt lat="51.985870040953159" lon="-9.56055298447609">
        <ele>29.460000000000001</ele>
        <time>2026-06-29T04:40:17Z</time>
      </trkpt>
      <trkpt lat="51.985783036798239" lon="-9.560770997777581">
        <ele>29.940000000000001</ele>
        <time>2026-06-29T04:40:18Z</time>
      </trkpt>
      <trkpt lat="51.985721010714769" lon="-9.560997979715467">
        <ele>30.420000000000002</ele>
        <time>2026-06-29T04:40:19Z</time>
      </trkpt>
      <trkpt lat="51.985671976581216" lon="-9.561235019937158">
        <ele>30.420000000000002</ele>
        <time>2026-06-29T04:40:20Z</time>
      </trkpt>
      <trkpt lat="51.985628977417946" lon="-9.561491003260016">
        <ele>30.420000000000002</ele>
        <time>2026-06-29T04:40:21Z</time>
      </trkpt>
      <trkpt lat="51.985127991065383" lon="-9.56373400054872">
        <ele>32.340000000000003</ele>
        <time>2026-06-29T04:40:29Z</time>
      </trkpt>
      <trkpt lat="51.984660029411316" lon="-9.565180968493223">
        <ele>33.299999999999997</ele>
        <time>2026-06-29T04:40:35Z</time>
      </trkpt>
      <trkpt lat="51.984641002491117" lon="-9.565414991229773">
        <ele>33.299999999999997</ele>
        <time>2026-06-29T04:40:36Z</time>
      </trkpt>
      <trkpt lat="51.984621975570917" lon="-9.565662005916238">
        <ele>32.82</ele>
        <time>2026-06-29T04:40:37Z</time>
      </trkpt>
      <trkpt lat="51.984602026641369" lon="-9.565915977582336">
        <ele>32.82</ele>
        <time>2026-06-29T04:40:38Z</time>
      </trkpt>
      <trkpt lat="51.984550980851054" lon="-9.566163998097181">
        <ele>32.82</ele>
        <time>2026-06-29T04:40:39Z</time>
      </trkpt>
      <trkpt lat="51.984501024708152" lon="-9.566402966156602">
        <ele>33.299999999999997</ele>
        <time>2026-06-29T04:40:40Z</time>
      </trkpt>
      <trkpt lat="51.98445500805974" lon="-9.566630031913519">
        <ele>33.780000000000001</ele>
        <time>2026-06-29T04:40:41Z</time>
      </trkpt>
      <trkpt lat="51.984457019716501" lon="-9.56687000580132">
        <ele>34.259999999999998</ele>
        <time>2026-06-29T04:40:42Z</time>
      </trkpt>
      <trkpt lat="51.984461965039372" lon="-9.567100005224347">
        <ele>34.740000000000002</ele>
        <time>2026-06-29T04:40:43Z</time>
      </trkpt>
      <trkpt lat="51.984468000009656" lon="-9.567322041839361">
        <ele>35.229999999999997</ele>
        <time>2026-06-29T04:40:44Z</time>
      </trkpt>
      <trkpt lat="51.984471017494798" lon="-9.567547012120485">
        <ele>35.710000000000001</ele>
        <time>2026-06-29T04:40:45Z</time>
      </trkpt>
      <trkpt lat="51.984449978917837" lon="-9.567761002108455">
        <ele>35.710000000000001</ele>
        <time>2026-06-29T04:40:46Z</time>
      </trkpt>
      <trkpt lat="51.984432963654399" lon="-9.567945990711451">
        <ele>35.710000000000001</ele>
        <time>2026-06-29T04:40:47Z</time>
      </trkpt>
      <trkpt lat="51.984366998076439" lon="-9.568087980151177">
        <ele>36.189999999999998</ele>
        <time>2026-06-29T04:40:48Z</time>
      </trkpt>
      <trkpt lat="51.984298015013337" lon="-9.568212032318115">
        <ele>36.670000000000002</ele>
        <time>2026-06-29T04:40:49Z</time>
      </trkpt>
      <trkpt lat="51.983844973146915" lon="-9.569015018641949">
        <ele>36.189999999999998</ele>
        <time>2026-06-29T04:40:54Z</time>
      </trkpt>
      <trkpt lat="51.983741959556937" lon="-9.569163965061307">
        <ele>35.710000000000001</ele>
        <time>2026-06-29T04:40:55Z</time>
      </trkpt>
      <trkpt lat="51.983631988987327" lon="-9.569322969764471">
        <ele>35.710000000000001</ele>
        <time>2026-06-29T04:40:56Z</time>
      </trkpt>
      <trkpt lat="51.983393020927906" lon="-9.569660006090999">
        <ele>34.259999999999998</ele>
        <time>2026-06-29T04:40:58Z</time>
      </trkpt>
      <trkpt lat="51.983123039826751" lon="-9.569956976920366">
        <ele>32.82</ele>
        <time>2026-06-29T04:41:00Z</time>
      </trkpt>
      <trkpt lat="51.982993958517909" lon="-9.570097960531712">
        <ele>32.340000000000003</ele>
        <time>2026-06-29T04:41:01Z</time>
      </trkpt>
      <trkpt lat="51.982901003211737" lon="-9.570295019075275">
        <ele>31.379999999999999</ele>
        <time>2026-06-29T04:41:02Z</time>
      </trkpt>
      <trkpt lat="51.982664968818426" lon="-9.570797011256218">
        <ele>30.899999999999999</ele>
        <time>2026-06-29T04:41:05Z</time>
      </trkpt>
      <trkpt lat="51.982575030997396" lon="-9.570879992097616">
        <ele>30.420000000000002</ele>
        <time>2026-06-29T04:41:06Z</time>
      </trkpt>
      <trkpt lat="51.982480986043811" lon="-9.570945035666227">
        <ele>30.420000000000002</ele>
        <time>2026-06-29T04:41:07Z</time>
      </trkpt>
      <trkpt lat="51.982208993285894" lon="-9.571185009554029">
        <ele>28.98</ele>
        <time>2026-06-29T04:41:10Z</time>
      </trkpt>
      <trkpt lat="51.982159959152341" lon="-9.571325993165374">
        <ele>28.5</ele>
        <time>2026-06-29T04:41:11Z</time>
      </trkpt>
      <trkpt lat="51.982114026322961" lon="-9.571502013131976">
        <ele>28.02</ele>
        <time>2026-06-29T04:41:12Z</time>
      </trkpt>
      <trkpt lat="51.982010006904602" lon="-9.571906020864844">
        <ele>26.57</ele>
        <time>2026-06-29T04:41:14Z</time>
      </trkpt>
      <trkpt lat="51.981978993862867" lon="-9.572120010852814">
        <ele>26.57</ele>
        <time>2026-06-29T04:41:15Z</time>
      </trkpt>
      <trkpt lat="51.981887966394424" lon="-9.572797017171979">
        <ele>26.57</ele>
        <time>2026-06-29T04:41:18Z</time>
      </trkpt>
      <trkpt lat="51.98181202635169" lon="-9.573362041264772">
        <ele>28.98</ele>
        <time>2026-06-29T04:41:21Z</time>
      </trkpt>
      <trkpt lat="51.981723010540009" lon="-9.573548035696149">
        <ele>29.460000000000001</ele>
        <time>2026-06-29T04:41:22Z</time>
      </trkpt>
      <trkpt lat="51.981653021648526" lon="-9.573696982115507">
        <ele>29.940000000000001</ele>
        <time>2026-06-29T04:41:23Z</time>
      </trkpt>
      <trkpt lat="51.981561994180083" lon="-9.573823967948556">
        <ele>29.940000000000001</ele>
        <time>2026-06-29T04:41:24Z</time>
      </trkpt>
      <trkpt lat="51.981471972540021" lon="-9.57385397516191">
        <ele>30.420000000000002</ele>
        <time>2026-06-29T04:41:25Z</time>
      </trkpt>
      <trkpt lat="51.981372982263565" lon="-9.573886999860406">
        <ele>30.420000000000002</ele>
        <time>2026-06-29T04:41:26Z</time>
      </trkpt>
      <trkpt lat="51.980959000065923" lon="-9.574009962379932">
        <ele>27.050000000000001</ele>
        <time>2026-06-29T04:41:30Z</time>
      </trkpt>
      <trkpt lat="51.980876019224524" lon="-9.574029995128512">
        <ele>25.609999999999999</ele>
        <time>2026-06-29T04:41:31Z</time>
      </trkpt>
      <trkpt lat="51.980776023119688" lon="-9.574077017605305">
        <ele>24.170000000000002</ele>
        <time>2026-06-29T04:41:32Z</time>
      </trkpt>
      <trkpt lat="51.980669992044568" lon="-9.574181959033012">
        <ele>22.73</ele>
        <time>2026-06-29T04:41:33Z</time>
      </trkpt>
      <trkpt lat="51.980571001768112" lon="-9.574282038956881">
        <ele>21.77</ele>
        <time>2026-06-29T04:41:34Z</time>
      </trkpt>
      <trkpt lat="51.980477040633559" lon="-9.574374994263053">
        <ele>20.809999999999999</ele>
        <time>2026-06-29T04:41:35Z</time>
      </trkpt>
      <trkpt lat="51.980370003730059" lon="-9.574439032003284">
        <ele>19.84</ele>
        <time>2026-06-29T04:41:36Z</time>
      </trkpt>
      <trkpt lat="51.980203036218882" lon="-9.57449896261096">
        <ele>18.399999999999999</ele>
        <time>2026-06-29T04:41:37Z</time>
      </trkpt>
      <trkpt lat="51.980149978771806" lon="-9.574464010074735">
        <ele>17.440000000000001</ele>
        <time>2026-06-29T04:41:38Z</time>
      </trkpt>
      <trkpt lat="51.980046965181828" lon="-9.574396032840014">
        <ele>16.48</ele>
        <time>2026-06-29T04:41:39Z</time>
      </trkpt>
      <trkpt lat="51.979932971298695" lon="-9.574319003149867">
        <ele>16</ele>
        <time>2026-06-29T04:41:40Z</time>
      </trkpt>
      <trkpt lat="51.979821994900703" lon="-9.574274998158217">
        <ele>15.52</ele>
        <time>2026-06-29T04:41:41Z</time>
      </trkpt>
      <trkpt lat="51.979700038209558" lon="-9.574253037571907">
        <ele>15.52</ele>
        <time>2026-06-29T04:41:42Z</time>
      </trkpt>
      <trkpt lat="51.979489987716079" lon="-9.574216995388269">
        <ele>16</ele>
        <time>2026-06-29T04:41:44Z</time>
      </trkpt>
      <trkpt lat="51.979360990226269" lon="-9.574156980961561">
        <ele>16.48</ele>
        <time>2026-06-29T04:41:45Z</time>
      </trkpt>
      <trkpt lat="51.979294018819928" lon="-9.574052961543202">
        <ele>16.48</ele>
        <time>2026-06-29T04:41:46Z</time>
      </trkpt>
      <trkpt lat="51.979226041585207" lon="-9.573945002630353">
        <ele>16.960000000000001</ele>
        <time>2026-06-29T04:41:47Z</time>
      </trkpt>
      <trkpt lat="51.979153035208583" lon="-9.57383100874722">
        <ele>16.48</ele>
        <time>2026-06-29T04:41:48Z</time>
      </trkpt>
      <trkpt lat="51.979086985811591" lon="-9.573726989328861">
        <ele>16</ele>
        <time>2026-06-29T04:41:49Z</time>
      </trkpt>
      <trkpt lat="51.979000987485051" lon="-9.573683990165591">
        <ele>15.52</ele>
        <time>2026-06-29T04:41:50Z</time>
      </trkpt>
      <trkpt lat="51.978893028572202" lon="-9.573683990165591">
        <ele>15.039999999999999</ele>
        <time>2026-06-29T04:41:51Z</time>
      </trkpt>
      <trkpt lat="51.978776017203927" lon="-9.573717014864087">
        <ele>14.56</ele>
        <time>2026-06-29T04:41:52Z</time>
      </trkpt>
      <trkpt lat="51.978658000007272" lon="-9.573791027069092">
        <ele>14.08</ele>
        <time>2026-06-29T04:41:53Z</time>
      </trkpt>
      <trkpt lat="51.978594968095422" lon="-9.573924969881773">
        <ele>14.08</ele>
        <time>2026-06-29T04:41:54Z</time>
      </trkpt>
      <trkpt lat="51.978507963940501" lon="-9.574112975969911">
        <ele>13.6</ele>
        <time>2026-06-29T04:41:55Z</time>
      </trkpt>
      <trkpt lat="51.978454990312457" lon="-9.574308022856712">
        <ele>13.119999999999999</ele>
        <time>2026-06-29T04:41:56Z</time>
      </trkpt>
      <trkpt lat="51.97803296148777" lon="-9.575729006901383">
        <ele>18.399999999999999</ele>
        <time>2026-06-29T04:42:03Z</time>
      </trkpt>
      <trkpt lat="51.977960960939527" lon="-9.575919024646282">
        <ele>19.359999999999999</ele>
        <time>2026-06-29T04:42:04Z</time>
      </trkpt>
      <trkpt lat="51.977586960420012" lon="-9.576647998765111">
        <ele>21.289999999999999</ele>
        <time>2026-06-29T04:42:08Z</time>
      </trkpt>
      <trkpt lat="51.977483024820685" lon="-9.576743971556425">
        <ele>21.289999999999999</ele>
        <time>2026-06-29T04:42:09Z</time>
      </trkpt>
      <trkpt lat="51.977394009009004" lon="-9.576807003468275">
        <ele>21.289999999999999</ele>
        <time>2026-06-29T04:42:10Z</time>
      </trkpt>
      <trkpt lat="51.977304993197322" lon="-9.576836004853249">
        <ele>21.77</ele>
        <time>2026-06-29T04:42:11Z</time>
      </trkpt>
      <trkpt lat="51.977190999314189" lon="-9.576828964054585">
        <ele>21.77</ele>
        <time>2026-06-29T04:42:12Z</time>
      </trkpt>
      <trkpt lat="51.977055966854095" lon="-9.576821001246572">
        <ele>21.289999999999999</ele>
        <time>2026-06-29T04:42:13Z</time>
      </trkpt>
      <trkpt lat="51.976349959149957" lon="-9.576781019568443">
        <ele>20.809999999999999</ele>
        <time>2026-06-29T04:42:18Z</time>
      </trkpt>
      <trkpt lat="51.976220039650798" lon="-9.576783031225205">
        <ele>21.289999999999999</ele>
        <time>2026-06-29T04:42:19Z</time>
      </trkpt>
      <trkpt lat="51.976100010797381" lon="-9.576869029551745">
        <ele>21.77</ele>
        <time>2026-06-29T04:42:20Z</time>
      </trkpt>
      <trkpt lat="51.975974030792713" lon="-9.576958967372775">
        <ele>22.73</ele>
        <time>2026-06-29T04:42:21Z</time>
      </trkpt>
      <trkpt lat="51.975843021646142" lon="-9.577052006497979">
        <ele>23.210000000000001</ele>
        <time>2026-06-29T04:42:22Z</time>
      </trkpt>
      <trkpt lat="51.975589971989393" lon="-9.57728804089129">
        <ele>23.210000000000001</ele>
        <time>2026-06-29T04:42:24Z</time>
      </trkpt>
      <trkpt lat="51.975472960621119" lon="-9.577444028109312">
        <ele>23.690000000000001</ele>
        <time>2026-06-29T04:42:25Z</time>
      </trkpt>
      <trkpt lat="51.97416203096509" lon="-9.579444034025073">
        <ele>32.340000000000003</ele>
        <time>2026-06-29T04:42:36Z</time>
      </trkpt>
      <trkpt lat="51.973673030734062" lon="-9.580086003988981">
        <ele>34.740000000000002</ele>
        <time>2026-06-29T04:42:40Z</time>
      </trkpt>
      <trkpt lat="51.972366962581873" lon="-9.581224014982581">
        <ele>38.590000000000003</ele>
        <time>2026-06-29T04:42:49Z</time>
      </trkpt>
      <trkpt lat="51.972089018672705" lon="-9.58145996555686">
        <ele>39.549999999999997</ele>
        <time>2026-06-29T04:42:51Z</time>
      </trkpt>
      <trkpt lat="51.971827000379562" lon="-9.581592986360192">
        <ele>40.509999999999998</ele>
        <time>2026-06-29T04:42:53Z</time>
      </trkpt>
      <trkpt lat="51.971712000668049" lon="-9.581644032150507">
        <ele>41.469999999999999</ele>
        <time>2026-06-29T04:42:54Z</time>
      </trkpt>
      <trkpt lat="51.971609992906451" lon="-9.581650989130139">
        <ele>41.950000000000003</ele>
        <time>2026-06-29T04:42:55Z</time>
      </trkpt>
      <trkpt lat="51.971529023721814" lon="-9.581628022715449">
        <ele>42.439999999999998</ele>
        <time>2026-06-29T04:42:56Z</time>
      </trkpt>
      <trkpt lat="51.971483007073402" lon="-9.581557027995586">
        <ele>43.399999999999999</ele>
        <time>2026-06-29T04:42:57Z</time>
      </trkpt>
      <trkpt lat="51.971431039273739" lon="-9.581440016627312">
        <ele>44.359999999999999</ele>
        <time>2026-06-29T04:42:58Z</time>
      </trkpt>
      <trkpt lat="51.971369013190269" lon="-9.581300960853696">
        <ele>45.799999999999997</ele>
        <time>2026-06-29T04:42:59Z</time>
      </trkpt>
      <trkpt lat="51.971277985721827" lon="-9.581188978627324">
        <ele>46.280000000000001</ele>
        <time>2026-06-29T04:43:00Z</time>
      </trkpt>
      <trkpt lat="51.971147982403636" lon="-9.581086970865727">
        <ele>47.240000000000002</ele>
        <time>2026-06-29T04:43:01Z</time>
      </trkpt>
      <trkpt lat="51.971062989905477" lon="-9.581113960593939">
        <ele>48.200000000000003</ele>
        <time>2026-06-29T04:43:02Z</time>
      </trkpt>
      <trkpt lat="51.97094002738595" lon="-9.581153020262718">
        <ele>49.159999999999997</ele>
        <time>2026-06-29T04:43:03Z</time>
      </trkpt>
      <trkpt lat="51.970804994925857" lon="-9.581196019425988">
        <ele>50.130000000000003</ele>
        <time>2026-06-29T04:43:04Z</time>
      </trkpt>
      <trkpt lat="51.970516992732882" lon="-9.581286963075399">
        <ele>52.049999999999997</ele>
        <time>2026-06-29T04:43:06Z</time>
      </trkpt>
      <trkpt lat="51.970078032463789" lon="-9.581400034949184">
        <ele>54.93</ele>
        <time>2026-06-29T04:43:09Z</time>
      </trkpt>
      <trkpt lat="51.969774020835757" lon="-9.581429958343506">
        <ele>56.859999999999999</ele>
        <time>2026-06-29T04:43:11Z</time>
      </trkpt>
      <trkpt lat="51.969624990597367" lon="-9.581485027447343">
        <ele>57.82</ele>
        <time>2026-06-29T04:43:12Z</time>
      </trkpt>
      <trkpt lat="51.969074970111251" lon="-9.581688037142158">
        <ele>62.619999999999997</ele>
        <time>2026-06-29T04:43:16Z</time>
      </trkpt>
      <trkpt lat="51.968962987884879" lon="-9.581729024648666">
        <ele>63.579999999999998</ele>
        <time>2026-06-29T04:43:17Z</time>
      </trkpt>
      <trkpt lat="51.968851005658507" lon="-9.581676973029971">
        <ele>64.549999999999997</ele>
        <time>2026-06-29T04:43:18Z</time>
      </trkpt>
      <trkpt lat="51.968739023432136" lon="-9.581620981916785">
        <ele>65.030000000000001</ele>
        <time>2026-06-29T04:43:19Z</time>
      </trkpt>
      <trkpt lat="51.968633998185396" lon="-9.581568008288741">
        <ele>65.510000000000005</ele>
        <time>2026-06-29T04:43:20Z</time>
      </trkpt>
      <trkpt lat="51.968536013737321" lon="-9.581554010510445">
        <ele>65.989999999999995</ele>
        <time>2026-06-29T04:43:21Z</time>
      </trkpt>
      <trkpt lat="51.96844800375402" lon="-9.581548981368542">
        <ele>65.989999999999995</ele>
        <time>2026-06-29T04:43:22Z</time>
      </trkpt>
      <trkpt lat="51.968365022912621" lon="-9.58154303021729">
        <ele>66.469999999999999</ele>
        <time>2026-06-29T04:43:23Z</time>
      </trkpt>
      <trkpt lat="51.968271983787417" lon="-9.581536995247006">
        <ele>66.950000000000003</ele>
        <time>2026-06-29T04:43:24Z</time>
      </trkpt>
      <trkpt lat="51.968223033472896" lon="-9.581438004970551">
        <ele>67.430000000000007</ele>
        <time>2026-06-29T04:43:25Z</time>
      </trkpt>
      <trkpt lat="51.968162013217807" lon="-9.581315964460373">
        <ele>67.909999999999997</ele>
        <time>2026-06-29T04:43:26Z</time>
      </trkpt>
      <trkpt lat="51.968088001012802" lon="-9.581224014982581">
        <ele>68.390000000000001</ele>
        <time>2026-06-29T04:43:27Z</time>
      </trkpt>
      <trkpt lat="51.968010971322656" lon="-9.581186966970563">
        <ele>69.349999999999994</ele>
        <time>2026-06-29T04:43:28Z</time>
      </trkpt>
      <trkpt lat="51.96793301962316" lon="-9.581230971962214">
        <ele>70.310000000000002</ele>
        <time>2026-06-29T04:43:29Z</time>
      </trkpt>
      <trkpt lat="51.967751970514655" lon="-9.581331973895431">
        <ele>72.239999999999995</ele>
        <time>2026-06-29T04:43:31Z</time>
      </trkpt>
      <trkpt lat="51.967666978016496" lon="-9.581353012472391">
        <ele>73.200000000000003</ele>
        <time>2026-06-29T04:43:32Z</time>
      </trkpt>
      <trkpt lat="51.967606963589787" lon="-9.581323005259037">
        <ele>74.640000000000001</ele>
        <time>2026-06-29T04:43:33Z</time>
      </trkpt>
      <trkpt lat="51.967569999396801" lon="-9.581173975020647">
        <ele>75.120000000000005</ele>
        <time>2026-06-29T04:43:34Z</time>
      </trkpt>
      <trkpt lat="51.967530017718673" lon="-9.581013964489102">
        <ele>76.079999999999998</ele>
        <time>2026-06-29T04:43:35Z</time>
      </trkpt>
      <trkpt lat="51.967515014111996" lon="-9.580822018906474">
        <ele>77.040000000000006</ele>
        <time>2026-06-29T04:43:36Z</time>
      </trkpt>
      <trkpt lat="51.967505039647222" lon="-9.580604005604982">
        <ele>77.519999999999996</ele>
        <time>2026-06-29T04:43:37Z</time>
      </trkpt>
      <trkpt lat="51.967494981363416" lon="-9.580378029495478">
        <ele>78</ele>
        <time>2026-06-29T04:43:38Z</time>
      </trkpt>
      <trkpt lat="51.967486012727022" lon="-9.580155992880464">
        <ele>78.480000000000004</ele>
        <time>2026-06-29T04:43:39Z</time>
      </trkpt>
      <trkpt lat="51.967462040483952" lon="-9.579948037862778">
        <ele>78.969999999999999</ele>
        <time>2026-06-29T04:43:40Z</time>
      </trkpt>
      <trkpt lat="51.967406971380115" lon="-9.579795990139246">
        <ele>78.969999999999999</ele>
        <time>2026-06-29T04:43:41Z</time>
      </trkpt>
      <trkpt lat="51.967321978881955" lon="-9.579686019569635">
        <ele>79.450000000000003</ele>
        <time>2026-06-29T04:43:42Z</time>
      </trkpt>
      <trkpt lat="51.967263976112008" lon="-9.579628016799688">
        <ele>79.450000000000003</ele>
        <time>2026-06-29T04:43:43Z</time>
      </trkpt>
      <trkpt lat="51.96713799610734" lon="-9.579663975164294">
        <ele>79.930000000000007</ele>
        <time>2026-06-29T04:43:44Z</time>
      </trkpt>
      <trkpt lat="51.96703196503222" lon="-9.579694988206029">
        <ele>80.409999999999997</ele>
        <time>2026-06-29T04:43:45Z</time>
      </trkpt>
      <trkpt lat="51.966920988634229" lon="-9.579728012904525">
        <ele>80.890000000000001</ele>
        <time>2026-06-29T04:43:46Z</time>
      </trkpt>
      <trkpt lat="51.966421008110046" lon="-9.579874025657773">
        <ele>82.329999999999998</ele>
        <time>2026-06-29T04:43:50Z</time>
      </trkpt>
      <trkpt lat="51.966326963156462" lon="-9.579844018444419">
        <ele>82.810000000000002</ele>
        <time>2026-06-29T04:43:51Z</time>
      </trkpt>
      <trkpt lat="51.966225039213896" lon="-9.579772017896175">
        <ele>83.290000000000006</ele>
        <time>2026-06-29T04:43:52Z</time>
      </trkpt>
      <trkpt lat="51.966114984825253" lon="-9.579692976549268">
        <ele>83.769999999999996</ele>
        <time>2026-06-29T04:43:53Z</time>
      </trkpt>
      <trkpt lat="51.966009037569165" lon="-9.579617036506534">
        <ele>84.25</ele>
        <time>2026-06-29T04:43:54Z</time>
      </trkpt>
      <trkpt lat="51.965933013707399" lon="-9.579562973231077">
        <ele>85.209999999999994</ele>
        <time>2026-06-29T04:43:55Z</time>
      </trkpt>
      <trkpt lat="51.965793035924435" lon="-9.579562973231077">
        <ele>86.180000000000007</ele>
        <time>2026-06-29T04:43:56Z</time>
      </trkpt>
      <trkpt lat="51.965423980727792" lon="-9.57960999570787">
        <ele>89.540000000000006</ele>
        <time>2026-06-29T04:43:59Z</time>
      </trkpt>
      <trkpt lat="51.965290037915111" lon="-9.579671015962958">
        <ele>90.980000000000004</ele>
        <time>2026-06-29T04:44:00Z</time>
      </trkpt>
      <trkpt lat="51.965180989354849" lon="-9.579778974875808">
        <ele>91.939999999999998</ele>
        <time>2026-06-29T04:44:01Z</time>
      </trkpt>
      <trkpt lat="51.965073030441999" lon="-9.579887017607689">
        <ele>93.390000000000001</ele>
        <time>2026-06-29T04:44:02Z</time>
      </trkpt>
      <trkpt lat="51.964974040165544" lon="-9.579986007884145">
        <ele>93.870000000000005</ele>
        <time>2026-06-29T04:44:03Z</time>
      </trkpt>
      <trkpt lat="51.964747980237007" lon="-9.580250959843397">
        <ele>96.269999999999996</ele>
        <time>2026-06-29T04:44:06Z</time>
      </trkpt>
      <trkpt lat="51.964630968868732" lon="-9.580388003960252">
        <ele>97.709999999999994</ele>
        <time>2026-06-29T04:44:08Z</time>
      </trkpt>
      <trkpt lat="51.964577995240688" lon="-9.580450030043721">
        <ele>98.189999999999998</ele>
        <time>2026-06-29T04:44:09Z</time>
      </trkpt>
      <trkpt lat="51.964529966935515" lon="-9.580506021156907">
        <ele>98.670000000000002</ele>
        <time>2026-06-29T04:44:10Z</time>
      </trkpt>
      <trkpt lat="51.964485961943865" lon="-9.580557988956571">
        <ele>99.150000000000006</ele>
        <time>2026-06-29T04:44:11Z</time>
      </trkpt>
      <trkpt lat="51.964480010792613" lon="-9.58062001504004">
        <ele>99.629999999999995</ele>
        <time>2026-06-29T04:44:12Z</time>
      </trkpt>
      <trkpt lat="51.964496020227671" lon="-9.58074901252985">
        <ele>100.11</ele>
        <time>2026-06-29T04:44:13Z</time>
      </trkpt>
      <trkpt lat="51.9645169749856" lon="-9.580912040546536">
        <ele>100.59999999999999</ele>
        <time>2026-06-29T04:44:14Z</time>
      </trkpt>
      <trkpt lat="51.964539019390941" lon="-9.581086970865727">
        <ele>101.08</ele>
        <time>2026-06-29T04:44:15Z</time>
      </trkpt>
      <trkpt lat="51.964595010504127" lon="-9.581277994439006">
        <ele>101.56</ele>
        <time>2026-06-29T04:44:16Z</time>
      </trkpt>
      <trkpt lat="51.964642032980919" lon="-9.581488966941834">
        <ele>102.04000000000001</ele>
        <time>2026-06-29T04:44:17Z</time>
      </trkpt>
      <trkpt lat="51.964691989123821" lon="-9.581709997728467">
        <ele>102.52</ele>
        <time>2026-06-29T04:44:18Z</time>
      </trkpt>
      <trkpt lat="51.964741023257375" lon="-9.581931028515101">
        <ele>103</ele>
        <time>2026-06-29T04:44:19Z</time>
      </trkpt>
      <trkpt lat="51.964811012148857" lon="-9.582115011289716">
        <ele>103.95999999999999</ele>
        <time>2026-06-29T04:44:20Z</time>
      </trkpt>
      <trkpt lat="51.965040005743504" lon="-9.582652039825916">
        <ele>105.40000000000001</ele>
        <time>2026-06-29T04:44:23Z</time>
      </trkpt>
      <trkpt lat="51.965077975764871" lon="-9.582858989015222">
        <ele>105.88</ele>
        <time>2026-06-29T04:44:24Z</time>
      </trkpt>
      <trkpt lat="51.965083004906774" lon="-9.583035008981824">
        <ele>106.84</ele>
        <time>2026-06-29T04:44:25Z</time>
      </trkpt>
      <trkpt lat="51.965092979371548" lon="-9.583397023379803">
        <ele>107.81</ele>
        <time>2026-06-29T04:44:27Z</time>
      </trkpt>
      <trkpt lat="51.965103037655354" lon="-9.583550998941064">
        <ele>108.29000000000001</ele>
        <time>2026-06-29T04:44:28Z</time>
      </trkpt>
      <trkpt lat="51.965161040425301" lon="-9.583715032786131">
        <ele>108.29000000000001</ele>
        <time>2026-06-29T04:44:29Z</time>
      </trkpt>
      <trkpt lat="51.965329013764858" lon="-9.584253989160061">
        <ele>108.77</ele>
        <time>2026-06-29T04:44:32Z</time>
      </trkpt>
      <trkpt lat="51.965317027643323" lon="-9.584429003298283">
        <ele>109.25</ele>
        <time>2026-06-29T04:44:33Z</time>
      </trkpt>
      <trkpt lat="51.965304035693407" lon="-9.584608962759376">
        <ele>110.20999999999999</ele>
        <time>2026-06-29T04:44:34Z</time>
      </trkpt>
      <trkpt lat="51.965276040136814" lon="-9.585010036826134">
        <ele>111.17</ele>
        <time>2026-06-29T04:44:36Z</time>
      </trkpt>
      <trkpt lat="51.965284002944827" lon="-9.585208017379046">
        <ele>112.13</ele>
        <time>2026-06-29T04:44:37Z</time>
      </trkpt>
      <trkpt lat="51.965322978794575" lon="-9.585427958518267">
        <ele>112.61</ele>
        <time>2026-06-29T04:44:38Z</time>
      </trkpt>
      <trkpt lat="51.965399002656341" lon="-9.585848981514573">
        <ele>114.05</ele>
        <time>2026-06-29T04:44:40Z</time>
      </trkpt>
      <trkpt lat="51.965406965464354" lon="-9.586046962067485">
        <ele>114.53</ele>
        <time>2026-06-29T04:44:41Z</time>
      </trkpt>
      <trkpt lat="51.965383999049664" lon="-9.586218958720565">
        <ele>115.01000000000001</ele>
        <time>2026-06-29T04:44:42Z</time>
      </trkpt>
      <trkpt lat="51.965339994058013" lon="-9.586381986737251">
        <ele>115.5</ele>
        <time>2026-06-29T04:44:43Z</time>
      </trkpt>
      <trkpt lat="51.965282997116446" lon="-9.586544008925557">
        <ele>116.45999999999999</ele>
        <time>2026-06-29T04:44:44Z</time>
      </trkpt>
      <trkpt lat="51.965164979919791" lon="-9.586881967261434">
        <ele>117.90000000000001</ele>
        <time>2026-06-29T04:44:46Z</time>
      </trkpt>
      <trkpt lat="51.965104965493083" lon="-9.587053041905165">
        <ele>119.34</ele>
        <time>2026-06-29T04:44:47Z</time>
      </trkpt>
      <trkpt lat="51.965072024613619" lon="-9.587250016629696">
        <ele>119.81999999999999</ele>
        <time>2026-06-29T04:44:48Z</time>
      </trkpt>
      <trkpt lat="51.965066995471716" lon="-9.587469035759568">
        <ele>120.78</ele>
        <time>2026-06-29T04:44:49Z</time>
      </trkpt>
      <trkpt lat="51.965060960501432" lon="-9.587694006040692">
        <ele>121.26000000000001</ele>
        <time>2026-06-29T04:44:50Z</time>
      </trkpt>
      <trkpt lat="51.965055009350181" lon="-9.587931968271732">
        <ele>121.73999999999999</ele>
        <time>2026-06-29T04:44:51Z</time>
      </trkpt>
      <trkpt lat="51.965047968551517" lon="-9.588173031806946">
        <ele>122.22</ele>
        <time>2026-06-29T04:44:52Z</time>
      </trkpt>
      <trkpt lat="51.965042017400265" lon="-9.588421974331141">
        <ele>122.70999999999999</ele>
        <time>2026-06-29T04:44:53Z</time>
      </trkpt>
      <trkpt lat="51.965034976601601" lon="-9.588665971532464">
        <ele>123.67</ele>
        <time>2026-06-29T04:44:54Z</time>
      </trkpt>
      <trkpt lat="51.965004969388247" lon="-9.588889013975859">
        <ele>124.63</ele>
        <time>2026-06-29T04:44:55Z</time>
      </trkpt>
      <trkpt lat="51.964949984103441" lon="-9.589089006185532">
        <ele>126.55</ele>
        <time>2026-06-29T04:44:56Z</time>
      </trkpt>
      <trkpt lat="51.964901033788919" lon="-9.589267959818244">
        <ele>127.51000000000001</ele>
        <time>2026-06-29T04:44:57Z</time>
      </trkpt>
      <trkpt lat="51.964856022968888" lon="-9.58942998200655">
        <ele>128.94999999999999</ele>
        <time>2026-06-29T04:44:58Z</time>
      </trkpt>
      <trkpt lat="51.964815035462379" lon="-9.58958001807332">
        <ele>129.43000000000001</ele>
        <time>2026-06-29T04:44:59Z</time>
      </trkpt>
      <trkpt lat="51.964821992442012" lon="-9.589728964492679">
        <ele>130.40000000000001</ele>
        <time>2026-06-29T04:45:00Z</time>
      </trkpt>
      <trkpt lat="51.964869014918804" lon="-9.589874977245927">
        <ele>130.88</ele>
        <time>2026-06-29T04:45:01Z</time>
      </trkpt>
      <trkpt lat="51.964919976890087" lon="-9.590034987777472">
        <ele>131.84</ele>
        <time>2026-06-29T04:45:02Z</time>
      </trkpt>
      <trkpt lat="51.964975968003273" lon="-9.590207990258932">
        <ele>132.31999999999999</ele>
        <time>2026-06-29T04:45:03Z</time>
      </trkpt>
      <trkpt lat="51.965005975216627" lon="-9.590415023267269">
        <ele>132.80000000000001</ele>
        <time>2026-06-29T04:45:04Z</time>
      </trkpt>
      <trkpt lat="51.965026007965207" lon="-9.590615015476942">
        <ele>133.75999999999999</ele>
        <time>2026-06-29T04:45:05Z</time>
      </trkpt>
      <trkpt lat="51.965074958279729" lon="-9.590797992423177">
        <ele>134.72</ele>
        <time>2026-06-29T04:45:06Z</time>
      </trkpt>
      <trkpt lat="51.965134972706437" lon="-9.590968983247876">
        <ele>135.19999999999999</ele>
        <time>2026-06-29T04:45:07Z</time>
      </trkpt>
      <trkpt lat="51.965180989354849" lon="-9.591143997386098">
        <ele>136.16</ele>
        <time>2026-06-29T04:45:08Z</time>
      </trkpt>
      <trkpt lat="51.965218959376216" lon="-9.591339966282249">
        <ele>137.13</ele>
        <time>2026-06-29T04:45:09Z</time>
      </trkpt>
      <trkpt lat="51.965258019044995" lon="-9.591539958491921">
        <ele>137.61000000000001</ele>
        <time>2026-06-29T04:45:10Z</time>
      </trkpt>
      <trkpt lat="51.965293977409601" lon="-9.59172997623682">
        <ele>137.61000000000001</ele>
        <time>2026-06-29T04:45:11Z</time>
      </trkpt>
      <trkpt lat="51.965349968522787" lon="-9.591881018131971">
        <ele>138.09</ele>
        <time>2026-06-29T04:45:12Z</time>
      </trkpt>
      <trkpt lat="51.965434039011598" lon="-9.592020995914936">
        <ele>138.09</ele>
        <time>2026-06-29T04:45:13Z</time>
      </trkpt>
      <trkpt lat="51.965540992096066" lon="-9.592120992019773">
        <ele>138.56999999999999</ele>
        <time>2026-06-29T04:45:14Z</time>
      </trkpt>
      <trkpt lat="51.965661020949483" lon="-9.592227023094893">
        <ele>139.05000000000001</ele>
        <time>2026-06-29T04:45:15Z</time>
      </trkpt>
      <trkpt lat="51.965783983469009" lon="-9.592337999492884">
        <ele>139.53</ele>
        <time>2026-06-29T04:45:16Z</time>
      </trkpt>
      <trkpt lat="51.965909041464329" lon="-9.592448975890875">
        <ele>140.00999999999999</ele>
        <time>2026-06-29T04:45:17Z</time>
      </trkpt>
      <trkpt lat="51.966025969013572" lon="-9.592552995309234">
        <ele>140.49000000000001</ele>
        <time>2026-06-29T04:45:18Z</time>
      </trkpt>
      <trkpt lat="51.966140968725085" lon="-9.592591971158981">
        <ele>140.97</ele>
        <time>2026-06-29T04:45:19Z</time>
      </trkpt>
      <trkpt lat="51.966251023113728" lon="-9.592597000300884">
        <ele>141.44999999999999</ele>
        <time>2026-06-29T04:45:20Z</time>
      </trkpt>
      <trkpt lat="51.966368034482002" lon="-9.592558024451137">
        <ele>142.41</ele>
        <time>2026-06-29T04:45:21Z</time>
      </trkpt>
      <trkpt lat="51.966488985344768" lon="-9.592517036944628">
        <ele>143.37</ele>
        <time>2026-06-29T04:45:22Z</time>
      </trkpt>
      <trkpt lat="51.966614965349436" lon="-9.592474959790707">
        <ele>143.84999999999999</ele>
        <time>2026-06-29T04:45:23Z</time>
      </trkpt>
      <trkpt lat="51.966754021123052" lon="-9.592492980882525">
        <ele>144.81999999999999</ele>
        <time>2026-06-29T04:45:24Z</time>
      </trkpt>
      <trkpt lat="51.966883018612862" lon="-9.592540003359318">
        <ele>145.30000000000001</ele>
        <time>2026-06-29T04:45:25Z</time>
      </trkpt>
      <trkpt lat="51.967071024700999" lon="-9.5926099922508">
        <ele>146.25999999999999</ele>
        <time>2026-06-29T04:45:27Z</time>
      </trkpt>
      <trkpt lat="51.967156017199159" lon="-9.592714011669159">
        <ele>147.22</ele>
        <time>2026-06-29T04:45:29Z</time>
      </trkpt>
      <trkpt lat="51.967189041897655" lon="-9.592753993347287">
        <ele>148.18000000000001</ele>
        <time>2026-06-29T04:45:30Z</time>
      </trkpt>
      <trkpt lat="51.967218965291977" lon="-9.592791041359305">
        <ele>148.66</ele>
        <time>2026-06-29T04:45:31Z</time>
      </trkpt>
      <trkpt lat="51.967315021902323" lon="-9.592908974736929">
        <ele>151.06</ele>
        <time>2026-06-29T04:45:39Z</time>
      </trkpt>
      <trkpt lat="51.967315021902323" lon="-9.592908974736929">
        <ele>151.06</ele>
        <time>2026-06-29T04:46:24Z</time>
      </trkpt>
      <trkpt lat="51.967315021902323" lon="-9.592908974736929">
        <ele>150.09999999999999</ele>
        <time>2026-06-29T04:47:19Z</time>
      </trkpt>
      <trkpt lat="51.967392973601818" lon="-9.593005031347275">
        <ele>150.09999999999999</ele>
        <time>2026-06-29T04:48:00Z</time>
      </trkpt>
      <trkpt lat="51.967565976083279" lon="-9.593216003850102">
        <ele>150.58000000000001</ele>
        <time>2026-06-29T04:48:03Z</time>
      </trkpt>
      <trkpt lat="51.967634037137032" lon="-9.593299990519881">
        <ele>151.06</ele>
        <time>2026-06-29T04:48:04Z</time>
      </trkpt>
      <trkpt lat="51.967764040455222" lon="-9.593481039628387">
        <ele>151.53999999999999</ele>
        <time>2026-06-29T04:48:06Z</time>
      </trkpt>
      <trkpt lat="51.967879962176085" lon="-9.593713972717524">
        <ele>151.53999999999999</ele>
        <time>2026-06-29T04:48:08Z</time>
      </trkpt>
      <trkpt lat="51.96788901463151" lon="-9.593890998512507">
        <ele>152.03</ele>
        <time>2026-06-29T04:48:09Z</time>
      </trkpt>
      <trkpt lat="51.967892032116652" lon="-9.594056960195303">
        <ele>152.50999999999999</ele>
        <time>2026-06-29T04:48:10Z</time>
      </trkpt>
      <trkpt lat="51.967887002974749" lon="-9.595149960368872">
        <ele>155.38999999999999</ele>
        <time>2026-06-29T04:48:16Z</time>
      </trkpt>
      <trkpt lat="51.967836963012815" lon="-9.595303013920784">
        <ele>155.87</ele>
        <time>2026-06-29T04:48:17Z</time>
      </trkpt>
      <trkpt lat="51.967784995213151" lon="-9.595451960340142">
        <ele>156.34999999999999</ele>
        <time>2026-06-29T04:48:18Z</time>
      </trkpt>
      <trkpt lat="51.967735961079597" lon="-9.595592021942139">
        <ele>156.83000000000001</ele>
        <time>2026-06-29T04:48:19Z</time>
      </trkpt>
      <trkpt lat="51.967629007995129" lon="-9.595708027482033">
        <ele>157.31</ele>
        <time>2026-06-29T04:48:20Z</time>
      </trkpt>
      <trkpt lat="51.967534963041544" lon="-9.59580902941525">
        <ele>157.78999999999999</ele>
        <time>2026-06-29T04:48:21Z</time>
      </trkpt>
      <trkpt lat="51.967447036877275" lon="-9.595893016085029">
        <ele>158.27000000000001</ele>
        <time>2026-06-29T04:48:22Z</time>
      </trkpt>
      <trkpt lat="51.967338994145393" lon="-9.595893016085029">
        <ele>158.75</ele>
        <time>2026-06-29T04:48:23Z</time>
      </trkpt>
      <trkpt lat="51.967228017747402" lon="-9.595893016085029">
        <ele>158.75</ele>
        <time>2026-06-29T04:48:24Z</time>
      </trkpt>
      <trkpt lat="51.96711796335876" lon="-9.595920005813241">
        <ele>158.75</ele>
        <time>2026-06-29T04:48:25Z</time>
      </trkpt>
      <trkpt lat="51.967022996395826" lon="-9.595987983047962">
        <ele>158.75</ele>
        <time>2026-06-29T04:48:26Z</time>
      </trkpt>
      <trkpt lat="51.966952001675963" lon="-9.596119998022914">
        <ele>158.75</ele>
        <time>2026-06-29T04:48:27Z</time>
      </trkpt>
      <trkpt lat="51.966886958107352" lon="-9.596265004947782">
        <ele>159.24000000000001</ele>
        <time>2026-06-29T04:48:28Z</time>
      </trkpt>
      <trkpt lat="51.96681696921587" lon="-9.596419986337423">
        <ele>159.24000000000001</ele>
        <time>2026-06-29T04:48:29Z</time>
      </trkpt>
      <trkpt lat="51.966191008687019" lon="-9.597631003707647">
        <ele>165.47999999999999</ele>
        <time>2026-06-29T04:48:37Z</time>
      </trkpt>
      <trkpt lat="51.966062011197209" lon="-9.597729993984103">
        <ele>166.44999999999999</ele>
        <time>2026-06-29T04:48:38Z</time>
      </trkpt>
      <trkpt lat="51.965947011485696" lon="-9.597819009795785">
        <ele>167.41</ele>
        <time>2026-06-29T04:48:39Z</time>
      </trkpt>
      <trkpt lat="51.965480977669358" lon="-9.598178006708622">
        <ele>169.33000000000001</ele>
        <time>2026-06-29T04:48:43Z</time>
      </trkpt>
      <trkpt lat="51.965402020141482" lon="-9.598288983106613">
        <ele>170.28999999999999</ele>
        <time>2026-06-29T04:48:44Z</time>
      </trkpt>
      <trkpt lat="51.965333037078381" lon="-9.59843197837472">
        <ele>170.77000000000001</ele>
        <time>2026-06-29T04:48:45Z</time>
      </trkpt>
      <trkpt lat="51.965105971321464" lon="-9.598888037726283">
        <ele>173.16999999999999</ele>
        <time>2026-06-29T04:48:48Z</time>
      </trkpt>
      <trkpt lat="51.965003963559866" lon="-9.599003037437797">
        <ele>174.13999999999999</ele>
        <time>2026-06-29T04:48:49Z</time>
      </trkpt>
      <trkpt lat="51.964897010475397" lon="-9.599123988300562">
        <ele>174.62</ele>
        <time>2026-06-29T04:48:50Z</time>
      </trkpt>
      <trkpt lat="51.964669022709131" lon="-9.599321968853474">
        <ele>175.58000000000001</ele>
        <time>2026-06-29T04:48:52Z</time>
      </trkpt>
      <trkpt lat="51.964554022997618" lon="-9.599387012422085">
        <ele>176.06</ele>
        <time>2026-06-29T04:48:53Z</time>
      </trkpt>
      <trkpt lat="51.964434999972582" lon="-9.599454989656806">
        <ele>176.53999999999999</ele>
        <time>2026-06-29T04:48:54Z</time>
      </trkpt>
      <trkpt lat="51.964317988604307" lon="-9.599521961063147">
        <ele>177.02000000000001</ele>
        <time>2026-06-29T04:48:55Z</time>
      </trkpt>
      <trkpt lat="51.964212963357568" lon="-9.599581975489855">
        <ele>177.5</ele>
        <time>2026-06-29T04:48:56Z</time>
      </trkpt>
      <trkpt lat="51.964139034971595" lon="-9.59967995993793">
        <ele>178.46000000000001</ele>
        <time>2026-06-29T04:48:57Z</time>
      </trkpt>
      <trkpt lat="51.964074997231364" lon="-9.599820021539927">
        <ele>179.41999999999999</ele>
        <time>2026-06-29T04:48:58Z</time>
      </trkpt>
      <trkpt lat="51.964008025825024" lon="-9.599967040121555">
        <ele>179.90000000000001</ele>
        <time>2026-06-29T04:48:59Z</time>
      </trkpt>
      <trkpt lat="51.963940970599651" lon="-9.600112969055772">
        <ele>180.38</ele>
        <time>2026-06-29T04:49:00Z</time>
      </trkpt>
      <trkpt lat="51.963942982256413" lon="-9.600295023992658">
        <ele>181.34999999999999</ele>
        <time>2026-06-29T04:49:01Z</time>
      </trkpt>
      <trkpt lat="51.963948011398315" lon="-9.600488981232047">
        <ele>182.31</ele>
        <time>2026-06-29T04:49:02Z</time>
      </trkpt>
      <trkpt lat="51.963953962549567" lon="-9.600696014240384">
        <ele>183.27000000000001</ele>
        <time>2026-06-29T04:49:03Z</time>
      </trkpt>
      <trkpt lat="51.963964020833373" lon="-9.600907992571592">
        <ele>183.75</ele>
        <time>2026-06-29T04:49:04Z</time>
      </trkpt>
      <trkpt lat="51.964124031364918" lon="-9.602012978866696">
        <ele>188.08000000000001</ele>
        <time>2026-06-29T04:49:09Z</time>
      </trkpt>
      <trkpt lat="51.964188991114497" lon="-9.602180030196905">
        <ele>189.03999999999999</ele>
        <time>2026-06-29T04:49:10Z</time>
      </trkpt>
      <trkpt lat="51.964313965290785" lon="-9.602496027946472">
        <ele>190.47999999999999</ele>
        <time>2026-06-29T04:49:12Z</time>
      </trkpt>
      <trkpt lat="51.964353024959564" lon="-9.602654026821256">
        <ele>190.96000000000001</ele>
        <time>2026-06-29T04:49:13Z</time>
      </trkpt>
      <trkpt lat="51.964331986382604" lon="-9.602789981290698">
        <ele>191.44</ele>
        <time>2026-06-29T04:49:14Z</time>
      </trkpt>
      <trkpt lat="51.964284041896462" lon="-9.602892994880676">
        <ele>192.40000000000001</ele>
        <time>2026-06-29T04:49:15Z</time>
      </trkpt>
      <trkpt lat="51.964228972792625" lon="-9.603012017905712">
        <ele>192.88</ele>
        <time>2026-06-29T04:49:16Z</time>
      </trkpt>
      <trkpt lat="51.964166024699807" lon="-9.603147972375155">
        <ele>193.36000000000001</ele>
        <time>2026-06-29T04:49:17Z</time>
      </trkpt>
      <trkpt lat="51.964096035808325" lon="-9.603295996785164">
        <ele>193.84</ele>
        <time>2026-06-29T04:49:18Z</time>
      </trkpt>
      <trkpt lat="51.964052030816674" lon="-9.603473022580147">
        <ele>193.84</ele>
        <time>2026-06-29T04:49:19Z</time>
      </trkpt>
      <trkpt lat="51.964027974754572" lon="-9.603669997304678">
        <ele>194.31999999999999</ele>
        <time>2026-06-29T04:49:20Z</time>
      </trkpt>
      <trkpt lat="51.96400199085474" lon="-9.603876024484634">
        <ele>194.80000000000001</ele>
        <time>2026-06-29T04:49:21Z</time>
      </trkpt>
      <trkpt lat="51.963971983641386" lon="-9.604080962017179">
        <ele>194.80000000000001</ele>
        <time>2026-06-29T04:49:22Z</time>
      </trkpt>
      <trkpt lat="51.963921021670103" lon="-9.604267962276936">
        <ele>195.28</ele>
        <time>2026-06-29T04:49:23Z</time>
      </trkpt>
      <trkpt lat="51.963403020054102" lon="-9.606083985418081">
        <ele>200.56999999999999</ele>
        <time>2026-06-29T04:49:33Z</time>
      </trkpt>
      <trkpt lat="51.96275501511991" lon="-9.608055995777249">
        <ele>209.22</ele>
        <time>2026-06-29T04:49:44Z</time>
      </trkpt>
      <trkpt lat="51.962141962721944" lon="-9.609737992286682">
        <ele>210.19</ele>
        <time>2026-06-29T04:49:54Z</time>
      </trkpt>
      <trkpt lat="51.961987987160683" lon="-9.61005499586463">
        <ele>209.69999999999999</ele>
        <time>2026-06-29T04:49:56Z</time>
      </trkpt>
      <trkpt lat="51.961880028247833" lon="-9.61018399335444">
        <ele>209.22</ele>
        <time>2026-06-29T04:49:57Z</time>
      </trkpt>
      <trkpt lat="51.96166000328958" lon="-9.610418016090989">
        <ele>207.78</ele>
        <time>2026-06-29T04:49:59Z</time>
      </trkpt>
      <trkpt lat="51.961557995527983" lon="-9.610554976388812">
        <ele>207.30000000000001</ele>
        <time>2026-06-29T04:50:00Z</time>
      </trkpt>
      <trkpt lat="51.961483983322978" lon="-9.610738959163427">
        <ele>206.34</ele>
        <time>2026-06-29T04:50:01Z</time>
      </trkpt>
      <trkpt lat="51.961060026660562" lon="-9.611644959077239">
        <ele>202.49000000000001</ele>
        <time>2026-06-29T04:50:06Z</time>
      </trkpt>
      <trkpt lat="51.961028007790446" lon="-9.611844029277563">
        <ele>202.49000000000001</ele>
        <time>2026-06-29T04:50:07Z</time>
      </trkpt>
      <trkpt lat="51.961010992527008" lon="-9.612051984295249">
        <ele>202.00999999999999</ele>
        <time>2026-06-29T04:50:08Z</time>
      </trkpt>
      <trkpt lat="51.960991965606809" lon="-9.612273015081883">
        <ele>201.53</ele>
        <time>2026-06-29T04:50:09Z</time>
      </trkpt>
      <trkpt lat="51.960973022505641" lon="-9.612496979534626">
        <ele>201.05000000000001</ele>
        <time>2026-06-29T04:50:10Z</time>
      </trkpt>
      <trkpt lat="51.960955001413822" lon="-9.612714992836118">
        <ele>200.56999999999999</ele>
        <time>2026-06-29T04:50:11Z</time>
      </trkpt>
      <trkpt lat="51.960892975330353" lon="-9.612939963117242">
        <ele>200.09</ele>
        <time>2026-06-29T04:50:12Z</time>
      </trkpt>
      <trkpt lat="51.960832038894296" lon="-9.613158982247114">
        <ele>199.61000000000001</ele>
        <time>2026-06-29T04:50:13Z</time>
      </trkpt>
      <trkpt lat="51.960771018639207" lon="-9.613379007205367">
        <ele>199.61000000000001</ele>
        <time>2026-06-29T04:50:14Z</time>
      </trkpt>
      <trkpt lat="51.960377991199493" lon="-9.614331023767591">
        <ele>198.65000000000001</ele>
        <time>2026-06-29T04:50:19Z</time>
      </trkpt>
      <trkpt lat="51.960271038115025" lon="-9.614479970186949">
        <ele>198.65000000000001</ele>
        <time>2026-06-29T04:50:20Z</time>
      </trkpt>
      <trkpt lat="51.960169030353427" lon="-9.614622965455055">
        <ele>198.16999999999999</ele>
        <time>2026-06-29T04:50:21Z</time>
      </trkpt>
      <trkpt lat="51.959979012608528" lon="-9.61488900706172">
        <ele>197.69</ele>
        <time>2026-06-29T04:50:23Z</time>
      </trkpt>
      <trkpt lat="51.959884967654943" lon="-9.615020016208291">
        <ele>197.21000000000001</ele>
        <time>2026-06-29T04:50:24Z</time>
      </trkpt>
      <trkpt lat="51.959815984591842" lon="-9.615200981497765">
        <ele>196.72999999999999</ele>
        <time>2026-06-29T04:50:25Z</time>
      </trkpt>
      <trkpt lat="51.959752030670643" lon="-9.615410026162863">
        <ele>196.72999999999999</ele>
        <time>2026-06-29T04:50:26Z</time>
      </trkpt>
      <trkpt lat="51.959684975445271" lon="-9.615627033635974">
        <ele>196.72999999999999</ele>
        <time>2026-06-29T04:50:27Z</time>
      </trkpt>
      <trkpt lat="51.959526976570487" lon="-9.616069011390209">
        <ele>196.72999999999999</ele>
        <time>2026-06-29T04:50:29Z</time>
      </trkpt>
      <trkpt lat="51.958782998844981" lon="-9.618170019239187">
        <ele>195.77000000000001</ele>
        <time>2026-06-29T04:50:38Z</time>
      </trkpt>
      <trkpt lat="51.958464989438653" lon="-9.61905799806118">
        <ele>195.77000000000001</ele>
        <time>2026-06-29T04:50:42Z</time>
      </trkpt>
      <trkpt lat="51.958359964191914" lon="-9.619243992492557">
        <ele>195.77000000000001</ele>
        <time>2026-06-29T04:50:43Z</time>
      </trkpt>
      <trkpt lat="51.958247981965542" lon="-9.61942202411592">
        <ele>195.77000000000001</ele>
        <time>2026-06-29T04:50:44Z</time>
      </trkpt>
      <trkpt lat="51.95749000646174" lon="-9.620900005102158">
        <ele>195.28</ele>
        <time>2026-06-29T04:50:52Z</time>
      </trkpt>
      <trkpt lat="51.957326978445053" lon="-9.621294960379601">
        <ele>195.28</ele>
        <time>2026-06-29T04:50:54Z</time>
      </trkpt>
      <trkpt lat="51.957209967076778" lon="-9.621438961476088">
        <ele>195.77000000000001</ele>
        <time>2026-06-29T04:50:55Z</time>
      </trkpt>
      <trkpt lat="51.95708298124373" lon="-9.621566031128168">
        <ele>195.77000000000001</ele>
        <time>2026-06-29T04:50:56Z</time>
      </trkpt>
      <trkpt lat="51.955925021320581" lon="-9.622600022703409">
        <ele>197.69</ele>
        <time>2026-06-29T04:51:05Z</time>
      </trkpt>
      <trkpt lat="51.955589996650815" lon="-9.62303102016449">
        <ele>199.13</ele>
        <time>2026-06-29T04:51:08Z</time>
      </trkpt>
      <trkpt lat="51.955505004152656" lon="-9.623201005160809">
        <ele>199.61000000000001</ele>
        <time>2026-06-29T04:51:09Z</time>
      </trkpt>
      <trkpt lat="51.955092027783394" lon="-9.624076997861266">
        <ele>199.61000000000001</ele>
        <time>2026-06-29T04:51:14Z</time>
      </trkpt>
      <trkpt lat="51.954270014539361" lon="-9.625466968864203">
        <ele>200.09</ele>
        <time>2026-06-29T04:51:22Z</time>
      </trkpt>
      <trkpt lat="51.953841028735042" lon="-9.626366011798382">
        <ele>202.49000000000001</ele>
        <time>2026-06-29T04:51:27Z</time>
      </trkpt>
      <trkpt lat="51.953734997659922" lon="-9.626496015116572">
        <ele>202.97999999999999</ele>
        <time>2026-06-29T04:51:28Z</time>
      </trkpt>
      <trkpt lat="51.953627960756421" lon="-9.626627024263144">
        <ele>203.46000000000001</ele>
        <time>2026-06-29T04:51:29Z</time>
      </trkpt>
      <trkpt lat="51.953500974923372" lon="-9.626714028418064">
        <ele>203.94</ele>
        <time>2026-06-29T04:51:30Z</time>
      </trkpt>
      <trkpt lat="51.953368037939072" lon="-9.626797009259462">
        <ele>204.41999999999999</ele>
        <time>2026-06-29T04:51:31Z</time>
      </trkpt>
      <trkpt lat="51.953231999650598" lon="-9.626882001757622">
        <ele>204.41999999999999</ele>
        <time>2026-06-29T04:51:32Z</time>
      </trkpt>
      <trkpt lat="51.952961012721062" lon="-9.627009993419051">
        <ele>205.38</ele>
        <time>2026-06-29T04:51:34Z</time>
      </trkpt>
      <trkpt lat="51.952837966382504" lon="-9.627019967883825">
        <ele>205.86000000000001</ele>
        <time>2026-06-29T04:51:35Z</time>
      </trkpt>
      <trkpt lat="51.952716009691358" lon="-9.627005970105529">
        <ele>206.34</ele>
        <time>2026-06-29T04:51:36Z</time>
      </trkpt>
      <trkpt lat="51.952611990272999" lon="-9.626903040334582">
        <ele>206.81999999999999</ele>
        <time>2026-06-29T04:51:37Z</time>
      </trkpt>
      <trkpt lat="51.952504031360149" lon="-9.626794997602701">
        <ele>207.30000000000001</ele>
        <time>2026-06-29T04:51:38Z</time>
      </trkpt>
      <trkpt lat="51.952398000285029" lon="-9.626688966527581">
        <ele>207.30000000000001</ele>
        <time>2026-06-29T04:51:39Z</time>
      </trkpt>
      <trkpt lat="51.952277971431613" lon="-9.626621995121241">
        <ele>208.25999999999999</ele>
        <time>2026-06-29T04:51:40Z</time>
      </trkpt>
      <trkpt lat="51.952152997255325" lon="-9.626587964594364">
        <ele>208.74000000000001</ele>
        <time>2026-06-29T04:51:41Z</time>
      </trkpt>
      <trkpt lat="51.952028023079038" lon="-9.626588970422745">
        <ele>209.22</ele>
        <time>2026-06-29T04:51:42Z</time>
      </trkpt>
      <trkpt lat="51.951900031417608" lon="-9.626607997342944">
        <ele>209.69999999999999</ele>
        <time>2026-06-29T04:51:43Z</time>
      </trkpt>
      <trkpt lat="51.951767010614276" lon="-9.626645967364311">
        <ele>210.19</ele>
        <time>2026-06-29T04:51:44Z</time>
      </trkpt>
      <trkpt lat="51.951634995639324" lon="-9.626720985397697">
        <ele>210.19</ele>
        <time>2026-06-29T04:51:45Z</time>
      </trkpt>
      <trkpt lat="51.950242007151246" lon="-9.627671996131539">
        <ele>213.55000000000001</ele>
        <time>2026-06-29T04:51:56Z</time>
      </trkpt>
      <trkpt lat="51.949192006140947" lon="-9.628773964941502">
        <ele>213.06999999999999</ele>
        <time>2026-06-29T04:52:04Z</time>
      </trkpt>
      <trkpt lat="51.948593035340309" lon="-9.629688011482358">
        <ele>210.19</ele>
        <time>2026-06-29T04:52:08Z</time>
      </trkpt>
      <trkpt lat="51.947573041543365" lon="-9.631441002711654">
        <ele>203.94</ele>
        <time>2026-06-29T04:52:16Z</time>
      </trkpt>
      <trkpt lat="51.947396015748382" lon="-9.631805028766394">
        <ele>202.49000000000001</ele>
        <time>2026-06-29T04:52:18Z</time>
      </trkpt>
      <trkpt lat="51.947344969958067" lon="-9.632010972127318">
        <ele>202.00999999999999</ele>
        <time>2026-06-29T04:52:19Z</time>
      </trkpt>
      <trkpt lat="51.94728696718812" lon="-9.632241977378726">
        <ele>201.53</ele>
        <time>2026-06-29T04:52:20Z</time>
      </trkpt>
      <trkpt lat="51.947270035743713" lon="-9.632449010387063">
        <ele>201.05000000000001</ele>
        <time>2026-06-29T04:52:21Z</time>
      </trkpt>
      <trkpt lat="51.947252014651895" lon="-9.632674986496568">
        <ele>201.05000000000001</ele>
        <time>2026-06-29T04:52:22Z</time>
      </trkpt>
      <trkpt lat="51.947254026308656" lon="-9.63289400562644">
        <ele>200.56999999999999</ele>
        <time>2026-06-29T04:52:23Z</time>
      </trkpt>
      <trkpt lat="51.947273975238204" lon="-9.633116964250803">
        <ele>200.09</ele>
        <time>2026-06-29T04:52:24Z</time>
      </trkpt>
      <trkpt lat="51.947294007986784" lon="-9.633346041664481">
        <ele>199.61000000000001</ele>
        <time>2026-06-29T04:52:25Z</time>
      </trkpt>
      <trkpt lat="51.947314040735364" lon="-9.633569000288844">
        <ele>199.13</ele>
        <time>2026-06-29T04:52:26Z</time>
      </trkpt>
      <trkpt lat="51.947323009371758" lon="-9.633791958913207">
        <ele>198.65000000000001</ele>
        <time>2026-06-29T04:52:27Z</time>
      </trkpt>
      <trkpt lat="51.947291996330023" lon="-9.634007038548589">
        <ele>198.16999999999999</ele>
        <time>2026-06-29T04:52:28Z</time>
      </trkpt>
      <trkpt lat="51.947256037965417" lon="-9.634228991344571">
        <ele>198.16999999999999</ele>
        <time>2026-06-29T04:52:29Z</time>
      </trkpt>
      <trkpt lat="51.94719803519547" lon="-9.634447004646063">
        <ele>198.16999999999999</ele>
        <time>2026-06-29T04:52:30Z</time>
      </trkpt>
      <trkpt lat="51.947138020768762" lon="-9.634672980755568">
        <ele>198.65000000000001</ele>
        <time>2026-06-29T04:52:31Z</time>
      </trkpt>
      <trkpt lat="51.947085969150066" lon="-9.634911026805639">
        <ele>199.13</ele>
        <time>2026-06-29T04:52:32Z</time>
      </trkpt>
      <trkpt lat="51.947064008563757" lon="-9.635145971551538">
        <ele>199.61000000000001</ele>
        <time>2026-06-29T04:52:33Z</time>
      </trkpt>
      <trkpt lat="51.947042969986796" lon="-9.635359039530158">
        <ele>200.09</ele>
        <time>2026-06-29T04:52:34Z</time>
      </trkpt>
      <trkpt lat="51.947023021057248" lon="-9.635560037568212">
        <ele>200.56999999999999</ele>
        <time>2026-06-29T04:52:35Z</time>
      </trkpt>
      <trkpt lat="51.946988990530372" lon="-9.635766986757517">
        <ele>201.53</ele>
        <time>2026-06-29T04:52:36Z</time>
      </trkpt>
      <trkpt lat="51.946922019124031" lon="-9.635939989238977">
        <ele>202.49000000000001</ele>
        <time>2026-06-29T04:52:37Z</time>
      </trkpt>
      <trkpt lat="51.946583976969123" lon="-9.636843977496028">
        <ele>204.90000000000001</ele>
        <time>2026-06-29T04:52:42Z</time>
      </trkpt>
      <trkpt lat="51.946537960320711" lon="-9.637055033817887">
        <ele>205.38</ele>
        <time>2026-06-29T04:52:43Z</time>
      </trkpt>
      <trkpt lat="51.946493033319712" lon="-9.637265000492334">
        <ele>205.38</ele>
        <time>2026-06-29T04:52:44Z</time>
      </trkpt>
      <trkpt lat="51.946496972814202" lon="-9.637488964945078">
        <ele>205.38</ele>
        <time>2026-06-29T04:52:45Z</time>
      </trkpt>
      <trkpt lat="51.946500996127725" lon="-9.637719970196486">
        <ele>205.38</ele>
        <time>2026-06-29T04:52:46Z</time>
      </trkpt>
      <trkpt lat="51.946505019441247" lon="-9.637959022074938">
        <ele>205.86000000000001</ele>
        <time>2026-06-29T04:52:47Z</time>
      </trkpt>
      <trkpt lat="51.946443999186158" lon="-9.639418981969357">
        <ele>207.30000000000001</ele>
        <time>2026-06-29T04:52:53Z</time>
      </trkpt>
      <trkpt lat="51.946416003629565" lon="-9.639653004705906">
        <ele>207.30000000000001</ele>
        <time>2026-06-29T04:52:54Z</time>
      </trkpt>
      <trkpt lat="51.946336040273309" lon="-9.639843022450805">
        <ele>207.30000000000001</ele>
        <time>2026-06-29T04:52:55Z</time>
      </trkpt>
      <trkpt lat="51.946256998926401" lon="-9.640031028538942">
        <ele>207.78</ele>
        <time>2026-06-29T04:52:56Z</time>
      </trkpt>
      <trkpt lat="51.946144010871649" lon="-9.640210988000035">
        <ele>208.25999999999999</ele>
        <time>2026-06-29T04:52:57Z</time>
      </trkpt>
      <trkpt lat="51.946032028645277" lon="-9.640390025451779">
        <ele>208.74000000000001</ele>
        <time>2026-06-29T04:52:58Z</time>
      </trkpt>
      <trkpt lat="51.945918034762144" lon="-9.640573002398014">
        <ele>209.22</ele>
        <time>2026-06-29T04:52:59Z</time>
      </trkpt>
      <trkpt lat="51.945813009515405" lon="-9.640760002657771">
        <ele>209.69999999999999</ele>
        <time>2026-06-29T04:53:00Z</time>
      </trkpt>
      <trkpt lat="51.945740003138781" lon="-9.640968963503838">
        <ele>210.66999999999999</ele>
        <time>2026-06-29T04:53:01Z</time>
      </trkpt>
      <trkpt lat="51.945668002590537" lon="-9.641178008168936">
        <ele>211.63</ele>
        <time>2026-06-29T04:53:02Z</time>
      </trkpt>
      <trkpt lat="51.945593990385532" lon="-9.641388980671763">
        <ele>212.11000000000001</ele>
        <time>2026-06-29T04:53:03Z</time>
      </trkpt>
      <trkpt lat="51.945521989837289" lon="-9.641597019508481">
        <ele>213.06999999999999</ele>
        <time>2026-06-29T04:53:04Z</time>
      </trkpt>
      <trkpt lat="51.944950008764863" lon="-9.642805019393563">
        <ele>218.84</ele>
        <time>2026-06-29T04:53:11Z</time>
      </trkpt>
      <trkpt lat="51.944899968802929" lon="-9.642981961369515">
        <ele>219.80000000000001</ele>
        <time>2026-06-29T04:53:12Z</time>
      </trkpt>
      <trkpt lat="51.944882031530142" lon="-9.64318597689271">
        <ele>220.28</ele>
        <time>2026-06-29T04:53:13Z</time>
      </trkpt>
      <trkpt lat="51.944861998781562" lon="-9.643412036821246">
        <ele>220.75999999999999</ele>
        <time>2026-06-29T04:53:14Z</time>
      </trkpt>
      <trkpt lat="51.944861998781562" lon="-9.643653016537428">
        <ele>221.24000000000001</ele>
        <time>2026-06-29T04:53:15Z</time>
      </trkpt>
      <trkpt lat="51.944845989346504" lon="-9.644692959263921">
        <ele>222.19999999999999</ele>
        <time>2026-06-29T04:53:19Z</time>
      </trkpt>
      <trkpt lat="51.944795027375221" lon="-9.644912984222174">
        <ele>222.68000000000001</ele>
        <time>2026-06-29T04:53:20Z</time>
      </trkpt>
      <trkpt lat="51.944743981584907" lon="-9.645136026665568">
        <ele>223.16</ele>
        <time>2026-06-29T04:53:21Z</time>
      </trkpt>
      <trkpt lat="51.944485986605287" lon="-9.646014031022787">
        <ele>223.16</ele>
        <time>2026-06-29T04:53:25Z</time>
      </trkpt>
      <trkpt lat="51.943876035511494" lon="-9.647333007305861">
        <ele>223.63999999999999</ele>
        <time>2026-06-29T04:53:31Z</time>
      </trkpt>
      <trkpt lat="51.943737985566258" lon="-9.647490000352264">
        <ele>224.61000000000001</ele>
        <time>2026-06-29T04:53:32Z</time>
      </trkpt>
      <trkpt lat="51.943602031096816" lon="-9.647631989791989">
        <ele>225.09</ele>
        <time>2026-06-29T04:53:33Z</time>
      </trkpt>
      <trkpt lat="51.943472027778625" lon="-9.647768028080463">
        <ele>225.56999999999999</ele>
        <time>2026-06-29T04:53:34Z</time>
      </trkpt>
      <trkpt lat="51.943359039723873" lon="-9.647915968671441">
        <ele>226.53</ele>
        <time>2026-06-29T04:53:35Z</time>
      </trkpt>
      <trkpt lat="51.943270023912191" lon="-9.64812601916492">
        <ele>227.00999999999999</ele>
        <time>2026-06-29T04:53:36Z</time>
      </trkpt>
      <trkpt lat="51.943177990615368" lon="-9.648343026638031">
        <ele>227.49000000000001</ele>
        <time>2026-06-29T04:53:37Z</time>
      </trkpt>
      <trkpt lat="51.942735007032752" lon="-9.649392021819949">
        <ele>230.37</ele>
        <time>2026-06-29T04:53:42Z</time>
      </trkpt>
      <trkpt lat="51.942638028413057" lon="-9.649582039564848">
        <ele>231.33000000000001</ele>
        <time>2026-06-29T04:53:43Z</time>
      </trkpt>
      <trkpt lat="51.94251699373126" lon="-9.649734003469348">
        <ele>231.81</ele>
        <time>2026-06-29T04:53:44Z</time>
      </trkpt>
      <trkpt lat="51.942138969898224" lon="-9.650241024792194">
        <ele>233.25999999999999</ele>
        <time>2026-06-29T04:53:47Z</time>
      </trkpt>
      <trkpt lat="51.942032016813755" lon="-9.650454008951783">
        <ele>233.25999999999999</ele>
        <time>2026-06-29T04:53:48Z</time>
      </trkpt>
      <trkpt lat="51.94193503819406" lon="-9.650679985061288">
        <ele>233.25999999999999</ele>
        <time>2026-06-29T04:53:49Z</time>
      </trkpt>
      <trkpt lat="51.941860020160675" lon="-9.65092197060585">
        <ele>233.74000000000001</ele>
        <time>2026-06-29T04:53:50Z</time>
      </trkpt>
      <trkpt lat="51.94180796854198" lon="-9.651183988898993">
        <ele>234.22</ele>
        <time>2026-06-29T04:53:51Z</time>
      </trkpt>
      <trkpt lat="51.941776033490896" lon="-9.651449024677277">
        <ele>234.22</ele>
        <time>2026-06-29T04:53:52Z</time>
      </trkpt>
      <trkpt lat="51.941787013784051" lon="-9.651723029091954">
        <ele>234.69999999999999</ele>
        <time>2026-06-29T04:53:53Z</time>
      </trkpt>
      <trkpt lat="51.941797994077206" lon="-9.65199401602149">
        <ele>234.69999999999999</ele>
        <time>2026-06-29T04:53:54Z</time>
      </trkpt>
      <trkpt lat="51.94180897437036" lon="-9.652256034314632">
        <ele>234.69999999999999</ele>
        <time>2026-06-29T04:53:55Z</time>
      </trkpt>
      <trkpt lat="51.941794976592064" lon="-9.652498019859195">
        <ele>234.22</ele>
        <time>2026-06-29T04:53:56Z</time>
      </trkpt>
      <trkpt lat="51.941759018227458" lon="-9.652691977098584">
        <ele>233.74000000000001</ele>
        <time>2026-06-29T04:53:57Z</time>
      </trkpt>
      <trkpt lat="51.941695986315608" lon="-9.652844024822116">
        <ele>233.25999999999999</ele>
        <time>2026-06-29T04:53:58Z</time>
      </trkpt>
      <trkpt lat="51.941607976332307" lon="-9.652977967634797">
        <ele>232.78</ele>
        <time>2026-06-29T04:53:59Z</time>
      </trkpt>
      <trkpt lat="51.941495994105935" lon="-9.653122974559665">
        <ele>231.81</ele>
        <time>2026-06-29T04:54:00Z</time>
      </trkpt>
      <trkpt lat="51.941374959424138" lon="-9.653278961777687">
        <ele>231.81</ele>
        <time>2026-06-29T04:54:01Z</time>
      </trkpt>
      <trkpt lat="51.940963994711637" lon="-9.653725968673825">
        <ele>232.30000000000001</ele>
        <time>2026-06-29T04:54:04Z</time>
      </trkpt>
      <trkpt lat="51.940822005271912" lon="-9.653778020292521">
        <ele>232.30000000000001</ele>
        <time>2026-06-29T04:54:05Z</time>
      </trkpt>
      <trkpt lat="51.940692001953721" lon="-9.653791012242436">
        <ele>232.78</ele>
        <time>2026-06-29T04:54:06Z</time>
      </trkpt>
      <trkpt lat="51.940566021949053" lon="-9.653752036392689">
        <ele>233.25999999999999</ele>
        <time>2026-06-29T04:54:07Z</time>
      </trkpt>
      <trkpt lat="51.940443981438875" lon="-9.65371398255229">
        <ele>233.25999999999999</ele>
        <time>2026-06-29T04:54:08Z</time>
      </trkpt>
      <trkpt lat="51.940328981727362" lon="-9.65373401530087">
        <ele>234.22</ele>
        <time>2026-06-29T04:54:09Z</time>
      </trkpt>
      <trkpt lat="51.94021800532937" lon="-9.653798975050449">
        <ele>234.69999999999999</ele>
        <time>2026-06-29T04:54:10Z</time>
      </trkpt>
      <trkpt lat="51.940127983689308" lon="-9.653934007510543">
        <ele>235.66</ele>
        <time>2026-06-29T04:54:11Z</time>
      </trkpt>
      <trkpt lat="51.940028993412852" lon="-9.654082031920552">
        <ele>236.62</ele>
        <time>2026-06-29T04:54:12Z</time>
      </trkpt>
      <trkpt lat="51.939924973994493" lon="-9.654238019138575">
        <ele>237.58000000000001</ele>
        <time>2026-06-29T04:54:13Z</time>
      </trkpt>
      <trkpt lat="51.939816009253263" lon="-9.654400963336229">
        <ele>238.53999999999999</ele>
        <time>2026-06-29T04:54:14Z</time>
      </trkpt>
      <trkpt lat="51.939690029248595" lon="-9.654546976089478">
        <ele>239.50999999999999</ele>
        <time>2026-06-29T04:54:15Z</time>
      </trkpt>
      <trkpt lat="51.939261965453625" lon="-9.6550880279392">
        <ele>244.78999999999999</ele>
        <time>2026-06-29T04:54:19Z</time>
      </trkpt>
      <trkpt lat="51.939180996268988" lon="-9.655231023207307">
        <ele>245.75</ele>
        <time>2026-06-29T04:54:20Z</time>
      </trkpt>
      <trkpt lat="51.939105978235602" lon="-9.655376030132175">
        <ele>246.22999999999999</ele>
        <time>2026-06-29T04:54:21Z</time>
      </trkpt>
      <trkpt lat="51.939061973243952" lon="-9.655566969886422">
        <ele>247.19999999999999</ele>
        <time>2026-06-29T04:54:22Z</time>
      </trkpt>
      <trkpt lat="51.939016040414572" lon="-9.655764028429985">
        <ele>247.68000000000001</ele>
        <time>2026-06-29T04:54:23Z</time>
      </trkpt>
      <trkpt lat="51.938971029594541" lon="-9.655975000932813">
        <ele>248.63999999999999</ele>
        <time>2026-06-29T04:54:24Z</time>
      </trkpt>
      <trkpt lat="51.938687972724438" lon="-9.657436972483993">
        <ele>255.37</ele>
        <time>2026-06-29T04:54:32Z</time>
      </trkpt>
      <trkpt lat="51.938590994104743" lon="-9.657748024910688">
        <ele>258.25</ele>
        <time>2026-06-29T04:54:36Z</time>
      </trkpt>
      <trkpt lat="51.938621001318097" lon="-9.657827988266945">
        <ele>259.20999999999998</ele>
        <time>2026-06-29T04:54:37Z</time>
      </trkpt>
      <trkpt lat="51.938662994652987" lon="-9.657937958836556">
        <ele>259.20999999999998</ele>
        <time>2026-06-29T04:54:38Z</time>
      </trkpt>
      <trkpt lat="51.93871202878654" lon="-9.658067962154746">
        <ele>259.20999999999998</ele>
        <time>2026-06-29T04:54:39Z</time>
      </trkpt>
      <trkpt lat="51.938768019899726" lon="-9.658214980736375">
        <ele>259.69</ele>
        <time>2026-06-29T04:54:40Z</time>
      </trkpt>
      <trkpt lat="51.939335977658629" lon="-9.659722968935967">
        <ele>260.64999999999998</ele>
        <time>2026-06-29T04:54:48Z</time>
      </trkpt>
      <trkpt lat="51.93965801037848" lon="-9.66144897043705">
        <ele>263.06</ele>
        <time>2026-06-29T04:54:55Z</time>
      </trkpt>
      <trkpt lat="51.939693968743086" lon="-9.661820959299803">
        <ele>263.54000000000002</ele>
        <time>2026-06-29T04:54:57Z</time>
      </trkpt>
      <trkpt lat="51.939707966521382" lon="-9.66196303255856">
        <ele>264.01999999999998</ele>
        <time>2026-06-29T04:54:58Z</time>
      </trkpt>
      <trkpt lat="51.939676031470299" lon="-9.662087000906467">
        <ele>264.01999999999998</ele>
        <time>2026-06-29T04:54:59Z</time>
      </trkpt>
      <trkpt lat="51.939617022871971" lon="-9.6622200217098">
        <ele>264.01999999999998</ele>
        <time>2026-06-29T04:55:00Z</time>
      </trkpt>
      <trkpt lat="51.939548961818218" lon="-9.662375003099442">
        <ele>264.01999999999998</ele>
        <time>2026-06-29T04:55:01Z</time>
      </trkpt>
      <trkpt lat="51.939022997394204" lon="-9.663830017670989">
        <ele>266.42000000000002</ele>
        <time>2026-06-29T04:55:08Z</time>
      </trkpt>
      <trkpt lat="51.938402988016605" lon="-9.665479995310307">
        <ele>268.82999999999998</ele>
        <time>2026-06-29T04:55:16Z</time>
      </trkpt>
      <trkpt lat="51.938196960836649" lon="-9.66654097661376">
        <ele>270.26999999999998</ele>
        <time>2026-06-29T04:55:21Z</time>
      </trkpt>
      <trkpt lat="51.938130995258689" lon="-9.666734011843801">
        <ele>270.75</ele>
        <time>2026-06-29T04:55:22Z</time>
      </trkpt>
      <trkpt lat="51.937862019985914" lon="-9.667554013431072">
        <ele>270.75</ele>
        <time>2026-06-29T04:55:26Z</time>
      </trkpt>
      <trkpt lat="51.9378109741956" lon="-9.667774960398674">
        <ele>271.23000000000002</ele>
        <time>2026-06-29T04:55:27Z</time>
      </trkpt>
      <trkpt lat="51.937653981149197" lon="-9.668417014181614">
        <ele>272.19</ele>
        <time>2026-06-29T04:55:30Z</time>
      </trkpt>
      <trkpt lat="51.937569994479418" lon="-9.668583981692791">
        <ele>273.14999999999998</ele>
        <time>2026-06-29T04:55:31Z</time>
      </trkpt>
      <trkpt lat="51.937489025294781" lon="-9.668747009709477">
        <ele>272.67000000000002</ele>
        <time>2026-06-29T04:55:32Z</time>
      </trkpt>
      <trkpt lat="51.937377965077758" lon="-9.668873995542526">
        <ele>273.14999999999998</ele>
        <time>2026-06-29T04:55:33Z</time>
      </trkpt>
      <trkpt lat="51.937262965366244" lon="-9.668997963890433">
        <ele>272.67000000000002</ele>
        <time>2026-06-29T04:55:34Z</time>
      </trkpt>
      <trkpt lat="51.937136985361576" lon="-9.669106006622315">
        <ele>272.19</ele>
        <time>2026-06-29T04:55:35Z</time>
      </trkpt>
      <trkpt lat="51.936997007578611" lon="-9.669208014383912">
        <ele>272.19</ele>
        <time>2026-06-29T04:55:36Z</time>
      </trkpt>
      <trkpt lat="51.935823038220406" lon="-9.669974958524108">
        <ele>268.82999999999998</ele>
        <time>2026-06-29T04:55:43Z</time>
      </trkpt>
      <trkpt lat="51.934573967009783" lon="-9.670860003679991">
        <ele>270.75</ele>
        <time>2026-06-29T04:55:51Z</time>
      </trkpt>
      <trkpt lat="51.934305997565389" lon="-9.670955976471305">
        <ele>270.75</ele>
        <time>2026-06-29T04:55:53Z</time>
      </trkpt>
      <trkpt lat="51.934167025610805" lon="-9.670962011441588">
        <ele>270.26999999999998</ele>
        <time>2026-06-29T04:55:54Z</time>
      </trkpt>
      <trkpt lat="51.934025036171079" lon="-9.670907026156783">
        <ele>269.79000000000002</ele>
        <time>2026-06-29T04:55:55Z</time>
      </trkpt>
      <trkpt lat="51.932866992428899" lon="-9.670673003420234">
        <ele>267.86000000000001</ele>
        <time>2026-06-29T04:56:02Z</time>
      </trkpt>
      <trkpt lat="51.932560969144106" lon="-9.670633021742106">
        <ele>266.42000000000002</ele>
        <time>2026-06-29T04:56:04Z</time>
      </trkpt>
      <trkpt lat="51.932417973875999" lon="-9.670710973441601">
        <ele>265.94</ele>
        <time>2026-06-29T04:56:05Z</time>
      </trkpt>
      <trkpt lat="51.932279001921415" lon="-9.670799989253283">
        <ele>265.45999999999998</ele>
        <time>2026-06-29T04:56:06Z</time>
      </trkpt>
      <trkpt lat="51.931162029504776" lon="-9.671685034409165">
        <ele>261.62</ele>
        <time>2026-06-29T04:56:14Z</time>
      </trkpt>
      <trkpt lat="51.930039022117853" lon="-9.672045037150383">
        <ele>257.76999999999998</ele>
        <time>2026-06-29T04:56:21Z</time>
      </trkpt>
      <trkpt lat="51.928503960371017" lon="-9.671907993033528">
        <ele>255.37</ele>
        <time>2026-06-29T04:56:30Z</time>
      </trkpt>
      <trkpt lat="51.927377013489604" lon="-9.671398038044572">
        <ele>256.81</ele>
        <time>2026-06-29T04:56:37Z</time>
      </trkpt>
      <trkpt lat="51.92676798440516" lon="-9.671110035851598">
        <ele>255.84999999999999</ele>
        <time>2026-06-29T04:56:41Z</time>
      </trkpt>
      <trkpt lat="51.926629012450576" lon="-9.671101989224553">
        <ele>254.88999999999999</ele>
        <time>2026-06-29T04:56:42Z</time>
      </trkpt>
      <trkpt lat="51.926507977768779" lon="-9.671141970902681">
        <ele>254.41</ele>
        <time>2026-06-29T04:56:43Z</time>
      </trkpt>
      <trkpt lat="51.926387026906013" lon="-9.671209026128054">
        <ele>253.44</ele>
        <time>2026-06-29T04:56:44Z</time>
      </trkpt>
      <trkpt lat="51.926280995830894" lon="-9.671346992254257">
        <ele>252.96000000000001</ele>
        <time>2026-06-29T04:56:45Z</time>
      </trkpt>
      <trkpt lat="51.926160966977477" lon="-9.671504991129041">
        <ele>252.47999999999999</ele>
        <time>2026-06-29T04:56:46Z</time>
      </trkpt>
      <trkpt lat="51.926032975316048" lon="-9.671671958640218">
        <ele>252.47999999999999</ele>
        <time>2026-06-29T04:56:47Z</time>
      </trkpt>
      <trkpt lat="51.925264019519091" lon="-9.672563960775733">
        <ele>249.12</ele>
        <time>2026-06-29T04:56:53Z</time>
      </trkpt>
      <trkpt lat="51.925129992887378" lon="-9.672631016001105">
        <ele>248.16</ele>
        <time>2026-06-29T04:56:54Z</time>
      </trkpt>
      <trkpt lat="51.924995966255665" lon="-9.672638978809118">
        <ele>247.68000000000001</ele>
        <time>2026-06-29T04:56:55Z</time>
      </trkpt>
      <trkpt lat="51.924851965159178" lon="-9.672627998515964">
        <ele>247.19999999999999</ele>
        <time>2026-06-29T04:56:56Z</time>
      </trkpt>
      <trkpt lat="51.9247040245682" lon="-9.672557003796101">
        <ele>246.72</ele>
        <time>2026-06-29T04:56:57Z</time>
      </trkpt>
      <trkpt lat="51.92455398850143" lon="-9.672467987984419">
        <ele>246.22999999999999</ele>
        <time>2026-06-29T04:56:58Z</time>
      </trkpt>
      <trkpt lat="51.924398001283407" lon="-9.672375032678247">
        <ele>245.75</ele>
        <time>2026-06-29T04:56:59Z</time>
      </trkpt>
      <trkpt lat="51.924250982701778" lon="-9.672240000218153">
        <ele>245.75</ele>
        <time>2026-06-29T04:57:00Z</time>
      </trkpt>
      <trkpt lat="51.92410496994853" lon="-9.672076972201467">
        <ele>245.27000000000001</ele>
        <time>2026-06-29T04:57:01Z</time>
      </trkpt>
      <trkpt lat="51.923983013257384" lon="-9.671870023012161">
        <ele>244.78999999999999</ele>
        <time>2026-06-29T04:57:02Z</time>
      </trkpt>
      <trkpt lat="51.92386700771749" lon="-9.671673970296979">
        <ele>243.83000000000001</ele>
        <time>2026-06-29T04:57:03Z</time>
      </trkpt>
      <trkpt lat="51.923744967207313" lon="-9.671528041362763">
        <ele>243.34999999999999</ele>
        <time>2026-06-29T04:57:04Z</time>
      </trkpt>
      <trkpt lat="51.923619993031025" lon="-9.671402983367443">
        <ele>242.38999999999999</ele>
        <time>2026-06-29T04:57:05Z</time>
      </trkpt>
      <trkpt lat="51.923481021076441" lon="-9.671315979212523">
        <ele>241.91</ele>
        <time>2026-06-29T04:57:06Z</time>
      </trkpt>
      <trkpt lat="51.923327967524529" lon="-9.67124498449266">
        <ele>240.94999999999999</ele>
        <time>2026-06-29T04:57:07Z</time>
      </trkpt>
      <trkpt lat="51.923164017498493" lon="-9.671169966459274">
        <ele>240.47</ele>
        <time>2026-06-29T04:57:08Z</time>
      </trkpt>
      <trkpt lat="51.922449041157961" lon="-9.670851035043597">
        <ele>238.06</ele>
        <time>2026-06-29T04:57:12Z</time>
      </trkpt>
      <trkpt lat="51.922260029241443" lon="-9.670799989253283">
        <ele>237.58000000000001</ele>
        <time>2026-06-29T04:57:13Z</time>
      </trkpt>
      <trkpt lat="51.921904971823096" lon="-9.670705022290349">
        <ele>236.13999999999999</ele>
        <time>2026-06-29T04:57:15Z</time>
      </trkpt>
      <trkpt lat="51.920787999406457" lon="-9.670696975663304">
        <ele>232.78</ele>
        <time>2026-06-29T04:57:22Z</time>
      </trkpt>
      <trkpt lat="51.920130020007491" lon="-9.670807030051947">
        <ele>230.84999999999999</ele>
        <time>2026-06-29T04:57:26Z</time>
      </trkpt>
      <trkpt lat="51.919975960627198" lon="-9.670856986194849">
        <ele>230.37</ele>
        <time>2026-06-29T04:57:27Z</time>
      </trkpt>
      <trkpt lat="51.919826008379459" lon="-9.670941978693008">
        <ele>229.88999999999999</ele>
        <time>2026-06-29T04:57:28Z</time>
      </trkpt>
      <trkpt lat="51.919684018939734" lon="-9.671054966747761">
        <ele>229.41</ele>
        <time>2026-06-29T04:57:29Z</time>
      </trkpt>
      <trkpt lat="51.919553009793162" lon="-9.671209026128054">
        <ele>228.93000000000001</ele>
        <time>2026-06-29T04:57:30Z</time>
      </trkpt>
      <trkpt lat="51.919416971504688" lon="-9.671361995860934">
        <ele>228.44999999999999</ele>
        <time>2026-06-29T04:57:31Z</time>
      </trkpt>
      <trkpt lat="51.918934006243944" lon="-9.671917967498303">
        <ele>226.53</ele>
        <time>2026-06-29T04:57:35Z</time>
      </trkpt>
      <trkpt lat="51.918837027624249" lon="-9.672086024656892">
        <ele>226.53</ele>
        <time>2026-06-29T04:57:36Z</time>
      </trkpt>
      <trkpt lat="51.918740971013904" lon="-9.672258021309972">
        <ele>225.56999999999999</ele>
        <time>2026-06-29T04:57:37Z</time>
      </trkpt>
      <trkpt lat="51.918665030971169" lon="-9.672475028783083">
        <ele>225.09</ele>
        <time>2026-06-29T04:57:38Z</time>
      </trkpt>
      <trkpt lat="51.918584983795881" lon="-9.672698993235827">
        <ele>225.09</ele>
        <time>2026-06-29T04:57:39Z</time>
      </trkpt>
      <trkpt lat="51.918426984921098" lon="-9.673146000131965">
        <ele>224.61000000000001</ele>
        <time>2026-06-29T04:57:41Z</time>
      </trkpt>
      <trkpt lat="51.918373005464673" lon="-9.673373987898231">
        <ele>224.61000000000001</ele>
        <time>2026-06-29T04:57:42Z</time>
      </trkpt>
      <trkpt lat="51.918349033221602" lon="-9.673627037554979">
        <ele>224.61000000000001</ele>
        <time>2026-06-29T04:57:43Z</time>
      </trkpt>
      <trkpt lat="51.918206037953496" lon="-9.675268968567252">
        <ele>223.16</ele>
        <time>2026-06-29T04:57:49Z</time>
      </trkpt>
      <trkpt lat="51.918146023526788" lon="-9.675523024052382">
        <ele>223.16</ele>
        <time>2026-06-29T04:57:50Z</time>
      </trkpt>
      <trkpt lat="51.917749978601933" lon="-9.677800973877311">
        <ele>219.80000000000001</ele>
        <time>2026-06-29T04:57:59Z</time>
      </trkpt>
      <trkpt lat="51.917717959731817" lon="-9.678032984957099">
        <ele>218.84</ele>
        <time>2026-06-29T04:58:00Z</time>
      </trkpt>
      <trkpt lat="51.917646965011954" lon="-9.6782729588449">
        <ele>218.84</ele>
        <time>2026-06-29T04:58:01Z</time>
      </trkpt>
      <trkpt lat="51.917576976120472" lon="-9.67850798740983">
        <ele>218.36000000000001</ele>
        <time>2026-06-29T04:58:02Z</time>
      </trkpt>
      <trkpt lat="51.916699977591634" lon="-9.680579993873835">
        <ele>214.99000000000001</ele>
        <time>2026-06-29T04:58:11Z</time>
      </trkpt>
      <trkpt lat="51.915837982669473" lon="-9.68207499012351">
        <ele>214.03</ele>
        <time>2026-06-29T04:58:19Z</time>
      </trkpt>
      <trkpt lat="51.915116971358657" lon="-9.68374801799655">
        <ele>210.66999999999999</ele>
        <time>2026-06-29T04:58:27Z</time>
      </trkpt>
      <trkpt lat="51.914600981399417" lon="-9.685002034530044">
        <ele>207.30000000000001</ele>
        <time>2026-06-29T04:58:33Z</time>
      </trkpt>
      <trkpt lat="51.914396965876222" lon="-9.685377040877938">
        <ele>206.81999999999999</ele>
        <time>2026-06-29T04:58:35Z</time>
      </trkpt>
      <trkpt lat="51.913821967318654" lon="-9.686661986634135">
        <ele>204.41999999999999</ele>
        <time>2026-06-29T04:58:41Z</time>
      </trkpt>
      <trkpt lat="51.913716020062566" lon="-9.686872959136963">
        <ele>203.94</ele>
        <time>2026-06-29T04:58:42Z</time>
      </trkpt>
      <trkpt lat="51.913415025919676" lon="-9.687476037070155">
        <ele>202.49000000000001</ele>
        <time>2026-06-29T04:58:45Z</time>
      </trkpt>
      <trkpt lat="51.913328021764755" lon="-9.687678040936589">
        <ele>202.00999999999999</ele>
        <time>2026-06-29T04:58:46Z</time>
      </trkpt>
      <trkpt lat="51.91327303647995" lon="-9.687913991510868">
        <ele>201.53</ele>
        <time>2026-06-29T04:58:47Z</time>
      </trkpt>
      <trkpt lat="51.912978999316692" lon="-9.689728002995253">
        <ele>198.16999999999999</ele>
        <time>2026-06-29T04:58:54Z</time>
      </trkpt>
      <trkpt lat="51.912986962124705" lon="-9.689976023510099">
        <ele>197.69</ele>
        <time>2026-06-29T04:58:55Z</time>
      </trkpt>
      <trkpt lat="51.91299500875175" lon="-9.690232006832957">
        <ele>197.21000000000001</ele>
        <time>2026-06-29T04:58:56Z</time>
      </trkpt>
      <trkpt lat="51.913307989016175" lon="-9.692969033494592">
        <ele>191.44</ele>
        <time>2026-06-29T04:59:06Z</time>
      </trkpt>
      <trkpt lat="51.91359699703753" lon="-9.695806978270412">
        <ele>185.66999999999999</ele>
        <time>2026-06-29T04:59:16Z</time>
      </trkpt>
      <trkpt lat="51.913620969280601" lon="-9.698987994343042">
        <ele>179.41999999999999</ele>
        <time>2026-06-29T04:59:27Z</time>
      </trkpt>
      <trkpt lat="51.913641002029181" lon="-9.701535003259778">
        <ele>173.16999999999999</ele>
        <time>2026-06-29T04:59:36Z</time>
      </trkpt>
      <trkpt lat="51.913452995941043" lon="-9.70336502417922">
        <ele>168.84999999999999</ele>
        <time>2026-06-29T04:59:43Z</time>
      </trkpt>
      <trkpt lat="51.912733996286988" lon="-9.706306988373399">
        <ele>164.03999999999999</ele>
        <time>2026-06-29T04:59:54Z</time>
      </trkpt>
      <trkpt lat="51.912195039913058" lon="-9.708932032808662">
        <ele>158.27000000000001</ele>
        <time>2026-06-29T05:00:04Z</time>
      </trkpt>
      <trkpt lat="51.911589028313756" lon="-9.710840005427599">
        <ele>153.94999999999999</ele>
        <time>2026-06-29T05:00:12Z</time>
      </trkpt>
      <trkpt lat="51.911250986158848" lon="-9.711737036705017">
        <ele>152.99000000000001</ele>
        <time>2026-06-29T05:00:16Z</time>
      </trkpt>
      <trkpt lat="51.911184014752507" lon="-9.711966030299664">
        <ele>152.50999999999999</ele>
        <time>2026-06-29T05:00:17Z</time>
      </trkpt>
      <trkpt lat="51.911144033074379" lon="-9.712211033329368">
        <ele>152.50999999999999</ele>
        <time>2026-06-29T05:00:18Z</time>
      </trkpt>
      <trkpt lat="51.911108996719122" lon="-9.712467016652226">
        <ele>152.50999999999999</ele>
        <time>2026-06-29T05:00:19Z</time>
      </trkpt>
      <trkpt lat="51.911073038354516" lon="-9.712726017460227">
        <ele>152.50999999999999</ele>
        <time>2026-06-29T05:00:20Z</time>
      </trkpt>
      <trkpt lat="51.911065997555852" lon="-9.712986024096608">
        <ele>152.03</ele>
        <time>2026-06-29T05:00:21Z</time>
      </trkpt>
      <trkpt lat="51.911065997555852" lon="-9.713994031772018">
        <ele>151.53999999999999</ele>
        <time>2026-06-29T05:00:25Z</time>
      </trkpt>
      <trkpt lat="51.911028027534485" lon="-9.714243980124593">
        <ele>151.53999999999999</ele>
        <time>2026-06-29T05:00:26Z</time>
      </trkpt>
      <trkpt lat="51.910978993400931" lon="-9.714480014517903">
        <ele>151.53999999999999</ele>
        <time>2026-06-29T05:00:27Z</time>
      </trkpt>
      <trkpt lat="51.91069501452148" lon="-9.716508015990257">
        <ele>149.62</ele>
        <time>2026-06-29T05:00:35Z</time>
      </trkpt>
      <trkpt lat="51.910646986216307" lon="-9.718122035264969">
        <ele>146.74000000000001</ele>
        <time>2026-06-29T05:00:41Z</time>
      </trkpt>
      <trkpt lat="51.91060901619494" lon="-9.71838497556746">
        <ele>146.25999999999999</ele>
        <time>2026-06-29T05:00:42Z</time>
      </trkpt>
      <trkpt lat="51.90998800098896" lon="-9.720609029754996">
        <ele>142.88999999999999</ele>
        <time>2026-06-29T05:00:51Z</time>
      </trkpt>
      <trkpt lat="51.909129023551941" lon="-9.72265999764204">
        <ele>139.05000000000001</ele>
        <time>2026-06-29T05:01:00Z</time>
      </trkpt>
      <trkpt lat="51.908431984484196" lon="-9.724873993545771">
        <ele>134.72</ele>
        <time>2026-06-29T05:01:09Z</time>
      </trkpt>
      <trkpt lat="51.90839602611959" lon="-9.725120002403855">
        <ele>134.72</ele>
        <time>2026-06-29T05:01:10Z</time>
      </trkpt>
      <trkpt lat="51.908359983935952" lon="-9.725362993776798">
        <ele>134.72</ele>
        <time>2026-06-29T05:01:11Z</time>
      </trkpt>
      <trkpt lat="51.908286977559328" lon="-9.725852999836206">
        <ele>133.75999999999999</ele>
        <time>2026-06-29T05:01:13Z</time>
      </trkpt>
      <trkpt lat="51.908231992274523" lon="-9.726094985380769">
        <ele>133.28</ele>
        <time>2026-06-29T05:01:14Z</time>
      </trkpt>
      <trkpt lat="51.907458007335663" lon="-9.72906201146543">
        <ele>127.98999999999999</ele>
        <time>2026-06-29T05:01:26Z</time>
      </trkpt>
      <trkpt lat="51.906731966882944" lon="-9.732270017266274">
        <ele>121.26000000000001</ele>
        <time>2026-06-29T05:01:39Z</time>
      </trkpt>
      <trkpt lat="51.906461985781789" lon="-9.73432500846684">
        <ele>115.98</ele>
        <time>2026-06-29T05:01:47Z</time>
      </trkpt>
      <trkpt lat="51.906399037688971" lon="-9.73656096495688">
        <ele>112.13</ele>
        <time>2026-06-29T05:01:56Z</time>
      </trkpt>
      <trkpt lat="51.906428039073944" lon="-9.736778978258371">
        <ele>112.13</ele>
        <time>2026-06-29T05:01:57Z</time>
      </trkpt>
      <trkpt lat="51.906494004651904" lon="-9.73698802292347">
        <ele>111.65000000000001</ele>
        <time>2026-06-29T05:01:58Z</time>
      </trkpt>
      <trkpt lat="51.906560976058245" lon="-9.737205030396581">
        <ele>111.65000000000001</ele>
        <time>2026-06-29T05:01:59Z</time>
      </trkpt>
      <trkpt lat="51.906627025455236" lon="-9.737414997071028">
        <ele>111.17</ele>
        <time>2026-06-29T05:02:00Z</time>
      </trkpt>
      <trkpt lat="51.906689973548055" lon="-9.737614989280701">
        <ele>110.69</ele>
        <time>2026-06-29T05:02:01Z</time>
      </trkpt>
      <trkpt lat="51.906731966882944" lon="-9.737815987318754">
        <ele>109.73</ele>
        <time>2026-06-29T05:02:02Z</time>
      </trkpt>
      <trkpt lat="51.906731966882944" lon="-9.738013967871666">
        <ele>109.25</ele>
        <time>2026-06-29T05:02:03Z</time>
      </trkpt>
      <trkpt lat="51.906706988811493" lon="-9.738200968131423">
        <ele>108.29000000000001</ele>
        <time>2026-06-29T05:02:04Z</time>
      </trkpt>
      <trkpt lat="51.906670024618506" lon="-9.738398026674986">
        <ele>107.81</ele>
        <time>2026-06-29T05:02:05Z</time>
      </trkpt>
      <trkpt lat="51.906620990484953" lon="-9.738588966429234">
        <ele>107.31999999999999</ele>
        <time>2026-06-29T05:02:06Z</time>
      </trkpt>
      <trkpt lat="51.906551001593471" lon="-9.738782001659274">
        <ele>106.84</ele>
        <time>2026-06-29T05:02:07Z</time>
      </trkpt>
      <trkpt lat="51.905923029407859" lon="-9.740504985675216">
        <ele>101.56</ele>
        <time>2026-06-29T05:02:15Z</time>
      </trkpt>
      <trkpt lat="51.905835019424558" lon="-9.74064102396369">
        <ele>101.08</ele>
        <time>2026-06-29T05:02:16Z</time>
      </trkpt>
      <trkpt lat="51.905735023319721" lon="-9.740742025896907">
        <ele>100.59999999999999</ele>
        <time>2026-06-29T05:02:17Z</time>
      </trkpt>
      <trkpt lat="51.905628992244601" lon="-9.740807991474867">
        <ele>100.11</ele>
        <time>2026-06-29T05:02:18Z</time>
      </trkpt>
      <trkpt lat="51.905498988926411" lon="-9.740837998688221">
        <ele>99.150000000000006</ele>
        <time>2026-06-29T05:02:19Z</time>
      </trkpt>
      <trkpt lat="51.905358005315065" lon="-9.740871023386717">
        <ele>98.670000000000002</ele>
        <time>2026-06-29T05:02:20Z</time>
      </trkpt>
      <trkpt lat="51.905208975076675" lon="-9.740904970094562">
        <ele>97.709999999999994</ele>
        <time>2026-06-29T05:02:21Z</time>
      </trkpt>
      <trkpt lat="51.905057011172175" lon="-9.740961967036128">
        <ele>97.230000000000004</ele>
        <time>2026-06-29T05:02:22Z</time>
      </trkpt>
      <trkpt lat="51.904906975105405" lon="-9.741047965362668">
        <ele>97.230000000000004</ele>
        <time>2026-06-29T05:02:23Z</time>
      </trkpt>
      <trkpt lat="51.903598979115486" lon="-9.742008028551936">
        <ele>95.790000000000006</ele>
        <time>2026-06-29T05:02:32Z</time>
      </trkpt>
      <trkpt lat="51.902628019452095" lon="-9.743231032043695">
        <ele>94.349999999999994</ele>
        <time>2026-06-29T05:02:40Z</time>
      </trkpt>
      <trkpt lat="51.902545038610697" lon="-9.743404034525156">
        <ele>93.870000000000005</ele>
        <time>2026-06-29T05:02:41Z</time>
      </trkpt>
      <trkpt lat="51.902474965900183" lon="-9.74358600564301">
        <ele>93.390000000000001</ele>
        <time>2026-06-29T05:02:42Z</time>
      </trkpt>
      <trkpt lat="51.902173971757293" lon="-9.744299976155162">
        <ele>90.980000000000004</ele>
        <time>2026-06-29T05:02:46Z</time>
      </trkpt>
      <trkpt lat="51.902070036157966" lon="-9.74446501582861">
        <ele>90.5</ele>
        <time>2026-06-29T05:02:47Z</time>
      </trkpt>
      <trkpt lat="51.901933997869492" lon="-9.744571968913078">
        <ele>90.5</ele>
        <time>2026-06-29T05:02:48Z</time>
      </trkpt>
      <trkpt lat="51.901792008429766" lon="-9.744683029130101">
        <ele>90.019999999999996</ele>
        <time>2026-06-29T05:02:49Z</time>
      </trkpt>
      <trkpt lat="51.901649013161659" lon="-9.744795011356473">
        <ele>89.540000000000006</ele>
        <time>2026-06-29T05:02:50Z</time>
      </trkpt>
      <trkpt lat="51.901251962408423" lon="-9.745143027976155">
        <ele>90.019999999999996</ele>
        <time>2026-06-29T05:02:53Z</time>
      </trkpt>
      <trkpt lat="51.901151966303587" lon="-9.745292980223894">
        <ele>89.540000000000006</ele>
        <time>2026-06-29T05:02:54Z</time>
      </trkpt>
      <trkpt lat="51.901077032089233" lon="-9.74547796882689">
        <ele>89.060000000000002</ele>
        <time>2026-06-29T05:02:55Z</time>
      </trkpt>
      <trkpt lat="51.901004025712609" lon="-9.745687013491988">
        <ele>88.579999999999998</ele>
        <time>2026-06-29T05:02:56Z</time>
      </trkpt>
      <trkpt lat="51.900940993800759" lon="-9.745916007086635">
        <ele>88.099999999999994</ele>
        <time>2026-06-29T05:02:57Z</time>
      </trkpt>
      <trkpt lat="51.900245966389775" lon="-9.748342987149954">
        <ele>84.25</ele>
        <time>2026-06-29T05:03:07Z</time>
      </trkpt>
      <trkpt lat="51.898961020633578" lon="-9.751098034903407">
        <ele>81.849999999999994</ele>
        <time>2026-06-29T05:03:20Z</time>
      </trkpt>
      <trkpt lat="51.897924011573195" lon="-9.753302978351712">
        <ele>77.519999999999996</ele>
        <time>2026-06-29T05:03:30Z</time>
      </trkpt>
      <trkpt lat="51.89668801613152" lon="-9.755882006138563">
        <ele>71.760000000000005</ele>
        <time>2026-06-29T05:03:42Z</time>
      </trkpt>
      <trkpt lat="51.89522503875196" lon="-9.758275961503387">
        <ele>65.989999999999995</ele>
        <time>2026-06-29T05:03:54Z</time>
      </trkpt>
      <trkpt lat="51.893806988373399" lon="-9.760489035397768">
        <ele>63.579999999999998</ele>
        <time>2026-06-29T05:04:06Z</time>
      </trkpt>
      <trkpt lat="51.892449958249927" lon="-9.762479988858104">
        <ele>63.100000000000001</ele>
        <time>2026-06-29T05:04:17Z</time>
      </trkpt>
      <trkpt lat="51.891186973080039" lon="-9.764597006142139">
        <ele>57.340000000000003</ele>
        <time>2026-06-29T05:04:28Z</time>
      </trkpt>
      <trkpt lat="51.89002700150013" lon="-9.766601035371423">
        <ele>51.090000000000003</ele>
        <time>2026-06-29T05:04:38Z</time>
      </trkpt>
      <trkpt lat="51.889709997922182" lon="-9.767236970365048">
        <ele>50.609999999999999</ele>
        <time>2026-06-29T05:04:41Z</time>
      </trkpt>
      <trkpt lat="51.889346977695823" lon="-9.768190998584032">
        <ele>48.68</ele>
        <time>2026-06-29T05:04:45Z</time>
      </trkpt>
      <trkpt lat="51.888664020225406" lon="-9.769592033699155">
        <ele>46.280000000000001</ele>
        <time>2026-06-29T05:04:52Z</time>
      </trkpt>
      <trkpt lat="51.888585984706879" lon="-9.769815998151898">
        <ele>46.280000000000001</ele>
        <time>2026-06-29T05:04:53Z</time>
      </trkpt>
      <trkpt lat="51.888511972501874" lon="-9.770030993968248">
        <ele>46.280000000000001</ele>
        <time>2026-06-29T05:04:54Z</time>
      </trkpt>
      <trkpt lat="51.88822103664279" lon="-9.770930036902428">
        <ele>48.68</ele>
        <time>2026-06-29T05:04:58Z</time>
      </trkpt>
      <trkpt lat="51.888127997517586" lon="-9.771124999970198">
        <ele>49.649999999999999</ele>
        <time>2026-06-29T05:04:59Z</time>
      </trkpt>
      <trkpt lat="51.887547969818115" lon="-9.77233299985528">
        <ele>53.009999999999998</ele>
        <time>2026-06-29T05:05:05Z</time>
      </trkpt>
      <trkpt lat="51.887368010357022" lon="-9.772708006203175">
        <ele>53.969999999999999</ele>
        <time>2026-06-29T05:05:07Z</time>
      </trkpt>
      <trkpt lat="51.887274971231818" lon="-9.772901041433215">
        <ele>53.969999999999999</ele>
        <time>2026-06-29T05:05:08Z</time>
      </trkpt>
      <trkpt lat="51.887194002047181" lon="-9.77310698479414">
        <ele>54.450000000000003</ele>
        <time>2026-06-29T05:05:09Z</time>
      </trkpt>
      <trkpt lat="51.887151002883911" lon="-9.773345030844212">
        <ele>54.93</ele>
        <time>2026-06-29T05:05:10Z</time>
      </trkpt>
      <trkpt lat="51.887108003720641" lon="-9.773585004732013">
        <ele>55.890000000000001</ele>
        <time>2026-06-29T05:05:11Z</time>
      </trkpt>
      <trkpt lat="51.887071039527655" lon="-9.773821961134672">
        <ele>56.859999999999999</ele>
        <time>2026-06-29T05:05:12Z</time>
      </trkpt>
      <trkpt lat="51.886917985975742" lon="-9.776093037799001">
        <ele>62.140000000000001</ele>
        <time>2026-06-29T05:05:21Z</time>
      </trkpt>
      <trkpt lat="51.886969031766057" lon="-9.77729600854218">
        <ele>65.510000000000005</ele>
        <time>2026-06-29T05:05:26Z</time>
      </trkpt>
      <trkpt lat="51.886892002075911" lon="-9.777651987969875">
        <ele>66.469999999999999</ele>
        <time>2026-06-29T05:05:28Z</time>
      </trkpt>
      <trkpt lat="51.886826958507299" lon="-9.777799006551504">
        <ele>66.950000000000003</ele>
        <time>2026-06-29T05:05:29Z</time>
      </trkpt>
      <trkpt lat="51.886599976569414" lon="-9.778308961540461">
        <ele>68.870000000000005</ele>
        <time>2026-06-29T05:05:32Z</time>
      </trkpt>
      <trkpt lat="51.886493023484945" lon="-9.778766026720405">
        <ele>70.310000000000002</ele>
        <time>2026-06-29T05:05:34Z</time>
      </trkpt>
      <trkpt lat="51.886441977694631" lon="-9.779006000608206">
        <ele>71.269999999999996</ele>
        <time>2026-06-29T05:05:35Z</time>
      </trkpt>
      <trkpt lat="51.886236034333706" lon="-9.779918035492301">
        <ele>74.640000000000001</ele>
        <time>2026-06-29T05:05:39Z</time>
      </trkpt>
      <trkpt lat="51.88616001047194" lon="-9.78013101965189">
        <ele>75.120000000000005</ele>
        <time>2026-06-29T05:05:40Z</time>
      </trkpt>
      <trkpt lat="51.886081974953413" lon="-9.780350960791111">
        <ele>75.599999999999994</ele>
        <time>2026-06-29T05:05:41Z</time>
      </trkpt>
      <trkpt lat="51.886002011597157" lon="-9.780575009062886">
        <ele>76.079999999999998</ele>
        <time>2026-06-29T05:05:42Z</time>
      </trkpt>
      <trkpt lat="51.885919030755758" lon="-9.780806014314294">
        <ele>76.560000000000002</ele>
        <time>2026-06-29T05:05:43Z</time>
      </trkpt>
      <trkpt lat="51.88583797775209" lon="-9.78103400208056">
        <ele>76.560000000000002</ele>
        <time>2026-06-29T05:05:44Z</time>
      </trkpt>
      <trkpt lat="51.885791039094329" lon="-9.781283028423786">
        <ele>77.040000000000006</ele>
        <time>2026-06-29T05:05:45Z</time>
      </trkpt>
      <trkpt lat="51.885747034102678" lon="-9.781535994261503">
        <ele>77.519999999999996</ele>
        <time>2026-06-29T05:05:46Z</time>
      </trkpt>
      <trkpt lat="51.885242024436593" lon="-9.783922992646694">
        <ele>82.329999999999998</ele>
        <time>2026-06-29T05:05:56Z</time>
      </trkpt>
      <trkpt lat="51.884583961218596" lon="-9.785377001389861">
        <ele>86.659999999999997</ele>
        <time>2026-06-29T05:06:03Z</time>
      </trkpt>
      <trkpt lat="51.884473990648985" lon="-9.785505998879671">
        <ele>87.140000000000001</ele>
        <time>2026-06-29T05:06:04Z</time>
      </trkpt>
      <trkpt lat="51.884358990937471" lon="-9.785639019683003">
        <ele>87.620000000000005</ele>
        <time>2026-06-29T05:06:05Z</time>
      </trkpt>
      <trkpt lat="51.884238040074706" lon="-9.785775979980826">
        <ele>88.099999999999994</ele>
        <time>2026-06-29T05:06:06Z</time>
      </trkpt>
      <trkpt lat="51.884103007614613" lon="-9.785873964428902">
        <ele>88.099999999999994</ele>
        <time>2026-06-29T05:06:07Z</time>
      </trkpt>
      <trkpt lat="51.883579976856709" lon="-9.786183005198836">
        <ele>89.540000000000006</ele>
        <time>2026-06-29T05:06:11Z</time>
      </trkpt>
      <trkpt lat="51.882365019991994" lon="-9.786746017634869">
        <ele>94.349999999999994</ele>
        <time>2026-06-29T05:06:19Z</time>
      </trkpt>
      <trkpt lat="51.881360029801726" lon="-9.787616981193423">
        <ele>96.75</ele>
        <time>2026-06-29T05:06:26Z</time>
      </trkpt>
      <trkpt lat="51.881030034273863" lon="-9.787956029176712">
        <ele>99.150000000000006</ele>
        <time>2026-06-29T05:06:29Z</time>
      </trkpt>
      <trkpt lat="51.880947975441813" lon="-9.788085026666522">
        <ele>99.150000000000006</ele>
        <time>2026-06-29T05:06:30Z</time>
      </trkpt>
      <trkpt lat="51.880892990157008" lon="-9.788249982520938">
        <ele>98.670000000000002</ele>
        <time>2026-06-29T05:06:31Z</time>
      </trkpt>
      <trkpt lat="51.880856025964022" lon="-9.788421979174018">
        <ele>98.670000000000002</ele>
        <time>2026-06-29T05:06:32Z</time>
      </trkpt>
      <trkpt lat="51.880866000428796" lon="-9.788611996918917">
        <ele>99.150000000000006</ele>
        <time>2026-06-29T05:06:33Z</time>
      </trkpt>
      <trkpt lat="51.880885027348995" lon="-9.788806037977338">
        <ele>99.629999999999995</ele>
        <time>2026-06-29T05:06:34Z</time>
      </trkpt>
      <trkpt lat="51.880924003198743" lon="-9.789006030187011">
        <ele>100.11</ele>
        <time>2026-06-29T05:06:35Z</time>
      </trkpt>
      <trkpt lat="51.880960967391729" lon="-9.789197975769639">
        <ele>100.59999999999999</ele>
        <time>2026-06-29T05:06:36Z</time>
      </trkpt>
      <trkpt lat="51.880988962948322" lon="-9.789383970201016">
        <ele>100.59999999999999</ele>
        <time>2026-06-29T05:06:37Z</time>
      </trkpt>
      <trkpt lat="51.881003966554999" lon="-9.789548004046083">
        <ele>100.59999999999999</ele>
        <time>2026-06-29T05:06:38Z</time>
      </trkpt>
      <trkpt lat="51.880964990705252" lon="-9.789745984598994">
        <ele>101.08</ele>
        <time>2026-06-29T05:06:39Z</time>
      </trkpt>
      <trkpt lat="51.880927020683885" lon="-9.789940025657415">
        <ele>101.08</ele>
        <time>2026-06-29T05:06:40Z</time>
      </trkpt>
      <trkpt lat="51.880886033177376" lon="-9.790148986503482">
        <ele>101.56</ele>
        <time>2026-06-29T05:06:41Z</time>
      </trkpt>
      <trkpt lat="51.880813026800752" lon="-9.790601022541523">
        <ele>102.04000000000001</ele>
        <time>2026-06-29T05:06:43Z</time>
      </trkpt>
      <trkpt lat="51.880823001265526" lon="-9.790832027792931">
        <ele>103</ele>
        <time>2026-06-29T05:06:44Z</time>
      </trkpt>
      <trkpt lat="51.8808329757303" lon="-9.791074013337493">
        <ele>103.48</ele>
        <time>2026-06-29T05:06:45Z</time>
      </trkpt>
      <trkpt lat="51.881034979596734" lon="-9.792244965210557">
        <ele>106.36</ele>
        <time>2026-06-29T05:06:50Z</time>
      </trkpt>
      <trkpt lat="51.881091976538301" lon="-9.792465995997191">
        <ele>107.31999999999999</ele>
        <time>2026-06-29T05:06:51Z</time>
      </trkpt>
      <trkpt lat="51.881416020914912" lon="-9.793546004220843">
        <ele>110.20999999999999</ele>
        <time>2026-06-29T05:06:56Z</time>
      </trkpt>
      <trkpt lat="51.88145600259304" lon="-9.793739039450884">
        <ele>110.69</ele>
        <time>2026-06-29T05:06:57Z</time>
      </trkpt>
      <trkpt lat="51.881468994542956" lon="-9.79394800029695">
        <ele>111.17</ele>
        <time>2026-06-29T05:06:58Z</time>
      </trkpt>
      <trkpt lat="51.881452985107899" lon="-9.794158972799778">
        <ele>111.65000000000001</ele>
        <time>2026-06-29T05:06:59Z</time>
      </trkpt>
      <trkpt lat="51.881436975672841" lon="-9.794374974444509">
        <ele>112.13</ele>
        <time>2026-06-29T05:07:00Z</time>
      </trkpt>
      <trkpt lat="51.8813890311867" lon="-9.794573960825801">
        <ele>112.61</ele>
        <time>2026-06-29T05:07:01Z</time>
      </trkpt>
      <trkpt lat="51.881333040073514" lon="-9.794769007712603">
        <ele>113.09</ele>
        <time>2026-06-29T05:07:02Z</time>
      </trkpt>
      <trkpt lat="51.881264979019761" lon="-9.794950978830457">
        <ele>113.56999999999999</ele>
        <time>2026-06-29T05:07:03Z</time>
      </trkpt>
      <trkpt lat="51.881180992349982" lon="-9.795124987140298">
        <ele>114.53</ele>
        <time>2026-06-29T05:07:04Z</time>
      </trkpt>
      <trkpt lat="51.881094994023442" lon="-9.795302012935281">
        <ele>115.01000000000001</ele>
        <time>2026-06-29T05:07:05Z</time>
      </trkpt>
      <trkpt lat="51.881010001525283" lon="-9.795476021245122">
        <ele>115.01000000000001</ele>
        <time>2026-06-29T05:07:06Z</time>
      </trkpt>
      <trkpt lat="51.880946969613433" lon="-9.795670984312892">
        <ele>115.5</ele>
        <time>2026-06-29T05:07:07Z</time>
      </trkpt>
      <trkpt lat="51.880915034562349" lon="-9.795895032584667">
        <ele>115.5</ele>
        <time>2026-06-29T05:07:08Z</time>
      </trkpt>
      <trkpt lat="51.880881004035473" lon="-9.796124026179314">
        <ele>115.98</ele>
        <time>2026-06-29T05:07:09Z</time>
      </trkpt>
      <trkpt lat="51.880847979336977" lon="-9.796356037259102">
        <ele>116.94</ele>
        <time>2026-06-29T05:07:10Z</time>
      </trkpt>
      <trkpt lat="51.880813026800752" lon="-9.796596011146903">
        <ele>117.42</ele>
        <time>2026-06-29T05:07:11Z</time>
      </trkpt>
      <trkpt lat="51.88074697740376" lon="-9.796816958114505">
        <ele>117.90000000000001</ele>
        <time>2026-06-29T05:07:12Z</time>
      </trkpt>
      <trkpt lat="51.880685035139322" lon="-9.79701996780932">
        <ele>118.86</ele>
        <time>2026-06-29T05:07:13Z</time>
      </trkpt>
      <trkpt lat="51.880594007670879" lon="-9.797171009704471">
        <ele>119.81999999999999</ele>
        <time>2026-06-29T05:07:14Z</time>
      </trkpt>
      <trkpt lat="51.880486970767379" lon="-9.797282991930842">
        <ele>120.3</ele>
        <time>2026-06-29T05:07:15Z</time>
      </trkpt>
      <trkpt lat="51.880375994369388" lon="-9.797397991642356">
        <ele>121.26000000000001</ele>
        <time>2026-06-29T05:07:16Z</time>
      </trkpt>
      <trkpt lat="51.880258983001113" lon="-9.797520032152534">
        <ele>121.73999999999999</ele>
        <time>2026-06-29T05:07:17Z</time>
      </trkpt>
      <trkpt lat="51.880137026309967" lon="-9.797656992450357">
        <ele>121.73999999999999</ele>
        <time>2026-06-29T05:07:18Z</time>
      </trkpt>
      <trkpt lat="51.880022026598454" lon="-9.79781499132514">
        <ele>122.22</ele>
        <time>2026-06-29T05:07:19Z</time>
      </trkpt>
      <trkpt lat="51.879923958331347" lon="-9.798011966049671">
        <ele>122.70999999999999</ele>
        <time>2026-06-29T05:07:20Z</time>
      </trkpt>
      <trkpt lat="51.879831003025174" lon="-9.798223022371531">
        <ele>123.19</ele>
        <time>2026-06-29T05:07:21Z</time>
      </trkpt>
      <trkpt lat="51.879751039668918" lon="-9.798469031229615">
        <ele>123.67</ele>
        <time>2026-06-29T05:07:22Z</time>
      </trkpt>
      <trkpt lat="51.87894101254642" lon="-9.800576996058226">
        <ele>129.91999999999999</ele>
        <time>2026-06-29T05:07:32Z</time>
      </trkpt>
      <trkpt lat="51.878118999302387" lon="-9.802012983709574">
        <ele>134.24000000000001</ele>
        <time>2026-06-29T05:07:40Z</time>
      </trkpt>
      <trkpt lat="51.878069965168834" lon="-9.802228985354304">
        <ele>134.72</ele>
        <time>2026-06-29T05:07:41Z</time>
      </trkpt>
      <trkpt lat="51.878020009025931" lon="-9.80245303362608">
        <ele>135.19999999999999</ele>
        <time>2026-06-29T05:07:42Z</time>
      </trkpt>
      <trkpt lat="51.877988995984197" lon="-9.802699964493513">
        <ele>135.68000000000001</ele>
        <time>2026-06-29T05:07:43Z</time>
      </trkpt>
      <trkpt lat="51.877957982942462" lon="-9.80294999666512">
        <ele>136.16</ele>
        <time>2026-06-29T05:07:44Z</time>
      </trkpt>
      <trkpt lat="51.877668974921107" lon="-9.804645990952849">
        <ele>140.49000000000001</ele>
        <time>2026-06-29T05:07:51Z</time>
      </trkpt>
      <trkpt lat="51.876870011910796" lon="-9.806295968592167">
        <ele>145.30000000000001</ele>
        <time>2026-06-29T05:07:59Z</time>
      </trkpt>
      <trkpt lat="51.87610499560833" lon="-9.807875035330653">
        <ele>151.53999999999999</ele>
        <time>2026-06-29T05:08:07Z</time>
      </trkpt>
      <trkpt lat="51.876012962311506" lon="-9.808051977306604">
        <ele>152.03</ele>
        <time>2026-06-29T05:08:08Z</time>
      </trkpt>
      <trkpt lat="51.875942973420024" lon="-9.808250041678548">
        <ele>152.50999999999999</ele>
        <time>2026-06-29T05:08:09Z</time>
      </trkpt>
      <trkpt lat="51.875900980085135" lon="-9.808465037494898">
        <ele>152.99000000000001</ele>
        <time>2026-06-29T05:08:10Z</time>
      </trkpt>
      <trkpt lat="51.875854041427374" lon="-9.808710040524602">
        <ele>153.47</ele>
        <time>2026-06-29T05:08:11Z</time>
      </trkpt>
      <trkpt lat="51.875845994800329" lon="-9.808915983885527">
        <ele>153.94999999999999</ele>
        <time>2026-06-29T05:08:12Z</time>
      </trkpt>
      <trkpt lat="51.875837026163936" lon="-9.809144977480173">
        <ele>154.43000000000001</ele>
        <time>2026-06-29T05:08:13Z</time>
      </trkpt>
      <trkpt lat="51.87582797370851" lon="-9.809365002438426">
        <ele>154.91</ele>
        <time>2026-06-29T05:08:14Z</time>
      </trkpt>
      <trkpt lat="51.875820010900497" lon="-9.809582009911537">
        <ele>155.87</ele>
        <time>2026-06-29T05:08:15Z</time>
      </trkpt>
      <trkpt lat="51.875810958445072" lon="-9.80980396270752">
        <ele>156.34999999999999</ele>
        <time>2026-06-29T05:08:16Z</time>
      </trkpt>
      <trkpt lat="51.875753039494157" lon="-9.809990962967277">
        <ele>156.83000000000001</ele>
        <time>2026-06-29T05:08:17Z</time>
      </trkpt>
      <trkpt lat="51.875693025067449" lon="-9.810183998197317">
        <ele>157.31</ele>
        <time>2026-06-29T05:08:18Z</time>
      </trkpt>
      <trkpt lat="51.87563200481236" lon="-9.810381978750229">
        <ele>157.78999999999999</ele>
        <time>2026-06-29T05:08:19Z</time>
      </trkpt>
      <trkpt lat="51.875299997627735" lon="-9.811140960082412">
        <ele>159.24000000000001</ele>
        <time>2026-06-29T05:08:23Z</time>
      </trkpt>
      <trkpt lat="51.87524501234293" lon="-9.811361990869045">
        <ele>159.72</ele>
        <time>2026-06-29T05:08:24Z</time>
      </trkpt>
      <trkpt lat="51.875204024836421" lon="-9.811590984463692">
        <ele>160.19999999999999</ele>
        <time>2026-06-29T05:08:25Z</time>
      </trkpt>
      <trkpt lat="51.874887021258473" lon="-9.813580010086298">
        <ele>164.03999999999999</ele>
        <time>2026-06-29T05:08:33Z</time>
      </trkpt>
      <trkpt lat="51.874857014045119" lon="-9.814017964527011">
        <ele>164.52000000000001</ele>
        <time>2026-06-29T05:08:35Z</time>
      </trkpt>
      <trkpt lat="51.874833041802049" lon="-9.814231032505631">
        <ele>165</ele>
        <time>2026-06-29T05:08:36Z</time>
      </trkpt>
      <trkpt lat="51.874780990183353" lon="-9.814434964209795">
        <ele>165.47999999999999</ele>
        <time>2026-06-29T05:08:37Z</time>
      </trkpt>
      <trkpt lat="51.874674037098885" lon="-9.814849030226469">
        <ele>166.44999999999999</ele>
        <time>2026-06-29T05:08:39Z</time>
      </trkpt>
      <trkpt lat="51.874652998521924" lon="-9.815061008557677">
        <ele>166.44999999999999</ele>
        <time>2026-06-29T05:08:40Z</time>
      </trkpt>
      <trkpt lat="51.874652998521924" lon="-9.81526100076735">
        <ele>166.93000000000001</ele>
        <time>2026-06-29T05:08:41Z</time>
      </trkpt>
      <trkpt lat="51.874652998521924" lon="-9.815436014905572">
        <ele>167.41</ele>
        <time>2026-06-29T05:08:42Z</time>
      </trkpt>
      <trkpt lat="51.874652998521924" lon="-9.815595019608736">
        <ele>167.41</ele>
        <time>2026-06-29T05:08:43Z</time>
      </trkpt>
      <trkpt lat="51.874652998521924" lon="-9.816086031496525">
        <ele>169.81</ele>
        <time>2026-06-29T05:08:47Z</time>
      </trkpt>
      <trkpt lat="51.874589966610074" lon="-9.816545024514198">
        <ele>171.25</ele>
        <time>2026-06-29T05:08:51Z</time>
      </trkpt>
      <trkpt lat="51.874556019902229" lon="-9.816677961498499">
        <ele>171.25</ele>
        <time>2026-06-29T05:08:52Z</time>
      </trkpt>
      <trkpt lat="51.874519977718592" lon="-9.816818023100495">
        <ele>171.72999999999999</ele>
        <time>2026-06-29T05:08:53Z</time>
      </trkpt>
      <trkpt lat="51.874455017969012" lon="-9.816940985620022">
        <ele>171.72999999999999</ele>
        <time>2026-06-29T05:08:54Z</time>
      </trkpt>
      <trkpt lat="51.874369019642472" lon="-9.81704299338162">
        <ele>171.72999999999999</ele>
        <time>2026-06-29T05:08:55Z</time>
      </trkpt>
      <trkpt lat="51.874266006052494" lon="-9.817164028063417">
        <ele>171.72999999999999</ele>
        <time>2026-06-29T05:08:56Z</time>
      </trkpt>
      <trkpt lat="51.874173972755671" lon="-9.817212978377938">
        <ele>171.72999999999999</ele>
        <time>2026-06-29T05:08:57Z</time>
      </trkpt>
      <trkpt lat="51.874056961387396" lon="-9.817275004461408">
        <ele>172.21000000000001</ele>
        <time>2026-06-29T05:08:58Z</time>
      </trkpt>
      <trkpt lat="51.872863965108991" lon="-9.817650010809302">
        <ele>171.72999999999999</ele>
        <time>2026-06-29T05:09:06Z</time>
      </trkpt>
      <trkpt lat="51.871366035193205" lon="-9.817919991910458">
        <ele>166.93000000000001</ele>
        <time>2026-06-29T05:09:15Z</time>
      </trkpt>
      <trkpt lat="51.871019024401903" lon="-9.817988974973559">
        <ele>165.47999999999999</ele>
        <time>2026-06-29T05:09:17Z</time>
      </trkpt>
      <trkpt lat="51.870849961414933" lon="-9.818000961095095">
        <ele>164.52000000000001</ele>
        <time>2026-06-29T05:09:18Z</time>
      </trkpt>
      <trkpt lat="51.86933996155858" lon="-9.818286029621959">
        <ele>159.72</ele>
        <time>2026-06-29T05:09:27Z</time>
      </trkpt>
      <trkpt lat="51.869181040674448" lon="-9.818364987149835">
        <ele>158.75</ele>
        <time>2026-06-29T05:09:28Z</time>
      </trkpt>
      <trkpt lat="51.869025975465775" lon="-9.818479986861348">
        <ele>158.27000000000001</ele>
        <time>2026-06-29T05:09:29Z</time>
      </trkpt>
      <trkpt lat="51.868108995258808" lon="-9.819243997335434">
        <ele>152.99000000000001</ele>
        <time>2026-06-29T05:09:35Z</time>
      </trkpt>
      <trkpt lat="51.867936998605728" lon="-9.819285990670323">
        <ele>151.53999999999999</ele>
        <time>2026-06-29T05:09:36Z</time>
      </trkpt>
      <trkpt lat="51.867763996124268" lon="-9.819327984005213">
        <ele>150.58000000000001</ele>
        <time>2026-06-29T05:09:37Z</time>
      </trkpt>
      <trkpt lat="51.867121020331979" lon="-9.819481037557125">
        <ele>147.69999999999999</ele>
        <time>2026-06-29T05:09:41Z</time>
      </trkpt>
      <trkpt lat="51.866948017850518" lon="-9.819602994248271">
        <ele>146.74000000000001</ele>
        <time>2026-06-29T05:09:42Z</time>
      </trkpt>
      <trkpt lat="51.866796975955367" lon="-9.819709025323391">
        <ele>146.25999999999999</ele>
        <time>2026-06-29T05:09:43Z</time>
      </trkpt>
      <trkpt lat="51.865410022437572" lon="-9.820900009945035">
        <ele>140.97</ele>
        <time>2026-06-29T05:09:52Z</time>
      </trkpt>
      <trkpt lat="51.863976968452334" lon="-9.822326023131609">
        <ele>134.24000000000001</ele>
        <time>2026-06-29T05:10:02Z</time>
      </trkpt>
      <trkpt lat="51.862470991909504" lon="-9.823940964415669">
        <ele>128.94999999999999</ele>
        <time>2026-06-29T05:10:12Z</time>
      </trkpt>
      <trkpt lat="51.861484022811055" lon="-9.825063971802592">
        <ele>128.47</ele>
        <time>2026-06-29T05:10:19Z</time>
      </trkpt>
      <trkpt lat="51.861356031149626" lon="-9.825220964848995">
        <ele>127.98999999999999</ele>
        <time>2026-06-29T05:10:20Z</time>
      </trkpt>
      <trkpt lat="51.860160017386079" lon="-9.826752003282309">
        <ele>122.70999999999999</ele>
        <time>2026-06-29T05:10:29Z</time>
      </trkpt>
      <trkpt lat="51.859954996034503" lon="-9.827172020450234">
        <ele>120.78</ele>
        <time>2026-06-29T05:10:31Z</time>
      </trkpt>
      <trkpt lat="51.859890036284924" lon="-9.82735600322485">
        <ele>119.81999999999999</ele>
        <time>2026-06-29T05:10:32Z</time>
      </trkpt>
      <trkpt lat="51.85984100215137" lon="-9.827649034559727">
        <ele>119.34</ele>
        <time>2026-06-29T05:10:33Z</time>
      </trkpt>
      <trkpt lat="51.859800014644861" lon="-9.827894037589431">
        <ele>118.86</ele>
        <time>2026-06-29T05:10:34Z</time>
      </trkpt>
      <trkpt lat="51.85977503657341" lon="-9.828149015083909">
        <ele>117.90000000000001</ele>
        <time>2026-06-29T05:10:35Z</time>
      </trkpt>
      <trkpt lat="51.859672022983432" lon="-9.830774981528521">
        <ele>115.98</ele>
        <time>2026-06-29T05:10:45Z</time>
      </trkpt>
      <trkpt lat="51.859646961092949" lon="-9.831547038629651">
        <ele>116.45999999999999</ele>
        <time>2026-06-29T05:10:48Z</time>
      </trkpt>
      <trkpt lat="51.859637992456555" lon="-9.831809978932142">
        <ele>116.45999999999999</ele>
        <time>2026-06-29T05:10:49Z</time>
      </trkpt>
      <trkpt lat="51.859630029648542" lon="-9.832079038023949">
        <ele>116.45999999999999</ele>
        <time>2026-06-29T05:10:50Z</time>
      </trkpt>
      <trkpt lat="51.859620977193117" lon="-9.832352958619595">
        <ele>116.94</ele>
        <time>2026-06-29T05:10:51Z</time>
      </trkpt>
      <trkpt lat="51.859612008556724" lon="-9.832634003832936">
        <ele>117.42</ele>
        <time>2026-06-29T05:10:52Z</time>
      </trkpt>
      <trkpt lat="51.859358036890626" lon="-9.835573034361005">
        <ele>118.38</ele>
        <time>2026-06-29T05:11:03Z</time>
      </trkpt>
      <trkpt lat="51.859005996957421" lon="-9.838613988831639">
        <ele>124.15000000000001</ele>
        <time>2026-06-29T05:11:15Z</time>
      </trkpt>
      <trkpt lat="51.85852998867631" lon="-9.840713990852237">
        <ele>133.28</ele>
        <time>2026-06-29T05:11:24Z</time>
      </trkpt>
      <trkpt lat="51.857442017644644" lon="-9.844021992757917">
        <ele>142.41</ele>
        <time>2026-06-29T05:11:38Z</time>
      </trkpt>
      <trkpt lat="51.856353962793946" lon="-9.846687018871307">
        <ele>147.69999999999999</ele>
        <time>2026-06-29T05:11:50Z</time>
      </trkpt>
      <trkpt lat="51.855231961235404" lon="-9.849941963329911">
        <ele>146.25999999999999</ele>
        <time>2026-06-29T05:12:04Z</time>
      </trkpt>
      <trkpt lat="51.855149986222386" lon="-9.850172968581319">
        <ele>145.30000000000001</ele>
        <time>2026-06-29T05:12:05Z</time>
      </trkpt>
      <trkpt lat="51.855084020644426" lon="-9.850426018238068">
        <ele>144.34</ele>
        <time>2026-06-29T05:12:06Z</time>
      </trkpt>
      <trkpt lat="51.855044960975647" lon="-9.850691976025701">
        <ele>143.37</ele>
        <time>2026-06-29T05:12:07Z</time>
      </trkpt>
      <trkpt lat="51.855018977075815" lon="-9.850974027067423">
        <ele>142.88999999999999</ele>
        <time>2026-06-29T05:12:08Z</time>
      </trkpt>
      <trkpt lat="51.854995004832745" lon="-9.851258005946875">
        <ele>141.93000000000001</ele>
        <time>2026-06-29T05:12:09Z</time>
      </trkpt>
      <trkpt lat="51.8548349943012" lon="-9.854629039764404">
        <ele>135.19999999999999</ele>
        <time>2026-06-29T05:12:21Z</time>
      </trkpt>
      <trkpt lat="51.854828037321568" lon="-9.854891980066896">
        <ele>134.72</ele>
        <time>2026-06-29T05:12:22Z</time>
      </trkpt>
      <trkpt lat="51.854854021221399" lon="-9.855150980874896">
        <ele>134.24000000000001</ele>
        <time>2026-06-29T05:12:23Z</time>
      </trkpt>
      <trkpt lat="51.85490095987916" lon="-9.855411993339658">
        <ele>133.75999999999999</ele>
        <time>2026-06-29T05:12:24Z</time>
      </trkpt>
      <trkpt lat="51.854949994012713" lon="-9.855681974440813">
        <ele>132.80000000000001</ele>
        <time>2026-06-29T05:12:25Z</time>
      </trkpt>
      <trkpt lat="51.855337992310524" lon="-9.857831010594964">
        <ele>125.59</ele>
        <time>2026-06-29T05:12:33Z</time>
      </trkpt>
      <trkpt lat="51.855406975373626" lon="-9.858056986704469">
        <ele>125.11</ele>
        <time>2026-06-29T05:12:34Z</time>
      </trkpt>
      <trkpt lat="51.855475958436728" lon="-9.858271982520819">
        <ele>124.15000000000001</ele>
        <time>2026-06-29T05:12:35Z</time>
      </trkpt>
      <trkpt lat="51.855572015047073" lon="-9.858446996659041">
        <ele>123.19</ele>
        <time>2026-06-29T05:12:36Z</time>
      </trkpt>
      <trkpt lat="51.855680979788303" lon="-9.858599966391921">
        <ele>122.70999999999999</ele>
        <time>2026-06-29T05:12:37Z</time>
      </trkpt>
      <trkpt lat="51.85580100864172" lon="-9.858731981366873">
        <ele>121.73999999999999</ele>
        <time>2026-06-29T05:12:38Z</time>
      </trkpt>
      <trkpt lat="51.855911985039711" lon="-9.858872964978218">
        <ele>121.26000000000001</ele>
        <time>2026-06-29T05:12:39Z</time>
      </trkpt>
      <trkpt lat="51.856006029993296" lon="-9.859006991609931">
        <ele>119.81999999999999</ele>
        <time>2026-06-29T05:12:40Z</time>
      </trkpt>
      <trkpt lat="51.856067972257733" lon="-9.859208995476365">
        <ele>119.34</ele>
        <time>2026-06-29T05:12:41Z</time>
      </trkpt>
      <trkpt lat="51.856099991127849" lon="-9.859404964372516">
        <ele>118.86</ele>
        <time>2026-06-29T05:12:42Z</time>
      </trkpt>
      <trkpt lat="51.856114994734526" lon="-9.859622977674007">
        <ele>118.86</ele>
        <time>2026-06-29T05:12:43Z</time>
      </trkpt>
      <trkpt lat="51.856131004169583" lon="-9.859857000410557">
        <ele>118.38</ele>
        <time>2026-06-29T05:12:44Z</time>
      </trkpt>
      <trkpt lat="51.856220019981265" lon="-9.86115200445056">
        <ele>114.53</ele>
        <time>2026-06-29T05:12:49Z</time>
      </trkpt>
      <trkpt lat="51.85618900693953" lon="-9.861392984166741">
        <ele>114.05</ele>
        <time>2026-06-29T05:12:50Z</time>
      </trkpt>
      <trkpt lat="51.856154976412654" lon="-9.861651984974742">
        <ele>113.09</ele>
        <time>2026-06-29T05:12:51Z</time>
      </trkpt>
      <trkpt lat="51.855834033340216" lon="-9.864330003038049">
        <ele>106.36</ele>
        <time>2026-06-29T05:13:01Z</time>
      </trkpt>
      <trkpt lat="51.855634963139892" lon="-9.86701799556613">
        <ele>101.08</ele>
        <time>2026-06-29T05:13:11Z</time>
      </trkpt>
      <trkpt lat="51.85558701865375" lon="-9.867284037172794">
        <ele>100.11</ele>
        <time>2026-06-29T05:13:12Z</time>
      </trkpt>
      <trkpt lat="51.855509988963604" lon="-9.867521999403834">
        <ele>99.629999999999995</ele>
        <time>2026-06-29T05:13:13Z</time>
      </trkpt>
      <trkpt lat="51.855433965101838" lon="-9.867759039625526">
        <ele>99.150000000000006</ele>
        <time>2026-06-29T05:13:14Z</time>
      </trkpt>
      <trkpt lat="51.855335980653763" lon="-9.867981998249888">
        <ele>98.670000000000002</ele>
        <time>2026-06-29T05:13:15Z</time>
      </trkpt>
      <trkpt lat="51.855237996205688" lon="-9.868199005723">
        <ele>98.189999999999998</ele>
        <time>2026-06-29T05:13:16Z</time>
      </trkpt>
      <trkpt lat="51.855145040899515" lon="-9.868406038731337">
        <ele>97.709999999999994</ele>
        <time>2026-06-29T05:13:17Z</time>
      </trkpt>
      <trkpt lat="51.855083014816046" lon="-9.868633020669222">
        <ele>96.75</ele>
        <time>2026-06-29T05:13:18Z</time>
      </trkpt>
      <trkpt lat="51.855079997330904" lon="-9.868850028142333">
        <ele>96.269999999999996</ele>
        <time>2026-06-29T05:13:19Z</time>
      </trkpt>
      <trkpt lat="51.855107992887497" lon="-9.869042979553342">
        <ele>95.310000000000002</ele>
        <time>2026-06-29T05:13:20Z</time>
      </trkpt>
      <trkpt lat="51.85513699427247" lon="-9.869243977591395">
        <ele>94.829999999999998</ele>
        <time>2026-06-29T05:13:21Z</time>
      </trkpt>
      <trkpt lat="51.855169013142586" lon="-9.869461990892887">
        <ele>94.349999999999994</ele>
        <time>2026-06-29T05:13:22Z</time>
      </trkpt>
      <trkpt lat="51.85520295985043" lon="-9.869695007801056">
        <ele>93.870000000000005</ele>
        <time>2026-06-29T05:13:23Z</time>
      </trkpt>
      <trkpt lat="51.855210000649095" lon="-9.869954008609057">
        <ele>93.870000000000005</ele>
        <time>2026-06-29T05:13:24Z</time>
      </trkpt>
      <trkpt lat="51.855205977335572" lon="-9.870223989710212">
        <ele>93.390000000000001</ele>
        <time>2026-06-29T05:13:25Z</time>
      </trkpt>
      <trkpt lat="51.85520295985043" lon="-9.870505034923554">
        <ele>92.420000000000002</ele>
        <time>2026-06-29T05:13:26Z</time>
      </trkpt>
      <trkpt lat="51.855190973728895" lon="-9.871544977650046">
        <ele>90.5</ele>
        <time>2026-06-29T05:13:30Z</time>
      </trkpt>
      <trkpt lat="51.855128025636077" lon="-9.87176600843668">
        <ele>89.540000000000006</ele>
        <time>2026-06-29T05:13:31Z</time>
      </trkpt>
      <trkpt lat="51.85505099594593" lon="-9.871992990374565">
        <ele>89.060000000000002</ele>
        <time>2026-06-29T05:13:32Z</time>
      </trkpt>
      <trkpt lat="51.854969020932913" lon="-9.872236987575889">
        <ele>88.579999999999998</ele>
        <time>2026-06-29T05:13:33Z</time>
      </trkpt>
      <trkpt lat="51.854884028434753" lon="-9.872488025575876">
        <ele>88.099999999999994</ele>
        <time>2026-06-29T05:13:34Z</time>
      </trkpt>
      <trkpt lat="51.854559984058142" lon="-9.873497039079666">
        <ele>86.659999999999997</ele>
        <time>2026-06-29T05:13:38Z</time>
      </trkpt>
      <trkpt lat="51.854499969631433" lon="-9.87376500852406">
        <ele>86.180000000000007</ele>
        <time>2026-06-29T05:13:39Z</time>
      </trkpt>
      <trkpt lat="51.854440961033106" lon="-9.874029038473964">
        <ele>85.689999999999998</ele>
        <time>2026-06-29T05:13:40Z</time>
      </trkpt>
      <trkpt lat="51.853842996060848" lon="-9.875928964465857">
        <ele>80.409999999999997</ele>
        <time>2026-06-29T05:13:48Z</time>
      </trkpt>
      <trkpt lat="51.852944036945701" lon="-9.878194006159902">
        <ele>75.120000000000005</ele>
        <time>2026-06-29T05:13:58Z</time>
      </trkpt>
      <trkpt lat="51.852844962850213" lon="-9.878387963399291">
        <ele>74.159999999999997</ele>
        <time>2026-06-29T05:13:59Z</time>
      </trkpt>
      <trkpt lat="51.852743960916996" lon="-9.878579992800951">
        <ele>73.680000000000007</ele>
        <time>2026-06-29T05:14:00Z</time>
      </trkpt>
      <trkpt lat="51.852617980912328" lon="-9.878744026646018">
        <ele>72.719999999999999</ele>
        <time>2026-06-29T05:14:01Z</time>
      </trkpt>
      <trkpt lat="51.851433031260967" lon="-9.879959989339113">
        <ele>66.469999999999999</ele>
        <time>2026-06-29T05:14:09Z</time>
      </trkpt>
      <trkpt lat="51.85131199657917" lon="-9.880126034840941">
        <ele>65.989999999999995</ele>
        <time>2026-06-29T05:14:10Z</time>
      </trkpt>
      <trkpt lat="51.851230021566153" lon="-9.880333989858627">
        <ele>65.030000000000001</ele>
        <time>2026-06-29T05:14:11Z</time>
      </trkpt>
      <trkpt lat="51.851152991876006" lon="-9.88057304173708">
        <ele>64.549999999999997</ele>
        <time>2026-06-29T05:14:12Z</time>
      </trkpt>
      <trkpt lat="51.85107596218586" lon="-9.8808120097965">
        <ele>64.069999999999993</ele>
        <time>2026-06-29T05:14:13Z</time>
      </trkpt>
      <trkpt lat="51.850706990808249" lon="-9.881956977769733">
        <ele>61.659999999999997</ele>
        <time>2026-06-29T05:14:18Z</time>
      </trkpt>
      <trkpt lat="51.850629039108753" lon="-9.882185971364379">
        <ele>61.18</ele>
        <time>2026-06-29T05:14:19Z</time>
      </trkpt>
      <trkpt lat="51.850531976670027" lon="-9.882397027686238">
        <ele>60.219999999999999</ele>
        <time>2026-06-29T05:14:20Z</time>
      </trkpt>
      <trkpt lat="51.849987991154194" lon="-9.883679039776325">
        <ele>55.409999999999997</ele>
        <time>2026-06-29T05:14:26Z</time>
      </trkpt>
      <trkpt lat="51.849924959242344" lon="-9.883930999785662">
        <ele>54.450000000000003</ele>
        <time>2026-06-29T05:14:27Z</time>
      </trkpt>
      <trkpt lat="51.849537966772914" lon="-9.886584039777517">
        <ele>52.049999999999997</ele>
        <time>2026-06-29T05:14:37Z</time>
      </trkpt>
      <trkpt lat="51.849080985412002" lon="-9.888572981581092">
        <ele>48.200000000000003</ele>
        <time>2026-06-29T05:14:45Z</time>
      </trkpt>
      <trkpt lat="51.84899196960032" lon="-9.888764005154371">
        <ele>47.719999999999999</ele>
        <time>2026-06-29T05:14:46Z</time>
      </trkpt>
      <trkpt lat="51.848908988758922" lon="-9.888943964615464">
        <ele>47.719999999999999</ele>
        <time>2026-06-29T05:14:47Z</time>
      </trkpt>
      <trkpt lat="51.848807986825705" lon="-9.889078997075558">
        <ele>47.240000000000002</ele>
        <time>2026-06-29T05:14:48Z</time>
      </trkpt>
      <trkpt lat="51.848674966022372" lon="-9.889158960431814">
        <ele>46.759999999999998</ele>
        <time>2026-06-29T05:14:49Z</time>
      </trkpt>
      <trkpt lat="51.848532976582646" lon="-9.889243030920625">
        <ele>46.280000000000001</ele>
        <time>2026-06-29T05:14:50Z</time>
      </trkpt>
      <trkpt lat="51.848385035991669" lon="-9.889316037297249">
        <ele>45.32</ele>
        <time>2026-06-29T05:14:51Z</time>
      </trkpt>
      <trkpt lat="51.848223013803363" lon="-9.889357024803758">
        <ele>44.840000000000003</ele>
        <time>2026-06-29T05:14:52Z</time>
      </trkpt>
      <trkpt lat="51.846544034779072" lon="-9.889779975637794">
        <ele>41.469999999999999</ele>
        <time>2026-06-29T05:15:02Z</time>
      </trkpt>
      <trkpt lat="51.844653999432921" lon="-9.890303006395698">
        <ele>34.259999999999998</ele>
        <time>2026-06-29T05:15:13Z</time>
      </trkpt>
      <trkpt lat="51.843399982899427" lon="-9.891177993267775">
        <ele>27.530000000000001</ele>
        <time>2026-06-29T05:15:21Z</time>
      </trkpt>
      <trkpt lat="51.84198503382504" lon="-9.892528988420963">
        <ele>18.879999999999999</ele>
        <time>2026-06-29T05:15:31Z</time>
      </trkpt>
      <trkpt lat="51.840657005086541" lon="-9.893812006339431">
        <ele>15.039999999999999</ele>
        <time>2026-06-29T05:15:41Z</time>
      </trkpt>
      <trkpt lat="51.839569034054875" lon="-9.895054958760738">
        <ele>15.039999999999999</ele>
        <time>2026-06-29T05:15:50Z</time>
      </trkpt>
      <trkpt lat="51.838993029668927" lon="-9.895913014188409">
        <ele>16.48</ele>
        <time>2026-06-29T05:15:56Z</time>
      </trkpt>
      <trkpt lat="51.8389149941504" lon="-9.896029019728303">
        <ele>16</ele>
        <time>2026-06-29T05:15:57Z</time>
      </trkpt>
      <trkpt lat="51.838060962036252" lon="-9.897306002676487">
        <ele>12.630000000000001</ele>
        <time>2026-06-29T05:16:07Z</time>
      </trkpt>
      <trkpt lat="51.837417986243963" lon="-9.898294983431697">
        <ele>10.23</ele>
        <time>2026-06-29T05:16:16Z</time>
      </trkpt>
      <trkpt lat="51.837310027331114" lon="-9.898463962599635">
        <ele>10.23</ele>
        <time>2026-06-29T05:16:22Z</time>
      </trkpt>
      <trkpt lat="51.837295023724437" lon="-9.898489024490118">
        <ele>10.710000000000001</ele>
        <time>2026-06-29T05:16:23Z</time>
      </trkpt>
      <trkpt lat="51.837340034544468" lon="-9.898539986461401">
        <ele>10.23</ele>
        <time>2026-06-29T05:16:24Z</time>
      </trkpt>
      <trkpt lat="51.837394014000893" lon="-9.89860100671649">
        <ele>10.23</ele>
        <time>2026-06-29T05:16:25Z</time>
      </trkpt>
      <trkpt lat="51.837459979578853" lon="-9.898675018921495">
        <ele>10.23</ele>
        <time>2026-06-29T05:16:26Z</time>
      </trkpt>
      <trkpt lat="51.837533991783857" lon="-9.898757999762893">
        <ele>10.23</ele>
        <time>2026-06-29T05:16:27Z</time>
      </trkpt>
      <trkpt lat="51.837614960968494" lon="-9.898849027231336">
        <ele>10.710000000000001</ele>
        <time>2026-06-29T05:16:28Z</time>
      </trkpt>
      <trkpt lat="51.837975969538093" lon="-9.899280024692416">
        <ele>12.15</ele>
        <time>2026-06-29T05:16:32Z</time>
      </trkpt>
      <trkpt lat="51.838649036362767" lon="-9.900651974603534">
        <ele>13.119999999999999</ele>
        <time>2026-06-29T05:16:42Z</time>
      </trkpt>
      <trkpt lat="51.838691029697657" lon="-9.90079396404326">
        <ele>13.119999999999999</ele>
        <time>2026-06-29T05:16:43Z</time>
      </trkpt>
      <trkpt lat="51.838733023032546" lon="-9.900948023423553">
        <ele>13.6</ele>
        <time>2026-06-29T05:16:44Z</time>
      </trkpt>
      <trkpt lat="51.838736040517688" lon="-9.901111973449588">
        <ele>14.08</ele>
        <time>2026-06-29T05:16:45Z</time>
      </trkpt>
      <trkpt lat="51.838754983618855" lon="-9.903122037649155">
        <ele>15.52</ele>
        <time>2026-06-29T05:16:57Z</time>
      </trkpt>
      <trkpt lat="51.838796976953745" lon="-9.905144004151225">
        <ele>16</ele>
        <time>2026-06-29T05:17:07Z</time>
      </trkpt>
      <trkpt lat="51.838818015530705" lon="-9.907350959256291">
        <ele>15.039999999999999</ele>
        <time>2026-06-29T05:17:17Z</time>
      </trkpt>
      <trkpt lat="51.838623974472284" lon="-9.909886987879872">
        <ele>14.56</ele>
        <time>2026-06-29T05:17:28Z</time>
      </trkpt>
      <trkpt lat="51.838368996977806" lon="-9.91205002181232">
        <ele>16.48</ele>
        <time>2026-06-29T05:17:39Z</time>
      </trkpt>
      <trkpt lat="51.838361034169793" lon="-9.912098972126842">
        <ele>16.48</ele>
        <time>2026-06-29T05:17:45Z</time>
      </trkpt>
      <trkpt lat="51.838347958400846" lon="-9.912176001816988">
        <ele>16.48</ele>
        <time>2026-06-29T05:18:34Z</time>
      </trkpt>
      <trkpt lat="51.838224995881319" lon="-9.912938000634313">
        <ele>16.960000000000001</ele>
        <time>2026-06-29T05:18:39Z</time>
      </trkpt>
      <trkpt lat="51.837929030880332" lon="-9.914757963269949">
        <ele>18.399999999999999</ele>
        <time>2026-06-29T05:18:46Z</time>
      </trkpt>
      <trkpt lat="51.837739013135433" lon="-9.915688019245863">
        <ele>19.359999999999999</ele>
        <time>2026-06-29T05:18:50Z</time>
      </trkpt>
      <trkpt lat="51.837680004537106" lon="-9.915822967886925">
        <ele>19.359999999999999</ele>
        <time>2026-06-29T05:18:51Z</time>
      </trkpt>
      <trkpt lat="51.837597023695707" lon="-9.915937967598438">
        <ele>19.359999999999999</ele>
        <time>2026-06-29T05:18:52Z</time>
      </trkpt>
      <trkpt lat="51.837500967085361" lon="-9.916070988401771">
        <ele>19.359999999999999</ele>
        <time>2026-06-29T05:18:53Z</time>
      </trkpt>
      <trkpt lat="51.837396025657654" lon="-9.916217001155019">
        <ele>19.359999999999999</ele>
        <time>2026-06-29T05:18:54Z</time>
      </trkpt>
      <trkpt lat="51.836673002690077" lon="-9.917225008830428">
        <ele>19.359999999999999</ele>
        <time>2026-06-29T05:19:00Z</time>
      </trkpt>
      <trkpt lat="51.83655297383666" lon="-9.917349983006716">
        <ele>19.359999999999999</ele>
        <time>2026-06-29T05:19:01Z</time>
      </trkpt>
      <trkpt lat="51.83633403852582" lon="-9.917579982429743">
        <ele>19.359999999999999</ele>
        <time>2026-06-29T05:19:03Z</time>
      </trkpt>
      <trkpt lat="51.836233036592603" lon="-9.917719038203359">
        <ele>19.84</ele>
        <time>2026-06-29T05:19:04Z</time>
      </trkpt>
      <trkpt lat="51.835290994495153" lon="-9.919400028884411">
        <ele>24.170000000000002</ele>
        <time>2026-06-29T05:19:14Z</time>
      </trkpt>
      <trkpt lat="51.834333026781678" lon="-9.921156959608197">
        <ele>27.530000000000001</ele>
        <time>2026-06-29T05:19:24Z</time>
      </trkpt>
      <trkpt lat="51.833647973835468" lon="-9.923040959984064">
        <ele>30.420000000000002</ele>
        <time>2026-06-29T05:19:33Z</time>
      </trkpt>
      <trkpt lat="51.833503972738981" lon="-9.923499030992389">
        <ele>30.420000000000002</ele>
        <time>2026-06-29T05:19:35Z</time>
      </trkpt>
      <trkpt lat="51.833434989675879" lon="-9.923720983788371">
        <ele>30.420000000000002</ele>
        <time>2026-06-29T05:19:36Z</time>
      </trkpt>
      <trkpt lat="51.832737028598785" lon="-9.925947971642017">
        <ele>32.82</ele>
        <time>2026-06-29T05:19:46Z</time>
      </trkpt>
      <trkpt lat="51.831820970401168" lon="-9.928873004391789">
        <ele>35.229999999999997</ele>
        <time>2026-06-29T05:19:59Z</time>
      </trkpt>
      <trkpt lat="51.831031981855631" lon="-9.931277018040419">
        <ele>39.549999999999997</ele>
        <time>2026-06-29T05:20:10Z</time>
      </trkpt>
      <trkpt lat="51.830102009698749" lon="-9.933636020869017">
        <ele>43.880000000000003</ele>
        <time>2026-06-29T05:20:21Z</time>
      </trkpt>
      <trkpt lat="51.829562969505787" lon="-9.934881990775466">
        <ele>44.840000000000003</ele>
        <time>2026-06-29T05:20:27Z</time>
      </trkpt>
      <trkpt lat="51.829479988664389" lon="-9.935094974935055">
        <ele>44.840000000000003</ele>
        <time>2026-06-29T05:20:28Z</time>
      </trkpt>
      <trkpt lat="51.829392984509468" lon="-9.935574000701308">
        <ele>45.32</ele>
        <time>2026-06-29T05:20:30Z</time>
      </trkpt>
      <trkpt lat="51.829379992559552" lon="-9.935849010944367">
        <ele>45.32</ele>
        <time>2026-06-29T05:20:31Z</time>
      </trkpt>
      <trkpt lat="51.829386027529836" lon="-9.936150005087256">
        <ele>45.32</ele>
        <time>2026-06-29T05:20:32Z</time>
      </trkpt>
      <trkpt lat="51.82954796589911" lon="-9.938325025141239">
        <ele>45.32</ele>
        <time>2026-06-29T05:20:40Z</time>
      </trkpt>
      <trkpt lat="51.829778971150517" lon="-9.940752005204558">
        <ele>47.240000000000002</ele>
        <time>2026-06-29T05:20:49Z</time>
      </trkpt>
      <trkpt lat="51.830091029405594" lon="-9.944094959646463">
        <ele>53.490000000000002</ele>
        <time>2026-06-29T05:21:02Z</time>
      </trkpt>
      <trkpt lat="51.830155989155173" lon="-9.945133980363607">
        <ele>55.890000000000001</ele>
        <time>2026-06-29T05:21:06Z</time>
      </trkpt>
      <trkpt lat="51.830166969448328" lon="-9.945378983393312">
        <ele>56.369999999999997</ele>
        <time>2026-06-29T05:21:07Z</time>
      </trkpt>
      <trkpt lat="51.830150038003922" lon="-9.945603031665087">
        <ele>56.369999999999997</ele>
        <time>2026-06-29T05:21:08Z</time>
      </trkpt>
      <trkpt lat="51.830113995820284" lon="-9.945800006389618">
        <ele>56.859999999999999</ele>
        <time>2026-06-29T05:21:09Z</time>
      </trkpt>
      <trkpt lat="51.830055993050337" lon="-9.945977032184601">
        <ele>57.82</ele>
        <time>2026-06-29T05:21:10Z</time>
      </trkpt>
      <trkpt lat="51.829980975016952" lon="-9.946134025231004">
        <ele>58.780000000000001</ele>
        <time>2026-06-29T05:21:11Z</time>
      </trkpt>
      <trkpt lat="51.829877039417624" lon="-9.946271991357207">
        <ele>59.259999999999998</ele>
        <time>2026-06-29T05:21:12Z</time>
      </trkpt>
      <trkpt lat="51.829764973372221" lon="-9.946419009938836">
        <ele>60.219999999999999</ele>
        <time>2026-06-29T05:21:13Z</time>
      </trkpt>
      <trkpt lat="51.829651985317469" lon="-9.946568040177226">
        <ele>60.700000000000003</ele>
        <time>2026-06-29T05:21:14Z</time>
      </trkpt>
      <trkpt lat="51.82954796589911" lon="-9.946703994646668">
        <ele>61.18</ele>
        <time>2026-06-29T05:21:15Z</time>
      </trkpt>
      <trkpt lat="51.829472025856376" lon="-9.946895018219948">
        <ele>61.659999999999997</ele>
        <time>2026-06-29T05:21:16Z</time>
      </trkpt>
      <trkpt lat="51.829412011429667" lon="-9.947081012651324">
        <ele>62.140000000000001</ele>
        <time>2026-06-29T05:21:17Z</time>
      </trkpt>
      <trkpt lat="51.829384015873075" lon="-9.947292990982533">
        <ele>63.100000000000001</ele>
        <time>2026-06-29T05:21:18Z</time>
      </trkpt>
      <trkpt lat="51.829356020316482" lon="-9.94750102981925">
        <ele>63.100000000000001</ele>
        <time>2026-06-29T05:21:19Z</time>
      </trkpt>
      <trkpt lat="51.829326013103127" lon="-9.947723988443613">
        <ele>63.579999999999998</ele>
        <time>2026-06-29T05:21:20Z</time>
      </trkpt>
      <trkpt lat="51.829285025596619" lon="-9.947963040322065">
        <ele>64.069999999999993</ele>
        <time>2026-06-29T05:21:21Z</time>
      </trkpt>
      <trkpt lat="51.829018983989954" lon="-9.949660962447524">
        <ele>66.469999999999999</ele>
        <time>2026-06-29T05:21:28Z</time>
      </trkpt>
      <trkpt lat="51.829038010910153" lon="-9.949909988790751">
        <ele>67.430000000000007</ele>
        <time>2026-06-29T05:21:29Z</time>
      </trkpt>
      <trkpt lat="51.829066006466746" lon="-9.950167983770371">
        <ele>67.909999999999997</ele>
        <time>2026-06-29T05:21:30Z</time>
      </trkpt>
      <trkpt lat="51.82911797426641" lon="-9.950417010113597">
        <ele>68.390000000000001</ele>
        <time>2026-06-29T05:21:31Z</time>
      </trkpt>
      <trkpt lat="51.829168014228344" lon="-9.950656984001398">
        <ele>68.870000000000005</ele>
        <time>2026-06-29T05:21:32Z</time>
      </trkpt>
      <trkpt lat="51.829215036705136" lon="-9.950884971767664">
        <ele>69.829999999999998</ele>
        <time>2026-06-29T05:21:33Z</time>
      </trkpt>
      <trkpt lat="51.829390972852707" lon="-9.951736992225051">
        <ele>72.239999999999995</ele>
        <time>2026-06-29T05:21:37Z</time>
      </trkpt>
      <trkpt lat="51.829432966187596" lon="-9.951944025233388">
        <ele>72.719999999999999</ele>
        <time>2026-06-29T05:21:38Z</time>
      </trkpt>
      <trkpt lat="51.829423997551203" lon="-9.952168995514512">
        <ele>73.680000000000007</ele>
        <time>2026-06-29T05:21:39Z</time>
      </trkpt>
      <trkpt lat="51.829402958974242" lon="-9.952394971624017">
        <ele>74.159999999999997</ele>
        <time>2026-06-29T05:21:40Z</time>
      </trkpt>
      <trkpt lat="51.829380998387933" lon="-9.952626982703805">
        <ele>74.159999999999997</ele>
        <time>2026-06-29T05:21:41Z</time>
      </trkpt>
      <trkpt lat="51.829321989789605" lon="-9.95285396464169">
        <ele>74.640000000000001</ele>
        <time>2026-06-29T05:21:42Z</time>
      </trkpt>
      <trkpt lat="51.829254012554884" lon="-9.953082036226988">
        <ele>75.120000000000005</ele>
        <time>2026-06-29T05:21:43Z</time>
      </trkpt>
      <trkpt lat="51.829186035320163" lon="-9.953312035650015">
        <ele>75.120000000000005</ele>
        <time>2026-06-29T05:21:44Z</time>
      </trkpt>
      <trkpt lat="51.828425964340568" lon="-9.955873964354396">
        <ele>79.450000000000003</ele>
        <time>2026-06-29T05:21:55Z</time>
      </trkpt>
      <trkpt lat="51.827872004359961" lon="-9.958499008789659">
        <ele>81.849999999999994</ele>
        <time>2026-06-29T05:22:05Z</time>
      </trkpt>
      <trkpt lat="51.827176976948977" lon="-9.961855039000511">
        <ele>81.370000000000005</ele>
        <time>2026-06-29T05:22:18Z</time>
      </trkpt>
      <trkpt lat="51.826707003638148" lon="-9.964112034067512">
        <ele>85.689999999999998</ele>
        <time>2026-06-29T05:22:27Z</time>
      </trkpt>
      <trkpt lat="51.826033014804125" lon="-9.96555196121335">
        <ele>89.060000000000002</ele>
        <time>2026-06-29T05:22:34Z</time>
      </trkpt>
      <trkpt lat="51.825815001502633" lon="-9.965929985046387">
        <ele>90.5</ele>
        <time>2026-06-29T05:22:36Z</time>
      </trkpt>
      <trkpt lat="51.825740989297628" lon="-9.96615101583302">
        <ele>90.980000000000004</ele>
        <time>2026-06-29T05:22:37Z</time>
      </trkpt>
      <trkpt lat="51.825668988749385" lon="-9.96636601164937">
        <ele>91.459999999999994</ele>
        <time>2026-06-29T05:22:38Z</time>
      </trkpt>
      <trkpt lat="51.825629007071257" lon="-9.966586958616972">
        <ele>92.420000000000002</ele>
        <time>2026-06-29T05:22:39Z</time>
      </trkpt>
      <trkpt lat="51.825605034828186" lon="-9.966828022152185">
        <ele>92.900000000000006</ele>
        <time>2026-06-29T05:22:40Z</time>
      </trkpt>
      <trkpt lat="51.825596988201141" lon="-9.967075036838651">
        <ele>93.390000000000001</ele>
        <time>2026-06-29T05:22:41Z</time>
      </trkpt>
      <trkpt lat="51.825575027614832" lon="-9.970409022644162">
        <ele>100.59999999999999</ele>
        <time>2026-06-29T05:22:53Z</time>
      </trkpt>
      <trkpt lat="51.825598999857903" lon="-9.971654992550612">
        <ele>102.52</ele>
        <time>2026-06-29T05:22:58Z</time>
      </trkpt>
      <trkpt lat="51.82557201012969" lon="-9.971902007237077">
        <ele>103</ele>
        <time>2026-06-29T05:22:59Z</time>
      </trkpt>
      <trkpt lat="51.825305968523026" lon="-9.974639033898711">
        <ele>107.81</ele>
        <time>2026-06-29T05:23:09Z</time>
      </trkpt>
      <trkpt lat="51.825094996020198" lon="-9.975912999361754">
        <ele>110.69</ele>
        <time>2026-06-29T05:23:14Z</time>
      </trkpt>
      <trkpt lat="51.825021989643574" lon="-9.97611902654171">
        <ele>111.17</ele>
        <time>2026-06-29T05:23:15Z</time>
      </trkpt>
      <trkpt lat="51.824932973831892" lon="-9.976309966295958">
        <ele>111.65000000000001</ele>
        <time>2026-06-29T05:23:16Z</time>
      </trkpt>
      <trkpt lat="51.824830966070294" lon="-9.976497972384095">
        <ele>112.61</ele>
        <time>2026-06-29T05:23:17Z</time>
      </trkpt>
      <trkpt lat="51.824708003550768" lon="-9.976661000400782">
        <ele>113.56999999999999</ele>
        <time>2026-06-29T05:23:18Z</time>
      </trkpt>
      <trkpt lat="51.82458302937448" lon="-9.976828973740339">
        <ele>114.05</ele>
        <time>2026-06-29T05:23:19Z</time>
      </trkpt>
      <trkpt lat="51.82432796806097" lon="-9.977168021723628">
        <ele>115.5</ele>
        <time>2026-06-29T05:23:21Z</time>
      </trkpt>
      <trkpt lat="51.824211962521076" lon="-9.977352004498243">
        <ele>115.98</ele>
        <time>2026-06-29T05:23:22Z</time>
      </trkpt>
      <trkpt lat="51.824140967801213" lon="-9.97758200392127">
        <ele>116.45999999999999</ele>
        <time>2026-06-29T05:23:23Z</time>
      </trkpt>
      <trkpt lat="51.824081037193537" lon="-9.977837987244129">
        <ele>116.94</ele>
        <time>2026-06-29T05:23:24Z</time>
      </trkpt>
      <trkpt lat="51.824019011110067" lon="-9.978095982223749">
        <ele>116.94</ele>
        <time>2026-06-29T05:23:25Z</time>
      </trkpt>
      <trkpt lat="51.82396000251174" lon="-9.978346014395356">
        <ele>117.90000000000001</ele>
        <time>2026-06-29T05:23:26Z</time>
      </trkpt>
      <trkpt lat="51.823876015841961" lon="-9.978555981069803">
        <ele>118.38</ele>
        <time>2026-06-29T05:23:27Z</time>
      </trkpt>
      <trkpt lat="51.82378901168704" lon="-9.978747004643083">
        <ele>118.86</ele>
        <time>2026-06-29T05:23:28Z</time>
      </trkpt>
      <trkpt lat="51.823691027238965" lon="-9.978902991861105">
        <ele>119.34</ele>
        <time>2026-06-29T05:23:29Z</time>
      </trkpt>
      <trkpt lat="51.823565969243646" lon="-9.979002987965941">
        <ele>119.81999999999999</ele>
        <time>2026-06-29T05:23:30Z</time>
      </trkpt>
      <trkpt lat="51.823435965925455" lon="-9.9791070073843">
        <ele>120.3</ele>
        <time>2026-06-29T05:23:31Z</time>
      </trkpt>
      <trkpt lat="51.823299005627632" lon="-9.97921496629715">
        <ele>120.78</ele>
        <time>2026-06-29T05:23:32Z</time>
      </trkpt>
      <trkpt lat="51.821864023804665" lon="-9.979816032573581">
        <ele>123.19</ele>
        <time>2026-06-29T05:23:41Z</time>
      </trkpt>
      <trkpt lat="51.820521997287869" lon="-9.980464959517121">
        <ele>120.78</ele>
        <time>2026-06-29T05:23:49Z</time>
      </trkpt>
      <trkpt lat="51.819723034277558" lon="-9.981025960296392">
        <ele>116.45999999999999</ele>
        <time>2026-06-29T05:23:54Z</time>
      </trkpt>
      <trkpt lat="51.819564029574394" lon="-9.981101984158158">
        <ele>115.98</ele>
        <time>2026-06-29T05:23:55Z</time>
      </trkpt>
      <trkpt lat="51.818601032719016" lon="-9.981400966644287">
        <ele>111.65000000000001</ele>
        <time>2026-06-29T05:24:01Z</time>
      </trkpt>
      <trkpt lat="51.818452002480626" lon="-9.981400966644287">
        <ele>110.69</ele>
        <time>2026-06-29T05:24:02Z</time>
      </trkpt>
      <trkpt lat="51.818315964192152" lon="-9.981356961652637">
        <ele>110.20999999999999</ele>
        <time>2026-06-29T05:24:03Z</time>
      </trkpt>
      <trkpt lat="51.818188978359103" lon="-9.981282027438283">
        <ele>109.25</ele>
        <time>2026-06-29T05:24:04Z</time>
      </trkpt>
      <trkpt lat="51.818057969212532" lon="-9.981204997748137">
        <ele>108.29000000000001</ele>
        <time>2026-06-29T05:24:05Z</time>
      </trkpt>
      <trkpt lat="51.817926038056612" lon="-9.98112696222961">
        <ele>107.81</ele>
        <time>2026-06-29T05:24:06Z</time>
      </trkpt>
      <trkpt lat="51.817796034738421" lon="-9.981144983321428">
        <ele>106.36</ele>
        <time>2026-06-29T05:24:07Z</time>
      </trkpt>
      <trkpt lat="51.817662008106709" lon="-9.98116996139288">
        <ele>105.88</ele>
        <time>2026-06-29T05:24:08Z</time>
      </trkpt>
      <trkpt lat="51.817534016445279" lon="-9.981240034103394">
        <ele>104.92</ele>
        <time>2026-06-29T05:24:09Z</time>
      </trkpt>
      <trkpt lat="51.817422034218907" lon="-9.981387974694371">
        <ele>104.44</ele>
        <time>2026-06-29T05:24:10Z</time>
      </trkpt>
      <trkpt lat="51.81729999370873" lon="-9.981546979397535">
        <ele>103.95999999999999</ele>
        <time>2026-06-29T05:24:11Z</time>
      </trkpt>
      <trkpt lat="51.816449984908104" lon="-9.983239034190774">
        <ele>99.150000000000006</ele>
        <time>2026-06-29T05:24:19Z</time>
      </trkpt>
      <trkpt lat="51.816244041547179" lon="-9.983942024409771">
        <ele>97.230000000000004</ele>
        <time>2026-06-29T05:24:22Z</time>
      </trkpt>
      <trkpt lat="51.816160976886749" lon="-9.984144028276205">
        <ele>96.269999999999996</ele>
        <time>2026-06-29T05:24:23Z</time>
      </trkpt>
      <trkpt lat="51.816069027408957" lon="-9.984317030757666">
        <ele>95.790000000000006</ele>
        <time>2026-06-29T05:24:24Z</time>
      </trkpt>
      <trkpt lat="51.815962996333838" lon="-9.984458014369011">
        <ele>94.349999999999994</ele>
        <time>2026-06-29T05:24:25Z</time>
      </trkpt>
      <trkpt lat="51.815857971087098" lon="-9.984597992151976">
        <ele>93.870000000000005</ele>
        <time>2026-06-29T05:24:26Z</time>
      </trkpt>
      <trkpt lat="51.81573299691081" lon="-9.984644008800387">
        <ele>92.900000000000006</ele>
        <time>2026-06-29T05:24:27Z</time>
      </trkpt>
      <trkpt lat="51.815597964450717" lon="-9.984677033498883">
        <ele>91.939999999999998</ele>
        <time>2026-06-29T05:24:28Z</time>
      </trkpt>
      <trkpt lat="51.815454969182611" lon="-9.984631016850472">
        <ele>90.5</ele>
        <time>2026-06-29T05:24:29Z</time>
      </trkpt>
      <trkpt lat="51.815299987792969" lon="-9.984581982716918">
        <ele>89.540000000000006</ele>
        <time>2026-06-29T05:24:30Z</time>
      </trkpt>
      <trkpt lat="51.815135031938553" lon="-9.984512999653816">
        <ele>88.579999999999998</ele>
        <time>2026-06-29T05:24:31Z</time>
      </trkpt>
      <trkpt lat="51.814806964248419" lon="-9.984341003000736">
        <ele>86.180000000000007</ele>
        <time>2026-06-29T05:24:33Z</time>
      </trkpt>
      <trkpt lat="51.814646031707525" lon="-9.984324993565679">
        <ele>85.209999999999994</ele>
        <time>2026-06-29T05:24:34Z</time>
      </trkpt>
      <trkpt lat="51.814486021175981" lon="-9.984367992728949">
        <ele>84.25</ele>
        <time>2026-06-29T05:24:35Z</time>
      </trkpt>
      <trkpt lat="51.814328022301197" lon="-9.984439993277192">
        <ele>83.769999999999996</ele>
        <time>2026-06-29T05:24:36Z</time>
      </trkpt>
      <trkpt lat="51.81416398845613" lon="-9.984515011310577">
        <ele>82.810000000000002</ele>
        <time>2026-06-29T05:24:37Z</time>
      </trkpt>
      <trkpt lat="51.813999032601714" lon="-9.984591035172343">
        <ele>82.329999999999998</ele>
        <time>2026-06-29T05:24:38Z</time>
      </trkpt>
      <trkpt lat="51.813365025445819" lon="-9.984814999625087">
        <ele>78.969999999999999</ele>
        <time>2026-06-29T05:24:42Z</time>
      </trkpt>
      <trkpt lat="51.813208032399416" lon="-9.984833020716906">
        <ele>78</ele>
        <time>2026-06-29T05:24:43Z</time>
      </trkpt>
      <trkpt lat="51.813051039353013" lon="-9.984797984361649">
        <ele>77.040000000000006</ele>
        <time>2026-06-29T05:24:44Z</time>
      </trkpt>
      <trkpt lat="51.811063019558787" lon="-9.984310995787382">
        <ele>70.790000000000006</ele>
        <time>2026-06-29T05:24:56Z</time>
      </trkpt>
      <trkpt lat="51.807893989607692" lon="-9.983628960326314">
        <ele>61.659999999999997</ele>
        <time>2026-06-29T05:25:15Z</time>
      </trkpt>
      <trkpt lat="51.806616000831127" lon="-9.983777990564704">
        <ele>57.82</ele>
        <time>2026-06-29T05:25:23Z</time>
      </trkpt>
      <trkpt lat="51.804700987413526" lon="-9.984232960268855">
        <ele>51.57</ele>
        <time>2026-06-29T05:25:34Z</time>
      </trkpt>
      <trkpt lat="51.802737023681402" lon="-9.98465096578002">
        <ele>49.159999999999997</ele>
        <time>2026-06-29T05:25:45Z</time>
      </trkpt>
      <trkpt lat="51.800858974456787" lon="-9.985050028190017">
        <ele>47.719999999999999</ele>
        <time>2026-06-29T05:25:56Z</time>
      </trkpt>
      <trkpt lat="51.799892038106918" lon="-9.985291007906199">
        <ele>45.799999999999997</ele>
        <time>2026-06-29T05:26:02Z</time>
      </trkpt>
      <trkpt lat="51.799736972898245" lon="-9.985405001789331">
        <ele>45.799999999999997</ele>
        <time>2026-06-29T05:26:03Z</time>
      </trkpt>
      <trkpt lat="51.799578974023461" lon="-9.985521007329226">
        <ele>44.840000000000003</ele>
        <time>2026-06-29T05:26:04Z</time>
      </trkpt>
      <trkpt lat="51.798222027719021" lon="-9.986971998587251">
        <ele>44.840000000000003</ele>
        <time>2026-06-29T05:26:13Z</time>
      </trkpt>
      <trkpt lat="51.797674018889666" lon="-9.987612962722778">
        <ele>45.32</ele>
        <time>2026-06-29T05:26:17Z</time>
      </trkpt>
      <trkpt lat="51.797548038884997" lon="-9.987756963819265">
        <ele>45.32</ele>
        <time>2026-06-29T05:26:18Z</time>
      </trkpt>
      <trkpt lat="51.797402026131749" lon="-9.987864000722766">
        <ele>45.799999999999997</ele>
        <time>2026-06-29T05:26:19Z</time>
      </trkpt>
      <trkpt lat="51.79639502428472" lon="-9.988561039790511">
        <ele>47.719999999999999</ele>
        <time>2026-06-29T05:26:26Z</time>
      </trkpt>
      <trkpt lat="51.796268038451672" lon="-9.988589035347104">
        <ele>47.719999999999999</ele>
        <time>2026-06-29T05:26:27Z</time>
      </trkpt>
      <trkpt lat="51.79611699655652" lon="-9.988577971234918">
        <ele>47.719999999999999</ele>
        <time>2026-06-29T05:26:28Z</time>
      </trkpt>
      <trkpt lat="51.795676024630666" lon="-9.988550981506705">
        <ele>48.68</ele>
        <time>2026-06-29T05:26:31Z</time>
      </trkpt>
      <trkpt lat="51.795551972463727" lon="-9.988592974841595">
        <ele>49.159999999999997</ele>
        <time>2026-06-29T05:26:32Z</time>
      </trkpt>
      <trkpt lat="51.795440996065736" lon="-9.988692970946431">
        <ele>49.159999999999997</ele>
        <time>2026-06-29T05:26:33Z</time>
      </trkpt>
      <trkpt lat="51.795346029102802" lon="-9.98881702311337">
        <ele>49.159999999999997</ele>
        <time>2026-06-29T05:26:34Z</time>
      </trkpt>
      <trkpt lat="51.795277968049049" lon="-9.989000000059605">
        <ele>49.159999999999997</ele>
        <time>2026-06-29T05:26:35Z</time>
      </trkpt>
      <trkpt lat="51.79521300829947" lon="-9.989190017804503">
        <ele>49.159999999999997</ele>
        <time>2026-06-29T05:26:36Z</time>
      </trkpt>
      <trkpt lat="51.795174032449722" lon="-9.989420017227531">
        <ele>49.159999999999997</ele>
        <time>2026-06-29T05:26:37Z</time>
      </trkpt>
      <trkpt lat="51.795137990266085" lon="-9.989640964195132">
        <ele>49.159999999999997</ele>
        <time>2026-06-29T05:26:38Z</time>
      </trkpt>
      <trkpt lat="51.795108988881111" lon="-9.989812038838863">
        <ele>49.649999999999999</ele>
        <time>2026-06-29T05:26:39Z</time>
      </trkpt>
      <trkpt lat="51.795018967241049" lon="-9.989946987479925">
        <ele>49.649999999999999</ele>
        <time>2026-06-29T05:26:40Z</time>
      </trkpt>
      <trkpt lat="51.794936992228031" lon="-9.990070033818483">
        <ele>50.130000000000003</ele>
        <time>2026-06-29T05:26:41Z</time>
      </trkpt>
      <trkpt lat="51.794827021658421" lon="-9.990131976082921">
        <ele>50.609999999999999</ele>
        <time>2026-06-29T05:26:42Z</time>
      </trkpt>
      <trkpt lat="51.794701041653752" lon="-9.990202970802784">
        <ele>50.609999999999999</ele>
        <time>2026-06-29T05:26:43Z</time>
      </trkpt>
      <trkpt lat="51.794572966173291" lon="-9.990275977179408">
        <ele>51.090000000000003</ele>
        <time>2026-06-29T05:26:44Z</time>
      </trkpt>
      <trkpt lat="51.794452015310526" lon="-9.990344038233161">
        <ele>51.57</ele>
        <time>2026-06-29T05:26:45Z</time>
      </trkpt>
      <trkpt lat="51.794330980628729" lon="-9.990339009091258">
        <ele>52.049999999999997</ele>
        <time>2026-06-29T05:26:46Z</time>
      </trkpt>
      <trkpt lat="51.794213969260454" lon="-9.990328028798103">
        <ele>52.530000000000001</ele>
        <time>2026-06-29T05:26:47Z</time>
      </trkpt>
      <trkpt lat="51.794121013954282" lon="-9.990250999107957">
        <ele>52.530000000000001</ele>
        <time>2026-06-29T05:26:48Z</time>
      </trkpt>
      <trkpt lat="51.794014982879162" lon="-9.990156032145023">
        <ele>53.009999999999998</ele>
        <time>2026-06-29T05:26:49Z</time>
      </trkpt>
      <trkpt lat="51.793967038393021" lon="-9.990018988028169">
        <ele>53.490000000000002</ele>
        <time>2026-06-29T05:26:50Z</time>
      </trkpt>
      <trkpt lat="51.793910041451454" lon="-9.989855038002133">
        <ele>53.969999999999999</ele>
        <time>2026-06-29T05:26:51Z</time>
      </trkpt>
      <trkpt lat="51.793852960690856" lon="-9.989689998328686">
        <ele>53.969999999999999</ele>
        <time>2026-06-29T05:26:52Z</time>
      </trkpt>
      <trkpt lat="51.79379403591156" lon="-9.989550020545721">
        <ele>53.969999999999999</ele>
        <time>2026-06-29T05:26:53Z</time>
      </trkpt>
      <trkpt lat="51.793717006221414" lon="-9.989440971985459">
        <ele>53.969999999999999</ele>
        <time>2026-06-29T05:26:54Z</time>
      </trkpt>
      <trkpt lat="51.793604018166661" lon="-9.989399984478951">
        <ele>53.969999999999999</ele>
        <time>2026-06-29T05:26:55Z</time>
      </trkpt>
      <trkpt lat="51.793483989313245" lon="-9.989356985315681">
        <ele>53.969999999999999</ele>
        <time>2026-06-29T05:26:56Z</time>
      </trkpt>
      <trkpt lat="51.793358009308577" lon="-9.989309962838888">
        <ele>53.969999999999999</ele>
        <time>2026-06-29T05:26:57Z</time>
      </trkpt>
      <trkpt lat="51.792822992429137" lon="-9.989076023921371">
        <ele>53.009999999999998</ele>
        <time>2026-06-29T05:27:01Z</time>
      </trkpt>
      <trkpt lat="51.792722996324301" lon="-9.988958006724715">
        <ele>53.009999999999998</ele>
        <time>2026-06-29T05:27:02Z</time>
      </trkpt>
      <trkpt lat="51.792626017704606" lon="-9.988814005628228">
        <ele>52.530000000000001</ele>
        <time>2026-06-29T05:27:03Z</time>
      </trkpt>
      <trkpt lat="51.79252602159977" lon="-9.988662963733077">
        <ele>52.530000000000001</ele>
        <time>2026-06-29T05:27:04Z</time>
      </trkpt>
      <trkpt lat="51.792426025494933" lon="-9.988513011485338">
        <ele>52.530000000000001</ele>
        <time>2026-06-29T05:27:05Z</time>
      </trkpt>
      <trkpt lat="51.792323011904955" lon="-9.988382002338767">
        <ele>52.530000000000001</ele>
        <time>2026-06-29T05:27:06Z</time>
      </trkpt>
      <trkpt lat="51.792210023850203" lon="-9.988279994577169">
        <ele>53.009999999999998</ele>
        <time>2026-06-29T05:27:07Z</time>
      </trkpt>
      <trkpt lat="51.792082032188773" lon="-9.988227020949125">
        <ele>53.009999999999998</ele>
        <time>2026-06-29T05:27:08Z</time>
      </trkpt>
      <trkpt lat="51.791941970586777" lon="-9.988232972100377">
        <ele>53.009999999999998</ele>
        <time>2026-06-29T05:27:09Z</time>
      </trkpt>
      <trkpt lat="51.79179503582418" lon="-9.988239007070661">
        <ele>53.009999999999998</ele>
        <time>2026-06-29T05:27:10Z</time>
      </trkpt>
      <trkpt lat="51.791138984262943" lon="-9.988268008455634">
        <ele>52.530000000000001</ele>
        <time>2026-06-29T05:27:14Z</time>
      </trkpt>
      <trkpt lat="51.790990959852934" lon="-9.988348977640271">
        <ele>52.049999999999997</ele>
        <time>2026-06-29T05:27:15Z</time>
      </trkpt>
      <trkpt lat="51.790837990120053" lon="-9.98843296431005">
        <ele>52.049999999999997</ele>
        <time>2026-06-29T05:27:16Z</time>
      </trkpt>
      <trkpt lat="51.790686026215553" lon="-9.988529020920396">
        <ele>51.57</ele>
        <time>2026-06-29T05:27:17Z</time>
      </trkpt>
      <trkpt lat="51.790547976270318" lon="-9.988676039502025">
        <ele>51.090000000000003</ele>
        <time>2026-06-29T05:27:18Z</time>
      </trkpt>
      <trkpt lat="51.790412021800876" lon="-9.988820962607861">
        <ele>51.090000000000003</ele>
        <time>2026-06-29T05:27:19Z</time>
      </trkpt>
      <trkpt lat="51.789365038275719" lon="-9.98972000554204">
        <ele>50.130000000000003</ele>
        <time>2026-06-29T05:27:27Z</time>
      </trkpt>
      <trkpt lat="51.788613013923168" lon="-9.990545958280563">
        <ele>50.609999999999999</ele>
        <time>2026-06-29T05:27:33Z</time>
      </trkpt>
      <trkpt lat="51.788516035303473" lon="-9.990735976025462">
        <ele>50.609999999999999</ele>
        <time>2026-06-29T05:27:34Z</time>
      </trkpt>
      <trkpt lat="51.788439005613327" lon="-9.990940997377038">
        <ele>50.609999999999999</ele>
        <time>2026-06-29T05:27:35Z</time>
      </trkpt>
      <trkpt lat="51.788363987579942" lon="-9.991151969879866">
        <ele>50.130000000000003</ele>
        <time>2026-06-29T05:27:36Z</time>
      </trkpt>
      <trkpt lat="51.788309002295136" lon="-9.991388004273176">
        <ele>49.649999999999999</ele>
        <time>2026-06-29T05:27:37Z</time>
      </trkpt>
      <trkpt lat="51.787927960976958" lon="-9.99281401745975">
        <ele>49.159999999999997</ele>
        <time>2026-06-29T05:27:43Z</time>
      </trkpt>
      <trkpt lat="51.787837017327547" lon="-9.993018032982945">
        <ele>48.68</ele>
        <time>2026-06-29T05:27:44Z</time>
      </trkpt>
      <trkpt lat="51.787732997909188" lon="-9.993204027414322">
        <ele>48.200000000000003</ele>
        <time>2026-06-29T05:27:45Z</time>
      </trkpt>
      <trkpt lat="51.786627005785704" lon="-9.995437972247601">
        <ele>48.68</ele>
        <time>2026-06-29T05:27:56Z</time>
      </trkpt>
      <trkpt lat="51.78634000942111" lon="-9.996053958311677">
        <ele>48.68</ele>
        <time>2026-06-29T05:27:59Z</time>
      </trkpt>
      <trkpt lat="51.786225009709597" lon="-9.996235007420182">
        <ele>48.68</ele>
        <time>2026-06-29T05:28:00Z</time>
      </trkpt>
      <trkpt lat="51.7861039750278" lon="-9.99640298075974">
        <ele>48.68</ele>
        <time>2026-06-29T05:28:01Z</time>
      </trkpt>
      <trkpt lat="51.785972965881228" lon="-9.996555028483272">
        <ele>48.200000000000003</ele>
        <time>2026-06-29T05:28:02Z</time>
      </trkpt>
      <trkpt lat="51.785842962563038" lon="-9.996706992387772">
        <ele>48.68</ele>
        <time>2026-06-29T05:28:03Z</time>
      </trkpt>
      <trkpt lat="51.785702984780073" lon="-9.996821992099285">
        <ele>48.200000000000003</ele>
        <time>2026-06-29T05:28:04Z</time>
      </trkpt>
      <trkpt lat="51.785549009218812" lon="-9.996899021789432">
        <ele>48.200000000000003</ele>
        <time>2026-06-29T05:28:05Z</time>
      </trkpt>
      <trkpt lat="51.78539402782917" lon="-9.996976973488927">
        <ele>48.200000000000003</ele>
        <time>2026-06-29T05:28:06Z</time>
      </trkpt>
      <trkpt lat="51.785236028954387" lon="-9.997046962380409">
        <ele>48.200000000000003</ele>
        <time>2026-06-29T05:28:07Z</time>
      </trkpt>
      <trkpt lat="51.785074006766081" lon="-9.997106976807118">
        <ele>48.200000000000003</ele>
        <time>2026-06-29T05:28:08Z</time>
      </trkpt>
      <trkpt lat="51.784590035676956" lon="-9.997287020087242">
        <ele>49.159999999999997</ele>
        <time>2026-06-29T05:28:11Z</time>
      </trkpt>
      <trkpt lat="51.783993998542428" lon="-9.997708965092897">
        <ele>48.200000000000003</ele>
        <time>2026-06-29T05:28:15Z</time>
      </trkpt>
      <trkpt lat="51.783857960253954" lon="-9.997856989502907">
        <ele>48.200000000000003</ele>
        <time>2026-06-29T05:28:16Z</time>
      </trkpt>
      <trkpt lat="51.783728040754795" lon="-9.998011970892549">
        <ele>47.719999999999999</ele>
        <time>2026-06-29T05:28:17Z</time>
      </trkpt>
      <trkpt lat="51.783608011901379" lon="-9.998196037486196">
        <ele>47.719999999999999</ele>
        <time>2026-06-29T05:28:18Z</time>
      </trkpt>
      <trkpt lat="51.78348395973444" lon="-9.998384965583682">
        <ele>48.200000000000003</ele>
        <time>2026-06-29T05:28:19Z</time>
      </trkpt>
      <trkpt lat="51.782577037811279" lon="-9.999855989590287">
        <ele>48.200000000000003</ele>
        <time>2026-06-29T05:28:27Z</time>
      </trkpt>
      <trkpt lat="51.782302027568221" lon="-10.000406010076404">
        <ele>46.759999999999998</ele>
        <time>2026-06-29T05:28:30Z</time>
      </trkpt>
      <trkpt lat="51.78219398483634" lon="-10.000552022829652">
        <ele>46.280000000000001</ele>
        <time>2026-06-29T05:28:31Z</time>
      </trkpt>
      <trkpt lat="51.782061969861388" lon="-10.000667022541165">
        <ele>46.280000000000001</ele>
        <time>2026-06-29T05:28:32Z</time>
      </trkpt>
      <trkpt lat="51.780556999146938" lon="-10.002040984109044">
        <ele>45.799999999999997</ele>
        <time>2026-06-29T05:28:43Z</time>
      </trkpt>
      <trkpt lat="51.780404029414058" lon="-10.002133017405868">
        <ele>45.799999999999997</ele>
        <time>2026-06-29T05:28:44Z</time>
      </trkpt>
      <trkpt lat="51.779475985094905" lon="-10.002746991813183">
        <ele>46.280000000000001</ele>
        <time>2026-06-29T05:28:50Z</time>
      </trkpt>
      <trkpt lat="51.779371965676546" lon="-10.002899961546063">
        <ele>46.280000000000001</ele>
        <time>2026-06-29T05:28:51Z</time>
      </trkpt>
      <trkpt lat="51.779279010370374" lon="-10.003092996776104">
        <ele>46.280000000000001</ele>
        <time>2026-06-29T05:28:52Z</time>
      </trkpt>
      <trkpt lat="51.779182031750679" lon="-10.003296006470919">
        <ele>46.280000000000001</ele>
        <time>2026-06-29T05:28:53Z</time>
      </trkpt>
      <trkpt lat="51.779086980968714" lon="-10.00351301394403">
        <ele>46.280000000000001</ele>
        <time>2026-06-29T05:28:54Z</time>
      </trkpt>
      <trkpt lat="51.778641985729337" lon="-10.00458799302578">
        <ele>43.880000000000003</ele>
        <time>2026-06-29T05:28:59Z</time>
      </trkpt>
      <trkpt lat="51.778532015159726" lon="-10.004746997728944">
        <ele>43.880000000000003</ele>
        <time>2026-06-29T05:29:00Z</time>
      </trkpt>
      <trkpt lat="51.778418021276593" lon="-10.004911031574011">
        <ele>43.880000000000003</ele>
        <time>2026-06-29T05:29:01Z</time>
      </trkpt>
      <trkpt lat="51.777374977245927" lon="-10.006462018936872">
        <ele>40.030000000000001</ele>
        <time>2026-06-29T05:29:10Z</time>
      </trkpt>
      <trkpt lat="51.776338974013925" lon="-10.00841299071908">
        <ele>36.189999999999998</ele>
        <time>2026-06-29T05:29:20Z</time>
      </trkpt>
      <trkpt lat="51.775041036307812" lon="-10.010328004136682">
        <ele>33.299999999999997</ele>
        <time>2026-06-29T05:29:30Z</time>
      </trkpt>
      <trkpt lat="51.774045014753938" lon="-10.012082001194358">
        <ele>33.299999999999997</ele>
        <time>2026-06-29T05:29:39Z</time>
      </trkpt>
      <trkpt lat="51.773973014205694" lon="-10.012235976755619">
        <ele>33.780000000000001</ele>
        <time>2026-06-29T05:29:40Z</time>
      </trkpt>
      <trkpt lat="51.773928003385663" lon="-10.012456001713872">
        <ele>33.780000000000001</ele>
        <time>2026-06-29T05:29:41Z</time>
      </trkpt>
      <trkpt lat="51.773888021707535" lon="-10.012651970610023">
        <ele>33.299999999999997</ele>
        <time>2026-06-29T05:29:42Z</time>
      </trkpt>
      <trkpt lat="51.773506980389357" lon="-10.014501018449664">
        <ele>29.460000000000001</ele>
        <time>2026-06-29T05:29:50Z</time>
      </trkpt>
      <trkpt lat="51.773428022861481" lon="-10.014710985124111">
        <ele>28.98</ele>
        <time>2026-06-29T05:29:51Z</time>
      </trkpt>
      <trkpt lat="51.773345964029431" lon="-10.014911983162165">
        <ele>28.5</ele>
        <time>2026-06-29T05:29:52Z</time>
      </trkpt>
      <trkpt lat="51.773114958778024" lon="-10.015476001426578">
        <ele>27.530000000000001</ele>
        <time>2026-06-29T05:29:55Z</time>
      </trkpt>
      <trkpt lat="51.77308201789856" lon="-10.015673981979489">
        <ele>27.050000000000001</ele>
        <time>2026-06-29T05:29:56Z</time>
      </trkpt>
      <trkpt lat="51.773049999028444" lon="-10.015861988067627">
        <ele>26.57</ele>
        <time>2026-06-29T05:29:57Z</time>
      </trkpt>
      <trkpt lat="51.773029966279864" lon="-10.016071032732725">
        <ele>26.09</ele>
        <time>2026-06-29T05:29:58Z</time>
      </trkpt>
      <trkpt lat="51.773010017350316" lon="-10.016272030770779">
        <ele>25.609999999999999</ele>
        <time>2026-06-29T05:29:59Z</time>
      </trkpt>
      <trkpt lat="51.772989984601736" lon="-10.01647001132369">
        <ele>25.129999999999999</ele>
        <time>2026-06-29T05:30:00Z</time>
      </trkpt>
      <trkpt lat="51.772861992940307" lon="-10.018200958147645">
        <ele>23.210000000000001</ele>
        <time>2026-06-29T05:30:09Z</time>
      </trkpt>
      <trkpt lat="51.772879008203745" lon="-10.018330039456487">
        <ele>23.210000000000001</ele>
        <time>2026-06-29T05:30:10Z</time>
      </trkpt>
      <trkpt lat="51.772958971560001" lon="-10.018517961725593">
        <ele>23.210000000000001</ele>
        <time>2026-06-29T05:30:11Z</time>
      </trkpt>
      <trkpt lat="51.773030972108245" lon="-10.018648970872164">
        <ele>23.210000000000001</ele>
        <time>2026-06-29T05:30:12Z</time>
      </trkpt>
      <trkpt lat="51.773143960162997" lon="-10.018739998340607">
        <ele>22.73</ele>
        <time>2026-06-29T05:30:13Z</time>
      </trkpt>
      <trkpt lat="51.773266000673175" lon="-10.018814010545611">
        <ele>22.73</ele>
        <time>2026-06-29T05:30:14Z</time>
      </trkpt>
      <trkpt lat="51.77340698428452" lon="-10.018852986395359">
        <ele>22.73</ele>
        <time>2026-06-29T05:30:15Z</time>
      </trkpt>
      <trkpt lat="51.773545034229755" lon="-10.018891040235758">
        <ele>22.25</ele>
        <time>2026-06-29T05:30:16Z</time>
      </trkpt>
      <trkpt lat="51.773666990920901" lon="-10.018977038562298">
        <ele>22.25</ele>
        <time>2026-06-29T05:30:17Z</time>
      </trkpt>
      <trkpt lat="51.77377101033926" lon="-10.019098995253444">
        <ele>21.77</ele>
        <time>2026-06-29T05:30:18Z</time>
      </trkpt>
      <trkpt lat="51.77387704141438" lon="-10.019245008006692">
        <ele>21.289999999999999</ele>
        <time>2026-06-29T05:30:19Z</time>
      </trkpt>
      <trkpt lat="51.773940995335579" lon="-10.019448017701507">
        <ele>20.809999999999999</ele>
        <time>2026-06-29T05:30:20Z</time>
      </trkpt>
      <trkpt lat="51.774002015590668" lon="-10.019661001861095">
        <ele>20.809999999999999</ele>
        <time>2026-06-29T05:30:21Z</time>
      </trkpt>
      <trkpt lat="51.774044008925557" lon="-10.019891001284122">
        <ele>20.809999999999999</ele>
        <time>2026-06-29T05:30:22Z</time>
      </trkpt>
      <trkpt lat="51.774086002260447" lon="-10.020125024020672">
        <ele>20.32</ele>
        <time>2026-06-29T05:30:23Z</time>
      </trkpt>
      <trkpt lat="51.774124978110194" lon="-10.020345970988274">
        <ele>20.32</ele>
        <time>2026-06-29T05:30:24Z</time>
      </trkpt>
      <trkpt lat="51.77417803555727" lon="-10.020546969026327">
        <ele>20.809999999999999</ele>
        <time>2026-06-29T05:30:25Z</time>
      </trkpt>
      <trkpt lat="51.77426403388381" lon="-10.020716032013297">
        <ele>21.289999999999999</ele>
        <time>2026-06-29T05:30:26Z</time>
      </trkpt>
      <trkpt lat="51.77439303137362" lon="-10.020817033946514">
        <ele>21.289999999999999</ele>
        <time>2026-06-29T05:30:27Z</time>
      </trkpt>
      <trkpt lat="51.774529991671443" lon="-10.020922981202602">
        <ele>21.77</ele>
        <time>2026-06-29T05:30:28Z</time>
      </trkpt>
      <trkpt lat="51.774670975282788" lon="-10.021034041419625">
        <ele>22.25</ele>
        <time>2026-06-29T05:30:29Z</time>
      </trkpt>
      <trkpt lat="51.775542022660375" lon="-10.021825963631272">
        <ele>25.609999999999999</ele>
        <time>2026-06-29T05:30:36Z</time>
      </trkpt>
      <trkpt lat="51.775617962703109" lon="-10.021977005526423">
        <ele>26.09</ele>
        <time>2026-06-29T05:30:37Z</time>
      </trkpt>
      <trkpt lat="51.775691974908113" lon="-10.02214296720922">
        <ele>26.09</ele>
        <time>2026-06-29T05:30:38Z</time>
      </trkpt>
      <trkpt lat="51.776280971243978" lon="-10.024155965074897">
        <ele>26.09</ele>
        <time>2026-06-29T05:30:47Z</time>
      </trkpt>
      <trkpt lat="51.777045987546444" lon="-10.026884023100138">
        <ele>23.690000000000001</ele>
        <time>2026-06-29T05:30:58Z</time>
      </trkpt>
      <trkpt lat="51.77768100053072" lon="-10.029200026765466">
        <ele>25.129999999999999</ele>
        <time>2026-06-29T05:31:08Z</time>
      </trkpt>
      <trkpt lat="51.778579037636518" lon="-10.031673023477197">
        <ele>21.289999999999999</ele>
        <time>2026-06-29T05:31:21Z</time>
      </trkpt>
      <trkpt lat="51.778939040377736" lon="-10.032530995085835">
        <ele>18.399999999999999</ele>
        <time>2026-06-29T05:31:27Z</time>
      </trkpt>
      <trkpt lat="51.778973992913961" lon="-10.032688993960619">
        <ele>18.399999999999999</ele>
        <time>2026-06-29T05:31:28Z</time>
      </trkpt>
      <trkpt lat="51.779010035097599" lon="-10.032854033634067">
        <ele>18.399999999999999</ele>
        <time>2026-06-29T05:31:29Z</time>
      </trkpt>
      <trkpt lat="51.779028978198767" lon="-10.033023012802005">
        <ele>17.920000000000002</ele>
        <time>2026-06-29T05:31:30Z</time>
      </trkpt>
      <trkpt lat="51.779044987633824" lon="-10.033199032768607">
        <ele>17.920000000000002</ele>
        <time>2026-06-29T05:31:31Z</time>
      </trkpt>
      <trkpt lat="51.779060997068882" lon="-10.033373041078448">
        <ele>17.920000000000002</ele>
        <time>2026-06-29T05:31:32Z</time>
      </trkpt>
      <trkpt lat="51.779076000675559" lon="-10.033541014418006">
        <ele>17.920000000000002</ele>
        <time>2026-06-29T05:31:33Z</time>
      </trkpt>
      <trkpt lat="51.779063008725643" lon="-10.03526802174747">
        <ele>19.359999999999999</ele>
        <time>2026-06-29T05:31:43Z</time>
      </trkpt>
      <trkpt lat="51.77910097874701" lon="-10.037414962425828">
        <ele>19.359999999999999</ele>
        <time>2026-06-29T05:31:54Z</time>
      </trkpt>
      <trkpt lat="51.77910097874701" lon="-10.037596011534333">
        <ele>18.399999999999999</ele>
        <time>2026-06-29T05:31:55Z</time>
      </trkpt>
      <trkpt lat="51.77910097874701" lon="-10.037973029538989">
        <ele>16.960000000000001</ele>
        <time>2026-06-29T05:31:58Z</time>
      </trkpt>
      <trkpt lat="51.779174990952015" lon="-10.038016028702259">
        <ele>16.48</ele>
        <time>2026-06-29T05:31:59Z</time>
      </trkpt>
      <trkpt lat="51.779210027307272" lon="-10.038050981238484">
        <ele>15.52</ele>
        <time>2026-06-29T05:32:00Z</time>
      </trkpt>
      <trkpt lat="51.779384035617113" lon="-10.038205962628126">
        <ele>13.119999999999999</ele>
        <time>2026-06-29T05:32:03Z</time>
      </trkpt>
      <trkpt lat="51.779473973438144" lon="-10.038262037560344">
        <ele>12.630000000000001</ele>
        <time>2026-06-29T05:32:04Z</time>
      </trkpt>
      <trkpt lat="51.7795729637146" lon="-10.038322973996401">
        <ele>12.630000000000001</ele>
        <time>2026-06-29T05:32:05Z</time>
      </trkpt>
      <trkpt lat="51.779687041416764" lon="-10.038350969552994">
        <ele>12.15</ele>
        <time>2026-06-29T05:32:06Z</time>
      </trkpt>
      <trkpt lat="51.779802963137627" lon="-10.038353987038136">
        <ele>12.15</ele>
        <time>2026-06-29T05:32:07Z</time>
      </trkpt>
      <trkpt lat="51.780527997761965" lon="-10.038377959281206">
        <ele>12.630000000000001</ele>
        <time>2026-06-29T05:32:13Z</time>
      </trkpt>
      <trkpt lat="51.780621958896518" lon="-10.038435962051153">
        <ele>12.630000000000001</ele>
        <time>2026-06-29T05:32:14Z</time>
      </trkpt>
      <trkpt lat="51.780785992741585" lon="-10.038594966754317">
        <ele>13.119999999999999</ele>
        <time>2026-06-29T05:32:16Z</time>
      </trkpt>
      <trkpt lat="51.780865034088492" lon="-10.038690017536283">
        <ele>13.6</ele>
        <time>2026-06-29T05:32:17Z</time>
      </trkpt>
      <trkpt lat="51.780941979959607" lon="-10.038781967014074">
        <ele>14.08</ele>
        <time>2026-06-29T05:32:18Z</time>
      </trkpt>
      <trkpt lat="51.781101990491152" lon="-10.038946000859141">
        <ele>16</ele>
        <time>2026-06-29T05:32:20Z</time>
      </trkpt>
      <trkpt lat="51.781267030164599" lon="-10.039040967822075">
        <ele>17.440000000000001</ele>
        <time>2026-06-29T05:32:22Z</time>
      </trkpt>
      <trkpt lat="51.781341964378953" lon="-10.039047002792358">
        <ele>18.399999999999999</ele>
        <time>2026-06-29T05:32:23Z</time>
      </trkpt>
      <trkpt lat="51.781412037089467" lon="-10.039052031934261">
        <ele>18.879999999999999</ele>
        <time>2026-06-29T05:32:24Z</time>
      </trkpt>
      <trkpt lat="51.781556960195303" lon="-10.039012972265482">
        <ele>20.32</ele>
        <time>2026-06-29T05:32:26Z</time>
      </trkpt>
      <trkpt lat="51.781819984316826" lon="-10.038852039724588">
        <ele>23.210000000000001</ele>
        <time>2026-06-29T05:32:29Z</time>
      </trkpt>
      <trkpt lat="51.781918974593282" lon="-10.038766963407397">
        <ele>23.690000000000001</ele>
        <time>2026-06-29T05:32:30Z</time>
      </trkpt>
      <trkpt lat="51.782017964869738" lon="-10.038660010322928">
        <ele>24.170000000000002</ele>
        <time>2026-06-29T05:32:31Z</time>
      </trkpt>
      <trkpt lat="51.782117038965225" lon="-10.038551967591047">
        <ele>24.649999999999999</ele>
        <time>2026-06-29T05:32:32Z</time>
      </trkpt>
      <trkpt lat="51.78221401758492" lon="-10.038446020334959">
        <ele>24.649999999999999</ele>
        <time>2026-06-29T05:32:33Z</time>
      </trkpt>
      <trkpt lat="51.78270997479558" lon="-10.037842020392418">
        <ele>28.5</ele>
        <time>2026-06-29T05:32:39Z</time>
      </trkpt>
      <trkpt lat="51.782790021970868" lon="-10.037742024287581">
        <ele>29.460000000000001</ele>
        <time>2026-06-29T05:32:40Z</time>
      </trkpt>
      <trkpt lat="51.782865040004253" lon="-10.037646973505616">
        <ele>30.420000000000002</ele>
        <time>2026-06-29T05:32:41Z</time>
      </trkpt>
      <trkpt lat="51.783179026097059" lon="-10.037251012399793">
        <ele>31.859999999999999</ele>
        <time>2026-06-29T05:32:46Z</time>
      </trkpt>
      <trkpt lat="51.783237028867006" lon="-10.037178006023169">
        <ele>31.859999999999999</ele>
        <time>2026-06-29T05:32:47Z</time>
      </trkpt>
      <trkpt lat="51.783339958637953" lon="-10.03707398660481">
        <ele>32.340000000000003</ele>
        <time>2026-06-29T05:32:48Z</time>
      </trkpt>
      <trkpt lat="51.783391004428267" lon="-10.037126038223505">
        <ele>32.340000000000003</ele>
        <time>2026-06-29T05:32:49Z</time>
      </trkpt>
      <trkpt lat="51.783451018854976" lon="-10.037187980487943">
        <ele>32.82</ele>
        <time>2026-06-29T05:32:50Z</time>
      </trkpt>
      <trkpt lat="51.783520001918077" lon="-10.037257969379425">
        <ele>33.299999999999997</ele>
        <time>2026-06-29T05:32:51Z</time>
      </trkpt>
      <trkpt lat="51.783598959445953" lon="-10.037339022383094">
        <ele>33.780000000000001</ele>
        <time>2026-06-29T05:32:52Z</time>
      </trkpt>
      <trkpt lat="51.783784031867981" lon="-10.037528034299612">
        <ele>33.780000000000001</ele>
        <time>2026-06-29T05:32:54Z</time>
      </trkpt>
      <trkpt lat="51.784085026010871" lon="-10.037836991250515">
        <ele>33.299999999999997</ele>
        <time>2026-06-29T05:32:57Z</time>
      </trkpt>
      <trkpt lat="51.78416901268065" lon="-10.037922989577055">
        <ele>32.82</ele>
        <time>2026-06-29T05:32:58Z</time>
      </trkpt>
      <trkpt lat="51.784248976036906" lon="-10.038003958761692">
        <ele>32.340000000000003</ele>
        <time>2026-06-29T05:32:59Z</time>
      </trkpt>
      <trkpt lat="51.784581989049911" lon="-10.038346024230123">
        <ele>32.340000000000003</ele>
        <time>2026-06-29T05:33:03Z</time>
      </trkpt>
      <trkpt lat="51.78466597571969" lon="-10.038432022556663">
        <ele>31.859999999999999</ele>
        <time>2026-06-29T05:33:04Z</time>
      </trkpt>
      <trkpt lat="51.78569502197206" lon="-10.039453022181988">
        <ele>33.299999999999997</ele>
        <time>2026-06-29T05:33:16Z</time>
      </trkpt>
      <trkpt lat="51.785775991156697" lon="-10.039531979709864">
        <ele>33.780000000000001</ele>
        <time>2026-06-29T05:33:17Z</time>
      </trkpt>
      <trkpt lat="51.785853020846844" lon="-10.039574978873134">
        <ele>34.740000000000002</ele>
        <time>2026-06-29T05:33:18Z</time>
      </trkpt>
      <trkpt lat="51.785925021395087" lon="-10.039605991914868">
        <ele>35.710000000000001</ele>
        <time>2026-06-29T05:33:19Z</time>
      </trkpt>
      <trkpt lat="51.785983024165034" lon="-10.039574978873134">
        <ele>36.670000000000002</ele>
        <time>2026-06-29T05:33:20Z</time>
      </trkpt>
      <trkpt lat="51.786040021106601" lon="-10.039511024951935">
        <ele>37.149999999999999</ele>
        <time>2026-06-29T05:33:21Z</time>
      </trkpt>
      <trkpt lat="51.786117972806096" lon="-10.039423014968634">
        <ele>38.109999999999999</ele>
        <time>2026-06-29T05:33:22Z</time>
      </trkpt>
      <trkpt lat="51.786150997504592" lon="-10.039358977228403">
        <ele>38.590000000000003</ele>
        <time>2026-06-29T05:33:23Z</time>
      </trkpt>
      <trkpt lat="51.786715015769005" lon="-10.038268994539976">
        <ele>45.799999999999997</ele>
        <time>2026-06-29T05:33:32Z</time>
      </trkpt>
      <trkpt lat="51.787337958812714" lon="-10.037157973274589">
        <ele>52.049999999999997</ele>
        <time>2026-06-29T05:33:42Z</time>
      </trkpt>
      <trkpt lat="51.787426974624395" lon="-10.037019001320004">
        <ele>53.969999999999999</ele>
        <time>2026-06-29T05:33:43Z</time>
      </trkpt>
      <trkpt lat="51.787467962130904" lon="-10.036930991336703">
        <ele>55.890000000000001</ele>
        <time>2026-06-29T05:33:44Z</time>
      </trkpt>
      <trkpt lat="51.787799969315529" lon="-10.036119958385825">
        <ele>63.579999999999998</ele>
        <time>2026-06-29T05:33:51Z</time>
      </trkpt>
      <trkpt lat="51.787825031206012" lon="-10.035976963117719">
        <ele>64.069999999999993</ele>
        <time>2026-06-29T05:33:52Z</time>
      </trkpt>
      <trkpt lat="51.787852020934224" lon="-10.035821981728077">
        <ele>64.549999999999997</ele>
        <time>2026-06-29T05:33:53Z</time>
      </trkpt>
      <trkpt lat="51.788048995658755" lon="-10.034521026536822">
        <ele>63.100000000000001</ele>
        <time>2026-06-29T05:34:01Z</time>
      </trkpt>
      <trkpt lat="51.788071040064096" lon="-10.034368978813291">
        <ele>62.619999999999997</ele>
        <time>2026-06-29T05:34:02Z</time>
      </trkpt>
      <trkpt lat="51.788093000650406" lon="-10.034211985766888">
        <ele>63.100000000000001</ele>
        <time>2026-06-29T05:34:03Z</time>
      </trkpt>
      <trkpt lat="51.788114961236715" lon="-10.034052981063724">
        <ele>63.579999999999998</ele>
        <time>2026-06-29T05:34:04Z</time>
      </trkpt>
      <trkpt lat="51.788139017298818" lon="-10.033886013552547">
        <ele>63.579999999999998</ele>
        <time>2026-06-29T05:34:05Z</time>
      </trkpt>
      <trkpt lat="51.788243958726525" lon="-10.03327002748847">
        <ele>65.030000000000001</ele>
        <time>2026-06-29T05:34:09Z</time>
      </trkpt>
      <trkpt lat="51.788502959534526" lon="-10.03217400982976">
        <ele>67.909999999999997</ele>
        <time>2026-06-29T05:34:16Z</time>
      </trkpt>
      <trkpt lat="51.788577977567911" lon="-10.031859017908573">
        <ele>69.349999999999994</ele>
        <time>2026-06-29T05:34:18Z</time>
      </trkpt>
      <trkpt lat="51.788614019751549" lon="-10.031705964356661">
        <ele>70.790000000000006</ele>
        <time>2026-06-29T05:34:19Z</time>
      </trkpt>
      <trkpt lat="51.789001012220979" lon="-10.030068978667259">
        <ele>78.969999999999999</ele>
        <time>2026-06-29T05:34:29Z</time>
      </trkpt>
      <trkpt lat="51.789443995803595" lon="-10.028195036575198">
        <ele>83.290000000000006</ele>
        <time>2026-06-29T05:34:41Z</time>
      </trkpt>
      <trkpt lat="51.789837023243308" lon="-10.026454031467438">
        <ele>80.409999999999997</ele>
        <time>2026-06-29T05:34:52Z</time>
      </trkpt>
      <trkpt lat="51.790046989917755" lon="-10.025525987148285">
        <ele>79.450000000000003</ele>
        <time>2026-06-29T05:34:58Z</time>
      </trkpt>
      <trkpt lat="51.790107004344463" lon="-10.025387015193701">
        <ele>78.969999999999999</ele>
        <time>2026-06-29T05:34:59Z</time>
      </trkpt>
      <trkpt lat="51.790504977107048" lon="-10.024513034150004">
        <ele>77.519999999999996</ele>
        <time>2026-06-29T05:35:05Z</time>
      </trkpt>
      <trkpt lat="51.790717039257288" lon="-10.024087987840176">
        <ele>75.120000000000005</ele>
        <time>2026-06-29T05:35:08Z</time>
      </trkpt>
      <trkpt lat="51.790789039805532" lon="-10.023943986743689">
        <ele>74.640000000000001</ele>
        <time>2026-06-29T05:35:09Z</time>
      </trkpt>
      <trkpt lat="51.790858022868633" lon="-10.023806020617485">
        <ele>74.159999999999997</ele>
        <time>2026-06-29T05:35:10Z</time>
      </trkpt>
      <trkpt lat="51.790924994274974" lon="-10.023672999814153">
        <ele>73.680000000000007</ele>
        <time>2026-06-29T05:35:11Z</time>
      </trkpt>
      <trkpt lat="51.790989032015204" lon="-10.023544002324343">
        <ele>72.719999999999999</ele>
        <time>2026-06-29T05:35:12Z</time>
      </trkpt>
      <trkpt lat="51.791053991764784" lon="-10.023415004834533">
        <ele>71.269999999999996</ele>
        <time>2026-06-29T05:35:13Z</time>
      </trkpt>
      <trkpt lat="51.791118029505014" lon="-10.023286007344723">
        <ele>69.829999999999998</ele>
        <time>2026-06-29T05:35:14Z</time>
      </trkpt>
      <trkpt lat="51.791652962565422" lon="-10.022333990782499">
        <ele>63.579999999999998</ele>
        <time>2026-06-29T05:35:21Z</time>
      </trkpt>
      <trkpt lat="51.791727980598807" lon="-10.022200969979167">
        <ele>62.619999999999997</ele>
        <time>2026-06-29T05:35:22Z</time>
      </trkpt>
      <trkpt lat="51.792380008846521" lon="-10.021060025319457">
        <ele>59.259999999999998</ele>
        <time>2026-06-29T05:35:31Z</time>
      </trkpt>
      <trkpt lat="51.792457960546017" lon="-10.020921975374222">
        <ele>58.780000000000001</ele>
        <time>2026-06-29T05:35:32Z</time>
      </trkpt>
      <trkpt lat="51.792985014617443" lon="-10.019999966025352">
        <ele>57.82</ele>
        <time>2026-06-29T05:35:39Z</time>
      </trkpt>
      <trkpt lat="51.793051986023784" lon="-10.019881026819348">
        <ele>58.780000000000001</ele>
        <time>2026-06-29T05:35:40Z</time>
      </trkpt>
      <trkpt lat="51.793123986572027" lon="-10.019754962995648">
        <ele>59.740000000000002</ele>
        <time>2026-06-29T05:35:41Z</time>
      </trkpt>
      <trkpt lat="51.793195987120271" lon="-10.019629988819361">
        <ele>60.219999999999999</ele>
        <time>2026-06-29T05:35:42Z</time>
      </trkpt>
      <trkpt lat="51.793264970183372" lon="-10.019508032128215">
        <ele>60.700000000000003</ele>
        <time>2026-06-29T05:35:43Z</time>
      </trkpt>
      <trkpt lat="51.793332025408745" lon="-10.019392026588321">
        <ele>61.18</ele>
        <time>2026-06-29T05:35:44Z</time>
      </trkpt>
      <trkpt lat="51.793584991246462" lon="-10.018948037177324">
        <ele>59.740000000000002</ele>
        <time>2026-06-29T05:35:48Z</time>
      </trkpt>
      <trkpt lat="51.793659003451467" lon="-10.018870001658797">
        <ele>59.740000000000002</ele>
        <time>2026-06-29T05:35:49Z</time>
      </trkpt>
      <trkpt lat="51.79416099563241" lon="-10.018489966169">
        <ele>59.259999999999998</ele>
        <time>2026-06-29T05:35:55Z</time>
      </trkpt>
      <trkpt lat="51.794245988130569" lon="-10.018426012247801">
        <ele>59.259999999999998</ele>
        <time>2026-06-29T05:35:56Z</time>
      </trkpt>
      <trkpt lat="51.794400969520211" lon="-10.018307995051146">
        <ele>59.740000000000002</ele>
        <time>2026-06-29T05:35:58Z</time>
      </trkpt>
      <trkpt lat="51.794534996151924" lon="-10.018298020586371">
        <ele>59.740000000000002</ele>
        <time>2026-06-29T05:35:59Z</time>
      </trkpt>
      <trkpt lat="51.794641027227044" lon="-10.018289973959327">
        <ele>59.740000000000002</ele>
        <time>2026-06-29T05:36:00Z</time>
      </trkpt>
      <trkpt lat="51.795766968280077" lon="-10.018201963976026">
        <ele>61.18</ele>
        <time>2026-06-29T05:36:10Z</time>
      </trkpt>
      <trkpt lat="51.795861013233662" lon="-10.018244041129947">
        <ele>61.18</ele>
        <time>2026-06-29T05:36:11Z</time>
      </trkpt>
      <trkpt lat="51.795937037095428" lon="-10.018310006707907">
        <ele>61.659999999999997</ele>
        <time>2026-06-29T05:36:12Z</time>
      </trkpt>
      <trkpt lat="51.79600995965302" lon="-10.018402962014079">
        <ele>61.659999999999997</ele>
        <time>2026-06-29T05:36:13Z</time>
      </trkpt>
      <trkpt lat="51.796077014878392" lon="-10.018503963947296">
        <ele>61.659999999999997</ele>
        <time>2026-06-29T05:36:14Z</time>
      </trkpt>
      <trkpt lat="51.796141974627972" lon="-10.018629021942616">
        <ele>61.18</ele>
        <time>2026-06-29T05:36:15Z</time>
      </trkpt>
      <trkpt lat="51.796209029853344" lon="-10.018757013604045">
        <ele>61.18</ele>
        <time>2026-06-29T05:36:16Z</time>
      </trkpt>
      <trkpt lat="51.796920988708735" lon="-10.020070038735867">
        <ele>66.950000000000003</ele>
        <time>2026-06-29T05:36:26Z</time>
      </trkpt>
      <trkpt lat="51.797586008906364" lon="-10.021241996437311">
        <ele>73.680000000000007</ele>
        <time>2026-06-29T05:36:35Z</time>
      </trkpt>
      <trkpt lat="51.797979036346078" lon="-10.022169034928083">
        <ele>77.519999999999996</ele>
        <time>2026-06-29T05:36:42Z</time>
      </trkpt>
      <trkpt lat="51.798020023852587" lon="-10.022266013547778">
        <ele>78</ele>
        <time>2026-06-29T05:36:43Z</time>
      </trkpt>
      <trkpt lat="51.798061011359096" lon="-10.022363997995853">
        <ele>78</ele>
        <time>2026-06-29T05:36:44Z</time>
      </trkpt>
      <trkpt lat="51.798136029392481" lon="-10.022413032129407">
        <ele>78.480000000000004</ele>
        <time>2026-06-29T05:36:45Z</time>
      </trkpt>
      <trkpt lat="51.798195960000157" lon="-10.022439016029239">
        <ele>78.969999999999999</ele>
        <time>2026-06-29T05:36:46Z</time>
      </trkpt>
      <trkpt lat="51.79822001606226" lon="-10.022449996322393">
        <ele>79.450000000000003</ele>
        <time>2026-06-29T05:36:47Z</time>
      </trkpt>
      <trkpt lat="51.798319006338716" lon="-10.022386964410543">
        <ele>79.930000000000007</ele>
        <time>2026-06-29T05:36:48Z</time>
      </trkpt>
      <trkpt lat="51.798396036028862" lon="-10.022338014096022">
        <ele>80.409999999999997</ele>
        <time>2026-06-29T05:36:49Z</time>
      </trkpt>
      <trkpt lat="51.798473987728357" lon="-10.022287974134088">
        <ele>81.370000000000005</ele>
        <time>2026-06-29T05:36:50Z</time>
      </trkpt>
      <trkpt lat="51.79892803542316" lon="-10.021998966112733">
        <ele>84.730000000000004</ele>
        <time>2026-06-29T05:36:55Z</time>
      </trkpt>
      <trkpt lat="51.798986038193107" lon="-10.021916991099715">
        <ele>85.689999999999998</ele>
        <time>2026-06-29T05:36:56Z</time>
      </trkpt>
      <trkpt lat="51.79905703291297" lon="-10.021815989166498">
        <ele>86.659999999999997</ele>
        <time>2026-06-29T05:36:57Z</time>
      </trkpt>
      <trkpt lat="51.799127021804452" lon="-10.021714987233281">
        <ele>87.140000000000001</ele>
        <time>2026-06-29T05:36:58Z</time>
      </trkpt>
      <trkpt lat="51.799199022352695" lon="-10.021612979471684">
        <ele>87.620000000000005</ele>
        <time>2026-06-29T05:36:59Z</time>
      </trkpt>
      <trkpt lat="51.799285020679235" lon="-10.021532010287046">
        <ele>88.579999999999998</ele>
        <time>2026-06-29T05:37:00Z</time>
      </trkpt>
      <trkpt lat="51.799373030662537" lon="-10.021470990031958">
        <ele>89.540000000000006</ele>
        <time>2026-06-29T05:37:01Z</time>
      </trkpt>
      <trkpt lat="51.799461962655187" lon="-10.021410975605249">
        <ele>90.5</ele>
        <time>2026-06-29T05:37:02Z</time>
      </trkpt>
      <trkpt lat="51.799550978466868" lon="-10.021350039169192">
        <ele>91.459999999999994</ele>
        <time>2026-06-29T05:37:03Z</time>
      </trkpt>
      <trkpt lat="51.79963898845017" lon="-10.021291030570865">
        <ele>92.420000000000002</ele>
        <time>2026-06-29T05:37:04Z</time>
      </trkpt>
      <trkpt lat="51.799714006483555" lon="-10.021224981173873">
        <ele>92.900000000000006</ele>
        <time>2026-06-29T05:37:05Z</time>
      </trkpt>
      <trkpt lat="51.799772009253502" lon="-10.021116016432643">
        <ele>93.390000000000001</ele>
        <time>2026-06-29T05:37:06Z</time>
      </trkpt>
      <trkpt lat="51.79983101785183" lon="-10.021008979529142">
        <ele>93.390000000000001</ele>
        <time>2026-06-29T05:37:07Z</time>
      </trkpt>
      <trkpt lat="51.799890026450157" lon="-10.020899008959532">
        <ele>93.870000000000005</ele>
        <time>2026-06-29T05:37:08Z</time>
      </trkpt>
      <trkpt lat="51.799951968714595" lon="-10.020785015076399">
        <ele>94.349999999999994</ele>
        <time>2026-06-29T05:37:09Z</time>
      </trkpt>
      <trkpt lat="51.800015000626445" lon="-10.020670015364885">
        <ele>94.829999999999998</ele>
        <time>2026-06-29T05:37:10Z</time>
      </trkpt>
      <trkpt lat="51.800079038366675" lon="-10.020550992339849">
        <ele>95.310000000000002</ele>
        <time>2026-06-29T05:37:11Z</time>
      </trkpt>
      <trkpt lat="51.800149027258158" lon="-10.020440015941858">
        <ele>95.790000000000006</ele>
        <time>2026-06-29T05:37:12Z</time>
      </trkpt>
      <trkpt lat="51.800224967300892" lon="-10.020334990695119">
        <ele>96.75</ele>
        <time>2026-06-29T05:37:13Z</time>
      </trkpt>
      <trkpt lat="51.800301996991038" lon="-10.02022803761065">
        <ele>97.709999999999994</ele>
        <time>2026-06-29T05:37:14Z</time>
      </trkpt>
      <trkpt lat="51.800816981121898" lon="-10.019509959965944">
        <ele>101.56</ele>
        <time>2026-06-29T05:37:21Z</time>
      </trkpt>
      <trkpt lat="51.801567999646068" lon="-10.018310006707907">
        <ele>109.25</ele>
        <time>2026-06-29T05:37:32Z</time>
      </trkpt>
      <trkpt lat="51.801718035712838" lon="-10.018094005063176">
        <ele>110.20999999999999</ele>
        <time>2026-06-29T05:37:34Z</time>
      </trkpt>
      <trkpt lat="51.801825994625688" lon="-10.018042037263513">
        <ele>111.17</ele>
        <time>2026-06-29T05:37:35Z</time>
      </trkpt>
      <trkpt lat="51.801929008215666" lon="-10.017993003129959">
        <ele>111.65000000000001</ele>
        <time>2026-06-29T05:37:36Z</time>
      </trkpt>
      <trkpt lat="51.802034033462405" lon="-10.017942963168025">
        <ele>112.61</ele>
        <time>2026-06-29T05:37:37Z</time>
      </trkpt>
      <trkpt lat="51.802137969061732" lon="-10.017894012853503">
        <ele>113.09</ele>
        <time>2026-06-29T05:37:38Z</time>
      </trkpt>
      <trkpt lat="51.802246011793613" lon="-10.017894012853503">
        <ele>113.56999999999999</ele>
        <time>2026-06-29T05:37:39Z</time>
      </trkpt>
      <trkpt lat="51.802353970706463" lon="-10.017913961783051">
        <ele>114.05</ele>
        <time>2026-06-29T05:37:40Z</time>
      </trkpt>
      <trkpt lat="51.802457990124822" lon="-10.017933994531631">
        <ele>114.53</ele>
        <time>2026-06-29T05:37:41Z</time>
      </trkpt>
      <trkpt lat="51.802563015371561" lon="-10.017954027280211">
        <ele>115.01000000000001</ele>
        <time>2026-06-29T05:37:42Z</time>
      </trkpt>
      <trkpt lat="51.802673991769552" lon="-10.017946986481547">
        <ele>115.98</ele>
        <time>2026-06-29T05:37:43Z</time>
      </trkpt>
      <trkpt lat="51.802783962339163" lon="-10.017899964004755">
        <ele>116.45999999999999</ele>
        <time>2026-06-29T05:37:44Z</time>
      </trkpt>
      <trkpt lat="51.803968995809555" lon="-10.017383974045515">
        <ele>124.63</ele>
        <time>2026-06-29T05:37:55Z</time>
      </trkpt>
      <trkpt lat="51.80447299964726" lon="-10.017085997387767">
        <ele>131.36000000000001</ele>
        <time>2026-06-29T05:38:03Z</time>
      </trkpt>
      <trkpt lat="51.804488003253937" lon="-10.017077028751373">
        <ele>132.31999999999999</ele>
        <time>2026-06-29T05:38:04Z</time>
      </trkpt>
      <trkpt lat="51.804519016295671" lon="-10.017059007659554">
        <ele>134.24000000000001</ele>
        <time>2026-06-29T05:38:15Z</time>
      </trkpt>
      <trkpt lat="51.804594034329057" lon="-10.017120027914643">
        <ele>136.16</ele>
        <time>2026-06-29T05:52:51Z</time>
      </trkpt>
      <trkpt lat="51.804584981873631" lon="-10.017127990722656">
        <ele>132.80000000000001</ele>
        <time>2026-06-29T05:53:28Z</time>
      </trkpt>
      <trkpt lat="51.804590011015534" lon="-10.017127990722656">
        <ele>134.24000000000001</ele>
        <time>2026-06-29T05:54:28Z</time>
      </trkpt>
      <trkpt lat="51.804595040157437" lon="-10.017125979065895">
        <ele>134.72</ele>
        <time>2026-06-29T05:55:22Z</time>
      </trkpt>
      <trkpt lat="51.804594034329057" lon="-10.017122961580753">
        <ele>134.24000000000001</ele>
        <time>2026-06-29T05:56:02Z</time>
      </trkpt>
      <trkpt lat="51.804523961618543" lon="-10.017055990174413">
        <ele>133.75999999999999</ele>
        <time>2026-06-29T05:56:06Z</time>
      </trkpt>
      <trkpt lat="51.804482974112034" lon="-10.017079962417483">
        <ele>133.28</ele>
        <time>2026-06-29T05:56:07Z</time>
      </trkpt>
      <trkpt lat="51.804427988827229" lon="-10.017112987115979">
        <ele>132.80000000000001</ele>
        <time>2026-06-29T05:56:08Z</time>
      </trkpt>
      <trkpt lat="51.803921973332763" lon="-10.017411969602108">
        <ele>129.43000000000001</ele>
        <time>2026-06-29T05:56:16Z</time>
      </trkpt>
      <trkpt lat="51.803083028644323" lon="-10.017717992886901">
        <ele>124.15000000000001</ele>
        <time>2026-06-29T05:56:25Z</time>
      </trkpt>
      <trkpt lat="51.802703998982906" lon="-10.017937012016773">
        <ele>120.3</ele>
        <time>2026-06-29T05:56:29Z</time>
      </trkpt>
      <trkpt lat="51.802610959857702" lon="-10.017964001744986">
        <ele>119.34</ele>
        <time>2026-06-29T05:56:30Z</time>
      </trkpt>
      <trkpt lat="51.802524961531162" lon="-10.017946986481547">
        <ele>118.86</ele>
        <time>2026-06-29T05:56:31Z</time>
      </trkpt>
      <trkpt lat="51.802158001810312" lon="-10.017884038388729">
        <ele>115.5</ele>
        <time>2026-06-29T05:56:35Z</time>
      </trkpt>
      <trkpt lat="51.80206798017025" lon="-10.017927037551999">
        <ele>114.53</ele>
        <time>2026-06-29T05:56:36Z</time>
      </trkpt>
      <trkpt lat="51.801977036520839" lon="-10.017970036715269">
        <ele>114.05</ele>
        <time>2026-06-29T05:56:37Z</time>
      </trkpt>
      <trkpt lat="51.801883997395635" lon="-10.01801404170692">
        <ele>113.09</ele>
        <time>2026-06-29T05:56:38Z</time>
      </trkpt>
      <trkpt lat="51.801788024604321" lon="-10.0180599745363">
        <ele>112.61</ele>
        <time>2026-06-29T05:56:39Z</time>
      </trkpt>
      <trkpt lat="51.801690040156245" lon="-10.018133986741304">
        <ele>111.65000000000001</ele>
        <time>2026-06-29T05:56:40Z</time>
      </trkpt>
      <trkpt lat="51.801610998809338" lon="-10.018246974796057">
        <ele>111.17</ele>
        <time>2026-06-29T05:56:41Z</time>
      </trkpt>
      <trkpt lat="51.800798960030079" lon="-10.019534016028047">
        <ele>102.52</ele>
        <time>2026-06-29T05:56:53Z</time>
      </trkpt>
      <trkpt lat="51.800736011937261" lon="-10.019622026011348">
        <ele>102.04000000000001</ele>
        <time>2026-06-29T05:56:54Z</time>
      </trkpt>
      <trkpt lat="51.80067197419703" lon="-10.01971104182303">
        <ele>101.56</ele>
        <time>2026-06-29T05:56:55Z</time>
      </trkpt>
      <trkpt lat="51.800061017274857" lon="-10.020585022866726">
        <ele>97.709999999999994</ele>
        <time>2026-06-29T05:57:04Z</time>
      </trkpt>
      <trkpt lat="51.799999997019768" lon="-10.020698010921478">
        <ele>97.230000000000004</ele>
        <time>2026-06-29T05:57:05Z</time>
      </trkpt>
      <trkpt lat="51.799873011186719" lon="-10.020931027829647">
        <ele>95.790000000000006</ele>
        <time>2026-06-29T05:57:07Z</time>
      </trkpt>
      <trkpt lat="51.79981199093163" lon="-10.021042004227638">
        <ele>94.829999999999998</ele>
        <time>2026-06-29T05:57:08Z</time>
      </trkpt>
      <trkpt lat="51.799752982333302" lon="-10.021152980625629">
        <ele>94.349999999999994</ele>
        <time>2026-06-29T05:57:09Z</time>
      </trkpt>
      <trkpt lat="51.79968299344182" lon="-10.02126001752913">
        <ele>93.390000000000001</ele>
        <time>2026-06-29T05:57:10Z</time>
      </trkpt>
      <trkpt lat="51.799598000943661" lon="-10.021318020299077">
        <ele>92.900000000000006</ele>
        <time>2026-06-29T05:57:11Z</time>
      </trkpt>
      <trkpt lat="51.799515020102262" lon="-10.021375017240644">
        <ele>92.420000000000002</ele>
        <time>2026-06-29T05:57:12Z</time>
      </trkpt>
      <trkpt lat="51.799346962943673" lon="-10.021489011123776">
        <ele>91.459999999999994</ele>
        <time>2026-06-29T05:57:14Z</time>
      </trkpt>
      <trkpt lat="51.799263982102275" lon="-10.021545002236962">
        <ele>90.980000000000004</ele>
        <time>2026-06-29T05:57:15Z</time>
      </trkpt>
      <trkpt lat="51.799196004867554" lon="-10.021617002785206">
        <ele>90.5</ele>
        <time>2026-06-29T05:57:16Z</time>
      </trkpt>
      <trkpt lat="51.799127021804452" lon="-10.021715993061662">
        <ele>90.019999999999996</ele>
        <time>2026-06-29T05:57:17Z</time>
      </trkpt>
      <trkpt lat="51.79905703291297" lon="-10.021815989166498">
        <ele>89.060000000000002</ele>
        <time>2026-06-29T05:57:18Z</time>
      </trkpt>
      <trkpt lat="51.798988971859217" lon="-10.021911961957812">
        <ele>88.579999999999998</ele>
        <time>2026-06-29T05:57:19Z</time>
      </trkpt>
      <trkpt lat="51.798859974369407" lon="-10.022041965276003">
        <ele>86.659999999999997</ele>
        <time>2026-06-29T05:57:21Z</time>
      </trkpt>
      <trkpt lat="51.798785962164402" lon="-10.022089993581176">
        <ele>86.180000000000007</ele>
        <time>2026-06-29T05:57:22Z</time>
      </trkpt>
      <trkpt lat="51.798304002732038" lon="-10.022396016865969">
        <ele>83.290000000000006</ele>
        <time>2026-06-29T05:57:28Z</time>
      </trkpt>
      <trkpt lat="51.79822001606226" lon="-10.022449996322393">
        <ele>82.329999999999998</ele>
        <time>2026-06-29T05:57:29Z</time>
      </trkpt>
      <trkpt lat="51.798160001635551" lon="-10.022424012422562">
        <ele>81.370000000000005</ele>
        <time>2026-06-29T05:57:30Z</time>
      </trkpt>
      <trkpt lat="51.798064028844237" lon="-10.022371038794518">
        <ele>80.890000000000001</ele>
        <time>2026-06-29T05:57:31Z</time>
      </trkpt>
      <trkpt lat="51.798020023852587" lon="-10.022268025204539">
        <ele>80.409999999999997</ele>
        <time>2026-06-29T05:57:32Z</time>
      </trkpt>
      <trkpt lat="51.797976018860936" lon="-10.0221629999578">
        <ele>79.450000000000003</ele>
        <time>2026-06-29T05:57:33Z</time>
      </trkpt>
      <trkpt lat="51.797392973676324" lon="-10.020849974825978">
        <ele>71.760000000000005</ele>
        <time>2026-06-29T05:57:45Z</time>
      </trkpt>
      <trkpt lat="51.797199016436934" lon="-10.020504975691438">
        <ele>68.870000000000005</ele>
        <time>2026-06-29T05:57:48Z</time>
      </trkpt>
      <trkpt lat="51.797136990353465" lon="-10.020406991243362">
        <ele>68.390000000000001</ele>
        <time>2026-06-29T05:57:49Z</time>
      </trkpt>
      <trkpt lat="51.797075970098376" lon="-10.020313030108809">
        <ele>67.430000000000007</ele>
        <time>2026-06-29T05:57:50Z</time>
      </trkpt>
      <trkpt lat="51.796770030632615" lon="-10.019827969372272">
        <ele>65.030000000000001</ele>
        <time>2026-06-29T05:57:55Z</time>
      </trkpt>
      <trkpt lat="51.79652301594615" lon="-10.019355984404683">
        <ele>62.619999999999997</ele>
        <time>2026-06-29T05:57:59Z</time>
      </trkpt>
      <trkpt lat="51.7964599840343" lon="-10.019236039370298">
        <ele>61.659999999999997</ele>
        <time>2026-06-29T05:58:00Z</time>
      </trkpt>
      <trkpt lat="51.796150021255016" lon="-10.018644025549293">
        <ele>59.740000000000002</ele>
        <time>2026-06-29T05:58:05Z</time>
      </trkpt>
      <trkpt lat="51.79609302431345" lon="-10.018534976989031">
        <ele>59.259999999999998</ele>
        <time>2026-06-29T05:58:06Z</time>
      </trkpt>
      <trkpt lat="51.796039966866374" lon="-10.018442021682858">
        <ele>59.259999999999998</ele>
        <time>2026-06-29T05:58:07Z</time>
      </trkpt>
      <trkpt lat="51.795980958268046" lon="-10.018365997821093">
        <ele>58.780000000000001</ele>
        <time>2026-06-29T05:58:08Z</time>
      </trkpt>
      <trkpt lat="51.79592396132648" lon="-10.018292991444468">
        <ele>58.299999999999997</ele>
        <time>2026-06-29T05:58:09Z</time>
      </trkpt>
      <trkpt lat="51.795854978263378" lon="-10.018242029473186">
        <ele>57.82</ele>
        <time>2026-06-29T05:58:10Z</time>
      </trkpt>
      <trkpt lat="51.795780966058373" lon="-10.018203975632787">
        <ele>57.82</ele>
        <time>2026-06-29T05:58:11Z</time>
      </trkpt>
      <trkpt lat="51.795696979388595" lon="-10.018206993117929">
        <ele>56.859999999999999</ele>
        <time>2026-06-29T05:58:12Z</time>
      </trkpt>
      <trkpt lat="51.794872032478452" lon="-10.018271030858159">
        <ele>53.490000000000002</ele>
        <time>2026-06-29T05:58:23Z</time>
      </trkpt>
      <trkpt lat="51.79452502168715" lon="-10.018299026414752">
        <ele>53.490000000000002</ele>
        <time>2026-06-29T05:58:27Z</time>
      </trkpt>
      <trkpt lat="51.794400969520211" lon="-10.018307995051146">
        <ele>53.009999999999998</ele>
        <time>2026-06-29T05:58:28Z</time>
      </trkpt>
      <trkpt lat="51.794330980628729" lon="-10.01836096867919">
        <ele>52.530000000000001</ele>
        <time>2026-06-29T05:58:29Z</time>
      </trkpt>
      <trkpt lat="51.794240036979318" lon="-10.018430035561323">
        <ele>52.049999999999997</ele>
        <time>2026-06-29T05:58:30Z</time>
      </trkpt>
      <trkpt lat="51.794148003682494" lon="-10.018500024452806">
        <ele>51.57</ele>
        <time>2026-06-29T05:58:31Z</time>
      </trkpt>
      <trkpt lat="51.793607035651803" lon="-10.018908977508545">
        <ele>51.57</ele>
        <time>2026-06-29T05:58:37Z</time>
      </trkpt>
      <trkpt lat="51.793512990698218" lon="-10.019074017181993">
        <ele>51.57</ele>
        <time>2026-06-29T05:58:38Z</time>
      </trkpt>
      <trkpt lat="51.793438978493214" lon="-10.019203014671803">
        <ele>52.049999999999997</ele>
        <time>2026-06-29T05:58:39Z</time>
      </trkpt>
      <trkpt lat="51.792563991621137" lon="-10.020736986771226">
        <ele>53.009999999999998</ele>
        <time>2026-06-29T05:58:50Z</time>
      </trkpt>
      <trkpt lat="51.792027968913317" lon="-10.021675005555153">
        <ele>55.890000000000001</ele>
        <time>2026-06-29T05:58:58Z</time>
      </trkpt>
      <trkpt lat="51.7913450114429" lon="-10.02287202514708">
        <ele>54.93</ele>
        <time>2026-06-29T05:59:08Z</time>
      </trkpt>
      <trkpt lat="51.791274016723037" lon="-10.022996999323368">
        <ele>54.93</ele>
        <time>2026-06-29T05:59:09Z</time>
      </trkpt>
      <trkpt lat="51.791146025061607" lon="-10.023230016231537">
        <ele>55.890000000000001</ele>
        <time>2026-06-29T05:59:11Z</time>
      </trkpt>
      <trkpt lat="51.791082993149757" lon="-10.023357002064586">
        <ele>56.369999999999997</ele>
        <time>2026-06-29T05:59:12Z</time>
      </trkpt>
      <trkpt lat="51.791019039228559" lon="-10.023483987897635">
        <ele>57.340000000000003</ele>
        <time>2026-06-29T05:59:13Z</time>
      </trkpt>
      <trkpt lat="51.790898004546762" lon="-10.023725973442197">
        <ele>58.780000000000001</ele>
        <time>2026-06-29T05:59:15Z</time>
      </trkpt>
      <trkpt lat="51.790846036747098" lon="-10.023829992860556">
        <ele>59.259999999999998</ele>
        <time>2026-06-29T05:59:16Z</time>
      </trkpt>
      <trkpt lat="51.790372962132096" lon="-10.024774968624115">
        <ele>68.390000000000001</ele>
        <time>2026-06-29T05:59:25Z</time>
      </trkpt>
      <trkpt lat="51.790324011817575" lon="-10.024873958900571">
        <ele>69.349999999999994</ele>
        <time>2026-06-29T05:59:26Z</time>
      </trkpt>
      <trkpt lat="51.789912041276693" lon="-10.026100985705853">
        <ele>75.120000000000005</ele>
        <time>2026-06-29T05:59:35Z</time>
      </trkpt>
      <trkpt lat="51.78951901383698" lon="-10.02787996083498">
        <ele>78</ele>
        <time>2026-06-29T05:59:46Z</time>
      </trkpt>
      <trkpt lat="51.789037976413965" lon="-10.029910979792476">
        <ele>79.450000000000003</ele>
        <time>2026-06-29T05:59:59Z</time>
      </trkpt>
      <trkpt lat="51.788648972287774" lon="-10.031558023765683">
        <ele>72.719999999999999</ele>
        <time>2026-06-29T06:00:09Z</time>
      </trkpt>
      <trkpt lat="51.788608990609646" lon="-10.031725997105241">
        <ele>72.239999999999995</ele>
        <time>2026-06-29T06:00:10Z</time>
      </trkpt>
      <trkpt lat="51.788191990926862" lon="-10.033510001376271">
        <ele>64.069999999999993</ele>
        <time>2026-06-29T06:00:21Z</time>
      </trkpt>
      <trkpt lat="51.788096018135548" lon="-10.034192036837339">
        <ele>60.700000000000003</ele>
        <time>2026-06-29T06:00:25Z</time>
      </trkpt>
      <trkpt lat="51.788048995658755" lon="-10.034522032365203">
        <ele>58.780000000000001</ele>
        <time>2026-06-29T06:00:27Z</time>
      </trkpt>
      <trkpt lat="51.787828970700502" lon="-10.035955002531409">
        <ele>58.780000000000001</ele>
        <time>2026-06-29T06:00:37Z</time>
      </trkpt>
      <trkpt lat="51.787783037871122" lon="-10.036218026652932">
        <ele>59.259999999999998</ele>
        <time>2026-06-29T06:00:39Z</time>
      </trkpt>
      <trkpt lat="51.787749007344246" lon="-10.036335038021207">
        <ele>59.259999999999998</ele>
        <time>2026-06-29T06:00:40Z</time>
      </trkpt>
      <trkpt lat="51.787699973210692" lon="-10.036438973620534">
        <ele>58.780000000000001</ele>
        <time>2026-06-29T06:00:41Z</time>
      </trkpt>
      <trkpt lat="51.787646999582648" lon="-10.036551961675286">
        <ele>58.299999999999997</ele>
        <time>2026-06-29T06:00:42Z</time>
      </trkpt>
      <trkpt lat="51.787590002641082" lon="-10.036674002185464">
        <ele>57.340000000000003</ele>
        <time>2026-06-29T06:00:43Z</time>
      </trkpt>
      <trkpt lat="51.787531999871135" lon="-10.036797970533371">
        <ele>56.369999999999997</ele>
        <time>2026-06-29T06:00:44Z</time>
      </trkpt>
      <trkpt lat="51.787169985473156" lon="-10.037420997396111">
        <ele>51.090000000000003</ele>
        <time>2026-06-29T06:00:50Z</time>
      </trkpt>
      <trkpt lat="51.787110976874828" lon="-10.037513030692935">
        <ele>50.130000000000003</ele>
        <time>2026-06-29T06:00:51Z</time>
      </trkpt>
      <trkpt lat="51.787051968276501" lon="-10.037616966292262">
        <ele>49.159999999999997</ele>
        <time>2026-06-29T06:00:52Z</time>
      </trkpt>
      <trkpt lat="51.786994971334934" lon="-10.037728026509285">
        <ele>48.68</ele>
        <time>2026-06-29T06:00:53Z</time>
      </trkpt>
      <trkpt lat="51.786936968564987" lon="-10.037839002907276">
        <ele>48.200000000000003</ele>
        <time>2026-06-29T06:00:54Z</time>
      </trkpt>
      <trkpt lat="51.78687896579504" lon="-10.037950985133648">
        <ele>47.719999999999999</ele>
        <time>2026-06-29T06:00:55Z</time>
      </trkpt>
      <trkpt lat="51.786820041015744" lon="-10.038065984845161">
        <ele>47.240000000000002</ele>
        <time>2026-06-29T06:00:56Z</time>
      </trkpt>
      <trkpt lat="51.786760026589036" lon="-10.038181990385056">
        <ele>47.240000000000002</ele>
        <time>2026-06-29T06:00:57Z</time>
      </trkpt>
      <trkpt lat="51.785981012508273" lon="-10.039576990529895">
        <ele>41.950000000000003</ele>
        <time>2026-06-29T06:01:10Z</time>
      </trkpt>
      <trkpt lat="51.785945976153016" lon="-10.039615966379642">
        <ele>41.469999999999999</ele>
        <time>2026-06-29T06:01:11Z</time>
      </trkpt>
      <trkpt lat="51.785885039716959" lon="-10.039589982479811">
        <ele>40.990000000000002</ele>
        <time>2026-06-29T06:01:12Z</time>
      </trkpt>
      <trkpt lat="51.785796023905277" lon="-10.039551006630063">
        <ele>40.509999999999998</ele>
        <time>2026-06-29T06:01:13Z</time>
      </trkpt>
      <trkpt lat="51.785747995600104" lon="-10.039503984153271">
        <ele>40.030000000000001</ele>
        <time>2026-06-29T06:01:14Z</time>
      </trkpt>
      <trkpt lat="51.785668032243848" lon="-10.039427960291505">
        <ele>39.549999999999997</ele>
        <time>2026-06-29T06:01:15Z</time>
      </trkpt>
      <trkpt lat="51.784921959042549" lon="-10.038694040849805">
        <ele>37.630000000000003</ele>
        <time>2026-06-29T06:01:24Z</time>
      </trkpt>
      <trkpt lat="51.78412601351738" lon="-10.037878984585404">
        <ele>35.710000000000001</ele>
        <time>2026-06-29T06:01:34Z</time>
      </trkpt>
      <trkpt lat="51.784036997705698" lon="-10.037788040935993">
        <ele>35.710000000000001</ele>
        <time>2026-06-29T06:01:35Z</time>
      </trkpt>
      <trkpt lat="51.783403996378183" lon="-10.037140036001801">
        <ele>35.229999999999997</ele>
        <time>2026-06-29T06:01:43Z</time>
      </trkpt>
      <trkpt lat="51.783348005264997" lon="-10.037082033231854">
        <ele>34.740000000000002</ele>
        <time>2026-06-29T06:01:44Z</time>
      </trkpt>
      <trkpt lat="51.783282039687037" lon="-10.037121009081602">
        <ele>34.259999999999998</ele>
        <time>2026-06-29T06:01:45Z</time>
      </trkpt>
      <trkpt lat="51.783229988068342" lon="-10.037186974659562">
        <ele>34.259999999999998</ele>
        <time>2026-06-29T06:01:46Z</time>
      </trkpt>
      <trkpt lat="51.783167039975524" lon="-10.03726601600647">
        <ele>33.780000000000001</ele>
        <time>2026-06-29T06:01:47Z</time>
      </trkpt>
      <trkpt lat="51.78309797309339" lon="-10.03735302016139">
        <ele>32.82</ele>
        <time>2026-06-29T06:01:48Z</time>
      </trkpt>
      <trkpt lat="51.782879959791899" lon="-10.037628030404449">
        <ele>30.420000000000002</ele>
        <time>2026-06-29T06:01:51Z</time>
      </trkpt>
      <trkpt lat="51.782188033685088" lon="-10.038474015891552">
        <ele>24.649999999999999</ele>
        <time>2026-06-29T06:02:00Z</time>
      </trkpt>
      <trkpt lat="51.78178402595222" lon="-10.038874000310898">
        <ele>20.809999999999999</ele>
        <time>2026-06-29T06:02:05Z</time>
      </trkpt>
      <trkpt lat="51.781709007918835" lon="-10.03892001695931">
        <ele>20.32</ele>
        <time>2026-06-29T06:02:06Z</time>
      </trkpt>
      <trkpt lat="51.781472973525524" lon="-10.039056977257133">
        <ele>18.879999999999999</ele>
        <time>2026-06-29T06:02:09Z</time>
      </trkpt>
      <trkpt lat="51.781385969370604" lon="-10.0390500202775">
        <ele>17.920000000000002</ele>
        <time>2026-06-29T06:02:10Z</time>
      </trkpt>
      <trkpt lat="51.781294019892812" lon="-10.039042979478836">
        <ele>16.960000000000001</ele>
        <time>2026-06-29T06:02:11Z</time>
      </trkpt>
      <trkpt lat="51.78120500408113" lon="-10.039037028327584">
        <ele>16</ele>
        <time>2026-06-29T06:02:12Z</time>
      </trkpt>
      <trkpt lat="51.781120011582971" lon="-10.038961004465818">
        <ele>15.52</ele>
        <time>2026-06-29T06:02:13Z</time>
      </trkpt>
      <trkpt lat="51.781038036569953" lon="-10.038889003917575">
        <ele>15.039999999999999</ele>
        <time>2026-06-29T06:02:14Z</time>
      </trkpt>
      <trkpt lat="51.780964024364948" lon="-10.038808034732938">
        <ele>14.56</ele>
        <time>2026-06-29T06:02:15Z</time>
      </trkpt>
      <trkpt lat="51.780888000503182" lon="-10.038717007264495">
        <ele>13.6</ele>
        <time>2026-06-29T06:02:16Z</time>
      </trkpt>
      <trkpt lat="51.780808037146926" lon="-10.038621034473181">
        <ele>12.630000000000001</ele>
        <time>2026-06-29T06:02:17Z</time>
      </trkpt>
      <trkpt lat="51.780730001628399" lon="-10.038526989519596">
        <ele>12.15</ele>
        <time>2026-06-29T06:02:18Z</time>
      </trkpt>
      <trkpt lat="51.780492039397359" lon="-10.038371002301574">
        <ele>10.23</ele>
        <time>2026-06-29T06:02:21Z</time>
      </trkpt>
      <trkpt lat="51.780402017757297" lon="-10.038368990644813">
        <ele>9.27</ele>
        <time>2026-06-29T06:02:22Z</time>
      </trkpt>
      <trkpt lat="51.779526025056839" lon="-10.038293972611427">
        <ele>9.75</ele>
        <time>2026-06-29T06:02:31Z</time>
      </trkpt>
      <trkpt lat="51.77944396622479" lon="-10.038244016468525">
        <ele>9.75</ele>
        <time>2026-06-29T06:02:32Z</time>
      </trkpt>
      <trkpt lat="51.779302982613444" lon="-10.038144020363688">
        <ele>9.75</ele>
        <time>2026-06-29T06:02:34Z</time>
      </trkpt>
      <trkpt lat="51.779200974851847" lon="-10.03804100677371">
        <ele>9.75</ele>
        <time>2026-06-29T06:02:40Z</time>
      </trkpt>
      <trkpt lat="51.779200974851847" lon="-10.03804100677371">
        <ele>9.75</ele>
        <time>2026-06-29T06:03:20Z</time>
      </trkpt>
      <trkpt lat="51.77910097874701" lon="-10.038037989288568">
        <ele>12.15</ele>
        <time>2026-06-29T06:03:49Z</time>
      </trkpt>
      <trkpt lat="51.77910097874701" lon="-10.038078976795077">
        <ele>12.630000000000001</ele>
        <time>2026-06-29T06:03:50Z</time>
      </trkpt>
      <trkpt lat="51.77910097874701" lon="-10.038220966234803">
        <ele>12.15</ele>
        <time>2026-06-29T06:03:51Z</time>
      </trkpt>
      <trkpt lat="51.779083963483572" lon="-10.038314005360007">
        <ele>12.15</ele>
        <time>2026-06-29T06:03:52Z</time>
      </trkpt>
      <trkpt lat="51.779058985412121" lon="-10.03845096565783">
        <ele>12.15</ele>
        <time>2026-06-29T06:03:53Z</time>
      </trkpt>
      <trkpt lat="51.778937028720975" lon="-10.039102993905544">
        <ele>11.67</ele>
        <time>2026-06-29T06:03:57Z</time>
      </trkpt>
      <trkpt lat="51.778907021507621" lon="-10.03926501609385">
        <ele>12.15</ele>
        <time>2026-06-29T06:03:58Z</time>
      </trkpt>
      <trkpt lat="51.778876008465886" lon="-10.039435001090169">
        <ele>12.15</ele>
        <time>2026-06-29T06:03:59Z</time>
      </trkpt>
      <trkpt lat="51.778507037088275" lon="-10.041324030607939">
        <ele>14.56</ele>
        <time>2026-06-29T06:04:09Z</time>
      </trkpt>
      <trkpt lat="51.778047038242221" lon="-10.043624024838209">
        <ele>19.84</ele>
        <time>2026-06-29T06:04:20Z</time>
      </trkpt>
      <trkpt lat="51.777587961405516" lon="-10.04577498883009">
        <ele>22.73</ele>
        <time>2026-06-29T06:04:30Z</time>
      </trkpt>
      <trkpt lat="51.776767959818244" lon="-10.048378994688392">
        <ele>27.530000000000001</ele>
        <time>2026-06-29T06:04:42Z</time>
      </trkpt>
      <trkpt lat="51.776068992912769" lon="-10.050536999478936">
        <ele>26.57</ele>
        <time>2026-06-29T06:04:51Z</time>
      </trkpt>
      <trkpt lat="51.775058973580599" lon="-10.053693037480116">
        <ele>28.98</ele>
        <time>2026-06-29T06:05:04Z</time>
      </trkpt>
      <trkpt lat="51.773930015042424" lon="-10.05720698274672">
        <ele>30.420000000000002</ele>
        <time>2026-06-29T06:05:19Z</time>
      </trkpt>
      <trkpt lat="51.77310498431325" lon="-10.059664975851774">
        <ele>28.02</ele>
        <time>2026-06-29T06:05:30Z</time>
      </trkpt>
      <trkpt lat="51.772379027679563" lon="-10.06115997210145">
        <ele>26.57</ele>
        <time>2026-06-29T06:05:37Z</time>
      </trkpt>
      <trkpt lat="51.771373031660914" lon="-10.063058976083994">
        <ele>26.09</ele>
        <time>2026-06-29T06:05:47Z</time>
      </trkpt>
      <trkpt lat="51.770100994035602" lon="-10.065150009468198">
        <ele>21.77</ele>
        <time>2026-06-29T06:05:59Z</time>
      </trkpt>
      <trkpt lat="51.768880002200603" lon="-10.067446986213326">
        <ele>20.32</ele>
        <time>2026-06-29T06:06:11Z</time>
      </trkpt>
      <trkpt lat="51.767788007855415" lon="-10.069206012412906">
        <ele>18.399999999999999</ele>
        <time>2026-06-29T06:06:21Z</time>
      </trkpt>
      <trkpt lat="51.766113974153996" lon="-10.071224039420485">
        <ele>19.359999999999999</ele>
        <time>2026-06-29T06:06:33Z</time>
      </trkpt>
      <trkpt lat="51.76429602317512" lon="-10.072945011779666">
        <ele>23.210000000000001</ele>
        <time>2026-06-29T06:06:46Z</time>
      </trkpt>
      <trkpt lat="51.763979019597173" lon="-10.073122959583998">
        <ele>24.170000000000002</ele>
        <time>2026-06-29T06:06:48Z</time>
      </trkpt>
      <trkpt lat="51.762947039678693" lon="-10.073913037776947">
        <ele>25.609999999999999</ele>
        <time>2026-06-29T06:06:55Z</time>
      </trkpt>
      <trkpt lat="51.761371996253729" lon="-10.075668040663004">
        <ele>22.25</ele>
        <time>2026-06-29T06:07:07Z</time>
      </trkpt>
      <trkpt lat="51.760972011834383" lon="-10.076616033911705">
        <ele>19.84</ele>
        <time>2026-06-29T06:07:12Z</time>
      </trkpt>
      <trkpt lat="51.760748969390988" lon="-10.077733006328344">
        <ele>19.359999999999999</ele>
        <time>2026-06-29T06:07:19Z</time>
      </trkpt>
      <trkpt lat="51.760689960792661" lon="-10.079389018937945">
        <ele>19.84</ele>
        <time>2026-06-29T06:07:30Z</time>
      </trkpt>
      <trkpt lat="51.76075198687613" lon="-10.080080023035407">
        <ele>19.359999999999999</ele>
        <time>2026-06-29T06:07:34Z</time>
      </trkpt>
      <trkpt lat="51.760743018239737" lon="-10.080258976668119">
        <ele>19.359999999999999</ele>
        <time>2026-06-29T06:07:35Z</time>
      </trkpt>
      <trkpt lat="51.760734971612692" lon="-10.080440025776625">
        <ele>18.879999999999999</ele>
        <time>2026-06-29T06:07:36Z</time>
      </trkpt>
      <trkpt lat="51.760695995762944" lon="-10.080601964145899">
        <ele>18.879999999999999</ele>
        <time>2026-06-29T06:07:37Z</time>
      </trkpt>
      <trkpt lat="51.760648973286152" lon="-10.080762980505824">
        <ele>18.879999999999999</ele>
        <time>2026-06-29T06:07:38Z</time>
      </trkpt>
      <trkpt lat="51.760603962466121" lon="-10.080921985208988">
        <ele>19.359999999999999</ele>
        <time>2026-06-29T06:07:39Z</time>
      </trkpt>
      <trkpt lat="51.760156033560634" lon="-10.082455035299063">
        <ele>23.690000000000001</ele>
        <time>2026-06-29T06:07:48Z</time>
      </trkpt>
      <trkpt lat="51.75954801030457" lon="-10.084377005696297">
        <ele>27.530000000000001</ele>
        <time>2026-06-29T06:07:58Z</time>
      </trkpt>
      <trkpt lat="51.759413983672857" lon="-10.084761986508965">
        <ele>28.98</ele>
        <time>2026-06-29T06:08:00Z</time>
      </trkpt>
      <trkpt lat="51.759338965639472" lon="-10.084976982325315">
        <ele>29.460000000000001</ele>
        <time>2026-06-29T06:08:01Z</time>
      </trkpt>
      <trkpt lat="51.759314993396401" lon="-10.085169011726975">
        <ele>29.940000000000001</ele>
        <time>2026-06-29T06:08:02Z</time>
      </trkpt>
      <trkpt lat="51.759008970111609" lon="-10.0876509770751">
        <ele>31.859999999999999</ele>
        <time>2026-06-29T06:08:13Z</time>
      </trkpt>
      <trkpt lat="51.75871099345386" lon="-10.089416038244963">
        <ele>31.859999999999999</ele>
        <time>2026-06-29T06:08:21Z</time>
      </trkpt>
      <trkpt lat="51.758633041754365" lon="-10.08988399989903">
        <ele>33.299999999999997</ele>
        <time>2026-06-29T06:08:23Z</time>
      </trkpt>
      <trkpt lat="51.758609991520643" lon="-10.090107964351773">
        <ele>33.780000000000001</ele>
        <time>2026-06-29T06:08:24Z</time>
      </trkpt>
      <trkpt lat="51.758634969592094" lon="-10.090310974046588">
        <ele>33.780000000000001</ele>
        <time>2026-06-29T06:08:25Z</time>
      </trkpt>
      <trkpt lat="51.758672017604113" lon="-10.090499985963106">
        <ele>34.259999999999998</ele>
        <time>2026-06-29T06:08:26Z</time>
      </trkpt>
      <trkpt lat="51.758737983182073" lon="-10.090667959302664">
        <ele>34.740000000000002</ele>
        <time>2026-06-29T06:08:27Z</time>
      </trkpt>
      <trkpt lat="51.758801015093923" lon="-10.090828975662589">
        <ele>35.229999999999997</ele>
        <time>2026-06-29T06:08:28Z</time>
      </trkpt>
      <trkpt lat="51.758863041177392" lon="-10.090987980365753">
        <ele>34.740000000000002</ele>
        <time>2026-06-29T06:08:29Z</time>
      </trkpt>
      <trkpt lat="51.75943803973496" lon="-10.092482976615429">
        <ele>34.740000000000002</ele>
        <time>2026-06-29T06:08:37Z</time>
      </trkpt>
      <trkpt lat="51.759510040283203" lon="-10.092648016288877">
        <ele>34.259999999999998</ele>
        <time>2026-06-29T06:08:38Z</time>
      </trkpt>
      <trkpt lat="51.759617999196053" lon="-10.092809032648802">
        <ele>33.780000000000001</ele>
        <time>2026-06-29T06:08:39Z</time>
      </trkpt>
      <trkpt lat="51.759723024442792" lon="-10.092891007661819">
        <ele>33.780000000000001</ele>
        <time>2026-06-29T06:08:40Z</time>
      </trkpt>
      <trkpt lat="51.75984900444746" lon="-10.092988992109895">
        <ele>33.299999999999997</ele>
        <time>2026-06-29T06:08:41Z</time>
      </trkpt>
      <trkpt lat="51.759975990280509" lon="-10.093087982386351">
        <ele>33.299999999999997</ele>
        <time>2026-06-29T06:08:42Z</time>
      </trkpt>
      <trkpt lat="51.760089984163642" lon="-10.093226032331586">
        <ele>33.299999999999997</ele>
        <time>2026-06-29T06:08:43Z</time>
      </trkpt>
      <trkpt lat="51.760195009410381" lon="-10.093370033428073">
        <ele>33.299999999999997</ele>
        <time>2026-06-29T06:08:44Z</time>
      </trkpt>
      <trkpt lat="51.760281007736921" lon="-10.093546975404024">
        <ele>33.780000000000001</ele>
        <time>2026-06-29T06:08:45Z</time>
      </trkpt>
      <trkpt lat="51.760344039648771" lon="-10.093726012855768">
        <ele>33.780000000000001</ele>
        <time>2026-06-29T06:08:46Z</time>
      </trkpt>
      <trkpt lat="51.760371029376984" lon="-10.093926005065441">
        <ele>34.259999999999998</ele>
        <time>2026-06-29T06:08:47Z</time>
      </trkpt>
      <trkpt lat="51.760375974699855" lon="-10.094133960083127">
        <ele>34.740000000000002</ele>
        <time>2026-06-29T06:08:48Z</time>
      </trkpt>
      <trkpt lat="51.760379998013377" lon="-10.094346022233367">
        <ele>35.229999999999997</ele>
        <time>2026-06-29T06:08:49Z</time>
      </trkpt>
      <trkpt lat="51.7603840213269" lon="-10.09454601444304">
        <ele>35.710000000000001</ele>
        <time>2026-06-29T06:08:50Z</time>
      </trkpt>
      <trkpt lat="51.760397013276815" lon="-10.094922026619315">
        <ele>37.149999999999999</ele>
        <time>2026-06-29T06:08:52Z</time>
      </trkpt>
      <trkpt lat="51.760416962206364" lon="-10.095098968595266">
        <ele>37.630000000000003</ele>
        <time>2026-06-29T06:08:53Z</time>
      </trkpt>
      <trkpt lat="51.76044998690486" lon="-10.095270965248346">
        <ele>38.590000000000003</ele>
        <time>2026-06-29T06:08:54Z</time>
      </trkpt>
      <trkpt lat="51.760516036301851" lon="-10.095416978001595">
        <ele>38.590000000000003</ele>
        <time>2026-06-29T06:08:55Z</time>
      </trkpt>
      <trkpt lat="51.760605974122882" lon="-10.095541030168533">
        <ele>38.590000000000003</ele>
        <time>2026-06-29T06:08:56Z</time>
      </trkpt>
      <trkpt lat="51.760709993541241" lon="-10.095655024051666">
        <ele>39.07</ele>
        <time>2026-06-29T06:08:57Z</time>
      </trkpt>
      <trkpt lat="51.760817030444741" lon="-10.095772035419941">
        <ele>39.549999999999997</ele>
        <time>2026-06-29T06:08:58Z</time>
      </trkpt>
      <trkpt lat="51.761994017288089" lon="-10.096946004778147">
        <ele>40.030000000000001</ele>
        <time>2026-06-29T06:09:07Z</time>
      </trkpt>
      <trkpt lat="51.762841008603573" lon="-10.098347961902618">
        <ele>41.469999999999999</ele>
        <time>2026-06-29T06:09:15Z</time>
      </trkpt>
      <trkpt lat="51.76352203823626" lon="-10.099627962335944">
        <ele>46.759999999999998</ele>
        <time>2026-06-29T06:09:23Z</time>
      </trkpt>
      <trkpt lat="51.763614993542433" lon="-10.099776992574334">
        <ele>46.759999999999998</ele>
        <time>2026-06-29T06:09:24Z</time>
      </trkpt>
      <trkpt lat="51.76371599547565" lon="-10.099892998114228">
        <ele>46.759999999999998</ele>
        <time>2026-06-29T06:09:25Z</time>
      </trkpt>
      <trkpt lat="51.763826971873641" lon="-10.099957035854459">
        <ele>46.280000000000001</ele>
        <time>2026-06-29T06:09:26Z</time>
      </trkpt>
      <trkpt lat="51.763938032090664" lon="-10.100019983947277">
        <ele>46.280000000000001</ele>
        <time>2026-06-29T06:09:27Z</time>
      </trkpt>
      <trkpt lat="51.764054037630558" lon="-10.10002501308918">
        <ele>45.799999999999997</ele>
        <time>2026-06-29T06:09:28Z</time>
      </trkpt>
      <trkpt lat="51.764181023463607" lon="-10.099999029189348">
        <ele>45.32</ele>
        <time>2026-06-29T06:09:29Z</time>
      </trkpt>
      <trkpt lat="51.764313038438559" lon="-10.099972961470485">
        <ele>45.32</ele>
        <time>2026-06-29T06:09:30Z</time>
      </trkpt>
      <trkpt lat="51.76535096950829" lon="-10.099879000335932">
        <ele>44.359999999999999</ele>
        <time>2026-06-29T06:09:38Z</time>
      </trkpt>
      <trkpt lat="51.765453983098269" lon="-10.0998530164361">
        <ele>43.880000000000003</ele>
        <time>2026-06-29T06:09:39Z</time>
      </trkpt>
      <trkpt lat="51.765549033880234" lon="-10.099760983139277">
        <ele>43.399999999999999</ele>
        <time>2026-06-29T06:09:40Z</time>
      </trkpt>
      <trkpt lat="51.765647018328309" lon="-10.099644977599382">
        <ele>42.439999999999998</ele>
        <time>2026-06-29T06:09:41Z</time>
      </trkpt>
      <trkpt lat="51.765749026089907" lon="-10.099523020908237">
        <ele>41.950000000000003</ele>
        <time>2026-06-29T06:09:42Z</time>
      </trkpt>
      <trkpt lat="51.765855979174376" lon="-10.099424030631781">
        <ele>41.469999999999999</ele>
        <time>2026-06-29T06:09:43Z</time>
      </trkpt>
      <trkpt lat="51.765964021906257" lon="-10.099379019811749">
        <ele>40.990000000000002</ele>
        <time>2026-06-29T06:09:44Z</time>
      </trkpt>
      <trkpt lat="51.766077009961009" lon="-10.099331997334957">
        <ele>40.030000000000001</ele>
        <time>2026-06-29T06:09:45Z</time>
      </trkpt>
      <trkpt lat="51.766163008287549" lon="-10.099399974569678">
        <ele>40.030000000000001</ele>
        <time>2026-06-29T06:09:46Z</time>
      </trkpt>
      <trkpt lat="51.766269961372018" lon="-10.099483039230108">
        <ele>39.549999999999997</ele>
        <time>2026-06-29T06:09:47Z</time>
      </trkpt>
      <trkpt lat="51.766325030475855" lon="-10.099593009799719">
        <ele>40.030000000000001</ele>
        <time>2026-06-29T06:09:48Z</time>
      </trkpt>
      <trkpt lat="51.766384039074183" lon="-10.099711026996374">
        <ele>40.030000000000001</ele>
        <time>2026-06-29T06:09:49Z</time>
      </trkpt>
      <trkpt lat="51.766441036015749" lon="-10.099826026707888">
        <ele>40.030000000000001</ele>
        <time>2026-06-29T06:09:50Z</time>
      </trkpt>
      <trkpt lat="51.766496021300554" lon="-10.099935997277498">
        <ele>40.509999999999998</ele>
        <time>2026-06-29T06:09:51Z</time>
      </trkpt>
      <trkpt lat="51.76657497882843" lon="-10.099977990612388">
        <ele>40.509999999999998</ele>
        <time>2026-06-29T06:09:52Z</time>
      </trkpt>
      <trkpt lat="51.766661982983351" lon="-10.100006991997361">
        <ele>40.990000000000002</ele>
        <time>2026-06-29T06:09:53Z</time>
      </trkpt>
      <trkpt lat="51.766754016280174" lon="-10.099972961470485">
        <ele>40.990000000000002</ele>
        <time>2026-06-29T06:09:54Z</time>
      </trkpt>
      <trkpt lat="51.766850994899869" lon="-10.099892998114228">
        <ele>40.990000000000002</ele>
        <time>2026-06-29T06:09:55Z</time>
      </trkpt>
      <trkpt lat="51.766955014318228" lon="-10.099805993959308">
        <ele>41.469999999999999</ele>
        <time>2026-06-29T06:09:56Z</time>
      </trkpt>
      <trkpt lat="51.767059033736587" lon="-10.099719995632768">
        <ele>41.469999999999999</ele>
        <time>2026-06-29T06:09:57Z</time>
      </trkpt>
      <trkpt lat="51.767280986532569" lon="-10.099534001201391">
        <ele>41.950000000000003</ele>
        <time>2026-06-29T06:09:59Z</time>
      </trkpt>
      <trkpt lat="51.767395986244082" lon="-10.099469963461161">
        <ele>42.439999999999998</ele>
        <time>2026-06-29T06:10:00Z</time>
      </trkpt>
      <trkpt lat="51.767519032582641" lon="-10.099439034238458">
        <ele>42.920000000000002</ele>
        <time>2026-06-29T06:10:01Z</time>
      </trkpt>
      <trkpt lat="51.768351020291448" lon="-10.099075008183718">
        <ele>44.359999999999999</ele>
        <time>2026-06-29T06:10:09Z</time>
      </trkpt>
      <trkpt lat="51.768439030274749" lon="-10.099064027890563">
        <ele>44.359999999999999</ele>
        <time>2026-06-29T06:10:10Z</time>
      </trkpt>
      <trkpt lat="51.768523016944528" lon="-10.099053969606757">
        <ele>44.359999999999999</ele>
        <time>2026-06-29T06:10:11Z</time>
      </trkpt>
      <trkpt lat="51.768603986129165" lon="-10.099094035103917">
        <ele>44.359999999999999</ele>
        <time>2026-06-29T06:10:12Z</time>
      </trkpt>
      <trkpt lat="51.768684033304453" lon="-10.099163018167019">
        <ele>44.359999999999999</ele>
        <time>2026-06-29T06:10:13Z</time>
      </trkpt>
      <trkpt lat="51.768757961690426" lon="-10.099268965423107">
        <ele>44.359999999999999</ele>
        <time>2026-06-29T06:10:14Z</time>
      </trkpt>
      <trkpt lat="51.768829040229321" lon="-10.099369967356324">
        <ele>44.359999999999999</ele>
        <time>2026-06-29T06:10:15Z</time>
      </trkpt>
      <trkpt lat="51.768966000527143" lon="-10.099511034786701">
        <ele>43.880000000000003</ele>
        <time>2026-06-29T06:10:17Z</time>
      </trkpt>
      <trkpt lat="51.769042024388909" lon="-10.099549004808068">
        <ele>43.880000000000003</ele>
        <time>2026-06-29T06:10:18Z</time>
      </trkpt>
      <trkpt lat="51.769123999401927" lon="-10.099589992314577">
        <ele>43.399999999999999</ele>
        <time>2026-06-29T06:10:19Z</time>
      </trkpt>
      <trkpt lat="51.769188037142158" lon="-10.099559985101223">
        <ele>43.399999999999999</ele>
        <time>2026-06-29T06:10:20Z</time>
      </trkpt>
      <trkpt lat="51.769269006326795" lon="-10.099521009251475">
        <ele>43.399999999999999</ele>
        <time>2026-06-29T06:10:21Z</time>
      </trkpt>
      <trkpt lat="51.769355004653335" lon="-10.099480021744967">
        <ele>43.880000000000003</ele>
        <time>2026-06-29T06:10:22Z</time>
      </trkpt>
      <trkpt lat="51.76962498575449" lon="-10.099366027861834">
        <ele>43.880000000000003</ele>
        <time>2026-06-29T06:10:25Z</time>
      </trkpt>
      <trkpt lat="51.769716013222933" lon="-10.099350018426776">
        <ele>43.880000000000003</ele>
        <time>2026-06-29T06:10:26Z</time>
      </trkpt>
      <trkpt lat="51.77059100009501" lon="-10.099563002586365">
        <ele>45.32</ele>
        <time>2026-06-29T06:10:35Z</time>
      </trkpt>
      <trkpt lat="51.77078596316278" lon="-10.099734999239445">
        <ele>45.32</ele>
        <time>2026-06-29T06:10:37Z</time>
      </trkpt>
      <trkpt lat="51.770859975367785" lon="-10.099845975637436">
        <ele>45.32</ele>
        <time>2026-06-29T06:10:38Z</time>
      </trkpt>
      <trkpt lat="51.770910015329719" lon="-10.099999029189348">
        <ele>44.840000000000003</ele>
        <time>2026-06-29T06:10:39Z</time>
      </trkpt>
      <trkpt lat="51.77095896564424" lon="-10.10015401057899">
        <ele>45.32</ele>
        <time>2026-06-29T06:10:40Z</time>
      </trkpt>
      <trkpt lat="51.771012023091316" lon="-10.100319972261786">
        <ele>45.32</ele>
        <time>2026-06-29T06:10:41Z</time>
      </trkpt>
      <trkpt lat="51.771003976464272" lon="-10.100463973358274">
        <ele>45.799999999999997</ele>
        <time>2026-06-29T06:10:42Z</time>
      </trkpt>
      <trkpt lat="51.770996013656259" lon="-10.100630018860102">
        <ele>46.280000000000001</ele>
        <time>2026-06-29T06:10:43Z</time>
      </trkpt>
      <trkpt lat="51.770986961200833" lon="-10.100794974714518">
        <ele>46.280000000000001</ele>
        <time>2026-06-29T06:10:44Z</time>
      </trkpt>
      <trkpt lat="51.770695019513369" lon="-10.102699007838964">
        <ele>48.68</ele>
        <time>2026-06-29T06:10:55Z</time>
      </trkpt>
      <trkpt lat="51.770632993429899" lon="-10.104253012686968">
        <ele>52.530000000000001</ele>
        <time>2026-06-29T06:11:03Z</time>
      </trkpt>
      <trkpt lat="51.771101960912347" lon="-10.106549989432096">
        <ele>59.259999999999998</ele>
        <time>2026-06-29T06:11:14Z</time>
      </trkpt>
      <trkpt lat="51.771216038614511" lon="-10.107202017679811">
        <ele>61.18</ele>
        <time>2026-06-29T06:11:17Z</time>
      </trkpt>
      <trkpt lat="51.771230036392808" lon="-10.107425982132554">
        <ele>62.140000000000001</ele>
        <time>2026-06-29T06:11:18Z</time>
      </trkpt>
      <trkpt lat="51.771244034171104" lon="-10.107645001262426">
        <ele>62.619999999999997</ele>
        <time>2026-06-29T06:11:19Z</time>
      </trkpt>
      <trkpt lat="51.771230036392808" lon="-10.10786703787744">
        <ele>62.619999999999997</ele>
        <time>2026-06-29T06:11:20Z</time>
      </trkpt>
      <trkpt lat="51.771207991987467" lon="-10.108080022037029">
        <ele>63.100000000000001</ele>
        <time>2026-06-29T06:11:21Z</time>
      </trkpt>
      <trkpt lat="51.771186031401157" lon="-10.108280014246702">
        <ele>63.579999999999998</ele>
        <time>2026-06-29T06:11:22Z</time>
      </trkpt>
      <trkpt lat="51.771146971732378" lon="-10.108654014766216">
        <ele>63.579999999999998</ele>
        <time>2026-06-29T06:11:24Z</time>
      </trkpt>
      <trkpt lat="51.771141020581126" lon="-10.108826011419296">
        <ele>64.069999999999993</ele>
        <time>2026-06-29T06:11:25Z</time>
      </trkpt>
      <trkpt lat="51.771146971732378" lon="-10.10898501612246">
        <ele>64.069999999999993</ele>
        <time>2026-06-29T06:11:26Z</time>
      </trkpt>
      <trkpt lat="51.771190976724029" lon="-10.109118036925793">
        <ele>64.069999999999993</ele>
        <time>2026-06-29T06:11:27Z</time>
      </trkpt>
      <trkpt lat="51.77123699337244" lon="-10.109233958646655">
        <ele>64.069999999999993</ele>
        <time>2026-06-29T06:11:28Z</time>
      </trkpt>
      <trkpt lat="51.771318968385458" lon="-10.109312999993563">
        <ele>64.549999999999997</ele>
        <time>2026-06-29T06:11:29Z</time>
      </trkpt>
      <trkpt lat="51.771400021389127" lon="-10.109389023855329">
        <ele>65.030000000000001</ele>
        <time>2026-06-29T06:11:30Z</time>
      </trkpt>
      <trkpt lat="51.771477973088622" lon="-10.109464041888714">
        <ele>65.510000000000005</ele>
        <time>2026-06-29T06:11:31Z</time>
      </trkpt>
      <trkpt lat="51.772022964432836" lon="-10.109982965514064">
        <ele>68.390000000000001</ele>
        <time>2026-06-29T06:11:38Z</time>
      </trkpt>
      <trkpt lat="51.772127989679575" lon="-10.1100829616189">
        <ele>68.870000000000005</ele>
        <time>2026-06-29T06:11:39Z</time>
      </trkpt>
      <trkpt lat="51.772233014926314" lon="-10.110097965225577">
        <ele>69.349999999999994</ele>
        <time>2026-06-29T06:11:40Z</time>
      </trkpt>
      <trkpt lat="51.772355977445841" lon="-10.110114980489016">
        <ele>69.829999999999998</ele>
        <time>2026-06-29T06:11:41Z</time>
      </trkpt>
      <trkpt lat="51.77248396910727" lon="-10.110134007409215">
        <ele>70.310000000000002</ele>
        <time>2026-06-29T06:11:42Z</time>
      </trkpt>
      <trkpt lat="51.772620007395744" lon="-10.110139958560467">
        <ele>71.269999999999996</ele>
        <time>2026-06-29T06:11:43Z</time>
      </trkpt>
      <trkpt lat="51.772758979350328" lon="-10.110114980489016">
        <ele>71.760000000000005</ele>
        <time>2026-06-29T06:11:44Z</time>
      </trkpt>
      <trkpt lat="51.772894011810422" lon="-10.110091008245945">
        <ele>72.239999999999995</ele>
        <time>2026-06-29T06:11:45Z</time>
      </trkpt>
      <trkpt lat="51.773139014840126" lon="-10.110048009082675">
        <ele>73.680000000000007</ele>
        <time>2026-06-29T06:11:47Z</time>
      </trkpt>
      <trkpt lat="51.773259965702891" lon="-10.110026970505714">
        <ele>74.640000000000001</ele>
        <time>2026-06-29T06:11:48Z</time>
      </trkpt>
      <trkpt lat="51.773385023698211" lon="-10.110053038224578">
        <ele>75.120000000000005</ele>
        <time>2026-06-29T06:11:49Z</time>
      </trkpt>
      <trkpt lat="51.773509997874498" lon="-10.110112968832254">
        <ele>76.079999999999998</ele>
        <time>2026-06-29T06:11:50Z</time>
      </trkpt>
      <trkpt lat="51.77362097427249" lon="-10.110224029049277">
        <ele>77.040000000000006</ele>
        <time>2026-06-29T06:11:51Z</time>
      </trkpt>
      <trkpt lat="51.773736979812384" lon="-10.110340034589171">
        <ele>77.519999999999996</ele>
        <time>2026-06-29T06:11:52Z</time>
      </trkpt>
      <trkpt lat="51.774446005001664" lon="-10.111109996214509">
        <ele>80.409999999999997</ele>
        <time>2026-06-29T06:11:58Z</time>
      </trkpt>
      <trkpt lat="51.774548012763262" lon="-10.111264977604151">
        <ele>80.409999999999997</ele>
        <time>2026-06-29T06:11:59Z</time>
      </trkpt>
      <trkpt lat="51.774629987776279" lon="-10.11145600117743">
        <ele>80.890000000000001</ele>
        <time>2026-06-29T06:12:00Z</time>
      </trkpt>
      <trkpt lat="51.774672986939549" lon="-10.111672002822161">
        <ele>81.849999999999994</ele>
        <time>2026-06-29T06:12:01Z</time>
      </trkpt>
      <trkpt lat="51.7747169919312" lon="-10.111891021952033">
        <ele>81.849999999999994</ele>
        <time>2026-06-29T06:12:02Z</time>
      </trkpt>
      <trkpt lat="51.774749010801315" lon="-10.112115992233157">
        <ele>82.329999999999998</ele>
        <time>2026-06-29T06:12:03Z</time>
      </trkpt>
      <trkpt lat="51.774758985266089" lon="-10.112345991656184">
        <ele>83.290000000000006</ele>
        <time>2026-06-29T06:12:04Z</time>
      </trkpt>
      <trkpt lat="51.774768037721515" lon="-10.112567022442818">
        <ele>83.290000000000006</ele>
        <time>2026-06-29T06:12:05Z</time>
      </trkpt>
      <trkpt lat="51.774976998567581" lon="-10.11495703831315">
        <ele>86.659999999999997</ele>
        <time>2026-06-29T06:12:16Z</time>
      </trkpt>
      <trkpt lat="51.774967024102807" lon="-10.115148983895779">
        <ele>87.140000000000001</ele>
        <time>2026-06-29T06:12:17Z</time>
      </trkpt>
      <trkpt lat="51.774949003010988" lon="-10.115342019125819">
        <ele>87.140000000000001</ele>
        <time>2026-06-29T06:12:18Z</time>
      </trkpt>
      <trkpt lat="51.774914972484112" lon="-10.115531031042337">
        <ele>87.140000000000001</ele>
        <time>2026-06-29T06:12:19Z</time>
      </trkpt>
      <trkpt lat="51.77486602216959" lon="-10.115701016038656">
        <ele>87.620000000000005</ele>
        <time>2026-06-29T06:12:20Z</time>
      </trkpt>
      <trkpt lat="51.774792009964585" lon="-10.115959011018276">
        <ele>88.099999999999994</ele>
        <time>2026-06-29T06:12:22Z</time>
      </trkpt>
      <trkpt lat="51.774774994701147" lon="-10.116015002131462">
        <ele>88.579999999999998</ele>
        <time>2026-06-29T06:12:23Z</time>
      </trkpt>
      <trkpt lat="51.774745993316174" lon="-10.116111980751157">
        <ele>88.579999999999998</ele>
        <time>2026-06-29T06:12:24Z</time>
      </trkpt>
      <trkpt lat="51.774745993316174" lon="-10.116111980751157">
        <ele>88.579999999999998</ele>
        <time>2026-06-29T06:12:25Z</time>
      </trkpt>
      <trkpt lat="51.774679021909833" lon="-10.116090020164847">
        <ele>88.579999999999998</ele>
        <time>2026-06-29T06:12:26Z</time>
      </trkpt>
      <trkpt lat="51.774616995826364" lon="-10.116068981587887">
        <ele>88.099999999999994</ele>
        <time>2026-06-29T06:12:27Z</time>
      </trkpt>
      <trkpt lat="51.774566033855081" lon="-10.116091025993228">
        <ele>88.099999999999994</ele>
        <time>2026-06-29T06:12:28Z</time>
      </trkpt>
      <trkpt lat="51.774507025256753" lon="-10.116116004064679">
        <ele>87.620000000000005</ele>
        <time>2026-06-29T06:12:29Z</time>
      </trkpt>
      <trkpt lat="51.774366963654757" lon="-10.116174006834626">
        <ele>87.140000000000001</ele>
        <time>2026-06-29T06:12:31Z</time>
      </trkpt>
      <trkpt lat="51.774292029440403" lon="-10.116206025704741">
        <ele>87.140000000000001</ele>
        <time>2026-06-29T06:12:32Z</time>
      </trkpt>
      <trkpt lat="51.774208964779973" lon="-10.116240978240967">
        <ele>87.140000000000001</ele>
        <time>2026-06-29T06:12:33Z</time>
      </trkpt>
      <trkpt lat="51.773974020034075" lon="-10.116421021521091">
        <ele>87.620000000000005</ele>
        <time>2026-06-29T06:12:36Z</time>
      </trkpt>
      <trkpt lat="51.773445960134268" lon="-10.11682502925396">
        <ele>85.209999999999994</ele>
        <time>2026-06-29T06:12:43Z</time>
      </trkpt>
      <trkpt lat="51.773377982899547" lon="-10.116876997053623">
        <ele>83.769999999999996</ele>
        <time>2026-06-29T06:12:44Z</time>
      </trkpt>
      <trkpt lat="51.77295695990324" lon="-10.117172040045261">
        <ele>78</ele>
        <time>2026-06-29T06:12:50Z</time>
      </trkpt>
      <trkpt lat="51.772307027131319" lon="-10.117551991716027">
        <ele>71.269999999999996</ele>
        <time>2026-06-29T06:12:58Z</time>
      </trkpt>
      <trkpt lat="51.77196697331965" lon="-10.117603037506342">
        <ele>68.870000000000005</ele>
        <time>2026-06-29T06:13:02Z</time>
      </trkpt>
      <trkpt lat="51.77188097499311" lon="-10.117611000314355">
        <ele>68.870000000000005</ele>
        <time>2026-06-29T06:13:03Z</time>
      </trkpt>
      <trkpt lat="51.771103972569108" lon="-10.117304977029562">
        <ele>66.469999999999999</ele>
        <time>2026-06-29T06:13:12Z</time>
      </trkpt>
      <trkpt lat="51.770976986736059" lon="-10.117200035601854">
        <ele>65.030000000000001</ele>
        <time>2026-06-29T06:13:14Z</time>
      </trkpt>
      <trkpt lat="51.770923007279634" lon="-10.11714999563992">
        <ele>64.549999999999997</ele>
        <time>2026-06-29T06:13:15Z</time>
      </trkpt>
      <trkpt lat="51.77086902782321" lon="-10.117100039497018">
        <ele>63.579999999999998</ele>
        <time>2026-06-29T06:13:16Z</time>
      </trkpt>
      <trkpt lat="51.770812030881643" lon="-10.117046982049942">
        <ele>63.100000000000001</ele>
        <time>2026-06-29T06:13:17Z</time>
      </trkpt>
      <trkpt lat="51.770752016454935" lon="-10.117004988715053">
        <ele>62.619999999999997</ele>
        <time>2026-06-29T06:13:18Z</time>
      </trkpt>
      <trkpt lat="51.770687978714705" lon="-10.116981016471982">
        <ele>62.140000000000001</ele>
        <time>2026-06-29T06:13:19Z</time>
      </trkpt>
      <trkpt lat="51.770603992044926" lon="-10.116948997601867">
        <ele>61.18</ele>
        <time>2026-06-29T06:13:20Z</time>
      </trkpt>
      <trkpt lat="51.770556969568133" lon="-10.11697799898684">
        <ele>60.700000000000003</ele>
        <time>2026-06-29T06:13:21Z</time>
      </trkpt>
      <trkpt lat="51.770483963191509" lon="-10.117022003978491">
        <ele>60.219999999999999</ele>
        <time>2026-06-29T06:13:22Z</time>
      </trkpt>
      <trkpt lat="51.770407017320395" lon="-10.117068020626903">
        <ele>59.740000000000002</ele>
        <time>2026-06-29T06:13:23Z</time>
      </trkpt>
      <trkpt lat="51.770094037055969" lon="-10.117258038371801">
        <ele>57.82</ele>
        <time>2026-06-29T06:13:27Z</time>
      </trkpt>
      <trkpt lat="51.770018013194203" lon="-10.117303971201181">
        <ele>57.340000000000003</ele>
        <time>2026-06-29T06:13:28Z</time>
      </trkpt>
      <trkpt lat="51.769416024908423" lon="-10.117527013644576">
        <ele>54.450000000000003</ele>
        <time>2026-06-29T06:13:36Z</time>
      </trkpt>
      <trkpt lat="51.768889976665378" lon="-10.117518967017531">
        <ele>50.609999999999999</ele>
        <time>2026-06-29T06:13:43Z</time>
      </trkpt>
      <trkpt lat="51.76880800165236" lon="-10.117517039179802">
        <ele>49.649999999999999</ele>
        <time>2026-06-29T06:13:44Z</time>
      </trkpt>
      <trkpt lat="51.768560986965895" lon="-10.11751301586628">
        <ele>46.759999999999998</ele>
        <time>2026-06-29T06:13:47Z</time>
      </trkpt>
      <trkpt lat="51.768277008086443" lon="-10.117508992552757">
        <ele>42.920000000000002</ele>
        <time>2026-06-29T06:13:51Z</time>
      </trkpt>
      <trkpt lat="51.768208025023341" lon="-10.117507986724377">
        <ele>41.950000000000003</ele>
        <time>2026-06-29T06:13:52Z</time>
      </trkpt>
      <trkpt lat="51.768149016425014" lon="-10.117520978674293">
        <ele>40.990000000000002</ele>
        <time>2026-06-29T06:13:53Z</time>
      </trkpt>
      <trkpt lat="51.768084978684783" lon="-10.117550985887647">
        <ele>40.509999999999998</ele>
        <time>2026-06-29T06:13:54Z</time>
      </trkpt>
      <trkpt lat="51.768019013106823" lon="-10.117580993101001">
        <ele>39.549999999999997</ele>
        <time>2026-06-29T06:13:55Z</time>
      </trkpt>
      <trkpt lat="51.767953969538212" lon="-10.117611000314355">
        <ele>38.590000000000003</ele>
        <time>2026-06-29T06:13:56Z</time>
      </trkpt>
      <trkpt lat="51.767783984541893" lon="-10.117763970047235">
        <ele>33.780000000000001</ele>
        <time>2026-06-29T06:13:59Z</time>
      </trkpt>
      <trkpt lat="51.767728999257088" lon="-10.117823984473944">
        <ele>32.340000000000003</ele>
        <time>2026-06-29T06:14:00Z</time>
      </trkpt>
      <trkpt lat="51.7676040250808" lon="-10.117962034419179">
        <ele>29.940000000000001</ele>
        <time>2026-06-29T06:14:02Z</time>
      </trkpt>
      <trkpt lat="51.76754099316895" lon="-10.118031017482281">
        <ele>28.98</ele>
        <time>2026-06-29T06:14:03Z</time>
      </trkpt>
      <trkpt lat="51.767477039247751" lon="-10.118101006373763">
        <ele>28.02</ele>
        <time>2026-06-29T06:14:04Z</time>
      </trkpt>
      <trkpt lat="51.767417024821043" lon="-10.118167977780104">
        <ele>27.050000000000001</ele>
        <time>2026-06-29T06:14:05Z</time>
      </trkpt>
      <trkpt lat="51.767363967373967" lon="-10.118225980550051">
        <ele>25.609999999999999</ele>
        <time>2026-06-29T06:14:06Z</time>
      </trkpt>
      <trkpt lat="51.767314011231065" lon="-10.118280965834856">
        <ele>24.649999999999999</ele>
        <time>2026-06-29T06:14:07Z</time>
      </trkpt>
      <trkpt lat="51.767269000411034" lon="-10.11833100579679">
        <ele>23.690000000000001</ele>
        <time>2026-06-29T06:14:08Z</time>
      </trkpt>
      <trkpt lat="51.767146037891507" lon="-10.118414992466569">
        <ele>22.25</ele>
        <time>2026-06-29T06:14:10Z</time>
      </trkpt>
      <trkpt lat="51.76708702929318" lon="-10.118452040478587">
        <ele>21.289999999999999</ele>
        <time>2026-06-29T06:14:11Z</time>
      </trkpt>
      <trkpt lat="51.767026009038091" lon="-10.118491016328335">
        <ele>20.809999999999999</ele>
        <time>2026-06-29T06:14:12Z</time>
      </trkpt>
      <trkpt lat="51.766951996833086" lon="-10.118466960266232">
        <ele>19.84</ele>
        <time>2026-06-29T06:14:13Z</time>
      </trkpt>
      <trkpt lat="51.766897011548281" lon="-10.118444999679923">
        <ele>19.359999999999999</ele>
        <time>2026-06-29T06:14:14Z</time>
      </trkpt>
      <trkpt lat="51.76685200072825" lon="-10.118426978588104">
        <ele>18.879999999999999</ele>
        <time>2026-06-29T06:14:15Z</time>
      </trkpt>
      <trkpt lat="51.766801038756967" lon="-10.118406023830175">
        <ele>17.920000000000002</ele>
        <time>2026-06-29T06:14:16Z</time>
      </trkpt>
      <trkpt lat="51.766511024907231" lon="-10.118365036323667">
        <ele>14.56</ele>
        <time>2026-06-29T06:14:20Z</time>
      </trkpt>
      <trkpt lat="51.766368029639125" lon="-10.118365036323667">
        <ele>13.119999999999999</ele>
        <time>2026-06-29T06:14:22Z</time>
      </trkpt>
      <trkpt lat="51.766290999948978" lon="-10.118365036323667">
        <ele>12.15</ele>
        <time>2026-06-29T06:14:23Z</time>
      </trkpt>
      <trkpt lat="51.766232997179031" lon="-10.118385991081595">
        <ele>11.67</ele>
        <time>2026-06-29T06:14:24Z</time>
      </trkpt>
      <trkpt lat="51.766129983589053" lon="-10.118423039093614">
        <ele>10.710000000000001</ele>
        <time>2026-06-29T06:14:26Z</time>
      </trkpt>
      <trkpt lat="51.766028981655836" lon="-10.1184600032866">
        <ele>9.75</ele>
        <time>2026-06-29T06:14:28Z</time>
      </trkpt>
      <trkpt lat="51.765965027734637" lon="-10.11848296970129">
        <ele>8.789999999999999</ele>
        <time>2026-06-29T06:14:29Z</time>
      </trkpt>
      <trkpt lat="51.765894033014774" lon="-10.118509037420154">
        <ele>8.310000000000001</ele>
        <time>2026-06-29T06:14:30Z</time>
      </trkpt>
      <trkpt lat="51.76582102663815" lon="-10.118535021319985">
        <ele>7.83</ele>
        <time>2026-06-29T06:14:31Z</time>
      </trkpt>
      <trkpt lat="51.765763023868203" lon="-10.118555976077914">
        <ele>7.35</ele>
        <time>2026-06-29T06:14:32Z</time>
      </trkpt>
      <trkpt lat="51.765706026926637" lon="-10.118577014654875">
        <ele>7.35</ele>
        <time>2026-06-29T06:14:33Z</time>
      </trkpt>
      <trkpt lat="51.765570994466543" lon="-10.118624959141016">
        <ele>6.39</ele>
        <time>2026-06-29T06:14:38Z</time>
      </trkpt>
      <trkpt lat="51.765551967546344" lon="-10.11863199993968">
        <ele>5.91</ele>
        <time>2026-06-29T06:14:39Z</time>
      </trkpt>
      <trkpt lat="51.765526989474893" lon="-10.118710035458207">
        <ele>5.42</ele>
        <time>2026-06-29T06:14:40Z</time>
      </trkpt>
      <trkpt lat="51.765536963939667" lon="-10.118799973279238">
        <ele>5.42</ele>
        <time>2026-06-29T06:14:41Z</time>
      </trkpt>
      <trkpt lat="51.765550039708614" lon="-10.118912039324641">
        <ele>4.94</ele>
        <time>2026-06-29T06:14:42Z</time>
      </trkpt>
      <trkpt lat="51.76556495949626" lon="-10.119033996015787">
        <ele>4.94</ele>
        <time>2026-06-29T06:14:43Z</time>
      </trkpt>
      <trkpt lat="51.765579963102937" lon="-10.119161987677217">
        <ele>4.94</ele>
        <time>2026-06-29T06:14:44Z</time>
      </trkpt>
      <trkpt lat="51.765594966709614" lon="-10.119294002652168">
        <ele>4.94</ele>
        <time>2026-06-29T06:14:45Z</time>
      </trkpt>
      <trkpt lat="51.765579963102937" lon="-10.119463987648487">
        <ele>4.94</ele>
        <time>2026-06-29T06:14:46Z</time>
      </trkpt>
      <trkpt lat="51.765545010566711" lon="-10.119591979309916">
        <ele>4.94</ele>
        <time>2026-06-29T06:14:47Z</time>
      </trkpt>
      <trkpt lat="51.765512991696596" lon="-10.119711002334952">
        <ele>5.42</ele>
        <time>2026-06-29T06:14:48Z</time>
      </trkpt>
      <trkpt lat="51.765448031947017" lon="-10.119872018694878">
        <ele>5.91</ele>
        <time>2026-06-29T06:14:49Z</time>
      </trkpt>
      <trkpt lat="51.765380976721644" lon="-10.119936978444457">
        <ele>6.39</ele>
        <time>2026-06-29T06:14:50Z</time>
      </trkpt>
      <trkpt lat="51.765310987830162" lon="-10.12000503949821">
        <ele>6.87</ele>
        <time>2026-06-29T06:14:51Z</time>
      </trkpt>
      <trkpt lat="51.765244016423821" lon="-10.120069999247789">
        <ele>7.35</ele>
        <time>2026-06-29T06:14:52Z</time>
      </trkpt>
      <trkpt lat="51.7651760391891" lon="-10.120135964825749">
        <ele>7.83</ele>
        <time>2026-06-29T06:14:53Z</time>
      </trkpt>
      <trkpt lat="51.765102026984096" lon="-10.120206959545612">
        <ele>7.83</ele>
        <time>2026-06-29T06:14:54Z</time>
      </trkpt>
      <trkpt lat="51.764412028715014" lon="-10.120872985571623">
        <ele>8.789999999999999</ele>
        <time>2026-06-29T06:15:03Z</time>
      </trkpt>
      <trkpt lat="51.764340028166771" lon="-10.120942974463105">
        <ele>8.310000000000001</ele>
        <time>2026-06-29T06:15:04Z</time>
      </trkpt>
      <trkpt lat="51.764230979606509" lon="-10.121047999709845">
        <ele>8.310000000000001</ele>
        <time>2026-06-29T06:15:05Z</time>
      </trkpt>
      <trkpt lat="51.764221005141735" lon="-10.121175991371274">
        <ele>8.310000000000001</ele>
        <time>2026-06-29T06:15:06Z</time>
      </trkpt>
      <trkpt lat="51.764206001535058" lon="-10.121348993852735">
        <ele>7.83</ele>
        <time>2026-06-29T06:15:07Z</time>
      </trkpt>
      <trkpt lat="51.764192003756762" lon="-10.121524007990956">
        <ele>7.83</ele>
        <time>2026-06-29T06:15:08Z</time>
      </trkpt>
      <trkpt lat="51.764187980443239" lon="-10.123245986178517">
        <ele>10.23</ele>
        <time>2026-06-29T06:15:18Z</time>
      </trkpt>
      <trkpt lat="51.764152022078633" lon="-10.123671032488346">
        <ele>11.67</ele>
        <time>2026-06-29T06:15:21Z</time>
      </trkpt>
      <trkpt lat="51.76412302069366" lon="-10.123977977782488">
        <ele>11.67</ele>
        <time>2026-06-29T06:15:23Z</time>
      </trkpt>
      <trkpt lat="51.764108017086983" lon="-10.124141005799174">
        <ele>11.67</ele>
        <time>2026-06-29T06:15:24Z</time>
      </trkpt>
      <trkpt lat="51.764092007651925" lon="-10.124309984967113">
        <ele>11.67</ele>
        <time>2026-06-29T06:15:25Z</time>
      </trkpt>
      <trkpt lat="51.764062000438571" lon="-10.124632017686963">
        <ele>10.710000000000001</ele>
        <time>2026-06-29T06:15:27Z</time>
      </trkpt>
      <trkpt lat="51.764039034023881" lon="-10.124876014888287">
        <ele>9.27</ele>
        <time>2026-06-29T06:15:29Z</time>
      </trkpt>
      <trkpt lat="51.764048002660275" lon="-10.124966036528349">
        <ele>8.789999999999999</ele>
        <time>2026-06-29T06:15:30Z</time>
      </trkpt>
      <trkpt lat="51.764062000438571" lon="-10.12507600709796">
        <ele>7.83</ele>
        <time>2026-06-29T06:15:31Z</time>
      </trkpt>
      <trkpt lat="51.764078009873629" lon="-10.125203998759389">
        <ele>7.83</ele>
        <time>2026-06-29T06:15:32Z</time>
      </trkpt>
      <trkpt lat="51.764096030965447" lon="-10.125346994027495">
        <ele>7.35</ele>
        <time>2026-06-29T06:15:33Z</time>
      </trkpt>
      <trkpt lat="51.764114974066615" lon="-10.125504992902279">
        <ele>7.35</ele>
        <time>2026-06-29T06:15:34Z</time>
      </trkpt>
      <trkpt lat="51.76414598710835" lon="-10.125746978446841">
        <ele>7.35</ele>
        <time>2026-06-29T06:15:35Z</time>
      </trkpt>
      <trkpt lat="51.764206001535058" lon="-10.125847980380058">
        <ele>7.35</ele>
        <time>2026-06-29T06:15:36Z</time>
      </trkpt>
      <trkpt lat="51.764282025396824" lon="-10.125976977869868">
        <ele>7.35</ele>
        <time>2026-06-29T06:15:37Z</time>
      </trkpt>
      <trkpt lat="51.764357965439558" lon="-10.126103963702917">
        <ele>7.35</ele>
        <time>2026-06-29T06:15:38Z</time>
      </trkpt>
      <trkpt lat="51.764428960159421" lon="-10.126224998384714">
        <ele>8.310000000000001</ele>
        <time>2026-06-29T06:15:39Z</time>
      </trkpt>
      <trkpt lat="51.764498027041554" lon="-10.126341003924608">
        <ele>8.789999999999999</ele>
        <time>2026-06-29T06:15:40Z</time>
      </trkpt>
      <trkpt lat="51.76455301232636" lon="-10.126433037221432">
        <ele>8.789999999999999</ele>
        <time>2026-06-29T06:15:41Z</time>
      </trkpt>
      <trkpt lat="51.76455301232636" lon="-10.126433037221432">
        <ele>9.27</ele>
        <time>2026-06-29T06:15:42Z</time>
      </trkpt>
      <trkpt lat="51.764544965699315" lon="-10.126620959490538">
        <ele>9.75</ele>
        <time>2026-06-29T06:15:43Z</time>
      </trkpt>
      <trkpt lat="51.764540020376444" lon="-10.126743000000715">
        <ele>10.23</ele>
        <time>2026-06-29T06:15:44Z</time>
      </trkpt>
      <trkpt lat="51.764534991234541" lon="-10.126874009147286">
        <ele>10.710000000000001</ele>
        <time>2026-06-29T06:15:45Z</time>
      </trkpt>
      <trkpt lat="51.764528034254909" lon="-10.127019016072154">
        <ele>10.710000000000001</ele>
        <time>2026-06-29T06:15:46Z</time>
      </trkpt>
      <trkpt lat="51.764521999284625" lon="-10.127175003290176">
        <ele>11.19</ele>
        <time>2026-06-29T06:15:47Z</time>
      </trkpt>
      <trkpt lat="51.764515964314342" lon="-10.127319004386663">
        <ele>11.19</ele>
        <time>2026-06-29T06:15:48Z</time>
      </trkpt>
      <trkpt lat="51.76451001316309" lon="-10.12744196690619">
        <ele>11.19</ele>
        <time>2026-06-29T06:15:49Z</time>
      </trkpt>
      <trkpt lat="51.764547983184457" lon="-10.127561995759606">
        <ele>11.19</ele>
        <time>2026-06-29T06:15:50Z</time>
      </trkpt>
      <trkpt lat="51.764584025368094" lon="-10.127674983814359">
        <ele>10.710000000000001</ele>
        <time>2026-06-29T06:15:51Z</time>
      </trkpt>
      <trkpt lat="51.764623001217842" lon="-10.127800041809678">
        <ele>11.19</ele>
        <time>2026-06-29T06:15:52Z</time>
      </trkpt>
      <trkpt lat="51.764664994552732" lon="-10.127932978793979">
        <ele>11.19</ele>
        <time>2026-06-29T06:15:53Z</time>
      </trkpt>
      <trkpt lat="51.764712017029524" lon="-10.128082009032369">
        <ele>11.67</ele>
        <time>2026-06-29T06:15:54Z</time>
      </trkpt>
      <trkpt lat="51.764842020347714" lon="-10.128498002886772">
        <ele>13.6</ele>
        <time>2026-06-29T06:15:57Z</time>
      </trkpt>
      <trkpt lat="51.764928018674254" lon="-10.128769995644689">
        <ele>14.56</ele>
        <time>2026-06-29T06:15:59Z</time>
      </trkpt>
      <trkpt lat="51.764981998130679" lon="-10.12894400395453">
        <ele>16.960000000000001</ele>
        <time>2026-06-29T06:16:02Z</time>
      </trkpt>
      <trkpt lat="51.764981998130679" lon="-10.12894400395453">
        <ele>16.960000000000001</ele>
        <time>2026-06-29T06:16:03Z</time>
      </trkpt>
      <trkpt lat="51.765160029754043" lon="-10.128995971754193">
        <ele>17.440000000000001</ele>
        <time>2026-06-29T06:16:04Z</time>
      </trkpt>
      <trkpt lat="51.765251979231834" lon="-10.129022039473057">
        <ele>17.440000000000001</ele>
        <time>2026-06-29T06:16:05Z</time>
      </trkpt>
      <trkpt lat="51.76535096950829" lon="-10.12905104085803">
        <ele>18.399999999999999</ele>
        <time>2026-06-29T06:16:06Z</time>
      </trkpt>
      <trkpt lat="51.765451971441507" lon="-10.129079958423972">
        <ele>18.879999999999999</ele>
        <time>2026-06-29T06:16:07Z</time>
      </trkpt>
      <trkpt lat="51.765755983069539" lon="-10.129402996972203">
        <ele>19.84</ele>
        <time>2026-06-29T06:16:10Z</time>
      </trkpt>
      <trkpt lat="51.765803005546331" lon="-10.129519002512097">
        <ele>20.32</ele>
        <time>2026-06-29T06:16:11Z</time>
      </trkpt>
      <trkpt lat="51.765851033851504" lon="-10.129639031365514">
        <ele>20.32</ele>
        <time>2026-06-29T06:16:12Z</time>
      </trkpt>
      <trkpt lat="51.765895960852504" lon="-10.129750007763505">
        <ele>20.32</ele>
        <time>2026-06-29T06:16:13Z</time>
      </trkpt>
      <trkpt lat="51.765925968065858" lon="-10.12982401996851">
        <ele>20.32</ele>
        <time>2026-06-29T06:16:14Z</time>
      </trkpt>
      <trkpt lat="51.765858996659517" lon="-10.129958968609571">
        <ele>21.289999999999999</ele>
        <time>2026-06-29T06:16:15Z</time>
      </trkpt>
      <trkpt lat="51.765823038294911" lon="-10.130031974986196">
        <ele>22.25</ele>
        <time>2026-06-29T06:16:16Z</time>
      </trkpt>
      <trkpt lat="51.765784984454513" lon="-10.1301059871912">
        <ele>23.210000000000001</ele>
        <time>2026-06-29T06:16:17Z</time>
      </trkpt>
      <trkpt lat="51.765745002776384" lon="-10.130187040194869">
        <ele>25.129999999999999</ele>
        <time>2026-06-29T06:16:18Z</time>
      </trkpt>
      <trkpt lat="51.765711978077888" lon="-10.130253005772829">
        <ele>27.050000000000001</ele>
        <time>2026-06-29T06:16:19Z</time>
      </trkpt>
      <trkpt lat="51.765651041641831" lon="-10.130264991894364">
        <ele>28.02</ele>
        <time>2026-06-29T06:16:20Z</time>
      </trkpt>
      <trkpt lat="51.765568982809782" lon="-10.130281001329422">
        <ele>29.460000000000001</ele>
        <time>2026-06-29T06:16:21Z</time>
      </trkpt>
      <trkpt lat="51.765490025281906" lon="-10.13029701076448">
        <ele>30.420000000000002</ele>
        <time>2026-06-29T06:16:22Z</time>
      </trkpt>
      <trkpt lat="51.765335965901613" lon="-10.130328023806214">
        <ele>31.859999999999999</ele>
        <time>2026-06-29T06:16:24Z</time>
      </trkpt>
      <trkpt lat="51.765194982290268" lon="-10.130487028509378">
        <ele>33.780000000000001</ele>
        <time>2026-06-29T06:16:27Z</time>
      </trkpt>
      <trkpt lat="51.765143014490604" lon="-10.130575960502028">
        <ele>34.740000000000002</ele>
        <time>2026-06-29T06:16:28Z</time>
      </trkpt>
      <trkpt lat="51.764968000352383" lon="-10.130950966849923">
        <ele>38.590000000000003</ele>
        <time>2026-06-29T06:16:31Z</time>
      </trkpt>
      <trkpt lat="51.764931036159396" lon="-10.13109396211803">
        <ele>40.509999999999998</ele>
        <time>2026-06-29T06:16:32Z</time>
      </trkpt>
      <trkpt lat="51.764894993975759" lon="-10.131237041205168">
        <ele>41.469999999999999</ele>
        <time>2026-06-29T06:16:33Z</time>
      </trkpt>
      <trkpt lat="51.764782005921006" lon="-10.131677007302642">
        <ele>43.399999999999999</ele>
        <time>2026-06-29T06:16:36Z</time>
      </trkpt>
      <trkpt lat="51.764631969854236" lon="-10.132054025307298">
        <ele>43.880000000000003</ele>
        <time>2026-06-29T06:16:39Z</time>
      </trkpt>
      <trkpt lat="51.764508001506329" lon="-10.132344961166382">
        <ele>43.399999999999999</ele>
        <time>2026-06-29T06:16:43Z</time>
      </trkpt>
      <trkpt lat="51.764472965151072" lon="-10.132428025826812">
        <ele>42.920000000000002</ele>
        <time>2026-06-29T06:16:47Z</time>
      </trkpt>
      <trkpt lat="51.764506995677948" lon="-10.132480999454856">
        <ele>43.399999999999999</ele>
        <time>2026-06-29T06:16:48Z</time>
      </trkpt>
      <trkpt lat="51.764531973749399" lon="-10.132505977526307">
        <ele>43.399999999999999</ele>
        <time>2026-06-29T06:16:49Z</time>
      </trkpt>
      <trkpt lat="51.764629036188126" lon="-10.13242500834167">
        <ele>43.880000000000003</ele>
        <time>2026-06-29T06:16:50Z</time>
      </trkpt>
      <trkpt lat="51.764707993716002" lon="-10.132358958944678">
        <ele>44.840000000000003</ele>
        <time>2026-06-29T06:16:51Z</time>
      </trkpt>
      <trkpt lat="51.764798015356064" lon="-10.132284024730325">
        <ele>46.280000000000001</ele>
        <time>2026-06-29T06:16:52Z</time>
      </trkpt>
      <trkpt lat="51.765118958428502" lon="-10.132194003090262">
        <ele>53.009999999999998</ele>
        <time>2026-06-29T06:16:56Z</time>
      </trkpt>
      <trkpt lat="51.765279974788427" lon="-10.132201965898275">
        <ele>54.450000000000003</ele>
        <time>2026-06-29T06:16:58Z</time>
      </trkpt>
      <trkpt lat="51.765360021963716" lon="-10.132205989211798">
        <ele>55.409999999999997</ele>
        <time>2026-06-29T06:16:59Z</time>
      </trkpt>
      <trkpt lat="51.765438979491591" lon="-10.13221001252532">
        <ele>56.369999999999997</ele>
        <time>2026-06-29T06:17:00Z</time>
      </trkpt>
      <trkpt lat="51.765521038323641" lon="-10.132214035838842">
        <ele>57.340000000000003</ele>
        <time>2026-06-29T06:17:01Z</time>
      </trkpt>
      <trkpt lat="51.7656060308218" lon="-10.132218981161714">
        <ele>57.82</ele>
        <time>2026-06-29T06:17:02Z</time>
      </trkpt>
      <trkpt lat="51.765687000006437" lon="-10.132223004475236">
        <ele>58.780000000000001</ele>
        <time>2026-06-29T06:17:03Z</time>
      </trkpt>
      <trkpt lat="51.76582002080977" lon="-10.132255023345351">
        <ele>60.219999999999999</ele>
        <time>2026-06-29T06:17:05Z</time>
      </trkpt>
      <trkpt lat="51.765897972509265" lon="-10.132304979488254">
        <ele>61.18</ele>
        <time>2026-06-29T06:17:06Z</time>
      </trkpt>
      <trkpt lat="51.766011966392398" lon="-10.132376980036497">
        <ele>61.659999999999997</ele>
        <time>2026-06-29T06:17:07Z</time>
      </trkpt>
      <trkpt lat="51.766039039939642" lon="-10.132513018324971">
        <ele>61.659999999999997</ele>
        <time>2026-06-29T06:17:08Z</time>
      </trkpt>
      <trkpt lat="51.766068963333964" lon="-10.13266297057271">
        <ele>62.619999999999997</ele>
        <time>2026-06-29T06:17:09Z</time>
      </trkpt>
      <trkpt lat="51.766171976923943" lon="-10.13317602686584">
        <ele>64.069999999999993</ele>
        <time>2026-06-29T06:17:12Z</time>
      </trkpt>
      <trkpt lat="51.766206007450819" lon="-10.133346011862159">
        <ele>63.579999999999998</ele>
        <time>2026-06-29T06:17:13Z</time>
      </trkpt>
      <trkpt lat="51.766236014664173" lon="-10.133497975766659">
        <ele>63.579999999999998</ele>
        <time>2026-06-29T06:17:14Z</time>
      </trkpt>
      <trkpt lat="51.766261998564005" lon="-10.133623033761978">
        <ele>64.549999999999997</ele>
        <time>2026-06-29T06:17:15Z</time>
      </trkpt>
      <trkpt lat="51.766287982463837" lon="-10.133756976574659">
        <ele>65.510000000000005</ele>
        <time>2026-06-29T06:17:16Z</time>
      </trkpt>
      <trkpt lat="51.766321007162333" lon="-10.133921010419726">
        <ele>65.989999999999995</ele>
        <time>2026-06-29T06:17:17Z</time>
      </trkpt>
      <trkpt lat="51.766333999112248" lon="-10.133986975997686">
        <ele>67.430000000000007</ele>
        <time>2026-06-29T06:17:18Z</time>
      </trkpt>
      <trkpt lat="51.766415974125266" lon="-10.134196020662785">
        <ele>68.390000000000001</ele>
        <time>2026-06-29T06:17:19Z</time>
      </trkpt>
      <trkpt lat="51.766458973288536" lon="-10.134305991232395">
        <ele>69.829999999999998</ele>
        <time>2026-06-29T06:17:20Z</time>
      </trkpt>
      <trkpt lat="51.766501972451806" lon="-10.134415961802006">
        <ele>71.269999999999996</ele>
        <time>2026-06-29T06:17:21Z</time>
      </trkpt>
      <trkpt lat="51.7666370049119" lon="-10.134626012295485">
        <ele>75.120000000000005</ele>
        <time>2026-06-29T06:17:23Z</time>
      </trkpt>
      <trkpt lat="51.766716968268156" lon="-10.134732965379953">
        <ele>76.560000000000002</ele>
        <time>2026-06-29T06:17:24Z</time>
      </trkpt>
      <trkpt lat="51.766881002113223" lon="-10.134752998128533">
        <ele>79.930000000000007</ele>
        <time>2026-06-29T06:17:26Z</time>
      </trkpt>
      <trkpt lat="51.766962977126241" lon="-10.134760960936546">
        <ele>81.370000000000005</ele>
        <time>2026-06-29T06:17:27Z</time>
      </trkpt>
      <trkpt lat="51.7670479696244" lon="-10.134770013391972">
        <ele>82.810000000000002</ele>
        <time>2026-06-29T06:17:28Z</time>
      </trkpt>
      <trkpt lat="51.7672189604491" lon="-10.134786022827029">
        <ele>85.689999999999998</ele>
        <time>2026-06-29T06:17:30Z</time>
      </trkpt>
      <trkpt lat="51.76730303093791" lon="-10.134793985635042">
        <ele>86.659999999999997</ele>
        <time>2026-06-29T06:17:31Z</time>
      </trkpt>
      <trkpt lat="51.767388023436069" lon="-10.134803038090467">
        <ele>88.579999999999998</ele>
        <time>2026-06-29T06:17:32Z</time>
      </trkpt>
      <trkpt lat="51.767476033419371" lon="-10.13481100089848">
        <ele>90.019999999999996</ele>
        <time>2026-06-29T06:17:33Z</time>
      </trkpt>
      <trkpt lat="51.767569994553924" lon="-10.134819969534874">
        <ele>91.939999999999998</ele>
        <time>2026-06-29T06:17:34Z</time>
      </trkpt>
      <trkpt lat="51.767667979001999" lon="-10.13483002781868">
        <ele>93.870000000000005</ele>
        <time>2026-06-29T06:17:35Z</time>
      </trkpt>
      <trkpt lat="51.767762023955584" lon="-10.134838996455073">
        <ele>95.310000000000002</ele>
        <time>2026-06-29T06:17:36Z</time>
      </trkpt>
      <trkpt lat="51.767851961776614" lon="-10.134847965091467">
        <ele>96.75</ele>
        <time>2026-06-29T06:17:37Z</time>
      </trkpt>
      <trkpt lat="51.767947012558579" lon="-10.134857017546892">
        <ele>98.670000000000002</ele>
        <time>2026-06-29T06:17:38Z</time>
      </trkpt>
      <trkpt lat="51.768041979521513" lon="-10.134866992011666">
        <ele>100.11</ele>
        <time>2026-06-29T06:17:39Z</time>
      </trkpt>
      <trkpt lat="51.768130995333195" lon="-10.134875038638711">
        <ele>102.52</ele>
        <time>2026-06-29T06:17:40Z</time>
      </trkpt>
      <trkpt lat="51.768213976174593" lon="-10.134883001446724">
        <ele>104.44</ele>
        <time>2026-06-29T06:17:41Z</time>
      </trkpt>
      <trkpt lat="51.768293017521501" lon="-10.134890964254737">
        <ele>106.36</ele>
        <time>2026-06-29T06:17:42Z</time>
      </trkpt>
      <trkpt lat="51.768369963392615" lon="-10.134899010881782">
        <ele>107.81</ele>
        <time>2026-06-29T06:17:43Z</time>
      </trkpt>
      <trkpt lat="51.768451016396284" lon="-10.134906973689795">
        <ele>108.77</ele>
        <time>2026-06-29T06:17:44Z</time>
      </trkpt>
      <trkpt lat="51.768555035814643" lon="-10.134863974526525">
        <ele>109.73</ele>
        <time>2026-06-29T06:17:45Z</time>
      </trkpt>
      <trkpt lat="51.768627958372235" lon="-10.134819969534874">
        <ele>111.65000000000001</ele>
        <time>2026-06-29T06:17:46Z</time>
      </trkpt>
      <trkpt lat="51.768698031082749" lon="-10.134778982028365">
        <ele>113.09</ele>
        <time>2026-06-29T06:17:47Z</time>
      </trkpt>
      <trkpt lat="51.768779000267386" lon="-10.134730031713843">
        <ele>115.01000000000001</ele>
        <time>2026-06-29T06:17:48Z</time>
      </trkpt>
      <trkpt lat="51.768874973058701" lon="-10.134579995647073">
        <ele>116.45999999999999</ele>
        <time>2026-06-29T06:17:49Z</time>
      </trkpt>
      <trkpt lat="51.768952002748847" lon="-10.134437000378966">
        <ele>117.42</ele>
        <time>2026-06-29T06:17:50Z</time>
      </trkpt>
      <trkpt lat="51.76900296472013" lon="-10.134409004822373">
        <ele>118.38</ele>
        <time>2026-06-29T06:17:51Z</time>
      </trkpt>
      <trkpt lat="51.769145037978888" lon="-10.134329963475466">
        <ele>119.34</ele>
        <time>2026-06-29T06:17:52Z</time>
      </trkpt>
      <trkpt lat="51.769628003239632" lon="-10.133774997666478">
        <ele>121.26000000000001</ele>
        <time>2026-06-29T06:17:58Z</time>
      </trkpt>
      <trkpt lat="51.769703021273017" lon="-10.133688999339938">
        <ele>121.73999999999999</ele>
        <time>2026-06-29T06:17:59Z</time>
      </trkpt>
      <trkpt lat="51.769778039306402" lon="-10.133603001013398">
        <ele>122.70999999999999</ele>
        <time>2026-06-29T06:18:00Z</time>
      </trkpt>
      <trkpt lat="51.769932014867663" lon="-10.133425975218415">
        <ele>124.15000000000001</ele>
        <time>2026-06-29T06:18:02Z</time>
      </trkpt>
      <trkpt lat="51.770085990428925" lon="-10.133249033242464">
        <ele>125.11</ele>
        <time>2026-06-29T06:18:04Z</time>
      </trkpt>
      <trkpt lat="51.770158996805549" lon="-10.133169991895556">
        <ele>125.11</ele>
        <time>2026-06-29T06:18:05Z</time>
      </trkpt>
      <trkpt lat="51.770243989303708" lon="-10.133153982460499">
        <ele>125.11</ele>
        <time>2026-06-29T06:18:06Z</time>
      </trkpt>
      <trkpt lat="51.770329987630248" lon="-10.133137973025441">
        <ele>125.59</ele>
        <time>2026-06-29T06:18:07Z</time>
      </trkpt>
      <trkpt lat="51.770413974300027" lon="-10.133122969418764">
        <ele>125.59</ele>
        <time>2026-06-29T06:18:08Z</time>
      </trkpt>
      <trkpt lat="51.770511958748102" lon="-10.133118024095893">
        <ele>125.59</ele>
        <time>2026-06-29T06:18:09Z</time>
      </trkpt>
      <trkpt lat="51.770601980388165" lon="-10.133188012987375">
        <ele>125.59</ele>
        <time>2026-06-29T06:18:10Z</time>
      </trkpt>
      <trkpt lat="51.77076299674809" lon="-10.133313992992043">
        <ele>126.06999999999999</ele>
        <time>2026-06-29T06:18:12Z</time>
      </trkpt>
      <trkpt lat="51.77082703448832" lon="-10.133364032953978">
        <ele>126.55</ele>
        <time>2026-06-29T06:18:13Z</time>
      </trkpt>
      <trkpt lat="51.770901968702674" lon="-10.133378030732274">
        <ele>127.03</ele>
        <time>2026-06-29T06:18:14Z</time>
      </trkpt>
      <trkpt lat="51.770949997007847" lon="-10.133306030184031">
        <ele>127.51000000000001</ele>
        <time>2026-06-29T06:18:15Z</time>
      </trkpt>
      <trkpt lat="51.771003976464272" lon="-10.133222965523601">
        <ele>127.98999999999999</ele>
        <time>2026-06-29T06:18:16Z</time>
      </trkpt>
      <trkpt lat="51.77106499671936" lon="-10.133130010217428">
        <ele>128.47</ele>
        <time>2026-06-29T06:18:17Z</time>
      </trkpt>
      <trkpt lat="51.771130040287971" lon="-10.133030014112592">
        <ele>128.47</ele>
        <time>2026-06-29T06:18:18Z</time>
      </trkpt>
      <trkpt lat="51.771200029179454" lon="-10.132921971380711">
        <ele>128.94999999999999</ele>
        <time>2026-06-29T06:18:19Z</time>
      </trkpt>
      <trkpt lat="51.771271023899317" lon="-10.132814012467861">
        <ele>128.94999999999999</ele>
        <time>2026-06-29T06:18:20Z</time>
      </trkpt>
      <trkpt lat="51.77134302444756" lon="-10.132704963907599">
        <ele>128.94999999999999</ele>
        <time>2026-06-29T06:18:21Z</time>
      </trkpt>
      <trkpt lat="51.771414019167423" lon="-10.132594993337989">
        <ele>129.43000000000001</ele>
        <time>2026-06-29T06:18:22Z</time>
      </trkpt>
      <trkpt lat="51.771486019715667" lon="-10.132485022768378">
        <ele>129.43000000000001</ele>
        <time>2026-06-29T06:18:23Z</time>
      </trkpt>
      <trkpt lat="51.77155701443553" lon="-10.132375974208117">
        <ele>129.91999999999999</ele>
        <time>2026-06-29T06:18:24Z</time>
      </trkpt>
      <trkpt lat="51.771650975570083" lon="-10.132264997810125">
        <ele>130.40000000000001</ele>
        <time>2026-06-29T06:18:25Z</time>
      </trkpt>
      <trkpt lat="51.771836970001459" lon="-10.132139017805457">
        <ele>130.40000000000001</ele>
        <time>2026-06-29T06:18:27Z</time>
      </trkpt>
      <trkpt lat="51.771922968327999" lon="-10.132080009207129">
        <ele>130.88</ele>
        <time>2026-06-29T06:18:28Z</time>
      </trkpt>
      <trkpt lat="51.772111980244517" lon="-10.131966015323997">
        <ele>130.88</ele>
        <time>2026-06-29T06:18:30Z</time>
      </trkpt>
      <trkpt lat="51.772399982437491" lon="-10.131925027817488">
        <ele>132.31999999999999</ele>
        <time>2026-06-29T06:18:33Z</time>
      </trkpt>
      <trkpt lat="51.772535014897585" lon="-10.131904995068908">
        <ele>132.31999999999999</ele>
        <time>2026-06-29T06:18:34Z</time>
      </trkpt>
      <trkpt lat="51.772583965212107" lon="-10.131881022825837">
        <ele>133.28</ele>
        <time>2026-06-29T06:18:35Z</time>
      </trkpt>
      <trkpt lat="51.772707011550665" lon="-10.131818996742368">
        <ele>133.75999999999999</ele>
        <time>2026-06-29T06:18:36Z</time>
      </trkpt>
      <trkpt lat="51.77276099100709" lon="-10.131760993972421">
        <ele>134.72</ele>
        <time>2026-06-29T06:18:37Z</time>
      </trkpt>
      <trkpt lat="51.772841038182378" lon="-10.1316739898175">
        <ele>135.19999999999999</ele>
        <time>2026-06-29T06:18:38Z</time>
      </trkpt>
      <trkpt lat="51.772965006530285" lon="-10.131539963185787">
        <ele>136.16</ele>
        <time>2026-06-29T06:18:39Z</time>
      </trkpt>
      <trkpt lat="51.773014040663838" lon="-10.131536023691297">
        <ele>136.63999999999999</ele>
        <time>2026-06-29T06:18:40Z</time>
      </trkpt>
      <trkpt lat="51.773086041212082" lon="-10.131529988721013">
        <ele>137.61000000000001</ele>
        <time>2026-06-29T06:18:41Z</time>
      </trkpt>
      <trkpt lat="51.773229036480188" lon="-10.131592014804482">
        <ele>138.09</ele>
        <time>2026-06-29T06:18:42Z</time>
      </trkpt>
      <trkpt lat="51.773267006501555" lon="-10.131687987595797">
        <ele>138.56999999999999</ele>
        <time>2026-06-29T06:18:43Z</time>
      </trkpt>
      <trkpt lat="51.773311011493206" lon="-10.131798963993788">
        <ele>139.53</ele>
        <time>2026-06-29T06:18:44Z</time>
      </trkpt>
      <trkpt lat="51.773358033969998" lon="-10.131918992847204">
        <ele>140.00999999999999</ele>
        <time>2026-06-29T06:18:45Z</time>
      </trkpt>
      <trkpt lat="51.773517960682511" lon="-10.13221001252532">
        <ele>142.88999999999999</ele>
        <time>2026-06-29T06:18:48Z</time>
      </trkpt>
      <trkpt lat="51.7735980078578" lon="-10.132299028337002">
        <ele>144.34</ele>
        <time>2026-06-29T06:18:49Z</time>
      </trkpt>
      <trkpt lat="51.7737499717623" lon="-10.132470019161701">
        <ele>146.25999999999999</ele>
        <time>2026-06-29T06:18:51Z</time>
      </trkpt>
      <trkpt lat="51.773936972022057" lon="-10.132676968351007">
        <ele>149.62</ele>
        <time>2026-06-29T06:18:57Z</time>
      </trkpt>
      <trkpt lat="51.773957004770637" lon="-10.132876038551331">
        <ele>149.62</ele>
        <time>2026-06-29T06:19:01Z</time>
      </trkpt>
      <trkpt lat="51.773935966193676" lon="-10.132948961108923">
        <ele>149.62</ele>
        <time>2026-06-29T06:19:02Z</time>
      </trkpt>
      <trkpt lat="51.773901013657451" lon="-10.133074019104242">
        <ele>149.13999999999999</ele>
        <time>2026-06-29T06:19:03Z</time>
      </trkpt>
      <trkpt lat="51.773604964837432" lon="-10.134150004014373">
        <ele>148.18000000000001</ele>
        <time>2026-06-29T06:19:08Z</time>
      </trkpt>
      <trkpt lat="51.773037007078528" lon="-10.136474976316094">
        <ele>152.03</ele>
        <time>2026-06-29T06:19:16Z</time>
      </trkpt>
      <trkpt lat="51.772879008203745" lon="-10.137483989819884">
        <ele>154.91</ele>
        <time>2026-06-29T06:19:20Z</time>
      </trkpt>
      <trkpt lat="51.772772977128625" lon="-10.137727987021208">
        <ele>155.38999999999999</ele>
        <time>2026-06-29T06:19:21Z</time>
      </trkpt>
      <trkpt lat="51.772681027650833" lon="-10.137936025857925">
        <ele>155.38999999999999</ele>
        <time>2026-06-29T06:19:22Z</time>
      </trkpt>
      <trkpt lat="51.77235396578908" lon="-10.138705987483263">
        <ele>158.27000000000001</ele>
        <time>2026-06-29T06:19:26Z</time>
      </trkpt>
      <trkpt lat="51.771992035210133" lon="-10.140647990629077">
        <ele>161.16</ele>
        <time>2026-06-29T06:19:34Z</time>
      </trkpt>
      <trkpt lat="51.771976025775075" lon="-10.141097009181976">
        <ele>161.63999999999999</ele>
        <time>2026-06-29T06:19:36Z</time>
      </trkpt>
      <trkpt lat="51.772016007453203" lon="-10.141287026926875">
        <ele>162.12</ele>
        <time>2026-06-29T06:19:37Z</time>
      </trkpt>
      <trkpt lat="51.772058000788093" lon="-10.141441002488136">
        <ele>162.12</ele>
        <time>2026-06-29T06:19:38Z</time>
      </trkpt>
      <trkpt lat="51.772137964144349" lon="-10.141593972221017">
        <ele>162.12</ele>
        <time>2026-06-29T06:19:39Z</time>
      </trkpt>
      <trkpt lat="51.772217005491257" lon="-10.141745014116168">
        <ele>162.59999999999999</ele>
        <time>2026-06-29T06:19:40Z</time>
      </trkpt>
      <trkpt lat="51.772295041009784" lon="-10.141913993284106">
        <ele>162.59999999999999</ele>
        <time>2026-06-29T06:19:41Z</time>
      </trkpt>
      <trkpt lat="51.772349020466208" lon="-10.142080960795283">
        <ele>163.08000000000001</ele>
        <time>2026-06-29T06:19:42Z</time>
      </trkpt>
      <trkpt lat="51.772669963538647" lon="-10.142957959324121">
        <ele>165</ele>
        <time>2026-06-29T06:19:47Z</time>
      </trkpt>
      <trkpt lat="51.773012029007077" lon="-10.143649969249964">
        <ele>166.44999999999999</ele>
        <time>2026-06-29T06:19:51Z</time>
      </trkpt>
      <trkpt lat="51.773063996806741" lon="-10.143840992823243">
        <ele>166.93000000000001</ele>
        <time>2026-06-29T06:19:52Z</time>
      </trkpt>
      <trkpt lat="51.773344036191702" lon="-10.144862998276949">
        <ele>169.33000000000001</ele>
        <time>2026-06-29T06:19:59Z</time>
      </trkpt>
      <trkpt lat="51.773473033681512" lon="-10.145085034891963">
        <ele>170.28999999999999</ele>
        <time>2026-06-29T06:20:03Z</time>
      </trkpt>
      <trkpt lat="51.773501029238105" lon="-10.145130967721343">
        <ele>170.28999999999999</ele>
        <time>2026-06-29T06:20:04Z</time>
      </trkpt>
      <trkpt lat="51.773522989824414" lon="-10.1451660040766">
        <ele>170.28999999999999</ele>
        <time>2026-06-29T06:20:12Z</time>
      </trkpt>
      <trkpt lat="51.773522989824414" lon="-10.1451660040766">
        <ele>170.28999999999999</ele>
        <time>2026-06-29T06:20:40Z</time>
      </trkpt>
      <trkpt lat="51.773559032008052" lon="-10.14520900323987">
        <ele>169.81</ele>
        <time>2026-06-29T06:21:36Z</time>
      </trkpt>
      <trkpt lat="51.773587027564645" lon="-10.145242027938366">
        <ele>169.81</ele>
        <time>2026-06-29T06:21:37Z</time>
      </trkpt>
      <trkpt lat="51.773679982870817" lon="-10.145351998507977">
        <ele>170.28999999999999</ele>
        <time>2026-06-29T06:21:39Z</time>
      </trkpt>
      <trkpt lat="51.77375097759068" lon="-10.145435985177755">
        <ele>170.28999999999999</ele>
        <time>2026-06-29T06:21:40Z</time>
      </trkpt>
      <trkpt lat="51.773825995624065" lon="-10.145525000989437">
        <ele>170.77000000000001</ele>
        <time>2026-06-29T06:21:41Z</time>
      </trkpt>
      <trkpt lat="51.77409497089684" lon="-10.14591702260077">
        <ele>170.77000000000001</ele>
        <time>2026-06-29T06:21:45Z</time>
      </trkpt>
      <trkpt lat="51.774166971445084" lon="-10.146052977070212">
        <ele>171.25</ele>
        <time>2026-06-29T06:21:46Z</time>
      </trkpt>
      <trkpt lat="51.774231009185314" lon="-10.14617501758039">
        <ele>171.25</ele>
        <time>2026-06-29T06:21:47Z</time>
      </trkpt>
      <trkpt lat="51.774265039712191" lon="-10.146367968991399">
        <ele>171.72999999999999</ele>
        <time>2026-06-29T06:21:48Z</time>
      </trkpt>
      <trkpt lat="51.774296974763274" lon="-10.146552035585046">
        <ele>172.21000000000001</ele>
        <time>2026-06-29T06:21:49Z</time>
      </trkpt>
      <trkpt lat="51.77432999946177" lon="-10.146736018359661">
        <ele>172.69</ele>
        <time>2026-06-29T06:21:50Z</time>
      </trkpt>
      <trkpt lat="51.774363024160266" lon="-10.146922012791038">
        <ele>173.16999999999999</ele>
        <time>2026-06-29T06:21:51Z</time>
      </trkpt>
      <trkpt lat="51.774426978081465" lon="-10.147284027189016">
        <ele>173.66</ele>
        <time>2026-06-29T06:21:53Z</time>
      </trkpt>
      <trkpt lat="51.774460002779961" lon="-10.147467004135251">
        <ele>174.13999999999999</ele>
        <time>2026-06-29T06:21:54Z</time>
      </trkpt>
      <trkpt lat="51.774527980014682" lon="-10.147631959989667">
        <ele>174.62</ele>
        <time>2026-06-29T06:21:55Z</time>
      </trkpt>
      <trkpt lat="51.774601992219687" lon="-10.147785013541579">
        <ele>174.62</ele>
        <time>2026-06-29T06:21:56Z</time>
      </trkpt>
      <trkpt lat="51.774678016081452" lon="-10.147943012416363">
        <ele>175.09999999999999</ele>
        <time>2026-06-29T06:21:57Z</time>
      </trkpt>
      <trkpt lat="51.775489971041679" lon="-10.149352010339499">
        <ele>177.5</ele>
        <time>2026-06-29T06:22:06Z</time>
      </trkpt>
      <trkpt lat="51.775564989075065" lon="-10.149532975628972">
        <ele>177.97999999999999</ele>
        <time>2026-06-29T06:22:07Z</time>
      </trkpt>
      <trkpt lat="51.775629026815295" lon="-10.149716036394238">
        <ele>178.94</ele>
        <time>2026-06-29T06:22:08Z</time>
      </trkpt>
      <trkpt lat="51.775826001539826" lon="-10.150539977476001">
        <ele>180.38</ele>
        <time>2026-06-29T06:22:12Z</time>
      </trkpt>
      <trkpt lat="51.775903031229973" lon="-10.151232993230224">
        <ele>181.34999999999999</ele>
        <time>2026-06-29T06:22:15Z</time>
      </trkpt>
      <trkpt lat="51.775917029008269" lon="-10.151470033451915">
        <ele>181.83000000000001</ele>
        <time>2026-06-29T06:22:16Z</time>
      </trkpt>
      <trkpt lat="51.77591803483665" lon="-10.151712018996477">
        <ele>182.31</ele>
        <time>2026-06-29T06:22:17Z</time>
      </trkpt>
      <trkpt lat="51.775896996259689" lon="-10.151948975399137">
        <ele>182.78999999999999</ele>
        <time>2026-06-29T06:22:18Z</time>
      </trkpt>
      <trkpt lat="51.77587796933949" lon="-10.152167994529009">
        <ele>182.78999999999999</ele>
        <time>2026-06-29T06:22:19Z</time>
      </trkpt>
      <trkpt lat="51.775851985439658" lon="-10.152383996173739">
        <ele>183.27000000000001</ele>
        <time>2026-06-29T06:22:20Z</time>
      </trkpt>
      <trkpt lat="51.77578903734684" lon="-10.152587005868554">
        <ele>183.75</ele>
        <time>2026-06-29T06:22:21Z</time>
      </trkpt>
      <trkpt lat="51.775723993778229" lon="-10.152796972543001">
        <ele>183.75</ele>
        <time>2026-06-29T06:22:22Z</time>
      </trkpt>
      <trkpt lat="51.775658028200269" lon="-10.153010962530971">
        <ele>184.71000000000001</ele>
        <time>2026-06-29T06:22:23Z</time>
      </trkpt>
      <trkpt lat="51.775099039077759" lon="-10.155055979266763">
        <ele>189.52000000000001</ele>
        <time>2026-06-29T06:22:32Z</time>
      </trkpt>
      <trkpt lat="51.774708023294806" lon="-10.157784959301353">
        <ele>194.80000000000001</ele>
        <time>2026-06-29T06:22:43Z</time>
      </trkpt>
      <trkpt lat="51.774674998596311" lon="-10.158026022836566">
        <ele>194.80000000000001</ele>
        <time>2026-06-29T06:22:44Z</time>
      </trkpt>
      <trkpt lat="51.774510964751244" lon="-10.159887978807092">
        <ele>198.16999999999999</ele>
        <time>2026-06-29T06:22:52Z</time>
      </trkpt>
      <trkpt lat="51.774535020813346" lon="-10.160045977681875">
        <ele>198.65000000000001</ele>
        <time>2026-06-29T06:22:53Z</time>
      </trkpt>
      <trkpt lat="51.774566033855081" lon="-10.160218980163336">
        <ele>198.65000000000001</ele>
        <time>2026-06-29T06:22:54Z</time>
      </trkpt>
      <trkpt lat="51.774604003876448" lon="-10.160403968766332">
        <ele>199.13</ele>
        <time>2026-06-29T06:22:55Z</time>
      </trkpt>
      <trkpt lat="51.774668041616678" lon="-10.160590969026089">
        <ele>199.13</ele>
        <time>2026-06-29T06:22:56Z</time>
      </trkpt>
      <trkpt lat="51.77473702467978" lon="-10.160790961235762">
        <ele>200.09</ele>
        <time>2026-06-29T06:22:57Z</time>
      </trkpt>
      <trkpt lat="51.774808019399643" lon="-10.160996988415718">
        <ele>200.09</ele>
        <time>2026-06-29T06:22:58Z</time>
      </trkpt>
      <trkpt lat="51.774850012734532" lon="-10.16121600754559">
        <ele>200.56999999999999</ele>
        <time>2026-06-29T06:22:59Z</time>
      </trkpt>
      <trkpt lat="51.774879014119506" lon="-10.161448018625379">
        <ele>201.05000000000001</ele>
        <time>2026-06-29T06:23:00Z</time>
      </trkpt>
      <trkpt lat="51.774939028546214" lon="-10.161930983886123">
        <ele>202.00999999999999</ele>
        <time>2026-06-29T06:23:02Z</time>
      </trkpt>
      <trkpt lat="51.774969035759568" lon="-10.162169029936194">
        <ele>202.00999999999999</ele>
        <time>2026-06-29T06:23:03Z</time>
      </trkpt>
      <trkpt lat="51.774996025487781" lon="-10.162386959418654">
        <ele>202.97999999999999</ele>
        <time>2026-06-29T06:23:04Z</time>
      </trkpt>
      <trkpt lat="51.775007005780935" lon="-10.162604972720146">
        <ele>202.97999999999999</ele>
        <time>2026-06-29T06:23:05Z</time>
      </trkpt>
      <trkpt lat="51.775013040751219" lon="-10.162819968536496">
        <ele>203.46000000000001</ele>
        <time>2026-06-29T06:23:06Z</time>
      </trkpt>
      <trkpt lat="51.77501798607409" lon="-10.16304200515151">
        <ele>203.94</ele>
        <time>2026-06-29T06:23:07Z</time>
      </trkpt>
      <trkpt lat="51.775024021044374" lon="-10.163263035938144">
        <ele>204.41999999999999</ele>
        <time>2026-06-29T06:23:08Z</time>
      </trkpt>
      <trkpt lat="51.775061991065741" lon="-10.163488006219268">
        <ele>204.41999999999999</ele>
        <time>2026-06-29T06:23:09Z</time>
      </trkpt>
      <trkpt lat="51.775107001885772" lon="-10.163714988157153">
        <ele>204.90000000000001</ele>
        <time>2026-06-29T06:23:10Z</time>
      </trkpt>
      <trkpt lat="51.775349993258715" lon="-10.164861967787147">
        <ele>207.30000000000001</ele>
        <time>2026-06-29T06:23:15Z</time>
      </trkpt>
      <trkpt lat="51.775414030998945" lon="-10.165063971653581">
        <ele>207.78</ele>
        <time>2026-06-29T06:23:16Z</time>
      </trkpt>
      <trkpt lat="51.77549097687006" lon="-10.165252983570099">
        <ele>207.78</ele>
        <time>2026-06-29T06:23:17Z</time>
      </trkpt>
      <trkpt lat="51.775574963539839" lon="-10.165435960516334">
        <ele>208.25999999999999</ele>
        <time>2026-06-29T06:23:18Z</time>
      </trkpt>
      <trkpt lat="51.775655010715127" lon="-10.165613992139697">
        <ele>208.74000000000001</ele>
        <time>2026-06-29T06:23:19Z</time>
      </trkpt>
      <trkpt lat="51.775733968243003" lon="-10.165788000449538">
        <ele>209.22</ele>
        <time>2026-06-29T06:23:20Z</time>
      </trkpt>
      <trkpt lat="51.776162032037973" lon="-10.166601967066526">
        <ele>211.15000000000001</ele>
        <time>2026-06-29T06:23:27Z</time>
      </trkpt>
      <trkpt lat="51.776162032037973" lon="-10.166601967066526">
        <ele>210.66999999999999</ele>
        <time>2026-06-29T06:23:28Z</time>
      </trkpt>
      <trkpt lat="51.776162032037973" lon="-10.166601967066526">
        <ele>210.66999999999999</ele>
        <time>2026-06-29T06:23:29Z</time>
      </trkpt>
      <trkpt lat="51.776162032037973" lon="-10.166601967066526">
        <ele>210.66999999999999</ele>
        <time>2026-06-29T06:23:30Z</time>
      </trkpt>
      <trkpt lat="51.776210982352495" lon="-10.166862979531288">
        <ele>210.66999999999999</ele>
        <time>2026-06-29T06:23:31Z</time>
      </trkpt>
      <trkpt lat="51.776221040636301" lon="-10.167190041393042">
        <ele>210.66999999999999</ele>
        <time>2026-06-29T06:23:41Z</time>
      </trkpt>
      <trkpt lat="51.776223974302411" lon="-10.1671870239079">
        <ele>210.66999999999999</ele>
        <time>2026-06-29T06:24:20Z</time>
      </trkpt>
      <trkpt lat="51.776225985959172" lon="-10.167236980050802">
        <ele>212.11000000000001</ele>
        <time>2026-06-29T06:24:48Z</time>
      </trkpt>
      <trkpt lat="51.77641399204731" lon="-10.167430015280843">
        <ele>216.43000000000001</ele>
        <time>2026-06-29T06:24:54Z</time>
      </trkpt>
      <trkpt lat="51.776511976495385" lon="-10.167128015309572">
        <ele>214.99000000000001</ele>
        <time>2026-06-29T06:25:01Z</time>
      </trkpt>
      <trkpt lat="51.776502002030611" lon="-10.167068000882864">
        <ele>214.50999999999999</ele>
        <time>2026-06-29T06:25:02Z</time>
      </trkpt>
      <trkpt lat="51.776461014524102" lon="-10.166818974539638">
        <ele>213.06999999999999</ele>
        <time>2026-06-29T06:25:12Z</time>
      </trkpt>
      <trkpt lat="51.776419021189213" lon="-10.166644966229796">
        <ele>213.06999999999999</ele>
        <time>2026-06-29T06:25:13Z</time>
      </trkpt>
      <trkpt lat="51.776436958462" lon="-10.166619988158345">
        <ele>213.06999999999999</ele>
        <time>2026-06-29T06:25:14Z</time>
      </trkpt>
      <trkpt lat="51.776486998423934" lon="-10.166548993438482">
        <ele>213.06999999999999</ele>
        <time>2026-06-29T06:25:15Z</time>
      </trkpt>
      <trkpt lat="51.77692998200655" lon="-10.165664032101631">
        <ele>212.59</ele>
        <time>2026-06-29T06:25:21Z</time>
      </trkpt>
      <trkpt lat="51.777108013629913" lon="-10.165316015481949">
        <ele>212.11000000000001</ele>
        <time>2026-06-29T06:25:23Z</time>
      </trkpt>
      <trkpt lat="51.77723198197782" lon="-10.165209984406829">
        <ele>212.11000000000001</ele>
        <time>2026-06-29T06:25:24Z</time>
      </trkpt>
      <trkpt lat="51.777496011927724" lon="-10.164984008297324">
        <ele>211.63</ele>
        <time>2026-06-29T06:25:26Z</time>
      </trkpt>
      <trkpt lat="51.777601959183812" lon="-10.164841013029218">
        <ele>211.63</ele>
        <time>2026-06-29T06:25:27Z</time>
      </trkpt>
      <trkpt lat="51.777706984430552" lon="-10.164671028032899">
        <ele>211.63</ele>
        <time>2026-06-29T06:25:28Z</time>
      </trkpt>
      <trkpt lat="51.777773033827543" lon="-10.164489978924394">
        <ele>211.15000000000001</ele>
        <time>2026-06-29T06:25:29Z</time>
      </trkpt>
      <trkpt lat="51.777848973870277" lon="-10.164282023906708">
        <ele>211.63</ele>
        <time>2026-06-29T06:25:30Z</time>
      </trkpt>
      <trkpt lat="51.778493961319327" lon="-10.162661969661713">
        <ele>211.15000000000001</ele>
        <time>2026-06-29T06:25:37Z</time>
      </trkpt>
      <trkpt lat="51.779025038704276" lon="-10.160888023674488">
        <ele>206.34</ele>
        <time>2026-06-29T06:25:44Z</time>
      </trkpt>
      <trkpt lat="51.779150012880564" lon="-10.160217974334955">
        <ele>204.41999999999999</ele>
        <time>2026-06-29T06:25:47Z</time>
      </trkpt>
      <trkpt lat="51.779158981516957" lon="-10.159974982962012">
        <ele>203.46000000000001</ele>
        <time>2026-06-29T06:25:48Z</time>
      </trkpt>
      <trkpt lat="51.779157975688577" lon="-10.159718999639153">
        <ele>202.97999999999999</ele>
        <time>2026-06-29T06:25:49Z</time>
      </trkpt>
      <trkpt lat="51.779134003445506" lon="-10.159457987174392">
        <ele>202.49000000000001</ele>
        <time>2026-06-29T06:25:50Z</time>
      </trkpt>
      <trkpt lat="51.779110031202435" lon="-10.159199992194772">
        <ele>201.53</ele>
        <time>2026-06-29T06:25:51Z</time>
      </trkpt>
      <trkpt lat="51.779095027595758" lon="-10.158514017239213">
        <ele>199.61000000000001</ele>
        <time>2026-06-29T06:25:54Z</time>
      </trkpt>
      <trkpt lat="51.779129980131984" lon="-10.158312013372779">
        <ele>198.65000000000001</ele>
        <time>2026-06-29T06:25:55Z</time>
      </trkpt>
      <trkpt lat="51.779166022315621" lon="-10.158104980364442">
        <ele>198.16999999999999</ele>
        <time>2026-06-29T06:25:56Z</time>
      </trkpt>
      <trkpt lat="51.779253026470542" lon="-10.157919991761446">
        <ele>197.69</ele>
        <time>2026-06-29T06:25:57Z</time>
      </trkpt>
      <trkpt lat="51.779345981776714" lon="-10.157723017036915">
        <ele>197.21000000000001</ele>
        <time>2026-06-29T06:25:58Z</time>
      </trkpt>
      <trkpt lat="51.779440026730299" lon="-10.157523024827242">
        <ele>197.21000000000001</ele>
        <time>2026-06-29T06:25:59Z</time>
      </trkpt>
      <trkpt lat="51.779531976208091" lon="-10.15732797794044">
        <ele>196.72999999999999</ele>
        <time>2026-06-29T06:26:00Z</time>
      </trkpt>
      <trkpt lat="51.77970003336668" lon="-10.156956994906068">
        <ele>195.77000000000001</ele>
        <time>2026-06-29T06:26:02Z</time>
      </trkpt>
      <trkpt lat="51.779768010601401" lon="-10.156763037666678">
        <ele>195.28</ele>
        <time>2026-06-29T06:26:03Z</time>
      </trkpt>
      <trkpt lat="51.780250975862145" lon="-10.155467027798295">
        <ele>192.40000000000001</ele>
        <time>2026-06-29T06:26:09Z</time>
      </trkpt>
      <trkpt lat="51.780369998887181" lon="-10.155283967033029">
        <ele>191.91999999999999</ele>
        <time>2026-06-29T06:26:10Z</time>
      </trkpt>
      <trkpt lat="51.780760008841753" lon="-10.154820028692484">
        <ele>190.47999999999999</ele>
        <time>2026-06-29T06:26:13Z</time>
      </trkpt>
      <trkpt lat="51.780908033251762" lon="-10.154721038416028">
        <ele>189.52000000000001</ele>
        <time>2026-06-29T06:26:14Z</time>
      </trkpt>
      <trkpt lat="51.781070977449417" lon="-10.154653983190656">
        <ele>189.03999999999999</ele>
        <time>2026-06-29T06:26:15Z</time>
      </trkpt>
      <trkpt lat="51.782029028981924" lon="-10.154375033453107">
        <ele>183.75</ele>
        <time>2026-06-29T06:26:21Z</time>
      </trkpt>
      <trkpt lat="51.782164983451366" lon="-10.154436975717545">
        <ele>182.78999999999999</ele>
        <time>2026-06-29T06:26:22Z</time>
      </trkpt>
      <trkpt lat="51.782305967062712" lon="-10.154529009014368">
        <ele>181.83000000000001</ele>
        <time>2026-06-29T06:26:23Z</time>
      </trkpt>
      <trkpt lat="51.782452985644341" lon="-10.15464199706912">
        <ele>180.87</ele>
        <time>2026-06-29T06:26:24Z</time>
      </trkpt>
      <trkpt lat="51.782578965649009" lon="-10.15481298789382">
        <ele>180.38</ele>
        <time>2026-06-29T06:26:25Z</time>
      </trkpt>
      <trkpt lat="51.782701006159186" lon="-10.154980039224029">
        <ele>179.90000000000001</ele>
        <time>2026-06-29T06:26:26Z</time>
      </trkpt>
      <trkpt lat="51.782822962850332" lon="-10.155146000906825">
        <ele>178.94</ele>
        <time>2026-06-29T06:26:27Z</time>
      </trkpt>
      <trkpt lat="51.783914035186172" lon="-10.156520968303084">
        <ele>174.13999999999999</ele>
        <time>2026-06-29T06:26:36Z</time>
      </trkpt>
      <trkpt lat="51.784064993262291" lon="-10.156605960801244">
        <ele>173.16999999999999</ele>
        <time>2026-06-29T06:26:37Z</time>
      </trkpt>
      <trkpt lat="51.784218968823552" lon="-10.156691959127784">
        <ele>173.16999999999999</ele>
        <time>2026-06-29T06:26:38Z</time>
      </trkpt>
      <trkpt lat="51.784378979355097" lon="-10.156731018796563">
        <ele>172.21000000000001</ele>
        <time>2026-06-29T06:26:39Z</time>
      </trkpt>
      <trkpt lat="51.784546030685306" lon="-10.156759014353156">
        <ele>171.72999999999999</ele>
        <time>2026-06-29T06:26:40Z</time>
      </trkpt>
      <trkpt lat="51.78470796905458" lon="-10.156786004081368">
        <ele>171.25</ele>
        <time>2026-06-29T06:26:41Z</time>
      </trkpt>
      <trkpt lat="51.784863034263253" lon="-10.1568119879812">
        <ele>170.77000000000001</ele>
        <time>2026-06-29T06:26:42Z</time>
      </trkpt>
      <trkpt lat="51.785023966804147" lon="-10.156838977709413">
        <ele>170.28999999999999</ele>
        <time>2026-06-29T06:26:43Z</time>
      </trkpt>
      <trkpt lat="51.785152964293957" lon="-10.156958000734448">
        <ele>169.33000000000001</ele>
        <time>2026-06-29T06:26:44Z</time>
      </trkpt>
      <trkpt lat="51.785285985097289" lon="-10.157080041244626">
        <ele>168.84999999999999</ele>
        <time>2026-06-29T06:26:45Z</time>
      </trkpt>
      <trkpt lat="51.78541598841548" lon="-10.157199986279011">
        <ele>168.37</ele>
        <time>2026-06-29T06:26:46Z</time>
      </trkpt>
      <trkpt lat="51.786523992195725" lon="-10.157902976498008">
        <ele>164.52000000000001</ele>
        <time>2026-06-29T06:26:54Z</time>
      </trkpt>
      <trkpt lat="51.787904994562268" lon="-10.159324966371059">
        <ele>159.72</ele>
        <time>2026-06-29T06:27:05Z</time>
      </trkpt>
      <trkpt lat="51.789510967209935" lon="-10.16119203530252">
        <ele>153.94999999999999</ele>
        <time>2026-06-29T06:27:18Z</time>
      </trkpt>
      <trkpt lat="51.790346978232265" lon="-10.16256800852716">
        <ele>149.13999999999999</ele>
        <time>2026-06-29T06:27:26Z</time>
      </trkpt>
      <trkpt lat="51.791165973991156" lon="-10.163654973730445">
        <ele>146.25999999999999</ele>
        <time>2026-06-29T06:27:33Z</time>
      </trkpt>
      <trkpt lat="51.791286002844572" lon="-10.163739966228604">
        <ele>145.78</ele>
        <time>2026-06-29T06:27:34Z</time>
      </trkpt>
      <trkpt lat="51.791406031697989" lon="-10.163824036717415">
        <ele>144.81999999999999</ele>
        <time>2026-06-29T06:27:35Z</time>
      </trkpt>
      <trkpt lat="51.79166603833437" lon="-10.16400701366365">
        <ele>144.34</ele>
        <time>2026-06-29T06:27:37Z</time>
      </trkpt>
      <trkpt lat="51.791807021945715" lon="-10.164106003940105">
        <ele>143.84999999999999</ele>
        <time>2026-06-29T06:27:38Z</time>
      </trkpt>
      <trkpt lat="51.791941970586777" lon="-10.164241958409548">
        <ele>143.37</ele>
        <time>2026-06-29T06:27:39Z</time>
      </trkpt>
      <trkpt lat="51.793173020705581" lon="-10.165642993524671">
        <ele>138.09</ele>
        <time>2026-06-29T06:27:49Z</time>
      </trkpt>
      <trkpt lat="51.794082960113883" lon="-10.166569026187062">
        <ele>134.24000000000001</ele>
        <time>2026-06-29T06:27:56Z</time>
      </trkpt>
      <trkpt lat="51.794230984523892" lon="-10.166646977886558">
        <ele>133.75999999999999</ele>
        <time>2026-06-29T06:27:57Z</time>
      </trkpt>
      <trkpt lat="51.794378003105521" lon="-10.166707998141646">
        <ele>133.28</ele>
        <time>2026-06-29T06:27:58Z</time>
      </trkpt>
      <trkpt lat="51.794681008905172" lon="-10.166833978146315">
        <ele>132.31999999999999</ele>
        <time>2026-06-29T06:28:00Z</time>
      </trkpt>
      <trkpt lat="51.794991977512836" lon="-10.166897010058165">
        <ele>131.36000000000001</ele>
        <time>2026-06-29T06:28:02Z</time>
      </trkpt>
      <trkpt lat="51.795173026621342" lon="-10.166923999786377">
        <ele>131.36000000000001</ele>
        <time>2026-06-29T06:28:03Z</time>
      </trkpt>
      <trkpt lat="51.795303029939532" lon="-10.166873959824443">
        <ele>130.88</ele>
        <time>2026-06-29T06:28:04Z</time>
      </trkpt>
      <trkpt lat="51.795457005500793" lon="-10.166813023388386">
        <ele>130.88</ele>
        <time>2026-06-29T06:28:05Z</time>
      </trkpt>
      <trkpt lat="51.795613998547196" lon="-10.166752003133297">
        <ele>130.40000000000001</ele>
        <time>2026-06-29T06:28:06Z</time>
      </trkpt>
      <trkpt lat="51.796538019552827" lon="-10.166461989283562">
        <ele>128.47</ele>
        <time>2026-06-29T06:28:12Z</time>
      </trkpt>
      <trkpt lat="51.796676991507411" lon="-10.16649903729558">
        <ele>127.51000000000001</ele>
        <time>2026-06-29T06:28:13Z</time>
      </trkpt>
      <trkpt lat="51.796820992603898" lon="-10.166574977338314">
        <ele>127.03</ele>
        <time>2026-06-29T06:28:14Z</time>
      </trkpt>
      <trkpt lat="51.79796302691102" lon="-10.167181994765997">
        <ele>122.70999999999999</ele>
        <time>2026-06-29T06:28:21Z</time>
      </trkpt>
      <trkpt lat="51.798265026882291" lon="-10.167286014184356">
        <ele>121.26000000000001</ele>
        <time>2026-06-29T06:28:23Z</time>
      </trkpt>
      <trkpt lat="51.798425037413836" lon="-10.16733999364078">
        <ele>120.78</ele>
        <time>2026-06-29T06:28:24Z</time>
      </trkpt>
      <trkpt lat="51.798580018803477" lon="-10.167393973097205">
        <ele>119.81999999999999</ele>
        <time>2026-06-29T06:28:25Z</time>
      </trkpt>
      <trkpt lat="51.798733994364738" lon="-10.167420040816069">
        <ele>118.86</ele>
        <time>2026-06-29T06:28:26Z</time>
      </trkpt>
      <trkpt lat="51.798897022381425" lon="-10.16742498613894">
        <ele>117.90000000000001</ele>
        <time>2026-06-29T06:28:27Z</time>
      </trkpt>
      <trkpt lat="51.799062984064221" lon="-10.167430015280843">
        <ele>117.42</ele>
        <time>2026-06-29T06:28:28Z</time>
      </trkpt>
      <trkpt lat="51.799373030662537" lon="-10.167438983917236">
        <ele>115.98</ele>
        <time>2026-06-29T06:28:30Z</time>
      </trkpt>
      <trkpt lat="51.799518959596753" lon="-10.167503021657467">
        <ele>115.5</ele>
        <time>2026-06-29T06:28:31Z</time>
      </trkpt>
      <trkpt lat="51.79966296069324" lon="-10.167573010548949">
        <ele>114.53</ele>
        <time>2026-06-29T06:28:32Z</time>
      </trkpt>
      <trkpt lat="51.79978902451694" lon="-10.167698990553617">
        <ele>113.56999999999999</ele>
        <time>2026-06-29T06:28:33Z</time>
      </trkpt>
      <trkpt lat="51.799916010349989" lon="-10.167824970558286">
        <ele>112.61</ele>
        <time>2026-06-29T06:28:34Z</time>
      </trkpt>
      <trkpt lat="51.800167970359325" lon="-10.168038960546255">
        <ele>112.13</ele>
        <time>2026-06-29T06:28:36Z</time>
      </trkpt>
      <trkpt lat="51.800297973677516" lon="-10.168121019378304">
        <ele>111.17</ele>
        <time>2026-06-29T06:28:37Z</time>
      </trkpt>
      <trkpt lat="51.800427976995707" lon="-10.168190002441406">
        <ele>110.69</ele>
        <time>2026-06-29T06:28:38Z</time>
      </trkpt>
      <trkpt lat="51.800567032769322" lon="-10.168190002441406">
        <ele>110.69</ele>
        <time>2026-06-29T06:28:39Z</time>
      </trkpt>
      <trkpt lat="51.800708016380668" lon="-10.168190002441406">
        <ele>110.20999999999999</ele>
        <time>2026-06-29T06:28:40Z</time>
      </trkpt>
      <trkpt lat="51.800850005820394" lon="-10.168172987177968">
        <ele>109.73</ele>
        <time>2026-06-29T06:28:41Z</time>
      </trkpt>
      <trkpt lat="51.800994006916881" lon="-10.168139962479472">
        <ele>109.25</ele>
        <time>2026-06-29T06:28:42Z</time>
      </trkpt>
      <trkpt lat="51.801881985738873" lon="-10.167937958613038">
        <ele>106.36</ele>
        <time>2026-06-29T06:28:48Z</time>
      </trkpt>
      <trkpt lat="51.802020035684109" lon="-10.167892025783658">
        <ele>105.88</ele>
        <time>2026-06-29T06:28:49Z</time>
      </trkpt>
      <trkpt lat="51.802146015688777" lon="-10.167777026072145">
        <ele>105.40000000000001</ele>
        <time>2026-06-29T06:28:50Z</time>
      </trkpt>
      <trkpt lat="51.802257997915149" lon="-10.167632019147277">
        <ele>104.92</ele>
        <time>2026-06-29T06:28:51Z</time>
      </trkpt>
      <trkpt lat="51.802351959049702" lon="-10.167473014444113">
        <ele>104.44</ele>
        <time>2026-06-29T06:28:52Z</time>
      </trkpt>
      <trkpt lat="51.802395964041352" lon="-10.167280985042453">
        <ele>103.95999999999999</ele>
        <time>2026-06-29T06:28:53Z</time>
      </trkpt>
      <trkpt lat="51.802441980689764" lon="-10.167078981176019">
        <ele>103.48</ele>
        <time>2026-06-29T06:28:54Z</time>
      </trkpt>
      <trkpt lat="51.802487997338176" lon="-10.166877983137965">
        <ele>103.48</ele>
        <time>2026-06-29T06:28:55Z</time>
      </trkpt>
      <trkpt lat="51.802549017593265" lon="-10.166703974828124">
        <ele>103</ele>
        <time>2026-06-29T06:28:56Z</time>
      </trkpt>
      <trkpt lat="51.802635015919805" lon="-10.166545975953341">
        <ele>102.04000000000001</ele>
        <time>2026-06-29T06:28:57Z</time>
      </trkpt>
      <trkpt lat="51.802750015631318" lon="-10.166407003998756">
        <ele>102.04000000000001</ele>
        <time>2026-06-29T06:28:58Z</time>
      </trkpt>
      <trkpt lat="51.802875995635986" lon="-10.166281023994088">
        <ele>101.56</ele>
        <time>2026-06-29T06:28:59Z</time>
      </trkpt>
      <trkpt lat="51.803009016439319" lon="-10.166148003190756">
        <ele>101.08</ele>
        <time>2026-06-29T06:29:00Z</time>
      </trkpt>
      <trkpt lat="51.803153017535806" lon="-10.166047001257539">
        <ele>100.11</ele>
        <time>2026-06-29T06:29:01Z</time>
      </trkpt>
      <trkpt lat="51.803298024460673" lon="-10.165952034294605">
        <ele>99.629999999999995</ele>
        <time>2026-06-29T06:29:02Z</time>
      </trkpt>
      <trkpt lat="51.803445965051651" lon="-10.165854971855879">
        <ele>99.150000000000006</ele>
        <time>2026-06-29T06:29:03Z</time>
      </trkpt>
      <trkpt lat="51.803746037185192" lon="-10.165645005181432">
        <ele>97.709999999999994</ele>
        <time>2026-06-29T06:29:05Z</time>
      </trkpt>
      <trkpt lat="51.804507030174136" lon="-10.164820980280638">
        <ele>94.829999999999998</ele>
        <time>2026-06-29T06:29:11Z</time>
      </trkpt>
      <trkpt lat="51.804578024893999" lon="-10.164667004719377">
        <ele>94.349999999999994</ele>
        <time>2026-06-29T06:29:12Z</time>
      </trkpt>
      <trkpt lat="51.804647007957101" lon="-10.164490984752774">
        <ele>93.870000000000005</ele>
        <time>2026-06-29T06:29:13Z</time>
      </trkpt>
      <trkpt lat="51.804694030433893" lon="-10.164281018078327">
        <ele>93.390000000000001</ele>
        <time>2026-06-29T06:29:14Z</time>
      </trkpt>
      <trkpt lat="51.804743986576796" lon="-10.164056969806552">
        <ele>92.900000000000006</ele>
        <time>2026-06-29T06:29:15Z</time>
      </trkpt>
      <trkpt lat="51.804853035137057" lon="-10.16360099427402">
        <ele>91.939999999999998</ele>
        <time>2026-06-29T06:29:17Z</time>
      </trkpt>
      <trkpt lat="51.804934004321694" lon="-10.163393039256334">
        <ele>90.980000000000004</ele>
        <time>2026-06-29T06:29:18Z</time>
      </trkpt>
      <trkpt lat="51.805049004033208" lon="-10.1632359623909">
        <ele>90.980000000000004</ele>
        <time>2026-06-29T06:29:19Z</time>
      </trkpt>
      <trkpt lat="51.805405989289284" lon="-10.162712009623647">
        <ele>90.019999999999996</ele>
        <time>2026-06-29T06:29:22Z</time>
      </trkpt>
      <trkpt lat="51.805498022586107" lon="-10.162496007978916">
        <ele>89.540000000000006</ele>
        <time>2026-06-29T06:29:23Z</time>
      </trkpt>
      <trkpt lat="51.805567005649209" lon="-10.162270031869411">
        <ele>89.060000000000002</ele>
        <time>2026-06-29T06:29:24Z</time>
      </trkpt>
      <trkpt lat="51.805600030347705" lon="-10.162023017182946">
        <ele>88.099999999999994</ele>
        <time>2026-06-29T06:29:25Z</time>
      </trkpt>
      <trkpt lat="51.80563397705555" lon="-10.161770973354578">
        <ele>87.620000000000005</ele>
        <time>2026-06-29T06:29:26Z</time>
      </trkpt>
      <trkpt lat="51.80588903836906" lon="-10.159398978576064">
        <ele>82.810000000000002</ele>
        <time>2026-06-29T06:29:36Z</time>
      </trkpt>
      <trkpt lat="51.805917033925653" lon="-10.159184988588095">
        <ele>82.810000000000002</ele>
        <time>2026-06-29T06:29:37Z</time>
      </trkpt>
      <trkpt lat="51.805990040302277" lon="-10.15900201164186">
        <ele>82.329999999999998</ele>
        <time>2026-06-29T06:29:38Z</time>
      </trkpt>
      <trkpt lat="51.80606497451663" lon="-10.158812999725342">
        <ele>81.849999999999994</ele>
        <time>2026-06-29T06:29:39Z</time>
      </trkpt>
      <trkpt lat="51.806144015863538" lon="-10.158617030829191">
        <ele>81.370000000000005</ele>
        <time>2026-06-29T06:29:40Z</time>
      </trkpt>
      <trkpt lat="51.806229008361697" lon="-10.158431958407164">
        <ele>81.370000000000005</ele>
        <time>2026-06-29T06:29:41Z</time>
      </trkpt>
      <trkpt lat="51.807317985221744" lon="-10.156870996579528">
        <ele>78.480000000000004</ele>
        <time>2026-06-29T06:29:50Z</time>
      </trkpt>
      <trkpt lat="51.808570995926857" lon="-10.155210038647056">
        <ele>73.200000000000003</ele>
        <time>2026-06-29T06:30:00Z</time>
      </trkpt>
      <trkpt lat="51.808658000081778" lon="-10.155116999521852">
        <ele>73.200000000000003</ele>
        <time>2026-06-29T06:30:01Z</time>
      </trkpt>
      <trkpt lat="51.808741986751556" lon="-10.155097972601652">
        <ele>72.719999999999999</ele>
        <time>2026-06-29T06:30:02Z</time>
      </trkpt>
      <trkpt lat="51.808824967592955" lon="-10.155128985643387">
        <ele>72.719999999999999</ele>
        <time>2026-06-29T06:30:03Z</time>
      </trkpt>
      <trkpt lat="51.808927981182933" lon="-10.155197968706489">
        <ele>72.239999999999995</ele>
        <time>2026-06-29T06:30:04Z</time>
      </trkpt>
      <trkpt lat="51.809041975066066" lon="-10.155293019488454">
        <ele>71.760000000000005</ele>
        <time>2026-06-29T06:30:05Z</time>
      </trkpt>
      <trkpt lat="51.809163009747863" lon="-10.155411036685109">
        <ele>71.269999999999996</ele>
        <time>2026-06-29T06:30:06Z</time>
      </trkpt>
      <trkpt lat="51.809279015287757" lon="-10.155555959790945">
        <ele>70.310000000000002</ele>
        <time>2026-06-29T06:30:07Z</time>
      </trkpt>
      <trkpt lat="51.809392003342509" lon="-10.155697027221322">
        <ele>69.829999999999998</ele>
        <time>2026-06-29T06:30:08Z</time>
      </trkpt>
      <trkpt lat="51.809484958648682" lon="-10.155848991125822">
        <ele>68.870000000000005</ele>
        <time>2026-06-29T06:30:09Z</time>
      </trkpt>
      <trkpt lat="51.809548996388912" lon="-10.156034985557199">
        <ele>68.390000000000001</ele>
        <time>2026-06-29T06:30:10Z</time>
      </trkpt>
      <trkpt lat="51.809614039957523" lon="-10.156222991645336">
        <ele>67.909999999999997</ele>
        <time>2026-06-29T06:30:11Z</time>
      </trkpt>
      <trkpt lat="51.80967497639358" lon="-10.15640202909708">
        <ele>67.430000000000007</ele>
        <time>2026-06-29T06:30:12Z</time>
      </trkpt>
      <trkpt lat="51.80976097472012" lon="-10.156539995223284">
        <ele>66.469999999999999</ele>
        <time>2026-06-29T06:30:13Z</time>
      </trkpt>
      <trkpt lat="51.809873962774873" lon="-10.1566600240767">
        <ele>65.989999999999995</ele>
        <time>2026-06-29T06:30:14Z</time>
      </trkpt>
      <trkpt lat="51.809990974143147" lon="-10.156786004081368">
        <ele>65.510000000000005</ele>
        <time>2026-06-29T06:30:15Z</time>
      </trkpt>
      <trkpt lat="51.810119971632957" lon="-10.156847024336457">
        <ele>65.510000000000005</ele>
        <time>2026-06-29T06:30:16Z</time>
      </trkpt>
      <trkpt lat="51.810250980779529" lon="-10.156903015449643">
        <ele>64.549999999999997</ele>
        <time>2026-06-29T06:30:17Z</time>
      </trkpt>
      <trkpt lat="51.810388024896383" lon="-10.156904021278024">
        <ele>64.069999999999993</ele>
        <time>2026-06-29T06:30:18Z</time>
      </trkpt>
      <trkpt lat="51.810534037649632" lon="-10.156868984922767">
        <ele>63.579999999999998</ele>
        <time>2026-06-29T06:30:19Z</time>
      </trkpt>
      <trkpt lat="51.810687007382512" lon="-10.15683202072978">
        <ele>62.619999999999997</ele>
        <time>2026-06-29T06:30:20Z</time>
      </trkpt>
      <trkpt lat="51.810839977115393" lon="-10.156794972717762">
        <ele>61.659999999999997</ele>
        <time>2026-06-29T06:30:21Z</time>
      </trkpt>
      <trkpt lat="51.810988001525402" lon="-10.156720960512757">
        <ele>61.18</ele>
        <time>2026-06-29T06:30:22Z</time>
      </trkpt>
      <trkpt lat="51.811128985136747" lon="-10.156650971621275">
        <ele>60.700000000000003</ele>
        <time>2026-06-29T06:30:23Z</time>
      </trkpt>
      <trkpt lat="51.811266029253602" lon="-10.156603027135134">
        <ele>60.219999999999999</ele>
        <time>2026-06-29T06:30:24Z</time>
      </trkpt>
      <trkpt lat="51.811405001208186" lon="-10.156603027135134">
        <ele>60.219999999999999</ele>
        <time>2026-06-29T06:30:25Z</time>
      </trkpt>
      <trkpt lat="51.81154296733439" lon="-10.156632028520107">
        <ele>59.259999999999998</ele>
        <time>2026-06-29T06:30:26Z</time>
      </trkpt>
      <trkpt lat="51.811680011451244" lon="-10.156696988269687">
        <ele>58.780000000000001</ele>
        <time>2026-06-29T06:30:27Z</time>
      </trkpt>
      <trkpt lat="51.81182200089097" lon="-10.156763959676027">
        <ele>57.82</ele>
        <time>2026-06-29T06:30:28Z</time>
      </trkpt>
      <trkpt lat="51.81283101439476" lon="-10.157736008986831">
        <ele>53.969999999999999</ele>
        <time>2026-06-29T06:30:36Z</time>
      </trkpt>
      <trkpt lat="51.814471017569304" lon="-10.16009802930057">
        <ele>43.399999999999999</ele>
        <time>2026-06-29T06:30:50Z</time>
      </trkpt>
      <trkpt lat="51.816016975790262" lon="-10.162748973816633">
        <ele>34.259999999999998</ele>
        <time>2026-06-29T06:31:04Z</time>
      </trkpt>
      <trkpt lat="51.817333018407226" lon="-10.164615958929062">
        <ele>27.530000000000001</ele>
        <time>2026-06-29T06:31:15Z</time>
      </trkpt>
      <trkpt lat="51.818527020514011" lon="-10.166188990697265">
        <ele>24.170000000000002</ele>
        <time>2026-06-29T06:31:26Z</time>
      </trkpt>
      <trkpt lat="51.818599021062255" lon="-10.166331985965371">
        <ele>23.210000000000001</ele>
        <time>2026-06-29T06:31:27Z</time>
      </trkpt>
      <trkpt lat="51.818672027438879" lon="-10.166477998718619">
        <ele>22.73</ele>
        <time>2026-06-29T06:31:28Z</time>
      </trkpt>
      <trkpt lat="51.818732963874936" lon="-10.166646977886558">
        <ele>22.25</ele>
        <time>2026-06-29T06:31:29Z</time>
      </trkpt>
      <trkpt lat="51.818780992180109" lon="-10.16684303060174">
        <ele>21.77</ele>
        <time>2026-06-29T06:31:30Z</time>
      </trkpt>
      <trkpt lat="51.818830026313663" lon="-10.167048973962665">
        <ele>21.289999999999999</ele>
        <time>2026-06-29T06:31:31Z</time>
      </trkpt>
      <trkpt lat="51.818876964971423" lon="-10.167261958122253">
        <ele>20.809999999999999</ele>
        <time>2026-06-29T06:31:32Z</time>
      </trkpt>
      <trkpt lat="51.819433020427823" lon="-10.170072996988893">
        <ele>15.52</ele>
        <time>2026-06-29T06:31:46Z</time>
      </trkpt>
      <trkpt lat="51.819693027064204" lon="-10.170766012743115">
        <ele>13.119999999999999</ele>
        <time>2026-06-29T06:31:50Z</time>
      </trkpt>
      <trkpt lat="51.819786988198757" lon="-10.170906996354461">
        <ele>12.630000000000001</ele>
        <time>2026-06-29T06:31:51Z</time>
      </trkpt>
      <trkpt lat="51.819882038980722" lon="-10.171049991622567">
        <ele>12.630000000000001</ele>
        <time>2026-06-29T06:31:52Z</time>
      </trkpt>
      <trkpt lat="51.820771023631096" lon="-10.171857001259923">
        <ele>16.48</ele>
        <time>2026-06-29T06:32:00Z</time>
      </trkpt>
      <trkpt lat="51.820911001414061" lon="-10.171886002644897">
        <ele>17.440000000000001</ele>
        <time>2026-06-29T06:32:01Z</time>
      </trkpt>
      <trkpt lat="51.821071011945605" lon="-10.171893965452909">
        <ele>18.399999999999999</ele>
        <time>2026-06-29T06:32:02Z</time>
      </trkpt>
      <trkpt lat="51.82211397215724" lon="-10.171823976561427">
        <ele>24.649999999999999</ele>
        <time>2026-06-29T06:32:09Z</time>
      </trkpt>
      <trkpt lat="51.823256006464362" lon="-10.17176597379148">
        <ele>22.73</ele>
        <time>2026-06-29T06:32:21Z</time>
      </trkpt>
      <trkpt lat="51.824548998847604" lon="-10.171864964067936">
        <ele>19.84</ele>
        <time>2026-06-29T06:32:35Z</time>
      </trkpt>
      <trkpt lat="51.825774013996124" lon="-10.171950040385127">
        <ele>19.359999999999999</ele>
        <time>2026-06-29T06:32:48Z</time>
      </trkpt>
      <trkpt lat="51.82701101526618" lon="-10.172041989862919">
        <ele>17.440000000000001</ele>
        <time>2026-06-29T06:33:02Z</time>
      </trkpt>
      <trkpt lat="51.827256018295884" lon="-10.172079959884286">
        <ele>17.920000000000002</ele>
        <time>2026-06-29T06:33:05Z</time>
      </trkpt>
      <trkpt lat="51.827331036329269" lon="-10.172161012887955">
        <ele>17.920000000000002</ele>
        <time>2026-06-29T06:33:06Z</time>
      </trkpt>
      <trkpt lat="51.827416028827429" lon="-10.172254974022508">
        <ele>18.399999999999999</ele>
        <time>2026-06-29T06:33:07Z</time>
      </trkpt>
      <trkpt lat="51.827500015497208" lon="-10.172375002875924">
        <ele>18.399999999999999</ele>
        <time>2026-06-29T06:33:08Z</time>
      </trkpt>
      <trkpt lat="51.827576039358974" lon="-10.172526966780424">
        <ele>18.879999999999999</ele>
        <time>2026-06-29T06:33:09Z</time>
      </trkpt>
      <trkpt lat="51.827652985230088" lon="-10.172682031989098">
        <ele>18.879999999999999</ele>
        <time>2026-06-29T06:33:10Z</time>
      </trkpt>
      <trkpt lat="51.828032014891505" lon="-10.173404971137643">
        <ele>19.84</ele>
        <time>2026-06-29T06:33:15Z</time>
      </trkpt>
      <trkpt lat="51.828093035146594" lon="-10.173518965020776">
        <ele>19.84</ele>
        <time>2026-06-29T06:33:16Z</time>
      </trkpt>
      <trkpt lat="51.828239969909191" lon="-10.173791041597724">
        <ele>20.809999999999999</ele>
        <time>2026-06-29T06:33:19Z</time>
      </trkpt>
      <trkpt lat="51.82830099016428" lon="-10.173888020217419">
        <ele>21.77</ele>
        <time>2026-06-29T06:33:20Z</time>
      </trkpt>
      <trkpt lat="51.828533001244068" lon="-10.174190020188689">
        <ele>22.73</ele>
        <time>2026-06-29T06:33:23Z</time>
      </trkpt>
      <trkpt lat="51.828631991520524" lon="-10.174259003251791">
        <ele>22.73</ele>
        <time>2026-06-29T06:33:24Z</time>
      </trkpt>
      <trkpt lat="51.828733999282122" lon="-10.174327986314893">
        <ele>22.73</ele>
        <time>2026-06-29T06:33:25Z</time>
      </trkpt>
      <trkpt lat="51.830022968351841" lon="-10.174884963780642">
        <ele>23.690000000000001</ele>
        <time>2026-06-29T06:33:35Z</time>
      </trkpt>
      <trkpt lat="51.831333981826901" lon="-10.175433978438377">
        <ele>25.609999999999999</ele>
        <time>2026-06-29T06:33:45Z</time>
      </trkpt>
      <trkpt lat="51.833376986905932" lon="-10.176291028037667">
        <ele>29.940000000000001</ele>
        <time>2026-06-29T06:33:59Z</time>
      </trkpt>
      <trkpt lat="51.834761006757617" lon="-10.176871977746487">
        <ele>32.340000000000003</ele>
        <time>2026-06-29T06:34:09Z</time>
      </trkpt>
      <trkpt lat="51.837641028687358" lon="-10.178106967359781">
        <ele>29.940000000000001</ele>
        <time>2026-06-29T06:34:26Z</time>
      </trkpt>
      <trkpt lat="51.840199017897248" lon="-10.179192004725337">
        <ele>27.530000000000001</ele>
        <time>2026-06-29T06:34:41Z</time>
      </trkpt>
      <trkpt lat="51.841986961662769" lon="-10.179903963580728">
        <ele>29.940000000000001</ele>
        <time>2026-06-29T06:34:53Z</time>
      </trkpt>
      <trkpt lat="51.843107035383582" lon="-10.179826011881232">
        <ele>30.899999999999999</ele>
        <time>2026-06-29T06:35:00Z</time>
      </trkpt>
      <trkpt lat="51.84355303645134" lon="-10.179540021345019">
        <ele>31.379999999999999</ele>
        <time>2026-06-29T06:35:03Z</time>
      </trkpt>
      <trkpt lat="51.843693014234304" lon="-10.179426027461886">
        <ele>31.859999999999999</ele>
        <time>2026-06-29T06:35:04Z</time>
      </trkpt>
      <trkpt lat="51.843821005895734" lon="-10.179273979738355">
        <ele>31.859999999999999</ele>
        <time>2026-06-29T06:35:05Z</time>
      </trkpt>
      <trkpt lat="51.843946985900402" lon="-10.179116986691952">
        <ele>32.340000000000003</ele>
        <time>2026-06-29T06:35:06Z</time>
      </trkpt>
      <trkpt lat="51.844067014753819" lon="-10.178939960896969">
        <ele>32.340000000000003</ele>
        <time>2026-06-29T06:35:07Z</time>
      </trkpt>
      <trkpt lat="51.845538960769773" lon="-10.176503006368876">
        <ele>34.259999999999998</ele>
        <time>2026-06-29T06:35:20Z</time>
      </trkpt>
      <trkpt lat="51.846582004800439" lon="-10.174755966290832">
        <ele>36.670000000000002</ele>
        <time>2026-06-29T06:35:31Z</time>
      </trkpt>
      <trkpt lat="51.848233994096518" lon="-10.171984992921352">
        <ele>39.07</ele>
        <time>2026-06-29T06:35:46Z</time>
      </trkpt>
      <trkpt lat="51.848788037896156" lon="-10.171085027977824">
        <ele>39.07</ele>
        <time>2026-06-29T06:35:52Z</time>
      </trkpt>
      <trkpt lat="51.848879987373948" lon="-10.170976985245943">
        <ele>39.07</ele>
        <time>2026-06-29T06:35:53Z</time>
      </trkpt>
      <trkpt lat="51.848966991528869" lon="-10.170873971655965">
        <ele>39.07</ele>
        <time>2026-06-29T06:35:54Z</time>
      </trkpt>
      <trkpt lat="51.849041003733873" lon="-10.170787973329425">
        <ele>39.07</ele>
        <time>2026-06-29T06:35:55Z</time>
      </trkpt>
      <trkpt lat="51.849129013717175" lon="-10.170722007751465">
        <ele>39.07</ele>
        <time>2026-06-29T06:35:56Z</time>
      </trkpt>
      <trkpt lat="51.84920403175056" lon="-10.170722007751465">
        <ele>39.549999999999997</ele>
        <time>2026-06-29T06:35:57Z</time>
      </trkpt>
      <trkpt lat="51.849279971793294" lon="-10.170722007751465">
        <ele>39.549999999999997</ele>
        <time>2026-06-29T06:35:58Z</time>
      </trkpt>
      <trkpt lat="51.849363036453724" lon="-10.170745979994535">
        <ele>40.030000000000001</ele>
        <time>2026-06-29T06:35:59Z</time>
      </trkpt>
      <trkpt lat="51.849450962617993" lon="-10.170773975551128">
        <ele>40.030000000000001</ele>
        <time>2026-06-29T06:36:00Z</time>
      </trkpt>
      <trkpt lat="51.850672960281372" lon="-10.171070024371147">
        <ele>40.030000000000001</ele>
        <time>2026-06-29T06:36:11Z</time>
      </trkpt>
      <trkpt lat="51.85210601426661" lon="-10.171259036287665">
        <ele>41.469999999999999</ele>
        <time>2026-06-29T06:36:22Z</time>
      </trkpt>
      <trkpt lat="51.853499002754688" lon="-10.171318966895342">
        <ele>40.030000000000001</ele>
        <time>2026-06-29T06:36:31Z</time>
      </trkpt>
      <trkpt lat="51.855826992541552" lon="-10.171472020447254">
        <ele>34.259999999999998</ele>
        <time>2026-06-29T06:36:44Z</time>
      </trkpt>
      <trkpt lat="51.85736901126802" lon="-10.171782989054918">
        <ele>27.050000000000001</ele>
        <time>2026-06-29T06:36:53Z</time>
      </trkpt>
      <trkpt lat="51.858008969575167" lon="-10.172069985419512">
        <ele>22.73</ele>
        <time>2026-06-29T06:36:57Z</time>
      </trkpt>
      <trkpt lat="51.858162023127079" lon="-10.172190014272928">
        <ele>21.77</ele>
        <time>2026-06-29T06:36:58Z</time>
      </trkpt>
      <trkpt lat="51.859919037669897" lon="-10.17393403686583">
        <ele>16</ele>
        <time>2026-06-29T06:37:10Z</time>
      </trkpt>
      <trkpt lat="51.862150970846415" lon="-10.176336960867047">
        <ele>24.170000000000002</ele>
        <time>2026-06-29T06:37:26Z</time>
      </trkpt>
      <trkpt lat="51.86358000151813" lon="-10.177889037877321">
        <ele>35.229999999999997</ele>
        <time>2026-06-29T06:37:37Z</time>
      </trkpt>
      <trkpt lat="51.864047041162848" lon="-10.178411984816194">
        <ele>38.590000000000003</ele>
        <time>2026-06-29T06:37:43Z</time>
      </trkpt>
      <trkpt lat="51.864112000912428" lon="-10.178518015891314">
        <ele>38.590000000000003</ele>
        <time>2026-06-29T06:37:44Z</time>
      </trkpt>
      <trkpt lat="51.86409498564899" lon="-10.178614994511008">
        <ele>38.590000000000003</ele>
        <time>2026-06-29T06:37:45Z</time>
      </trkpt>
      <trkpt lat="51.86407595872879" lon="-10.178727982565761">
        <ele>39.07</ele>
        <time>2026-06-29T06:37:46Z</time>
      </trkpt>
      <trkpt lat="51.864056009799242" lon="-10.178849017247558">
        <ele>39.07</ele>
        <time>2026-06-29T06:37:47Z</time>
      </trkpt>
      <trkpt lat="51.864003958180547" lon="-10.179147999733686">
        <ele>39.07</ele>
        <time>2026-06-29T06:37:49Z</time>
      </trkpt>
      <trkpt lat="51.863975040614605" lon="-10.179322008043528">
        <ele>39.07</ele>
        <time>2026-06-29T06:37:50Z</time>
      </trkpt>
      <trkpt lat="51.863656025379896" lon="-10.181230986490846">
        <ele>43.880000000000003</ele>
        <time>2026-06-29T06:37:59Z</time>
      </trkpt>
      <trkpt lat="51.86330096796155" lon="-10.183403994888067">
        <ele>48.200000000000003</ele>
        <time>2026-06-29T06:38:08Z</time>
      </trkpt>
      <trkpt lat="51.862944988533854" lon="-10.185584966093302">
        <ele>50.130000000000003</ele>
        <time>2026-06-29T06:38:18Z</time>
      </trkpt>
      <trkpt lat="51.862628990784287" lon="-10.186776034533978">
        <ele>49.649999999999999</ele>
        <time>2026-06-29T06:38:24Z</time>
      </trkpt>
      <trkpt lat="51.86224996112287" lon="-10.187781024724245">
        <ele>46.759999999999998</ele>
        <time>2026-06-29T06:38:29Z</time>
      </trkpt>
      <trkpt lat="51.862083999440074" lon="-10.18811596557498">
        <ele>45.799999999999997</ele>
        <time>2026-06-29T06:38:31Z</time>
      </trkpt>
      <trkpt lat="51.861999006941915" lon="-10.18828796222806">
        <ele>45.32</ele>
        <time>2026-06-29T06:38:32Z</time>
      </trkpt>
      <trkpt lat="51.861009020358324" lon="-10.190277993679047">
        <ele>33.299999999999997</ele>
        <time>2026-06-29T06:38:43Z</time>
      </trkpt>
      <trkpt lat="51.859689960256219" lon="-10.192818967625499">
        <ele>24.649999999999999</ele>
        <time>2026-06-29T06:38:56Z</time>
      </trkpt>
      <trkpt lat="51.858515990898013" lon="-10.195025000721216">
        <ele>20.32</ele>
        <time>2026-06-29T06:39:07Z</time>
      </trkpt>
      <trkpt lat="51.857124008238316" lon="-10.19737402908504">
        <ele>16</ele>
        <time>2026-06-29T06:39:19Z</time>
      </trkpt>
      <trkpt lat="51.857013031840324" lon="-10.197577960789204">
        <ele>15.039999999999999</ele>
        <time>2026-06-29T06:39:20Z</time>
      </trkpt>
      <trkpt lat="51.856914041563869" lon="-10.197803014889359">
        <ele>14.08</ele>
        <time>2026-06-29T06:39:21Z</time>
      </trkpt>
      <trkpt lat="51.85586697421968" lon="-10.200132010504603">
        <ele>16.48</ele>
        <time>2026-06-29T06:39:32Z</time>
      </trkpt>
      <trkpt lat="51.854810016229749" lon="-10.202370984479785">
        <ele>17.920000000000002</ele>
        <time>2026-06-29T06:39:43Z</time>
      </trkpt>
      <trkpt lat="51.853663958609104" lon="-10.204720012843609">
        <ele>18.399999999999999</ele>
        <time>2026-06-29T06:39:55Z</time>
      </trkpt>
      <trkpt lat="51.852667015045881" lon="-10.206738961860538">
        <ele>14.56</ele>
        <time>2026-06-29T06:40:05Z</time>
      </trkpt>
      <trkpt lat="51.851656995713711" lon="-10.208803005516529">
        <ele>16.960000000000001</ele>
        <time>2026-06-29T06:40:16Z</time>
      </trkpt>
      <trkpt lat="51.850801035761833" lon="-10.210576029494405">
        <ele>17.440000000000001</ele>
        <time>2026-06-29T06:40:25Z</time>
      </trkpt>
      <trkpt lat="51.849622959271073" lon="-10.213010972365737">
        <ele>18.399999999999999</ele>
        <time>2026-06-29T06:40:37Z</time>
      </trkpt>
      <trkpt lat="51.849564034491777" lon="-10.213228985667229">
        <ele>19.359999999999999</ele>
        <time>2026-06-29T06:40:38Z</time>
      </trkpt>
      <trkpt lat="51.849522963166237" lon="-10.213464014232159">
        <ele>20.32</ele>
        <time>2026-06-29T06:40:39Z</time>
      </trkpt>
      <trkpt lat="51.849006973206997" lon="-10.216164998710155">
        <ele>21.77</ele>
        <time>2026-06-29T06:40:50Z</time>
      </trkpt>
      <trkpt lat="51.848166016861796" lon="-10.220150006935">
        <ele>17.440000000000001</ele>
        <time>2026-06-29T06:41:06Z</time>
      </trkpt>
      <trkpt lat="51.848130980506539" lon="-10.220354022458196">
        <ele>16.960000000000001</ele>
        <time>2026-06-29T06:41:07Z</time>
      </trkpt>
      <trkpt lat="51.848135003820062" lon="-10.220632972195745">
        <ele>16.48</ele>
        <time>2026-06-29T06:41:08Z</time>
      </trkpt>
      <trkpt lat="51.848139027133584" lon="-10.220897002145648">
        <ele>16</ele>
        <time>2026-06-29T06:41:09Z</time>
      </trkpt>
      <trkpt lat="51.848328039050102" lon="-10.224243979901075">
        <ele>14.56</ele>
        <time>2026-06-29T06:41:21Z</time>
      </trkpt>
      <trkpt lat="51.848611012101173" lon="-10.228132009506226">
        <ele>11.67</ele>
        <time>2026-06-29T06:41:35Z</time>
      </trkpt>
      <trkpt lat="51.848873030394316" lon="-10.231734970584512">
        <ele>15.039999999999999</ele>
        <time>2026-06-29T06:41:48Z</time>
      </trkpt>
      <trkpt lat="51.849189028143883" lon="-10.235900022089481">
        <ele>19.84</ele>
        <time>2026-06-29T06:42:03Z</time>
      </trkpt>
      <trkpt lat="51.849470995366573" lon="-10.240233968943357">
        <ele>24.649999999999999</ele>
        <time>2026-06-29T06:42:19Z</time>
      </trkpt>
      <trkpt lat="51.849784981459379" lon="-10.245046019554138">
        <ele>25.129999999999999</ele>
        <time>2026-06-29T06:42:37Z</time>
      </trkpt>
      <trkpt lat="51.850029984489083" lon="-10.24861897341907">
        <ele>20.32</ele>
        <time>2026-06-29T06:42:50Z</time>
      </trkpt>
      <trkpt lat="51.850241040810943" lon="-10.251749027520418">
        <ele>20.809999999999999</ele>
        <time>2026-06-29T06:43:02Z</time>
      </trkpt>
      <trkpt lat="51.850462993606925" lon="-10.254932977259159">
        <ele>18.399999999999999</ele>
        <time>2026-06-29T06:43:15Z</time>
      </trkpt>
      <trkpt lat="51.850441033020616" lon="-10.255292980000377">
        <ele>17.920000000000002</ele>
        <time>2026-06-29T06:43:17Z</time>
      </trkpt>
      <trkpt lat="51.850426029413939" lon="-10.255435975268483">
        <ele>17.440000000000001</ele>
        <time>2026-06-29T06:43:18Z</time>
      </trkpt>
      <trkpt lat="51.850403985008597" lon="-10.255640996620059">
        <ele>16.960000000000001</ele>
        <time>2026-06-29T06:43:20Z</time>
      </trkpt>
      <trkpt lat="51.850347993895411" lon="-10.255848029628396">
        <ele>16</ele>
        <time>2026-06-29T06:43:24Z</time>
      </trkpt>
      <trkpt lat="51.850294014438987" lon="-10.255887005478144">
        <ele>15.52</ele>
        <time>2026-06-29T06:43:25Z</time>
      </trkpt>
      <trkpt lat="51.849643997848034" lon="-10.256348010152578">
        <ele>15.52</ele>
        <time>2026-06-29T06:43:31Z</time>
      </trkpt>
      <trkpt lat="51.84810901992023" lon="-10.257158037275076">
        <ele>17.440000000000001</ele>
        <time>2026-06-29T06:43:41Z</time>
      </trkpt>
      <trkpt lat="51.846280004829168" lon="-10.257540000602603">
        <ele>21.289999999999999</ele>
        <time>2026-06-29T06:43:53Z</time>
      </trkpt>
      <trkpt lat="51.844033990055323" lon="-10.257871001958847">
        <ele>28.02</ele>
        <time>2026-06-29T06:44:08Z</time>
      </trkpt>
      <trkpt lat="51.842629015445709" lon="-10.258403001353145">
        <ele>33.299999999999997</ele>
        <time>2026-06-29T06:44:17Z</time>
      </trkpt>
      <trkpt lat="51.841203002259135" lon="-10.259347977116704">
        <ele>34.740000000000002</ele>
        <time>2026-06-29T06:44:27Z</time>
      </trkpt>
      <trkpt lat="51.839113980531693" lon="-10.260963002219796">
        <ele>36.189999999999998</ele>
        <time>2026-06-29T06:44:41Z</time>
      </trkpt>
      <trkpt lat="51.837395019829273" lon="-10.26230301707983">
        <ele>39.549999999999997</ele>
        <time>2026-06-29T06:44:53Z</time>
      </trkpt>
      <trkpt lat="51.835790975019336" lon="-10.26369902305305">
        <ele>43.399999999999999</ele>
        <time>2026-06-29T06:45:05Z</time>
      </trkpt>
      <trkpt lat="51.834536036476493" lon="-10.264926971867681">
        <ele>41.950000000000003</ele>
        <time>2026-06-29T06:45:16Z</time>
      </trkpt>
      <trkpt lat="51.833148999139667" lon="-10.266305040568113">
        <ele>38.590000000000003</ele>
        <time>2026-06-29T06:45:27Z</time>
      </trkpt>
      <trkpt lat="51.831531962379813" lon="-10.2679100073874">
        <ele>31.379999999999999</ele>
        <time>2026-06-29T06:45:40Z</time>
      </trkpt>
      <trkpt lat="51.830375008285046" lon="-10.268977023661137">
        <ele>25.129999999999999</ele>
        <time>2026-06-29T06:45:49Z</time>
      </trkpt>
      <trkpt lat="51.828753026202321" lon="-10.270107993856072">
        <ele>18.879999999999999</ele>
        <time>2026-06-29T06:46:01Z</time>
      </trkpt>
      <trkpt lat="51.827548965811729" lon="-10.270896982401609">
        <ele>16</ele>
        <time>2026-06-29T06:46:11Z</time>
      </trkpt>
      <trkpt lat="51.826244993135333" lon="-10.271760988980532">
        <ele>14.56</ele>
        <time>2026-06-29T06:46:23Z</time>
      </trkpt>
      <trkpt lat="51.825053002685308" lon="-10.272547965869308">
        <ele>16</ele>
        <time>2026-06-29T06:46:35Z</time>
      </trkpt>
      <trkpt lat="51.823784988373518" lon="-10.273388000205159">
        <ele>14.56</ele>
        <time>2026-06-29T06:46:46Z</time>
      </trkpt>
      <trkpt lat="51.822410020977259" lon="-10.274228034541011">
        <ele>12.630000000000001</ele>
        <time>2026-06-29T06:46:59Z</time>
      </trkpt>
      <trkpt lat="51.821574009954929" lon="-10.274704964831471">
        <ele>9.75</ele>
        <time>2026-06-29T06:47:08Z</time>
      </trkpt>
      <trkpt lat="51.821421040222049" lon="-10.274779982864857">
        <ele>8.310000000000001</ele>
        <time>2026-06-29T06:47:12Z</time>
      </trkpt>
      <trkpt lat="51.821421040222049" lon="-10.274633970111609">
        <ele>7.83</ele>
        <time>2026-06-29T06:47:13Z</time>
      </trkpt>
      <trkpt lat="51.821372006088495" lon="-10.274459039792418">
        <ele>7.83</ele>
        <time>2026-06-29T06:47:15Z</time>
      </trkpt>
      <trkpt lat="51.821246026083827" lon="-10.274002980440855">
        <ele>9.27</ele>
        <time>2026-06-29T06:47:20Z</time>
      </trkpt>
      <trkpt lat="51.821191040799022" lon="-10.273804999887943">
        <ele>10.23</ele>
        <time>2026-06-29T06:47:23Z</time>
      </trkpt>
      <trkpt lat="51.821174025535583" lon="-10.273745991289616">
        <ele>10.23</ele>
        <time>2026-06-29T06:47:24Z</time>
      </trkpt>
      <trkpt lat="51.821160027757287" lon="-10.273696035146713">
        <ele>10.710000000000001</ele>
        <time>2026-06-29T06:47:25Z</time>
      </trkpt>
      <trkpt lat="51.821148041635752" lon="-10.273651024326682">
        <ele>11.19</ele>
        <time>2026-06-29T06:47:26Z</time>
      </trkpt>
      <trkpt lat="51.821136977523565" lon="-10.273610036820173">
        <ele>11.67</ele>
        <time>2026-06-29T06:47:27Z</time>
      </trkpt>
      <trkpt lat="51.821123985573649" lon="-10.273564020171762">
        <ele>12.15</ele>
        <time>2026-06-29T06:47:28Z</time>
      </trkpt>
      <trkpt lat="51.82106195949018" lon="-10.273340977728367">
        <ele>13.119999999999999</ele>
        <time>2026-06-29T06:47:32Z</time>
      </trkpt>
      <trkpt lat="51.821045028045774" lon="-10.273280963301659">
        <ele>13.6</ele>
        <time>2026-06-29T06:47:33Z</time>
      </trkpt>
      <trkpt lat="51.821030024439096" lon="-10.273224972188473">
        <ele>13.6</ele>
        <time>2026-06-29T06:47:34Z</time>
      </trkpt>
      <trkpt lat="51.820849981158972" lon="-10.273192031309009">
        <ele>13.119999999999999</ele>
        <time>2026-06-29T06:47:42Z</time>
      </trkpt>
      <trkpt lat="51.820849981158972" lon="-10.273198988288641">
        <ele>14.56</ele>
        <time>2026-06-29T06:48:00Z</time>
      </trkpt>
      <trkpt lat="51.820860961452127" lon="-10.27319798246026">
        <ele>14.08</ele>
        <time>2026-06-29T06:48:23Z</time>
      </trkpt>
      <trkpt lat="51.820842018350959" lon="-10.273224972188473">
        <ele>16.48</ele>
        <time>2026-06-29T07:09:47Z</time>
      </trkpt>
      <trkpt lat="51.820855010300875" lon="-10.273189013823867">
        <ele>14.56</ele>
        <time>2026-06-29T07:10:21Z</time>
      </trkpt>
      <trkpt lat="51.820845035836101" lon="-10.273200999945402">
        <ele>10.710000000000001</ele>
        <time>2026-06-29T07:11:22Z</time>
      </trkpt>
      <trkpt lat="51.82084696367383" lon="-10.273195970803499">
        <ele>9.27</ele>
        <time>2026-06-29T07:12:15Z</time>
      </trkpt>
      <trkpt lat="51.820848975330591" lon="-10.273194964975119">
        <ele>9.27</ele>
        <time>2026-06-29T07:13:01Z</time>
      </trkpt>
      <trkpt lat="51.820846041664481" lon="-10.273192031309009">
        <ele>9.27</ele>
        <time>2026-06-29T07:13:54Z</time>
      </trkpt>
      <trkpt lat="51.820846041664481" lon="-10.273192031309009">
        <ele>9.27</ele>
        <time>2026-06-29T07:14:04Z</time>
      </trkpt>
      <trkpt lat="51.821030024439096" lon="-10.273224972188473">
        <ele>9.75</ele>
        <time>2026-06-29T07:14:08Z</time>
      </trkpt>
      <trkpt lat="51.821030024439096" lon="-10.273224972188473">
        <ele>10.23</ele>
        <time>2026-06-29T07:14:09Z</time>
      </trkpt>
      <trkpt lat="51.821030024439096" lon="-10.273224972188473">
        <ele>10.23</ele>
        <time>2026-06-29T07:14:10Z</time>
      </trkpt>
      <trkpt lat="51.821046033874154" lon="-10.273281969130039">
        <ele>10.23</ele>
        <time>2026-06-29T07:14:11Z</time>
      </trkpt>
      <trkpt lat="51.821061037480831" lon="-10.273337038233876">
        <ele>10.710000000000001</ele>
        <time>2026-06-29T07:14:12Z</time>
      </trkpt>
      <trkpt lat="51.821074029430747" lon="-10.273385988548398">
        <ele>10.23</ele>
        <time>2026-06-29T07:14:13Z</time>
      </trkpt>
      <trkpt lat="51.821089033037424" lon="-10.273438040167093">
        <ele>10.710000000000001</ele>
        <time>2026-06-29T07:14:14Z</time>
      </trkpt>
      <trkpt lat="51.821106970310211" lon="-10.273504005745053">
        <ele>10.710000000000001</ele>
        <time>2026-06-29T07:14:15Z</time>
      </trkpt>
      <trkpt lat="51.821125997230411" lon="-10.273572988808155">
        <ele>11.19</ele>
        <time>2026-06-29T07:14:16Z</time>
      </trkpt>
      <trkpt lat="51.820807987824082" lon="-10.273956963792443">
        <ele>11.67</ele>
        <time>2026-06-29T07:14:19Z</time>
      </trkpt>
      <trkpt lat="51.820650994777679" lon="-10.274805966764688">
        <ele>12.630000000000001</ele>
        <time>2026-06-29T07:14:27Z</time>
      </trkpt>
      <trkpt lat="51.820615958422422" lon="-10.274986010044813">
        <ele>12.15</ele>
        <time>2026-06-29T07:14:34Z</time>
      </trkpt>
      <trkpt lat="51.820580000057817" lon="-10.274994978681207">
        <ele>12.15</ele>
        <time>2026-06-29T07:14:35Z</time>
      </trkpt>
      <trkpt lat="51.820521997287869" lon="-10.275009982287884">
        <ele>12.15</ele>
        <time>2026-06-29T07:14:36Z</time>
      </trkpt>
      <trkpt lat="51.819726973772049" lon="-10.275116013363004">
        <ele>11.19</ele>
        <time>2026-06-29T07:14:44Z</time>
      </trkpt>
      <trkpt lat="51.818254021927714" lon="-10.275118025019765">
        <ele>11.19</ele>
        <time>2026-06-29T07:14:57Z</time>
      </trkpt>
      <trkpt lat="51.81717099621892" lon="-10.275103021413088">
        <ele>11.19</ele>
        <time>2026-06-29T07:15:07Z</time>
      </trkpt>
      <trkpt lat="51.815597964450717" lon="-10.27508600614965">
        <ele>10.710000000000001</ele>
        <time>2026-06-29T07:15:21Z</time>
      </trkpt>
      <trkpt lat="51.813940024003386" lon="-10.275073014199734">
        <ele>11.67</ele>
        <time>2026-06-29T07:15:36Z</time>
      </trkpt>
      <trkpt lat="51.8137769959867" lon="-10.275072008371353">
        <ele>11.19</ele>
        <time>2026-06-29T07:15:40Z</time>
      </trkpt>
      <trkpt lat="51.81375696323812" lon="-10.275071002542973">
        <ele>11.19</ele>
        <time>2026-06-29T07:15:41Z</time>
      </trkpt>
      <trkpt lat="51.813718993216753" lon="-10.275192959234118">
        <ele>11.19</ele>
        <time>2026-06-29T07:15:42Z</time>
      </trkpt>
      <trkpt lat="51.813730979338288" lon="-10.275244005024433">
        <ele>11.19</ele>
        <time>2026-06-29T07:15:43Z</time>
      </trkpt>
      <trkpt lat="51.813745982944965" lon="-10.275308964774013">
        <ele>11.19</ele>
        <time>2026-06-29T07:15:44Z</time>
      </trkpt>
      <trkpt lat="51.813766015693545" lon="-10.275394041091204">
        <ele>11.19</ele>
        <time>2026-06-29T07:15:45Z</time>
      </trkpt>
      <trkpt lat="51.814058963209391" lon="-10.276665994897485">
        <ele>12.630000000000001</ele>
        <time>2026-06-29T07:15:55Z</time>
      </trkpt>
      <trkpt lat="51.814330033957958" lon="-10.278281020000577">
        <ele>14.56</ele>
        <time>2026-06-29T07:16:07Z</time>
      </trkpt>
      <trkpt lat="51.814676960930228" lon="-10.280385967344046">
        <ele>13.6</ele>
        <time>2026-06-29T07:16:22Z</time>
      </trkpt>
      <trkpt lat="51.815052973106503" lon="-10.28267196379602">
        <ele>16.48</ele>
        <time>2026-06-29T07:16:38Z</time>
      </trkpt>
      <trkpt lat="51.815405013039708" lon="-10.284811025485396">
        <ele>21.289999999999999</ele>
        <time>2026-06-29T07:16:53Z</time>
      </trkpt>
      <trkpt lat="51.815528981387615" lon="-10.285518961027265">
        <ele>26.09</ele>
        <time>2026-06-29T07:16:58Z</time>
      </trkpt>
      <trkpt lat="51.815598970279098" lon="-10.285704033449292">
        <ele>27.050000000000001</ele>
        <time>2026-06-29T07:16:59Z</time>
      </trkpt>
      <trkpt lat="51.815668037161231" lon="-10.285760024562478">
        <ele>27.530000000000001</ele>
        <time>2026-06-29T07:17:00Z</time>
      </trkpt>
      <trkpt lat="51.815740959718823" lon="-10.285819033160806">
        <ele>28.5</ele>
        <time>2026-06-29T07:17:01Z</time>
      </trkpt>
      <trkpt lat="51.815807009115815" lon="-10.28587301261723">
        <ele>28.98</ele>
        <time>2026-06-29T07:17:02Z</time>
      </trkpt>
      <trkpt lat="51.816012030467391" lon="-10.285956999287009">
        <ele>30.899999999999999</ele>
        <time>2026-06-29T07:17:05Z</time>
      </trkpt>
      <trkpt lat="51.816079001873732" lon="-10.285962028428912">
        <ele>31.379999999999999</ele>
        <time>2026-06-29T07:17:06Z</time>
      </trkpt>
      <trkpt lat="51.817063959315419" lon="-10.28602497652173">
        <ele>32.340000000000003</ele>
        <time>2026-06-29T07:17:17Z</time>
      </trkpt>
      <trkpt lat="51.818118989467621" lon="-10.286089014261961">
        <ele>26.09</ele>
        <time>2026-06-29T07:17:28Z</time>
      </trkpt>
      <trkpt lat="51.818280005827546" lon="-10.286098988726735">
        <ele>25.609999999999999</ele>
        <time>2026-06-29T07:17:30Z</time>
      </trkpt>
      <trkpt lat="51.818343959748745" lon="-10.286056995391846">
        <ele>25.609999999999999</ele>
        <time>2026-06-29T07:17:31Z</time>
      </trkpt>
      <trkpt lat="51.818405985832214" lon="-10.285989018157125">
        <ele>25.609999999999999</ele>
        <time>2026-06-29T07:17:32Z</time>
      </trkpt>
      <trkpt lat="51.818475974723697" lon="-10.285910982638597">
        <ele>25.609999999999999</ele>
        <time>2026-06-29T07:17:33Z</time>
      </trkpt>
      <trkpt lat="51.818561973050237" lon="-10.285839987918735">
        <ele>25.609999999999999</ele>
        <time>2026-06-29T07:17:34Z</time>
      </trkpt>
      <trkpt lat="51.818645959720016" lon="-10.285791037604213">
        <ele>26.09</ele>
        <time>2026-06-29T07:17:35Z</time>
      </trkpt>
      <trkpt lat="51.818729024380445" lon="-10.28574300929904">
        <ele>27.050000000000001</ele>
        <time>2026-06-29T07:17:36Z</time>
      </trkpt>
      <trkpt lat="51.818814016878605" lon="-10.285693975165486">
        <ele>28.02</ele>
        <time>2026-06-29T07:17:37Z</time>
      </trkpt>
      <trkpt lat="51.818896997720003" lon="-10.285645024850965">
        <ele>29.460000000000001</ele>
        <time>2026-06-29T07:17:38Z</time>
      </trkpt>
      <trkpt lat="51.818962963297963" lon="-10.285566989332438">
        <ele>30.420000000000002</ele>
        <time>2026-06-29T07:17:39Z</time>
      </trkpt>
      <trkpt lat="51.819023983553052" lon="-10.28546498157084">
        <ele>30.899999999999999</ele>
        <time>2026-06-29T07:17:40Z</time>
      </trkpt>
      <trkpt lat="51.819085003808141" lon="-10.285361967980862">
        <ele>31.379999999999999</ele>
        <time>2026-06-29T07:17:41Z</time>
      </trkpt>
      <trkpt lat="51.819148035719991" lon="-10.285257026553154">
        <ele>31.379999999999999</ele>
        <time>2026-06-29T07:17:42Z</time>
      </trkpt>
      <trkpt lat="51.819993015378714" lon="-10.283683994784951">
        <ele>31.859999999999999</ele>
        <time>2026-06-29T07:17:55Z</time>
      </trkpt>
      <trkpt lat="51.820811005309224" lon="-10.282073998823762">
        <ele>32.340000000000003</ele>
        <time>2026-06-29T07:18:08Z</time>
      </trkpt>
      <trkpt lat="51.820836989209056" lon="-10.282023036852479">
        <ele>32.340000000000003</ele>
        <time>2026-06-29T07:18:09Z</time>
      </trkpt>
      <trkpt lat="51.820920975878835" lon="-10.282001998275518">
        <ele>32.82</ele>
        <time>2026-06-29T07:18:10Z</time>
      </trkpt>
      <trkpt lat="51.820974033325911" lon="-10.281989006325603">
        <ele>32.82</ele>
        <time>2026-06-29T07:18:11Z</time>
      </trkpt>
      <trkpt lat="51.821012003347278" lon="-10.28198498301208">
        <ele>33.299999999999997</ele>
        <time>2026-06-29T07:18:12Z</time>
      </trkpt>
      <trkpt lat="51.821052990853786" lon="-10.282041979953647">
        <ele>33.780000000000001</ele>
        <time>2026-06-29T07:18:13Z</time>
      </trkpt>
      <trkpt lat="51.821105964481831" lon="-10.28211297467351">
        <ele>34.259999999999998</ele>
        <time>2026-06-29T07:18:14Z</time>
      </trkpt>
      <trkpt lat="51.821166984736919" lon="-10.28219603933394">
        <ele>34.259999999999998</ele>
        <time>2026-06-29T07:18:15Z</time>
      </trkpt>
      <trkpt lat="51.821229010820389" lon="-10.282281031832099">
        <ele>34.740000000000002</ele>
        <time>2026-06-29T07:18:16Z</time>
      </trkpt>
      <trkpt lat="51.821488011628389" lon="-10.282718986272812">
        <ele>37.630000000000003</ele>
        <time>2026-06-29T07:18:24Z</time>
      </trkpt>
      <trkpt lat="51.821494968608022" lon="-10.282814037054777">
        <ele>38.109999999999999</ele>
        <time>2026-06-29T07:18:25Z</time>
      </trkpt>
      <trkpt lat="51.821504021063447" lon="-10.282932976260781">
        <ele>38.109999999999999</ele>
        <time>2026-06-29T07:18:26Z</time>
      </trkpt>
      <trkpt lat="51.821513995528221" lon="-10.283067002892494">
        <ele>38.590000000000003</ele>
        <time>2026-06-29T07:18:27Z</time>
      </trkpt>
      <trkpt lat="51.821525981649756" lon="-10.283214021474123">
        <ele>39.07</ele>
        <time>2026-06-29T07:18:28Z</time>
      </trkpt>
      <trkpt lat="51.821671994403005" lon="-10.284902974963188">
        <ele>42.920000000000002</ele>
        <time>2026-06-29T07:18:37Z</time>
      </trkpt>
      <trkpt lat="51.821972988545895" lon="-10.287776039913297">
        <ele>46.759999999999998</ele>
        <time>2026-06-29T07:18:50Z</time>
      </trkpt>
      <trkpt lat="51.822370961308479" lon="-10.291536999866366">
        <ele>50.609999999999999</ele>
        <time>2026-06-29T07:19:07Z</time>
      </trkpt>
      <trkpt lat="51.822721995413303" lon="-10.294884983450174">
        <ele>54.450000000000003</ele>
        <time>2026-06-29T07:19:21Z</time>
      </trkpt>
      <trkpt lat="51.823104964569211" lon="-10.298547958955169">
        <ele>61.659999999999997</ele>
        <time>2026-06-29T07:19:36Z</time>
      </trkpt>
      <trkpt lat="51.823503021150827" lon="-10.302355019375682">
        <ele>69.829999999999998</ele>
        <time>2026-06-29T07:19:52Z</time>
      </trkpt>
      <trkpt lat="51.823880039155483" lon="-10.30596099793911">
        <ele>80.890000000000001</ele>
        <time>2026-06-29T07:20:07Z</time>
      </trkpt>
      <trkpt lat="51.82434699498117" lon="-10.309676025062799">
        <ele>94.349999999999994</ele>
        <time>2026-06-29T07:20:23Z</time>
      </trkpt>
      <trkpt lat="51.824382031336427" lon="-10.309898983687162">
        <ele>95.310000000000002</ele>
        <time>2026-06-29T07:20:24Z</time>
      </trkpt>
      <trkpt lat="51.824402986094356" lon="-10.310130994766951">
        <ele>95.310000000000002</ele>
        <time>2026-06-29T07:20:25Z</time>
      </trkpt>
      <trkpt lat="51.82441002689302" lon="-10.310371974483132">
        <ele>95.790000000000006</ele>
        <time>2026-06-29T07:20:26Z</time>
      </trkpt>
      <trkpt lat="51.824610019102693" lon="-10.3121920209378">
        <ele>95.310000000000002</ele>
        <time>2026-06-29T07:20:34Z</time>
      </trkpt>
      <trkpt lat="51.824677996337414" lon="-10.312379021197557">
        <ele>94.349999999999994</ele>
        <time>2026-06-29T07:20:35Z</time>
      </trkpt>
      <trkpt lat="51.82475795969367" lon="-10.312580019235611">
        <ele>93.870000000000005</ele>
        <time>2026-06-29T07:20:36Z</time>
      </trkpt>
      <trkpt lat="51.825088039040565" lon="-10.312967011705041">
        <ele>93.390000000000001</ele>
        <time>2026-06-29T07:20:39Z</time>
      </trkpt>
      <trkpt lat="51.825192980468273" lon="-10.31305099837482">
        <ele>94.349999999999994</ele>
        <time>2026-06-29T07:20:40Z</time>
      </trkpt>
      <trkpt lat="51.825322983786464" lon="-10.313083017244935">
        <ele>94.829999999999998</ele>
        <time>2026-06-29T07:20:41Z</time>
      </trkpt>
      <trkpt lat="51.826666016131639" lon="-10.31316096894443">
        <ele>101.56</ele>
        <time>2026-06-29T07:20:51Z</time>
      </trkpt>
      <trkpt lat="51.827962026000023" lon="-10.313032977283001">
        <ele>102.04000000000001</ele>
        <time>2026-06-29T07:21:01Z</time>
      </trkpt>
      <trkpt lat="51.828035032376647" lon="-10.31307497061789">
        <ele>102.52</ele>
        <time>2026-06-29T07:21:02Z</time>
      </trkpt>
      <trkpt lat="51.828090017661452" lon="-10.313159041106701">
        <ele>102.52</ele>
        <time>2026-06-29T07:21:03Z</time>
      </trkpt>
      <trkpt lat="51.828125976026058" lon="-10.313268005847931">
        <ele>103</ele>
        <time>2026-06-29T07:21:04Z</time>
      </trkpt>
      <trkpt lat="51.828140979632735" lon="-10.313408989459276">
        <ele>103</ele>
        <time>2026-06-29T07:21:05Z</time>
      </trkpt>
      <trkpt lat="51.82815195992589" lon="-10.31356799416244">
        <ele>103</ele>
        <time>2026-06-29T07:21:06Z</time>
      </trkpt>
      <trkpt lat="51.828306019306183" lon="-10.315574035048485">
        <ele>109.73</ele>
        <time>2026-06-29T07:21:16Z</time>
      </trkpt>
      <trkpt lat="51.828392017632723" lon="-10.317333983257413">
        <ele>116.94</ele>
        <time>2026-06-29T07:21:24Z</time>
      </trkpt>
      <trkpt lat="51.828447002917528" lon="-10.317513020709157">
        <ele>117.90000000000001</ele>
        <time>2026-06-29T07:21:25Z</time>
      </trkpt>
      <trkpt lat="51.828511962667108" lon="-10.317659033462405">
        <ele>119.81999999999999</ele>
        <time>2026-06-29T07:21:26Z</time>
      </trkpt>
      <trkpt lat="51.828560996800661" lon="-10.317772021517158">
        <ele>121.26000000000001</ele>
        <time>2026-06-29T07:21:27Z</time>
      </trkpt>
      <trkpt lat="51.828569965437055" lon="-10.317996991798282">
        <ele>122.70999999999999</ele>
        <time>2026-06-29T07:21:28Z</time>
      </trkpt>
      <trkpt lat="51.828578012064099" lon="-10.318193966522813">
        <ele>124.63</ele>
        <time>2026-06-29T07:21:29Z</time>
      </trkpt>
      <trkpt lat="51.828570971265435" lon="-10.318412985652685">
        <ele>125.59</ele>
        <time>2026-06-29T07:21:30Z</time>
      </trkpt>
      <trkpt lat="51.82853601872921" lon="-10.318646002560854">
        <ele>126.55</ele>
        <time>2026-06-29T07:21:31Z</time>
      </trkpt>
      <trkpt lat="51.828499976545572" lon="-10.318889999762177">
        <ele>127.03</ele>
        <time>2026-06-29T07:21:32Z</time>
      </trkpt>
      <trkpt lat="51.828463012352586" lon="-10.319124022498727">
        <ele>127.51000000000001</ele>
        <time>2026-06-29T07:21:33Z</time>
      </trkpt>
      <trkpt lat="51.828358992934227" lon="-10.319674964994192">
        <ele>126.55</ele>
        <time>2026-06-29T07:21:36Z</time>
      </trkpt>
      <trkpt lat="51.828324962407351" lon="-10.319852996617556">
        <ele>126.06999999999999</ele>
        <time>2026-06-29T07:21:37Z</time>
      </trkpt>
      <trkpt lat="51.828352035954595" lon="-10.319952992722392">
        <ele>126.06999999999999</ele>
        <time>2026-06-29T07:21:38Z</time>
      </trkpt>
      <trkpt lat="51.828425964340568" lon="-10.320229008793831">
        <ele>125.59</ele>
        <time>2026-06-29T07:21:40Z</time>
      </trkpt>
      <trkpt lat="51.828465024009347" lon="-10.32037602737546">
        <ele>125.11</ele>
        <time>2026-06-29T07:21:41Z</time>
      </trkpt>
      <trkpt lat="51.828496959060431" lon="-10.320496978238225">
        <ele>124.63</ele>
        <time>2026-06-29T07:21:42Z</time>
      </trkpt>
      <trkpt lat="51.82849301956594" lon="-10.320676015689969">
        <ele>124.63</ele>
        <time>2026-06-29T07:21:43Z</time>
      </trkpt>
      <trkpt lat="51.828488996252418" lon="-10.320842983201146">
        <ele>124.15000000000001</ele>
        <time>2026-06-29T07:21:44Z</time>
      </trkpt>
      <trkpt lat="51.828484972938895" lon="-10.321016991510987">
        <ele>124.15000000000001</ele>
        <time>2026-06-29T07:21:45Z</time>
      </trkpt>
      <trkpt lat="51.828481033444405" lon="-10.321179013699293">
        <ele>124.15000000000001</ele>
        <time>2026-06-29T07:21:46Z</time>
      </trkpt>
      <trkpt lat="51.828476004302502" lon="-10.321398032829165">
        <ele>124.15000000000001</ele>
        <time>2026-06-29T07:21:48Z</time>
      </trkpt>
      <trkpt lat="51.828507017344236" lon="-10.321533987298608">
        <ele>124.15000000000001</ele>
        <time>2026-06-29T07:21:49Z</time>
      </trkpt>
      <trkpt lat="51.828526966273785" lon="-10.321618979796767">
        <ele>124.15000000000001</ele>
        <time>2026-06-29T07:21:50Z</time>
      </trkpt>
      <trkpt lat="51.8285589851439" lon="-10.321684023365378">
        <ele>124.15000000000001</ele>
        <time>2026-06-29T07:21:51Z</time>
      </trkpt>
      <trkpt lat="51.828624028712511" lon="-10.321707995608449">
        <ele>124.15000000000001</ele>
        <time>2026-06-29T07:21:52Z</time>
      </trkpt>
      <trkpt lat="51.828701980412006" lon="-10.321735991165042">
        <ele>124.15000000000001</ele>
        <time>2026-06-29T07:21:53Z</time>
      </trkpt>
      <trkpt lat="51.828785967081785" lon="-10.321767004206777">
        <ele>123.67</ele>
        <time>2026-06-29T07:21:54Z</time>
      </trkpt>
      <trkpt lat="51.828870959579945" lon="-10.321799023076892">
        <ele>123.67</ele>
        <time>2026-06-29T07:21:55Z</time>
      </trkpt>
      <trkpt lat="51.828962992876768" lon="-10.321849985048175">
        <ele>123.67</ele>
        <time>2026-06-29T07:21:56Z</time>
      </trkpt>
      <trkpt lat="51.82903197593987" lon="-10.321952998638153">
        <ele>123.19</ele>
        <time>2026-06-29T07:21:57Z</time>
      </trkpt>
      <trkpt lat="51.829111017286777" lon="-10.322046959772706">
        <ele>123.19</ele>
        <time>2026-06-29T07:21:58Z</time>
      </trkpt>
      <trkpt lat="51.829199027270079" lon="-10.322115020826459">
        <ele>122.70999999999999</ele>
        <time>2026-06-29T07:21:59Z</time>
      </trkpt>
      <trkpt lat="51.82928997091949" lon="-10.322175035253167">
        <ele>122.22</ele>
        <time>2026-06-29T07:22:00Z</time>
      </trkpt>
      <trkpt lat="51.829394996166229" lon="-10.322198001667857">
        <ele>121.73999999999999</ele>
        <time>2026-06-29T07:22:01Z</time>
      </trkpt>
      <trkpt lat="51.829499015584588" lon="-10.322220968082547">
        <ele>121.26000000000001</ele>
        <time>2026-06-29T07:22:02Z</time>
      </trkpt>
      <trkpt lat="51.829599011689425" lon="-10.322243012487888">
        <ele>121.26000000000001</ele>
        <time>2026-06-29T07:22:03Z</time>
      </trkpt>
      <trkpt lat="51.829704958945513" lon="-10.322236977517605">
        <ele>120.78</ele>
        <time>2026-06-29T07:22:04Z</time>
      </trkpt>
      <trkpt lat="51.829809984192252" lon="-10.322196995839477">
        <ele>120.78</ele>
        <time>2026-06-29T07:22:05Z</time>
      </trkpt>
      <trkpt lat="51.82993495836854" lon="-10.322148967534304">
        <ele>120.3</ele>
        <time>2026-06-29T07:22:06Z</time>
      </trkpt>
      <trkpt lat="51.830023974180222" lon="-10.322070010006428">
        <ele>120.78</ele>
        <time>2026-06-29T07:22:07Z</time>
      </trkpt>
      <trkpt lat="51.830198988318443" lon="-10.321946041658521">
        <ele>121.73999999999999</ele>
        <time>2026-06-29T07:22:09Z</time>
      </trkpt>
      <trkpt lat="51.83027702383697" lon="-10.321911005303264">
        <ele>122.22</ele>
        <time>2026-06-29T07:22:10Z</time>
      </trkpt>
      <trkpt lat="51.830346006900072" lon="-10.321916034445167">
        <ele>122.22</ele>
        <time>2026-06-29T07:22:11Z</time>
      </trkpt>
      <trkpt lat="51.83042798191309" lon="-10.321999015286565">
        <ele>122.22</ele>
        <time>2026-06-29T07:22:12Z</time>
      </trkpt>
      <trkpt lat="51.830467041581869" lon="-10.322089958935976">
        <ele>121.73999999999999</ele>
        <time>2026-06-29T07:22:13Z</time>
      </trkpt>
      <trkpt lat="51.83053401298821" lon="-10.322148967534304">
        <ele>120.78</ele>
        <time>2026-06-29T07:22:14Z</time>
      </trkpt>
      <trkpt lat="51.830604001879692" lon="-10.322148967534304">
        <ele>120.3</ele>
        <time>2026-06-29T07:22:15Z</time>
      </trkpt>
      <trkpt lat="51.830680025741458" lon="-10.322148967534304">
        <ele>120.3</ele>
        <time>2026-06-29T07:22:16Z</time>
      </trkpt>
      <trkpt lat="51.830762000754476" lon="-10.322148967534304">
        <ele>119.81999999999999</ele>
        <time>2026-06-29T07:22:17Z</time>
      </trkpt>
      <trkpt lat="51.83083601295948" lon="-10.322148967534304">
        <ele>119.81999999999999</ele>
        <time>2026-06-29T07:22:18Z</time>
      </trkpt>
      <trkpt lat="51.830909019336104" lon="-10.322251981124282">
        <ele>119.34</ele>
        <time>2026-06-29T07:22:19Z</time>
      </trkpt>
      <trkpt lat="51.830957969650626" lon="-10.322359018027782">
        <ele>119.34</ele>
        <time>2026-06-29T07:22:20Z</time>
      </trkpt>
      <trkpt lat="51.830994011834264" lon="-10.322501007467508">
        <ele>118.86</ele>
        <time>2026-06-29T07:22:21Z</time>
      </trkpt>
      <trkpt lat="51.831028964370489" lon="-10.322644002735615">
        <ele>118.86</ele>
        <time>2026-06-29T07:22:22Z</time>
      </trkpt>
      <trkpt lat="51.831046985462308" lon="-10.322791021317244">
        <ele>118.38</ele>
        <time>2026-06-29T07:22:23Z</time>
      </trkpt>
      <trkpt lat="51.831039022654295" lon="-10.32293401658535">
        <ele>117.90000000000001</ele>
        <time>2026-06-29T07:22:24Z</time>
      </trkpt>
      <trkpt lat="51.83102997019887" lon="-10.323080029338598">
        <ele>117.42</ele>
        <time>2026-06-29T07:22:25Z</time>
      </trkpt>
      <trkpt lat="51.831014966592193" lon="-10.323356967419386">
        <ele>116.45999999999999</ele>
        <time>2026-06-29T07:22:27Z</time>
      </trkpt>
      <trkpt lat="51.83100800961256" lon="-10.323479007929564">
        <ele>115.98</ele>
        <time>2026-06-29T07:22:28Z</time>
      </trkpt>
      <trkpt lat="51.831042040139437" lon="-10.323574980720878">
        <ele>115.5</ele>
        <time>2026-06-29T07:22:29Z</time>
      </trkpt>
      <trkpt lat="51.831112029030919" lon="-10.323825012892485">
        <ele>114.53</ele>
        <time>2026-06-29T07:22:31Z</time>
      </trkpt>
      <trkpt lat="51.83113600127399" lon="-10.323973959311843">
        <ele>114.05</ele>
        <time>2026-06-29T07:22:32Z</time>
      </trkpt>
      <trkpt lat="51.831185035407543" lon="-10.324263973161578">
        <ele>113.09</ele>
        <time>2026-06-29T07:22:34Z</time>
      </trkpt>
      <trkpt lat="51.831227028742433" lon="-10.324407974258065">
        <ele>112.61</ele>
        <time>2026-06-29T07:22:35Z</time>
      </trkpt>
      <trkpt lat="51.831294000148773" lon="-10.324531020596623">
        <ele>112.61</ele>
        <time>2026-06-29T07:22:36Z</time>
      </trkpt>
      <trkpt lat="51.831369018182158" lon="-10.324669992551208">
        <ele>111.65000000000001</ele>
        <time>2026-06-29T07:22:37Z</time>
      </trkpt>
      <trkpt lat="51.831447975710034" lon="-10.324816005304456">
        <ele>111.17</ele>
        <time>2026-06-29T07:22:38Z</time>
      </trkpt>
      <trkpt lat="51.831775959581137" lon="-10.325442971661687">
        <ele>109.25</ele>
        <time>2026-06-29T07:22:42Z</time>
      </trkpt>
      <trkpt lat="51.831948040053248" lon="-10.325851002708077">
        <ele>107.31999999999999</ele>
        <time>2026-06-29T07:22:45Z</time>
      </trkpt>
      <trkpt lat="51.831993972882628" lon="-10.325916968286037">
        <ele>106.84</ele>
        <time>2026-06-29T07:22:46Z</time>
      </trkpt>
      <trkpt lat="51.832230007275939" lon="-10.326149985194206">
        <ele>103.48</ele>
        <time>2026-06-29T07:22:55Z</time>
      </trkpt>
      <trkpt lat="51.832240987569094" lon="-10.326159037649632">
        <ele>103.48</ele>
        <time>2026-06-29T07:23:09Z</time>
      </trkpt>
      <trkpt lat="51.832240987569094" lon="-10.326159037649632">
        <ele>103.48</ele>
        <time>2026-06-29T07:23:55Z</time>
      </trkpt>
      <trkpt lat="51.83246604166925" lon="-10.326341008767486">
        <ele>103.95999999999999</ele>
        <time>2026-06-29T07:24:00Z</time>
      </trkpt>
      <trkpt lat="51.832749014720321" lon="-10.326571008190513">
        <ele>103.48</ele>
        <time>2026-06-29T07:24:03Z</time>
      </trkpt>
      <trkpt lat="51.833000974729657" lon="-10.326846018433571">
        <ele>102.04000000000001</ele>
        <time>2026-06-29T07:24:06Z</time>
      </trkpt>
      <trkpt lat="51.833045985549688" lon="-10.326966969296336">
        <ele>101.56</ele>
        <time>2026-06-29T07:24:07Z</time>
      </trkpt>
      <trkpt lat="51.833093008026481" lon="-10.327098984271288">
        <ele>100.59999999999999</ele>
        <time>2026-06-29T07:24:08Z</time>
      </trkpt>
      <trkpt lat="51.833118991926312" lon="-10.327244997024536">
        <ele>100.11</ele>
        <time>2026-06-29T07:24:09Z</time>
      </trkpt>
      <trkpt lat="51.833127038553357" lon="-10.327414982020855">
        <ele>99.629999999999995</ele>
        <time>2026-06-29T07:24:10Z</time>
      </trkpt>
      <trkpt lat="51.833098037168384" lon="-10.327588990330696">
        <ele>99.150000000000006</ele>
        <time>2026-06-29T07:24:11Z</time>
      </trkpt>
      <trkpt lat="51.833068029955029" lon="-10.327769033610821">
        <ele>98.189999999999998</ele>
        <time>2026-06-29T07:24:12Z</time>
      </trkpt>
      <trkpt lat="51.833038022741675" lon="-10.327946981415153">
        <ele>97.709999999999994</ele>
        <time>2026-06-29T07:24:13Z</time>
      </trkpt>
      <trkpt lat="51.833011033013463" lon="-10.328106991946697">
        <ele>96.269999999999996</ele>
        <time>2026-06-29T07:24:14Z</time>
      </trkpt>
      <trkpt lat="51.8329849652946" lon="-10.328269014135003">
        <ele>95.310000000000002</ele>
        <time>2026-06-29T07:24:15Z</time>
      </trkpt>
      <trkpt lat="51.83296199887991" lon="-10.328444028273225">
        <ele>94.349999999999994</ele>
        <time>2026-06-29T07:24:16Z</time>
      </trkpt>
      <trkpt lat="51.832969961687922" lon="-10.328620970249176">
        <ele>93.870000000000005</ele>
        <time>2026-06-29T07:24:17Z</time>
      </trkpt>
      <trkpt lat="51.832977002486587" lon="-10.328793972730637">
        <ele>92.900000000000006</ele>
        <time>2026-06-29T07:24:18Z</time>
      </trkpt>
      <trkpt lat="51.832998041063547" lon="-10.328965969383717">
        <ele>92.420000000000002</ele>
        <time>2026-06-29T07:24:19Z</time>
      </trkpt>
      <trkpt lat="51.833032993599772" lon="-10.329130003228784">
        <ele>91.939999999999998</ele>
        <time>2026-06-29T07:24:20Z</time>
      </trkpt>
      <trkpt lat="51.833068029955029" lon="-10.329294037073851">
        <ele>90.980000000000004</ele>
        <time>2026-06-29T07:24:21Z</time>
      </trkpt>
      <trkpt lat="51.833128966391087" lon="-10.329478019848466">
        <ele>90.5</ele>
        <time>2026-06-29T07:24:22Z</time>
      </trkpt>
      <trkpt lat="51.833750987425447" lon="-10.330839995294809">
        <ele>86.180000000000007</ele>
        <time>2026-06-29T07:24:31Z</time>
      </trkpt>
      <trkpt lat="51.833876967430115" lon="-10.33114199526608">
        <ele>85.209999999999994</ele>
        <time>2026-06-29T07:24:33Z</time>
      </trkpt>
      <trkpt lat="51.83390898630023" lon="-10.331317009404302">
        <ele>84.730000000000004</ele>
        <time>2026-06-29T07:24:34Z</time>
      </trkpt>
      <trkpt lat="51.834322968497872" lon="-10.332986013963819">
        <ele>77.519999999999996</ele>
        <time>2026-06-29T07:24:44Z</time>
      </trkpt>
      <trkpt lat="51.834636032581329" lon="-10.333705013617873">
        <ele>75.120000000000005</ele>
        <time>2026-06-29T07:24:49Z</time>
      </trkpt>
      <trkpt lat="51.834714990109205" lon="-10.333793023601174">
        <ele>74.640000000000001</ele>
        <time>2026-06-29T07:24:50Z</time>
      </trkpt>
      <trkpt lat="51.834805011749268" lon="-10.333839962258935">
        <ele>74.159999999999997</ele>
        <time>2026-06-29T07:24:51Z</time>
      </trkpt>
      <trkpt lat="51.834891010075808" lon="-10.333865024149418">
        <ele>73.680000000000007</ele>
        <time>2026-06-29T07:24:52Z</time>
      </trkpt>
      <trkpt lat="51.834998968988657" lon="-10.333838034421206">
        <ele>72.719999999999999</ele>
        <time>2026-06-29T07:24:53Z</time>
      </trkpt>
      <trkpt lat="51.835103994235396" lon="-10.333811966702342">
        <ele>71.760000000000005</ele>
        <time>2026-06-29T07:24:54Z</time>
      </trkpt>
      <trkpt lat="51.835235003381968" lon="-10.333779025822878">
        <ele>70.790000000000006</ele>
        <time>2026-06-29T07:24:55Z</time>
      </trkpt>
      <trkpt lat="51.835332987830043" lon="-10.333713982254267">
        <ele>69.829999999999998</ele>
        <time>2026-06-29T07:24:56Z</time>
      </trkpt>
      <trkpt lat="51.835445975884795" lon="-10.333629995584488">
        <ele>68.870000000000005</ele>
        <time>2026-06-29T07:24:57Z</time>
      </trkpt>
      <trkpt lat="51.83554396033287" lon="-10.333518013358116">
        <ele>67.909999999999997</ele>
        <time>2026-06-29T07:24:58Z</time>
      </trkpt>
      <trkpt lat="51.835644962266088" lon="-10.333403013646603">
        <ele>66.950000000000003</ele>
        <time>2026-06-29T07:24:59Z</time>
      </trkpt>
      <trkpt lat="51.836080988869071" lon="-10.332766994833946">
        <ele>63.100000000000001</ele>
        <time>2026-06-29T07:25:04Z</time>
      </trkpt>
      <trkpt lat="51.836182996630669" lon="-10.332716032862663">
        <ele>62.140000000000001</ele>
        <time>2026-06-29T07:25:05Z</time>
      </trkpt>
      <trkpt lat="51.836285004392266" lon="-10.332678984850645">
        <ele>61.659999999999997</ele>
        <time>2026-06-29T07:25:06Z</time>
      </trkpt>
      <trkpt lat="51.836481979116797" lon="-10.332605978474021">
        <ele>60.219999999999999</ele>
        <time>2026-06-29T07:25:08Z</time>
      </trkpt>
      <trkpt lat="51.836575018242002" lon="-10.332478992640972">
        <ele>59.259999999999998</ele>
        <time>2026-06-29T07:25:09Z</time>
      </trkpt>
      <trkpt lat="51.836652969941497" lon="-10.332353012636304">
        <ele>58.780000000000001</ele>
        <time>2026-06-29T07:25:10Z</time>
      </trkpt>
      <trkpt lat="51.836736034601927" lon="-10.332218986004591">
        <ele>57.82</ele>
        <time>2026-06-29T07:25:11Z</time>
      </trkpt>
      <trkpt lat="51.836822032928467" lon="-10.332080014050007">
        <ele>57.340000000000003</ele>
        <time>2026-06-29T07:25:12Z</time>
      </trkpt>
      <trkpt lat="51.837829034775496" lon="-10.330469012260437">
        <ele>49.159999999999997</ele>
        <time>2026-06-29T07:25:23Z</time>
      </trkpt>
      <trkpt lat="51.839119009673595" lon="-10.329135032370687">
        <ele>44.359999999999999</ele>
        <time>2026-06-29T07:25:34Z</time>
      </trkpt>
      <trkpt lat="51.839222023263574" lon="-10.32903696410358">
        <ele>43.880000000000003</ele>
        <time>2026-06-29T07:25:35Z</time>
      </trkpt>
      <trkpt lat="51.839315984398127" lon="-10.328946020454168">
        <ele>43.880000000000003</ele>
        <time>2026-06-29T07:25:36Z</time>
      </trkpt>
      <trkpt lat="51.839426960796118" lon="-10.328915007412434">
        <ele>43.399999999999999</ele>
        <time>2026-06-29T07:25:37Z</time>
      </trkpt>
      <trkpt lat="51.83953600935638" lon="-10.328897992148995">
        <ele>43.399999999999999</ele>
        <time>2026-06-29T07:25:38Z</time>
      </trkpt>
      <trkpt lat="51.83964597992599" lon="-10.328879971057177">
        <ele>42.920000000000002</ele>
        <time>2026-06-29T07:25:39Z</time>
      </trkpt>
      <trkpt lat="51.839763997122645" lon="-10.328868990764022">
        <ele>42.439999999999998</ele>
        <time>2026-06-29T07:25:40Z</time>
      </trkpt>
      <trkpt lat="51.83998997323215" lon="-10.32890897244215">
        <ele>41.469999999999999</ele>
        <time>2026-06-29T07:25:42Z</time>
      </trkpt>
      <trkpt lat="51.840122994035482" lon="-10.32894903793931">
        <ele>40.990000000000002</ele>
        <time>2026-06-29T07:25:43Z</time>
      </trkpt>
      <trkpt lat="51.840214021503925" lon="-10.329055991023779">
        <ele>40.509999999999998</ele>
        <time>2026-06-29T07:25:44Z</time>
      </trkpt>
      <trkpt lat="51.840491965413094" lon="-10.329380035400391">
        <ele>39.07</ele>
        <time>2026-06-29T07:25:47Z</time>
      </trkpt>
      <trkpt lat="51.840593973174691" lon="-10.329425968229771">
        <ele>38.590000000000003</ele>
        <time>2026-06-29T07:25:48Z</time>
      </trkpt>
      <trkpt lat="51.840706961229444" lon="-10.329477014020085">
        <ele>38.109999999999999</ele>
        <time>2026-06-29T07:25:49Z</time>
      </trkpt>
      <trkpt lat="51.840823972597718" lon="-10.329529987648129">
        <ele>37.630000000000003</ele>
        <time>2026-06-29T07:25:50Z</time>
      </trkpt>
      <trkpt lat="51.840939978137612" lon="-10.329567035660148">
        <ele>37.149999999999999</ele>
        <time>2026-06-29T07:25:51Z</time>
      </trkpt>
      <trkpt lat="51.841063024476171" lon="-10.329524958506227">
        <ele>36.670000000000002</ele>
        <time>2026-06-29T07:25:52Z</time>
      </trkpt>
      <trkpt lat="51.8411910161376" lon="-10.329481037333608">
        <ele>36.189999999999998</ele>
        <time>2026-06-29T07:25:53Z</time>
      </trkpt>
      <trkpt lat="51.841321019455791" lon="-10.329436026513577">
        <ele>35.710000000000001</ele>
        <time>2026-06-29T07:25:54Z</time>
      </trkpt>
      <trkpt lat="51.84278198517859" lon="-10.328862033784389">
        <ele>32.340000000000003</ele>
        <time>2026-06-29T07:26:05Z</time>
      </trkpt>
      <trkpt lat="51.843673987314105" lon="-10.328403962776065">
        <ele>30.420000000000002</ele>
        <time>2026-06-29T07:26:12Z</time>
      </trkpt>
      <trkpt lat="51.843799967318773" lon="-10.32834998331964">
        <ele>30.899999999999999</ele>
        <time>2026-06-29T07:26:13Z</time>
      </trkpt>
      <trkpt lat="51.843929970636964" lon="-10.328321987763047">
        <ele>30.420000000000002</ele>
        <time>2026-06-29T07:26:14Z</time>
      </trkpt>
      <trkpt lat="51.844059973955154" lon="-10.328293992206454">
        <ele>30.420000000000002</ele>
        <time>2026-06-29T07:26:15Z</time>
      </trkpt>
      <trkpt lat="51.844200035557151" lon="-10.328340008854866">
        <ele>30.420000000000002</ele>
        <time>2026-06-29T07:26:16Z</time>
      </trkpt>
      <trkpt lat="51.8443270213902" lon="-10.328407986089587">
        <ele>29.940000000000001</ele>
        <time>2026-06-29T07:26:17Z</time>
      </trkpt>
      <trkpt lat="51.844455013051629" lon="-10.328475963324308">
        <ele>29.460000000000001</ele>
        <time>2026-06-29T07:26:18Z</time>
      </trkpt>
      <trkpt lat="51.844572024419904" lon="-10.328599009662867">
        <ele>28.98</ele>
        <time>2026-06-29T07:26:19Z</time>
      </trkpt>
      <trkpt lat="51.844698004424572" lon="-10.32873596996069">
        <ele>28.5</ele>
        <time>2026-06-29T07:26:20Z</time>
      </trkpt>
      <trkpt lat="51.844789031893015" lon="-10.328873014077544">
        <ele>28.02</ele>
        <time>2026-06-29T07:26:21Z</time>
      </trkpt>
      <trkpt lat="51.844890033826232" lon="-10.329024977982044">
        <ele>27.530000000000001</ele>
        <time>2026-06-29T07:26:22Z</time>
      </trkpt>
      <trkpt lat="51.84576996602118" lon="-10.331053985282779">
        <ele>22.73</ele>
        <time>2026-06-29T07:26:33Z</time>
      </trkpt>
      <trkpt lat="51.84581195935607" lon="-10.331273004412651">
        <ele>22.25</ele>
        <time>2026-06-29T07:26:34Z</time>
      </trkpt>
      <trkpt lat="51.84585303068161" lon="-10.33148598857224">
        <ele>21.77</ele>
        <time>2026-06-29T07:26:35Z</time>
      </trkpt>
      <trkpt lat="51.84587499126792" lon="-10.331698972731829">
        <ele>21.289999999999999</ele>
        <time>2026-06-29T07:26:36Z</time>
      </trkpt>
      <trkpt lat="51.84589602984488" lon="-10.331920003518462">
        <ele>21.289999999999999</ele>
        <time>2026-06-29T07:26:37Z</time>
      </trkpt>
      <trkpt lat="51.846173973754048" lon="-10.33472903072834">
        <ele>16.48</ele>
        <time>2026-06-29T07:26:50Z</time>
      </trkpt>
      <trkpt lat="51.846343036741018" lon="-10.33586704172194">
        <ele>16.48</ele>
        <time>2026-06-29T07:26:57Z</time>
      </trkpt>
      <trkpt lat="51.846354017034173" lon="-10.335937030613422">
        <ele>16.960000000000001</ele>
        <time>2026-06-29T07:26:58Z</time>
      </trkpt>
      <trkpt lat="51.846360974013805" lon="-10.335986986756325">
        <ele>17.440000000000001</ele>
        <time>2026-06-29T07:26:59Z</time>
      </trkpt>
      <trkpt lat="51.846366003155708" lon="-10.336021017283201">
        <ele>17.440000000000001</ele>
        <time>2026-06-29T07:27:00Z</time>
      </trkpt>
      <trkpt lat="51.846366003155708" lon="-10.336021017283201">
        <ele>17.440000000000001</ele>
        <time>2026-06-29T07:27:11Z</time>
      </trkpt>
      <trkpt lat="51.846366003155708" lon="-10.336021017283201">
        <ele>16.960000000000001</ele>
        <time>2026-06-29T07:27:59Z</time>
      </trkpt>
      <trkpt lat="51.846401961520314" lon="-10.336123025044799">
        <ele>16.960000000000001</ele>
        <time>2026-06-29T07:28:13Z</time>
      </trkpt>
      <trkpt lat="51.846435992047191" lon="-10.336199970915914">
        <ele>16.960000000000001</ele>
        <time>2026-06-29T07:28:14Z</time>
      </trkpt>
      <trkpt lat="51.846588039770722" lon="-10.336466012522578">
        <ele>16.960000000000001</ele>
        <time>2026-06-29T07:28:17Z</time>
      </trkpt>
      <trkpt lat="51.846671020612121" lon="-10.3365149628371">
        <ele>16.960000000000001</ele>
        <time>2026-06-29T07:28:18Z</time>
      </trkpt>
      <trkpt lat="51.846763975918293" lon="-10.336568020284176">
        <ele>17.920000000000002</ele>
        <time>2026-06-29T07:28:19Z</time>
      </trkpt>
      <trkpt lat="51.846874030306935" lon="-10.336595010012388">
        <ele>18.399999999999999</ele>
        <time>2026-06-29T07:28:20Z</time>
      </trkpt>
      <trkpt lat="51.846986012533307" lon="-10.336602972820401">
        <ele>18.879999999999999</ele>
        <time>2026-06-29T07:28:21Z</time>
      </trkpt>
      <trkpt lat="51.847101012244821" lon="-10.336611019447446">
        <ele>19.84</ele>
        <time>2026-06-29T07:28:22Z</time>
      </trkpt>
      <trkpt lat="51.847216011956334" lon="-10.336536001414061">
        <ele>20.809999999999999</ele>
        <time>2026-06-29T07:28:23Z</time>
      </trkpt>
      <trkpt lat="51.847330005839467" lon="-10.336460983380675">
        <ele>21.77</ele>
        <time>2026-06-29T07:28:24Z</time>
      </trkpt>
      <trkpt lat="51.847449028864503" lon="-10.33638303168118">
        <ele>22.73</ele>
        <time>2026-06-29T07:28:25Z</time>
      </trkpt>
      <trkpt lat="51.848524007946253" lon="-10.335793029516935">
        <ele>28.02</ele>
        <time>2026-06-29T07:28:34Z</time>
      </trkpt>
      <trkpt lat="51.849018959328532" lon="-10.335593037307262">
        <ele>30.420000000000002</ele>
        <time>2026-06-29T07:28:42Z</time>
      </trkpt>
      <trkpt lat="51.849210988730192" lon="-10.335516007617116">
        <ele>31.859999999999999</ele>
        <time>2026-06-29T07:28:50Z</time>
      </trkpt>
      <trkpt lat="51.84937996789813" lon="-10.335447024554014">
        <ele>33.299999999999997</ele>
        <time>2026-06-29T07:28:53Z</time>
      </trkpt>
      <trkpt lat="51.84942196123302" lon="-10.335430009290576">
        <ele>33.299999999999997</ele>
        <time>2026-06-29T07:28:54Z</time>
      </trkpt>
      <trkpt lat="51.849451968446374" lon="-10.335418023169041">
        <ele>33.780000000000001</ele>
        <time>2026-06-29T07:28:55Z</time>
      </trkpt>
      <trkpt lat="51.849525980651379" lon="-10.335472002625465">
        <ele>33.780000000000001</ele>
        <time>2026-06-29T07:28:56Z</time>
      </trkpt>
      <trkpt lat="51.849525980651379" lon="-10.335549032315612">
        <ele>33.780000000000001</ele>
        <time>2026-06-29T07:28:57Z</time>
      </trkpt>
      <trkpt lat="51.849510977044702" lon="-10.335661014541984">
        <ele>34.259999999999998</ele>
        <time>2026-06-29T07:28:58Z</time>
      </trkpt>
      <trkpt lat="51.849493961781263" lon="-10.335780037567019">
        <ele>34.259999999999998</ele>
        <time>2026-06-29T07:28:59Z</time>
      </trkpt>
      <trkpt lat="51.849475018680096" lon="-10.335913980379701">
        <ele>34.259999999999998</ele>
        <time>2026-06-29T07:29:00Z</time>
      </trkpt>
      <trkpt lat="51.849351972341537" lon="-10.337233962491155">
        <ele>34.259999999999998</ele>
        <time>2026-06-29T07:29:08Z</time>
      </trkpt>
      <trkpt lat="51.849319031462073" lon="-10.33754501491785">
        <ele>35.229999999999997</ele>
        <time>2026-06-29T07:29:10Z</time>
      </trkpt>
      <trkpt lat="51.848947964608669" lon="-10.33939003944397">
        <ele>40.030000000000001</ele>
        <time>2026-06-29T07:29:20Z</time>
      </trkpt>
      <trkpt lat="51.848437003791332" lon="-10.342408027499914">
        <ele>44.840000000000003</ele>
        <time>2026-06-29T07:29:34Z</time>
      </trkpt>
      <trkpt lat="51.847906010225415" lon="-10.346097992733121">
        <ele>44.359999999999999</ele>
        <time>2026-06-29T07:29:51Z</time>
      </trkpt>
      <trkpt lat="51.84776502661407" lon="-10.347458040341735">
        <ele>44.359999999999999</ele>
        <time>2026-06-29T07:29:58Z</time>
      </trkpt>
      <trkpt lat="51.847792016342282" lon="-10.347608998417854">
        <ele>43.880000000000003</ele>
        <time>2026-06-29T07:29:59Z</time>
      </trkpt>
      <trkpt lat="51.847822023555636" lon="-10.347768003121018">
        <ele>43.880000000000003</ele>
        <time>2026-06-29T07:30:00Z</time>
      </trkpt>
      <trkpt lat="51.848142966628075" lon="-10.349466009065509">
        <ele>40.990000000000002</ele>
        <time>2026-06-29T07:30:10Z</time>
      </trkpt>
      <trkpt lat="51.848167022690177" lon="-10.34959701821208">
        <ele>40.509999999999998</ele>
        <time>2026-06-29T07:30:11Z</time>
      </trkpt>
      <trkpt lat="51.848198035731912" lon="-10.349746970459819">
        <ele>40.030000000000001</ele>
        <time>2026-06-29T07:30:12Z</time>
      </trkpt>
      <trkpt lat="51.848270958289504" lon="-10.349847972393036">
        <ele>40.030000000000001</ele>
        <time>2026-06-29T07:30:13Z</time>
      </trkpt>
      <trkpt lat="51.848351005464792" lon="-10.349958026781678">
        <ele>40.030000000000001</ele>
        <time>2026-06-29T07:30:14Z</time>
      </trkpt>
      <trkpt lat="51.848455024883151" lon="-10.350003037601709">
        <ele>40.030000000000001</ele>
        <time>2026-06-29T07:30:15Z</time>
      </trkpt>
      <trkpt lat="51.848563989624381" lon="-10.350031033158302">
        <ele>40.509999999999998</ele>
        <time>2026-06-29T07:30:16Z</time>
      </trkpt>
      <trkpt lat="51.848676977679133" lon="-10.350061040371656">
        <ele>40.990000000000002</ele>
        <time>2026-06-29T07:30:17Z</time>
      </trkpt>
      <trkpt lat="51.850030990317464" lon="-10.350416013970971">
        <ele>46.280000000000001</ele>
        <time>2026-06-29T07:30:28Z</time>
      </trkpt>
      <trkpt lat="51.851280983537436" lon="-10.350743997842073">
        <ele>52.049999999999997</ele>
        <time>2026-06-29T07:30:39Z</time>
      </trkpt>
      <trkpt lat="51.851346027106047" lon="-10.350761013105512">
        <ele>52.049999999999997</ele>
        <time>2026-06-29T07:30:40Z</time>
      </trkpt>
      <trkpt lat="51.851391959935427" lon="-10.350772999227047">
        <ele>52.530000000000001</ele>
        <time>2026-06-29T07:30:41Z</time>
      </trkpt>
      <trkpt lat="51.851400006562471" lon="-10.350809041410685">
        <ele>53.009999999999998</ele>
        <time>2026-06-29T07:30:42Z</time>
      </trkpt>
      <trkpt lat="51.851414004340768" lon="-10.350879030302167">
        <ele>53.490000000000002</ele>
        <time>2026-06-29T07:30:43Z</time>
      </trkpt>
      <trkpt lat="51.851400006562471" lon="-10.350922029465437">
        <ele>53.490000000000002</ele>
        <time>2026-06-29T07:30:44Z</time>
      </trkpt>
      <trkpt lat="51.85137502849102" lon="-10.350996041670442">
        <ele>53.969999999999999</ele>
        <time>2026-06-29T07:30:45Z</time>
      </trkpt>
      <trkpt lat="51.851338986307383" lon="-10.351034011691809">
        <ele>53.969999999999999</ele>
        <time>2026-06-29T07:30:46Z</time>
      </trkpt>
      <trkpt lat="51.851276038214564" lon="-10.35108002834022">
        <ele>54.450000000000003</ele>
        <time>2026-06-29T07:30:47Z</time>
      </trkpt>
      <trkpt lat="51.85088200494647" lon="-10.351529968902469">
        <ele>56.859999999999999</ele>
        <time>2026-06-29T07:30:53Z</time>
      </trkpt>
      <trkpt lat="51.850828025490046" lon="-10.351614961400628">
        <ele>57.340000000000003</ele>
        <time>2026-06-29T07:30:54Z</time>
      </trkpt>
      <trkpt lat="51.850769016891718" lon="-10.351706994697452">
        <ele>57.340000000000003</ele>
        <time>2026-06-29T07:30:55Z</time>
      </trkpt>
      <trkpt lat="51.850726017728448" lon="-10.3518530074507">
        <ele>57.82</ele>
        <time>2026-06-29T07:30:56Z</time>
      </trkpt>
      <trkpt lat="51.850696010515094" lon="-10.352002959698439">
        <ele>58.299999999999997</ele>
        <time>2026-06-29T07:30:57Z</time>
      </trkpt>
      <trkpt lat="51.850663991644979" lon="-10.352162970229983">
        <ele>58.299999999999997</ele>
        <time>2026-06-29T07:30:58Z</time>
      </trkpt>
      <trkpt lat="51.850640019401908" lon="-10.352328009903431">
        <ele>58.780000000000001</ele>
        <time>2026-06-29T07:30:59Z</time>
      </trkpt>
      <trkpt lat="51.850637001916766" lon="-10.352485002949834">
        <ele>59.259999999999998</ele>
        <time>2026-06-29T07:31:00Z</time>
      </trkpt>
      <trkpt lat="51.850633984431624" lon="-10.352630009874701">
        <ele>59.259999999999998</ele>
        <time>2026-06-29T07:31:01Z</time>
      </trkpt>
      <trkpt lat="51.850606994703412" lon="-10.353927025571465">
        <ele>62.140000000000001</ele>
        <time>2026-06-29T07:31:10Z</time>
      </trkpt>
      <trkpt lat="51.850586961954832" lon="-10.356516027823091">
        <ele>68.390000000000001</ele>
        <time>2026-06-29T07:31:22Z</time>
      </trkpt>
      <trkpt lat="51.850513033568859" lon="-10.359135959297419">
        <ele>74.640000000000001</ele>
        <time>2026-06-29T07:31:34Z</time>
      </trkpt>
      <trkpt lat="51.850533988326788" lon="-10.361298993229866">
        <ele>78.969999999999999</ele>
        <time>2026-06-29T07:31:45Z</time>
      </trkpt>
      <trkpt lat="51.850533988326788" lon="-10.363079980015755">
        <ele>83.290000000000006</ele>
        <time>2026-06-29T07:31:54Z</time>
      </trkpt>
      <trkpt lat="51.850621998310089" lon="-10.364252021536231">
        <ele>88.099999999999994</ele>
        <time>2026-06-29T07:32:00Z</time>
      </trkpt>
      <trkpt lat="51.850859960541129" lon="-10.366035019978881">
        <ele>101.08</ele>
        <time>2026-06-29T07:32:10Z</time>
      </trkpt>
      <trkpt lat="51.851134970784187" lon="-10.368093028664589">
        <ele>116.45999999999999</ele>
        <time>2026-06-29T07:32:22Z</time>
      </trkpt>
      <trkpt lat="51.851200014352798" lon="-10.368578005582094">
        <ele>122.22</ele>
        <time>2026-06-29T07:32:27Z</time>
      </trkpt>
      <trkpt lat="51.851207977160811" lon="-10.368639025837183">
        <ele>123.19</ele>
        <time>2026-06-29T07:32:28Z</time>
      </trkpt>
      <trkpt lat="51.851253993809223" lon="-10.368665009737015">
        <ele>124.15000000000001</ele>
        <time>2026-06-29T07:32:29Z</time>
      </trkpt>
      <trkpt lat="51.8512689974159" lon="-10.368631985038519">
        <ele>125.59</ele>
        <time>2026-06-29T07:32:30Z</time>
      </trkpt>
      <trkpt lat="51.851297998800874" lon="-10.368571970611811">
        <ele>126.55</ele>
        <time>2026-06-29T07:32:31Z</time>
      </trkpt>
      <trkpt lat="51.851336974650621" lon="-10.368489995598793">
        <ele>127.51000000000001</ele>
        <time>2026-06-29T07:32:32Z</time>
      </trkpt>
      <trkpt lat="51.851383997127414" lon="-10.368393016979098">
        <ele>128.47</ele>
        <time>2026-06-29T07:32:33Z</time>
      </trkpt>
      <trkpt lat="51.851972993463278" lon="-10.367161966860294">
        <ele>137.13</ele>
        <time>2026-06-29T07:32:42Z</time>
      </trkpt>
      <trkpt lat="51.852844962850213" lon="-10.365334041416645">
        <ele>152.50999999999999</ele>
        <time>2026-06-29T07:32:55Z</time>
      </trkpt>
      <trkpt lat="51.853002039715648" lon="-10.365000022575259">
        <ele>157.31</ele>
        <time>2026-06-29T07:32:59Z</time>
      </trkpt>
      <trkpt lat="51.853034980595112" lon="-10.364994993433356">
        <ele>158.27000000000001</ele>
        <time>2026-06-29T07:33:00Z</time>
      </trkpt>
      <trkpt lat="51.85307496227324" lon="-10.364988036453724">
        <ele>158.75</ele>
        <time>2026-06-29T07:33:01Z</time>
      </trkpt>
      <trkpt lat="51.853131959214807" lon="-10.364989964291453">
        <ele>159.72</ele>
        <time>2026-06-29T07:33:02Z</time>
      </trkpt>
      <trkpt lat="51.853141011670232" lon="-10.365074034780264">
        <ele>160.68000000000001</ele>
        <time>2026-06-29T07:33:03Z</time>
      </trkpt>
      <trkpt lat="51.853154003620148" lon="-10.365181993693113">
        <ele>161.63999999999999</ele>
        <time>2026-06-29T07:33:04Z</time>
      </trkpt>
      <trkpt lat="51.853303033858538" lon="-10.366473980247974">
        <ele>172.69</ele>
        <time>2026-06-29T07:33:12Z</time>
      </trkpt>
      <trkpt lat="51.853362964466214" lon="-10.367208989337087">
        <ele>180.38</ele>
        <time>2026-06-29T07:33:16Z</time>
      </trkpt>
      <trkpt lat="51.853262968361378" lon="-10.369853982701898">
        <ele>199.61000000000001</ele>
        <time>2026-06-29T07:33:29Z</time>
      </trkpt>
      <trkpt lat="51.853237990289927" lon="-10.370668033137918">
        <ele>205.86000000000001</ele>
        <time>2026-06-29T07:33:35Z</time>
      </trkpt>
      <trkpt lat="51.853237990289927" lon="-10.370751013979316">
        <ele>206.81999999999999</ele>
        <time>2026-06-29T07:33:36Z</time>
      </trkpt>
      <trkpt lat="51.853263974189758" lon="-10.370821002870798">
        <ele>207.30000000000001</ele>
        <time>2026-06-29T07:33:37Z</time>
      </trkpt>
      <trkpt lat="51.853290041908622" lon="-10.37089099176228">
        <ele>208.25999999999999</ele>
        <time>2026-06-29T07:33:38Z</time>
      </trkpt>
      <trkpt lat="51.853344021365047" lon="-10.370915969833732">
        <ele>208.74000000000001</ele>
        <time>2026-06-29T07:33:39Z</time>
      </trkpt>
      <trkpt lat="51.853431025519967" lon="-10.370900966227055">
        <ele>210.19</ele>
        <time>2026-06-29T07:33:40Z</time>
      </trkpt>
      <trkpt lat="51.853499002754688" lon="-10.370854027569294">
        <ele>211.15000000000001</ele>
        <time>2026-06-29T07:33:41Z</time>
      </trkpt>
      <trkpt lat="51.853601010516286" lon="-10.370784038677812">
        <ele>212.59</ele>
        <time>2026-06-29T07:33:42Z</time>
      </trkpt>
      <trkpt lat="51.853810977190733" lon="-10.3706119582057">
        <ele>215.47</ele>
        <time>2026-06-29T07:33:44Z</time>
      </trkpt>
      <trkpt lat="51.853896975517273" lon="-10.370491007342935">
        <ele>217.40000000000001</ele>
        <time>2026-06-29T07:33:45Z</time>
      </trkpt>
      <trkpt lat="51.85522198677063" lon="-10.368609018623829">
        <ele>246.72</ele>
        <time>2026-06-29T07:34:00Z</time>
      </trkpt>
      <trkpt lat="51.85601600445807" lon="-10.367615008726716">
        <ele>258.73000000000002</ele>
        <time>2026-06-29T07:34:09Z</time>
      </trkpt>
      <trkpt lat="51.856137961149216" lon="-10.367524987086654">
        <ele>258.73000000000002</ele>
        <time>2026-06-29T07:34:11Z</time>
      </trkpt>
      <trkpt lat="51.856192024424672" lon="-10.367501014843583">
        <ele>258.73000000000002</ele>
        <time>2026-06-29T07:34:12Z</time>
      </trkpt>
      <trkpt lat="51.856252960860729" lon="-10.36751501262188">
        <ele>258.73000000000002</ele>
        <time>2026-06-29T07:34:13Z</time>
      </trkpt>
      <trkpt lat="51.856307024136186" lon="-10.36755801178515">
        <ele>258.73000000000002</ele>
        <time>2026-06-29T07:34:14Z</time>
      </trkpt>
      <trkpt lat="51.856352034956217" lon="-10.36766697652638">
        <ele>258.73000000000002</ele>
        <time>2026-06-29T07:34:15Z</time>
      </trkpt>
      <trkpt lat="51.85638296417892" lon="-10.367781976237893">
        <ele>258.25</ele>
        <time>2026-06-29T07:34:16Z</time>
      </trkpt>
      <trkpt lat="51.856418000534177" lon="-10.367912985384464">
        <ele>257.29000000000002</ele>
        <time>2026-06-29T07:34:17Z</time>
      </trkpt>
      <trkpt lat="51.85685402713716" lon="-10.369533961638808">
        <ele>243.83000000000001</ele>
        <time>2026-06-29T07:34:27Z</time>
      </trkpt>
      <trkpt lat="51.857288964092731" lon="-10.371392983943224">
        <ele>227.00999999999999</ele>
        <time>2026-06-29T07:34:36Z</time>
      </trkpt>
      <trkpt lat="51.858063032850623" lon="-10.373053019866347">
        <ele>209.69999999999999</ele>
        <time>2026-06-29T07:34:44Z</time>
      </trkpt>
      <trkpt lat="51.859074980020523" lon="-10.374552039429545">
        <ele>187.11000000000001</ele>
        <time>2026-06-29T07:34:53Z</time>
      </trkpt>
      <trkpt lat="51.860346011817455" lon="-10.376275023445487">
        <ele>159.72</ele>
        <time>2026-06-29T07:35:04Z</time>
      </trkpt>
      <trkpt lat="51.860454976558685" lon="-10.376353980973363">
        <ele>157.31</ele>
        <time>2026-06-29T07:35:05Z</time>
      </trkpt>
      <trkpt lat="51.860570982098579" lon="-10.376412989571691">
        <ele>154.43000000000001</ele>
        <time>2026-06-29T07:35:06Z</time>
      </trkpt>
      <trkpt lat="51.860693022608757" lon="-10.376453977078199">
        <ele>152.03</ele>
        <time>2026-06-29T07:35:07Z</time>
      </trkpt>
      <trkpt lat="51.860814979299903" lon="-10.376494964584708">
        <ele>149.13999999999999</ele>
        <time>2026-06-29T07:35:08Z</time>
      </trkpt>
      <trkpt lat="51.860938025638461" lon="-10.376526983454823">
        <ele>146.74000000000001</ele>
        <time>2026-06-29T07:35:09Z</time>
      </trkpt>
      <trkpt lat="51.862038988620043" lon="-10.376801993697882">
        <ele>126.55</ele>
        <time>2026-06-29T07:35:17Z</time>
      </trkpt>
      <trkpt lat="51.863768007606268" lon="-10.377223016694188">
        <ele>112.61</ele>
        <time>2026-06-29T07:35:28Z</time>
      </trkpt>
      <trkpt lat="51.865771031007171" lon="-10.377759039402008">
        <ele>88.579999999999998</ele>
        <time>2026-06-29T07:35:41Z</time>
      </trkpt>
      <trkpt lat="51.867808001115918" lon="-10.378275029361248">
        <ele>79.930000000000007</ele>
        <time>2026-06-29T07:35:54Z</time>
      </trkpt>
      <trkpt lat="51.869009966030717" lon="-10.378558002412319">
        <ele>75.120000000000005</ele>
        <time>2026-06-29T07:36:04Z</time>
      </trkpt>
      <trkpt lat="51.869441969320178" lon="-10.378660010173917">
        <ele>73.680000000000007</ele>
        <time>2026-06-29T07:36:11Z</time>
      </trkpt>
      <trkpt lat="51.8694650195539" lon="-10.37866503931582">
        <ele>73.680000000000007</ele>
        <time>2026-06-29T07:36:12Z</time>
      </trkpt>
      <trkpt lat="51.869478011503816" lon="-10.37866797298193">
        <ele>73.680000000000007</ele>
        <time>2026-06-29T07:36:24Z</time>
      </trkpt>
      <trkpt lat="51.869478011503816" lon="-10.37866797298193">
        <ele>73.680000000000007</ele>
        <time>2026-06-29T07:37:15Z</time>
      </trkpt>
      <trkpt lat="51.869478011503816" lon="-10.37866797298193">
        <ele>73.200000000000003</ele>
        <time>2026-06-29T07:37:36Z</time>
      </trkpt>
      <trkpt lat="51.869478011503816" lon="-10.37866797298193">
        <ele>73.200000000000003</ele>
        <time>2026-06-29T07:38:17Z</time>
      </trkpt>
      <trkpt lat="51.869478011503816" lon="-10.37866797298193">
        <ele>73.200000000000003</ele>
        <time>2026-06-29T07:39:00Z</time>
      </trkpt>
      <trkpt lat="51.869498966261744" lon="-10.378673002123833">
        <ele>73.200000000000003</ele>
        <time>2026-06-29T07:39:07Z</time>
      </trkpt>
      <trkpt lat="51.869518999010324" lon="-10.378678031265736">
        <ele>72.719999999999999</ele>
        <time>2026-06-29T07:39:08Z</time>
      </trkpt>
      <trkpt lat="51.869587982073426" lon="-10.378694040700793">
        <ele>71.269999999999996</ele>
        <time>2026-06-29T07:39:10Z</time>
      </trkpt>
      <trkpt lat="51.86963802203536" lon="-10.378706026822329">
        <ele>70.310000000000002</ele>
        <time>2026-06-29T07:39:11Z</time>
      </trkpt>
      <trkpt lat="51.870318967849016" lon="-10.378866037353873">
        <ele>66.950000000000003</ele>
        <time>2026-06-29T07:39:18Z</time>
      </trkpt>
      <trkpt lat="51.871884958818555" lon="-10.379234002903104">
        <ele>62.140000000000001</ele>
        <time>2026-06-29T07:39:30Z</time>
      </trkpt>
      <trkpt lat="51.87395797111094" lon="-10.379717973992229">
        <ele>54.450000000000003</ele>
        <time>2026-06-29T07:39:45Z</time>
      </trkpt>
      <trkpt lat="51.875493032857776" lon="-10.380074959248304">
        <ele>48.200000000000003</ele>
        <time>2026-06-29T07:39:56Z</time>
      </trkpt>
      <trkpt lat="51.877421038225293" lon="-10.38051400333643">
        <ele>45.32</ele>
        <time>2026-06-29T07:40:10Z</time>
      </trkpt>
      <trkpt lat="51.879366980865598" lon="-10.381028987467289">
        <ele>42.439999999999998</ele>
        <time>2026-06-29T07:40:25Z</time>
      </trkpt>
      <trkpt lat="51.880081035196781" lon="-10.381199978291988">
        <ele>40.990000000000002</ele>
        <time>2026-06-29T07:40:31Z</time>
      </trkpt>
      <trkpt lat="51.880206009373069" lon="-10.381152033805847">
        <ele>40.030000000000001</ele>
        <time>2026-06-29T07:40:32Z</time>
      </trkpt>
      <trkpt lat="51.880312040448189" lon="-10.381111968308687">
        <ele>39.549999999999997</ele>
        <time>2026-06-29T07:40:33Z</time>
      </trkpt>
      <trkpt lat="51.88042301684618" lon="-10.381020018830895">
        <ele>39.549999999999997</ele>
        <time>2026-06-29T07:40:34Z</time>
      </trkpt>
      <trkpt lat="51.880525024607778" lon="-10.380904013291001">
        <ele>39.07</ele>
        <time>2026-06-29T07:40:35Z</time>
      </trkpt>
      <trkpt lat="51.881724977865815" lon="-10.379595011472702">
        <ele>37.149999999999999</ele>
        <time>2026-06-29T07:40:45Z</time>
      </trkpt>
      <trkpt lat="51.881818016991019" lon="-10.379493003711104">
        <ele>36.670000000000002</ele>
        <time>2026-06-29T07:40:46Z</time>
      </trkpt>
      <trkpt lat="51.881922036409378" lon="-10.379306003451347">
        <ele>36.670000000000002</ele>
        <time>2026-06-29T07:40:47Z</time>
      </trkpt>
      <trkpt lat="51.881954977288842" lon="-10.379120009019971">
        <ele>36.670000000000002</ele>
        <time>2026-06-29T07:40:48Z</time>
      </trkpt>
      <trkpt lat="51.881990013644099" lon="-10.378921022638679">
        <ele>36.670000000000002</ele>
        <time>2026-06-29T07:40:49Z</time>
      </trkpt>
      <trkpt lat="51.8824009783566" lon="-10.376611975952983">
        <ele>38.590000000000003</ele>
        <time>2026-06-29T07:41:00Z</time>
      </trkpt>
      <trkpt lat="51.882617985829711" lon="-10.374651029706001">
        <ele>35.229999999999997</ele>
        <time>2026-06-29T07:41:10Z</time>
      </trkpt>
      <trkpt lat="51.882884027436376" lon="-10.371995978057384">
        <ele>26.57</ele>
        <time>2026-06-29T07:41:22Z</time>
      </trkpt>
      <trkpt lat="51.883193990215659" lon="-10.370304007083178">
        <ele>23.690000000000001</ele>
        <time>2026-06-29T07:41:31Z</time>
      </trkpt>
      <trkpt lat="51.883707968518138" lon="-10.368755031377077">
        <ele>22.25</ele>
        <time>2026-06-29T07:41:42Z</time>
      </trkpt>
      <trkpt lat="51.883750967681408" lon="-10.368626033887267">
        <ele>22.25</ele>
        <time>2026-06-29T07:41:43Z</time>
      </trkpt>
      <trkpt lat="51.883844006806612" lon="-10.368545986711979">
        <ele>22.25</ele>
        <time>2026-06-29T07:41:44Z</time>
      </trkpt>
      <trkpt lat="51.88392598181963" lon="-10.368475997820497">
        <ele>22.25</ele>
        <time>2026-06-29T07:41:45Z</time>
      </trkpt>
      <trkpt lat="51.884100995957851" lon="-10.368302995339036">
        <ele>21.77</ele>
        <time>2026-06-29T07:41:47Z</time>
      </trkpt>
      <trkpt lat="51.884358990937471" lon="-10.36796797066927">
        <ele>20.32</ele>
        <time>2026-06-29T07:41:50Z</time>
      </trkpt>
      <trkpt lat="51.88513096421957" lon="-10.366556961089373">
        <ele>14.56</ele>
        <time>2026-06-29T07:42:00Z</time>
      </trkpt>
      <trkpt lat="51.885202964767814" lon="-10.366425029933453">
        <ele>14.08</ele>
        <time>2026-06-29T07:42:01Z</time>
      </trkpt>
      <trkpt lat="51.885306984186172" lon="-10.36637700162828">
        <ele>13.6</ele>
        <time>2026-06-29T07:42:02Z</time>
      </trkpt>
      <trkpt lat="51.885400023311377" lon="-10.366381024941802">
        <ele>13.119999999999999</ele>
        <time>2026-06-29T07:42:03Z</time>
      </trkpt>
      <trkpt lat="51.885486021637917" lon="-10.366384964436293">
        <ele>12.15</ele>
        <time>2026-06-29T07:42:04Z</time>
      </trkpt>
      <trkpt lat="51.885555004701018" lon="-10.366388987749815">
        <ele>12.15</ele>
        <time>2026-06-29T07:42:05Z</time>
      </trkpt>
      <trkpt lat="51.885607978329062" lon="-10.366390999406576">
        <ele>11.67</ele>
        <time>2026-06-29T07:42:06Z</time>
      </trkpt>
      <trkpt lat="51.885652989149094" lon="-10.366393011063337">
        <ele>11.67</ele>
        <time>2026-06-29T07:42:07Z</time>
      </trkpt>
      <trkpt lat="51.885689031332731" lon="-10.36635403521359">
        <ele>11.19</ele>
        <time>2026-06-29T07:42:08Z</time>
      </trkpt>
      <trkpt lat="51.885699005797505" lon="-10.36629200913012">
        <ele>10.710000000000001</ele>
        <time>2026-06-29T07:42:09Z</time>
      </trkpt>
      <trkpt lat="51.885713003575802" lon="-10.366213973611593">
        <ele>10.710000000000001</ele>
        <time>2026-06-29T07:42:10Z</time>
      </trkpt>
      <trkpt lat="51.885728007182479" lon="-10.366125041618943">
        <ele>10.710000000000001</ele>
        <time>2026-06-29T07:42:11Z</time>
      </trkpt>
      <trkpt lat="51.885745022445917" lon="-10.366025967523456">
        <ele>10.23</ele>
        <time>2026-06-29T07:42:12Z</time>
      </trkpt>
      <trkpt lat="51.885833032429218" lon="-10.365512995049357">
        <ele>10.23</ele>
        <time>2026-06-29T07:42:20Z</time>
      </trkpt>
      <trkpt lat="51.885845018550754" lon="-10.365439988672733">
        <ele>10.23</ele>
        <time>2026-06-29T07:42:23Z</time>
      </trkpt>
      <trkpt lat="51.885850969702005" lon="-10.365405036136508">
        <ele>9.75</ele>
        <time>2026-06-29T07:42:24Z</time>
      </trkpt>
      <trkpt lat="51.885860022157431" lon="-10.365354996174574">
        <ele>9.75</ele>
        <time>2026-06-29T07:42:25Z</time>
      </trkpt>
      <trkpt lat="51.885872008278966" lon="-10.365285007283092">
        <ele>9.27</ele>
        <time>2026-06-29T07:42:26Z</time>
      </trkpt>
      <trkpt lat="51.885887011885643" lon="-10.365194985643029">
        <ele>9.27</ele>
        <time>2026-06-29T07:42:27Z</time>
      </trkpt>
      <trkpt lat="51.886058002710342" lon="-10.364178009331226">
        <ele>7.35</ele>
        <time>2026-06-29T07:42:36Z</time>
      </trkpt>
      <trkpt lat="51.886076023802161" lon="-10.364068960770965">
        <ele>6.87</ele>
        <time>2026-06-29T07:42:37Z</time>
      </trkpt>
      <trkpt lat="51.886093961074948" lon="-10.363962007686496">
        <ele>6.87</ele>
        <time>2026-06-29T07:42:38Z</time>
      </trkpt>
      <trkpt lat="51.886104019358754" lon="-10.363841978833079">
        <ele>6.87</ele>
        <time>2026-06-29T07:42:39Z</time>
      </trkpt>
      <trkpt lat="51.886070994660258" lon="-10.363742988556623">
        <ele>6.87</ele>
        <time>2026-06-29T07:42:40Z</time>
      </trkpt>
      <trkpt lat="51.886037969961762" lon="-10.363645004108548">
        <ele>7.35</ele>
        <time>2026-06-29T07:42:41Z</time>
      </trkpt>
      <trkpt lat="51.886006034910679" lon="-10.363547019660473">
        <ele>7.35</ele>
        <time>2026-06-29T07:42:42Z</time>
      </trkpt>
      <trkpt lat="51.885868990793824" lon="-10.363137982785702">
        <ele>7.83</ele>
        <time>2026-06-29T07:42:46Z</time>
      </trkpt>
      <trkpt lat="51.885842001065612" lon="-10.363057013601065">
        <ele>7.83</ele>
        <time>2026-06-29T07:42:47Z</time>
      </trkpt>
      <trkpt lat="51.885849041864276" lon="-10.362905971705914">
        <ele>7.83</ele>
        <time>2026-06-29T07:42:48Z</time>
      </trkpt>
      <trkpt lat="51.885886006057262" lon="-10.362852998077869">
        <ele>8.310000000000001</ele>
        <time>2026-06-29T07:42:49Z</time>
      </trkpt>
      <trkpt lat="51.885923976078629" lon="-10.362797006964684">
        <ele>8.789999999999999</ele>
        <time>2026-06-29T07:42:50Z</time>
      </trkpt>
      <trkpt lat="51.886040987446904" lon="-10.362722994759679">
        <ele>8.789999999999999</ele>
        <time>2026-06-29T07:42:51Z</time>
      </trkpt>
      <trkpt lat="51.886088009923697" lon="-10.362774962559342">
        <ele>9.27</ele>
        <time>2026-06-29T07:42:52Z</time>
      </trkpt>
      <trkpt lat="51.886149030178785" lon="-10.362843023613095">
        <ele>9.75</ele>
        <time>2026-06-29T07:42:53Z</time>
      </trkpt>
      <trkpt lat="51.886222036555409" lon="-10.362922986969352">
        <ele>9.75</ele>
        <time>2026-06-29T07:42:54Z</time>
      </trkpt>
      <trkpt lat="51.886304011568427" lon="-10.363015020266175">
        <ele>9.75</ele>
        <time>2026-06-29T07:42:55Z</time>
      </trkpt>
      <trkpt lat="51.887343032285571" lon="-10.364163005724549">
        <ele>10.710000000000001</ele>
        <time>2026-06-29T07:43:05Z</time>
      </trkpt>
      <trkpt lat="51.888969959691167" lon="-10.365918008610606">
        <ele>11.19</ele>
        <time>2026-06-29T07:43:19Z</time>
      </trkpt>
      <trkpt lat="51.890603005886078" lon="-10.367767978459597">
        <ele>19.359999999999999</ele>
        <time>2026-06-29T07:43:32Z</time>
      </trkpt>
      <trkpt lat="51.891954001039267" lon="-10.369359031319618">
        <ele>28.98</ele>
        <time>2026-06-29T07:43:43Z</time>
      </trkpt>
      <trkpt lat="51.892435038462281" lon="-10.369836967438459">
        <ele>34.740000000000002</ele>
        <time>2026-06-29T07:43:50Z</time>
      </trkpt>
      <trkpt lat="51.892478037625551" lon="-10.370046012103558">
        <ele>35.710000000000001</ele>
        <time>2026-06-29T07:43:51Z</time>
      </trkpt>
      <trkpt lat="51.89245599322021" lon="-10.370099991559982">
        <ele>36.189999999999998</ele>
        <time>2026-06-29T07:43:52Z</time>
      </trkpt>
      <trkpt lat="51.892426991835237" lon="-10.370175009593368">
        <ele>36.670000000000002</ele>
        <time>2026-06-29T07:43:53Z</time>
      </trkpt>
      <trkpt lat="51.89239002764225" lon="-10.370266959071159">
        <ele>37.149999999999999</ele>
        <time>2026-06-29T07:43:54Z</time>
      </trkpt>
      <trkpt lat="51.892349040135741" lon="-10.370369972661138">
        <ele>37.149999999999999</ele>
        <time>2026-06-29T07:43:55Z</time>
      </trkpt>
      <trkpt lat="51.892309980466962" lon="-10.370467035099864">
        <ele>36.670000000000002</ele>
        <time>2026-06-29T07:43:56Z</time>
      </trkpt>
      <trkpt lat="51.892274022102356" lon="-10.370554961264133">
        <ele>36.189999999999998</ele>
        <time>2026-06-29T07:43:57Z</time>
      </trkpt>
      <trkpt lat="51.892238985747099" lon="-10.370644982904196">
        <ele>36.189999999999998</ele>
        <time>2026-06-29T07:43:58Z</time>
      </trkpt>
      <trkpt lat="51.891806982457638" lon="-10.371505971997976">
        <ele>31.859999999999999</ele>
        <time>2026-06-29T07:44:06Z</time>
      </trkpt>
      <trkpt lat="51.891774041578174" lon="-10.371637986972928">
        <ele>31.379999999999999</ele>
        <time>2026-06-29T07:44:07Z</time>
      </trkpt>
      <trkpt lat="51.891732970252633" lon="-10.371802020817995">
        <ele>31.379999999999999</ele>
        <time>2026-06-29T07:44:08Z</time>
      </trkpt>
      <trkpt lat="51.891742022708058" lon="-10.371923977509141">
        <ele>30.899999999999999</ele>
        <time>2026-06-29T07:44:09Z</time>
      </trkpt>
      <trkpt lat="51.891756020486355" lon="-10.372096979990602">
        <ele>30.420000000000002</ele>
        <time>2026-06-29T07:44:10Z</time>
      </trkpt>
      <trkpt lat="51.891771024093032" lon="-10.37228599190712">
        <ele>30.420000000000002</ele>
        <time>2026-06-29T07:44:11Z</time>
      </trkpt>
      <trkpt lat="51.89200202934444" lon="-10.374621022492647">
        <ele>29.940000000000001</ele>
        <time>2026-06-29T07:44:22Z</time>
      </trkpt>
      <trkpt lat="51.892037987709045" lon="-10.375689966604114">
        <ele>31.859999999999999</ele>
        <time>2026-06-29T07:44:28Z</time>
      </trkpt>
      <trkpt lat="51.89200596883893" lon="-10.375864980742335">
        <ele>31.859999999999999</ele>
        <time>2026-06-29T07:44:29Z</time>
      </trkpt>
      <trkpt lat="51.891554016619921" lon="-10.378329008817673">
        <ele>35.710000000000001</ele>
        <time>2026-06-29T07:44:41Z</time>
      </trkpt>
      <trkpt lat="51.891212034970522" lon="-10.381112974137068">
        <ele>37.149999999999999</ele>
        <time>2026-06-29T07:44:54Z</time>
      </trkpt>
      <trkpt lat="51.891170963644981" lon="-10.381483035162091">
        <ele>36.189999999999998</ele>
        <time>2026-06-29T07:44:57Z</time>
      </trkpt>
      <trkpt lat="51.891159983351827" lon="-10.381576996296644">
        <ele>36.189999999999998</ele>
        <time>2026-06-29T07:44:58Z</time>
      </trkpt>
      <trkpt lat="51.891029980033636" lon="-10.382738979533315">
        <ele>33.299999999999997</ele>
        <time>2026-06-29T07:45:05Z</time>
      </trkpt>
      <trkpt lat="51.890710964798927" lon="-10.38571204058826">
        <ele>30.420000000000002</ele>
        <time>2026-06-29T07:45:19Z</time>
      </trkpt>
      <trkpt lat="51.890539973974228" lon="-10.387255987152457">
        <ele>27.050000000000001</ele>
        <time>2026-06-29T07:45:26Z</time>
      </trkpt>
      <trkpt lat="51.890559000894427" lon="-10.38743200711906">
        <ele>26.09</ele>
        <time>2026-06-29T07:45:27Z</time>
      </trkpt>
      <trkpt lat="51.890603005886078" lon="-10.38758103735745">
        <ele>26.09</ele>
        <time>2026-06-29T07:45:28Z</time>
      </trkpt>
      <trkpt lat="51.890654973685741" lon="-10.387739958241582">
        <ele>26.09</ele>
        <time>2026-06-29T07:45:29Z</time>
      </trkpt>
      <trkpt lat="51.890721023082733" lon="-10.387895023450255">
        <ele>26.09</ele>
        <time>2026-06-29T07:45:30Z</time>
      </trkpt>
      <trkpt lat="51.890802998095751" lon="-10.388027960434556">
        <ele>26.57</ele>
        <time>2026-06-29T07:45:31Z</time>
      </trkpt>
      <trkpt lat="51.890915986150503" lon="-10.388107001781464">
        <ele>27.050000000000001</ele>
        <time>2026-06-29T07:45:32Z</time>
      </trkpt>
      <trkpt lat="51.89103601500392" lon="-10.388191994279623">
        <ele>28.02</ele>
        <time>2026-06-29T07:45:33Z</time>
      </trkpt>
      <trkpt lat="51.891155038028955" lon="-10.388275980949402">
        <ele>28.98</ele>
        <time>2026-06-29T07:45:34Z</time>
      </trkpt>
      <trkpt lat="51.892361026257277" lon="-10.389126995578408">
        <ele>36.189999999999998</ele>
        <time>2026-06-29T07:45:45Z</time>
      </trkpt>
      <trkpt lat="51.893063010647893" lon="-10.389708029106259">
        <ele>41.950000000000003</ele>
        <time>2026-06-29T07:45:53Z</time>
      </trkpt>
      <trkpt lat="51.893109027296305" lon="-10.389877008274198">
        <ele>42.439999999999998</ele>
        <time>2026-06-29T07:45:54Z</time>
      </trkpt>
      <trkpt lat="51.893138028681278" lon="-10.390039030462503">
        <ele>42.920000000000002</ele>
        <time>2026-06-29T07:45:55Z</time>
      </trkpt>
      <trkpt lat="51.893166024237871" lon="-10.390196023508906">
        <ele>42.920000000000002</ele>
        <time>2026-06-29T07:45:56Z</time>
      </trkpt>
      <trkpt lat="51.893192008137703" lon="-10.390341030433774">
        <ele>42.920000000000002</ele>
        <time>2026-06-29T07:45:57Z</time>
      </trkpt>
      <trkpt lat="51.893170969560742" lon="-10.390499029308558">
        <ele>42.920000000000002</ele>
        <time>2026-06-29T07:45:58Z</time>
      </trkpt>
      <trkpt lat="51.893148003146052" lon="-10.390665996819735">
        <ele>42.920000000000002</ele>
        <time>2026-06-29T07:45:59Z</time>
      </trkpt>
      <trkpt lat="51.893124030902982" lon="-10.390842016786337">
        <ele>43.399999999999999</ele>
        <time>2026-06-29T07:46:00Z</time>
      </trkpt>
      <trkpt lat="51.89279998652637" lon="-10.393236977979541">
        <ele>45.32</ele>
        <time>2026-06-29T07:46:11Z</time>
      </trkpt>
      <trkpt lat="51.89226396381855" lon="-10.395364975556731">
        <ele>55.890000000000001</ele>
        <time>2026-06-29T07:46:21Z</time>
      </trkpt>
      <trkpt lat="51.892104037106037" lon="-10.396118005737662">
        <ele>55.409999999999997</ele>
        <time>2026-06-29T07:46:26Z</time>
      </trkpt>
      <trkpt lat="51.892074029892683" lon="-10.396257983520627">
        <ele>54.93</ele>
        <time>2026-06-29T07:46:27Z</time>
      </trkpt>
      <trkpt lat="51.892060032114387" lon="-10.396411959081888">
        <ele>54.450000000000003</ele>
        <time>2026-06-29T07:46:28Z</time>
      </trkpt>
      <trkpt lat="51.892074029892683" lon="-10.396560989320278">
        <ele>54.450000000000003</ele>
        <time>2026-06-29T07:46:29Z</time>
      </trkpt>
      <trkpt lat="51.892088027670979" lon="-10.39671597070992">
        <ele>54.450000000000003</ele>
        <time>2026-06-29T07:46:30Z</time>
      </trkpt>
      <trkpt lat="51.892102025449276" lon="-10.396870030090213">
        <ele>53.969999999999999</ele>
        <time>2026-06-29T07:46:31Z</time>
      </trkpt>
      <trkpt lat="51.892109988257289" lon="-10.397178987041116">
        <ele>53.009999999999998</ele>
        <time>2026-06-29T07:46:33Z</time>
      </trkpt>
      <trkpt lat="51.892100013792515" lon="-10.397319970652461">
        <ele>53.009999999999998</ele>
        <time>2026-06-29T07:46:34Z</time>
      </trkpt>
      <trkpt lat="51.892055002972484" lon="-10.397936962544918">
        <ele>52.049999999999997</ele>
        <time>2026-06-29T07:46:39Z</time>
      </trkpt>
      <trkpt lat="51.892071012407541" lon="-10.398034024983644">
        <ele>51.57</ele>
        <time>2026-06-29T07:46:40Z</time>
      </trkpt>
      <trkpt lat="51.892087021842599" lon="-10.398131003603339">
        <ele>51.57</ele>
        <time>2026-06-29T07:46:41Z</time>
      </trkpt>
      <trkpt lat="51.892123986035585" lon="-10.39821800775826">
        <ele>51.57</ele>
        <time>2026-06-29T07:46:42Z</time>
      </trkpt>
      <trkpt lat="51.89217796549201" lon="-10.398267041891813">
        <ele>51.57</ele>
        <time>2026-06-29T07:46:43Z</time>
      </trkpt>
      <trkpt lat="51.892245020717382" lon="-10.398325966671109">
        <ele>51.57</ele>
        <time>2026-06-29T07:46:44Z</time>
      </trkpt>
      <trkpt lat="51.893084971234202" lon="-10.399072961881757">
        <ele>50.609999999999999</ele>
        <time>2026-06-29T07:46:53Z</time>
      </trkpt>
      <trkpt lat="51.894740983843803" lon="-10.400545997545123">
        <ele>52.530000000000001</ele>
        <time>2026-06-29T07:47:09Z</time>
      </trkpt>
      <trkpt lat="51.896692039445043" lon="-10.402318015694618">
        <ele>54.450000000000003</ele>
        <time>2026-06-29T07:47:27Z</time>
      </trkpt>
      <trkpt lat="51.89804102294147" lon="-10.403896998614073">
        <ele>53.969999999999999</ele>
        <time>2026-06-29T07:47:41Z</time>
      </trkpt>
      <trkpt lat="51.898395996540785" lon="-10.404311986640096">
        <ele>52.530000000000001</ele>
        <time>2026-06-29T07:47:48Z</time>
      </trkpt>
      <trkpt lat="51.898395996540785" lon="-10.404311986640096">
        <ele>52.530000000000001</ele>
        <time>2026-06-29T07:48:00Z</time>
      </trkpt>
      <trkpt lat="51.898395996540785" lon="-10.404311986640096">
        <ele>51.57</ele>
        <time>2026-06-29T07:48:15Z</time>
      </trkpt>
      <trkpt lat="51.898422986268997" lon="-10.404345011338592">
        <ele>51.57</ele>
        <time>2026-06-29T07:48:16Z</time>
      </trkpt>
      <trkpt lat="51.898436984047294" lon="-10.404360014945269">
        <ele>51.090000000000003</ele>
        <time>2026-06-29T07:48:17Z</time>
      </trkpt>
      <trkpt lat="51.898451987653971" lon="-10.404379963874817">
        <ele>51.090000000000003</ele>
        <time>2026-06-29T07:48:18Z</time>
      </trkpt>
      <trkpt lat="51.898466991260648" lon="-10.404403014108539">
        <ele>51.57</ele>
        <time>2026-06-29T07:48:19Z</time>
      </trkpt>
      <trkpt lat="51.898479983210564" lon="-10.404422963038087">
        <ele>51.57</ele>
        <time>2026-06-29T07:48:20Z</time>
      </trkpt>
      <trkpt lat="51.898479983210564" lon="-10.404422963038087">
        <ele>51.090000000000003</ele>
        <time>2026-06-29T07:48:31Z</time>
      </trkpt>
      <trkpt lat="51.898479983210564" lon="-10.404422963038087">
        <ele>51.090000000000003</ele>
        <time>2026-06-29T07:48:55Z</time>
      </trkpt>
      <trkpt lat="51.898479983210564" lon="-10.404422963038087">
        <ele>50.609999999999999</ele>
        <time>2026-06-29T07:49:37Z</time>
      </trkpt>
      <trkpt lat="51.898479983210564" lon="-10.404422963038087">
        <ele>48.68</ele>
        <time>2026-06-29T07:50:24Z</time>
      </trkpt>
      <trkpt lat="51.898479983210564" lon="-10.404422963038087">
        <ele>47.719999999999999</ele>
        <time>2026-06-29T07:51:02Z</time>
      </trkpt>
      <trkpt lat="51.898479983210564" lon="-10.404422963038087">
        <ele>46.280000000000001</ele>
        <time>2026-06-29T07:51:42Z</time>
      </trkpt>
      <trkpt lat="51.898448970168829" lon="-10.404375018551946">
        <ele>43.399999999999999</ele>
        <time>2026-06-29T07:52:09Z</time>
      </trkpt>
      <trkpt lat="51.898448970168829" lon="-10.404375018551946">
        <ele>42.439999999999998</ele>
        <time>2026-06-29T07:52:10Z</time>
      </trkpt>
      <trkpt lat="51.898097014054656" lon="-10.403961958363652">
        <ele>37.630000000000003</ele>
        <time>2026-06-29T07:52:21Z</time>
      </trkpt>
      <trkpt lat="51.897811023518443" lon="-10.403628023341298">
        <ele>38.109999999999999</ele>
        <time>2026-06-29T07:52:29Z</time>
      </trkpt>
      <trkpt lat="51.897144997492433" lon="-10.402849009260535">
        <ele>40.990000000000002</ele>
        <time>2026-06-29T07:52:39Z</time>
      </trkpt>
      <trkpt lat="51.896219970658422" lon="-10.401862040162086">
        <ele>43.399999999999999</ele>
        <time>2026-06-29T07:52:51Z</time>
      </trkpt>
      <trkpt lat="51.894919015467167" lon="-10.400703996419907">
        <ele>46.280000000000001</ele>
        <time>2026-06-29T07:53:05Z</time>
      </trkpt>
      <trkpt lat="51.893181027844548" lon="-10.399158960208297">
        <ele>44.840000000000003</ele>
        <time>2026-06-29T07:53:23Z</time>
      </trkpt>
      <trkpt lat="51.892182994633913" lon="-10.398270981386304">
        <ele>43.880000000000003</ele>
        <time>2026-06-29T07:53:36Z</time>
      </trkpt>
      <trkpt lat="51.892125997692347" lon="-10.398221025243402">
        <ele>43.880000000000003</ele>
        <time>2026-06-29T07:53:37Z</time>
      </trkpt>
      <trkpt lat="51.892088027670979" lon="-10.398139972239733">
        <ele>43.880000000000003</ele>
        <time>2026-06-29T07:53:38Z</time>
      </trkpt>
      <trkpt lat="51.892073024064302" lon="-10.39804601110518">
        <ele>43.880000000000003</ele>
        <time>2026-06-29T07:53:39Z</time>
      </trkpt>
      <trkpt lat="51.892055002972484" lon="-10.397936962544918">
        <ele>43.880000000000003</ele>
        <time>2026-06-29T07:53:40Z</time>
      </trkpt>
      <trkpt lat="51.892061959952116" lon="-10.397833026945591">
        <ele>43.399999999999999</ele>
        <time>2026-06-29T07:53:41Z</time>
      </trkpt>
      <trkpt lat="51.892071012407541" lon="-10.397710986435413">
        <ele>43.399999999999999</ele>
        <time>2026-06-29T07:53:42Z</time>
      </trkpt>
      <trkpt lat="51.892079981043935" lon="-10.397586012259126">
        <ele>43.399999999999999</ele>
        <time>2026-06-29T07:53:43Z</time>
      </trkpt>
      <trkpt lat="51.892117029055953" lon="-10.397085025906563">
        <ele>42.920000000000002</ele>
        <time>2026-06-29T07:53:47Z</time>
      </trkpt>
      <trkpt lat="51.892109988257289" lon="-10.396959967911243">
        <ele>42.920000000000002</ele>
        <time>2026-06-29T07:53:48Z</time>
      </trkpt>
      <trkpt lat="51.892100013792515" lon="-10.396843040362">
        <ele>42.920000000000002</ele>
        <time>2026-06-29T07:53:49Z</time>
      </trkpt>
      <trkpt lat="51.892090039327741" lon="-10.396734997630119">
        <ele>43.399999999999999</ele>
        <time>2026-06-29T07:53:50Z</time>
      </trkpt>
      <trkpt lat="51.892079981043935" lon="-10.396630978211761">
        <ele>43.399999999999999</ele>
        <time>2026-06-29T07:53:51Z</time>
      </trkpt>
      <trkpt lat="51.892062965780497" lon="-10.396311962977052">
        <ele>43.880000000000003</ele>
        <time>2026-06-29T07:53:54Z</time>
      </trkpt>
      <trkpt lat="51.892085010185838" lon="-10.396209033206105">
        <ele>43.880000000000003</ele>
        <time>2026-06-29T07:53:55Z</time>
      </trkpt>
      <trkpt lat="51.892109988257289" lon="-10.39609101600945">
        <ele>44.359999999999999</ele>
        <time>2026-06-29T07:53:56Z</time>
      </trkpt>
      <trkpt lat="51.89245599322021" lon="-10.394780002534389">
        <ele>49.159999999999997</ele>
        <time>2026-06-29T07:54:04Z</time>
      </trkpt>
      <trkpt lat="51.892852038145065" lon="-10.39284897968173">
        <ele>43.880000000000003</ele>
        <time>2026-06-29T07:54:14Z</time>
      </trkpt>
      <trkpt lat="51.893135011196136" lon="-10.390760041773319">
        <ele>39.07</ele>
        <time>2026-06-29T07:54:28Z</time>
      </trkpt>
      <trkpt lat="51.893169041723013" lon="-10.390514032915235">
        <ele>39.549999999999997</ele>
        <time>2026-06-29T07:54:32Z</time>
      </trkpt>
      <trkpt lat="51.893298961222172" lon="-10.390513027086854">
        <ele>39.549999999999997</ele>
        <time>2026-06-29T07:54:33Z</time>
      </trkpt>
      <trkpt lat="51.893298961222172" lon="-10.390513027086854">
        <ele>40.030000000000001</ele>
        <time>2026-06-29T07:54:34Z</time>
      </trkpt>
      <trkpt lat="51.893359981477261" lon="-10.39052601903677">
        <ele>40.030000000000001</ele>
        <time>2026-06-29T07:54:35Z</time>
      </trkpt>
      <trkpt lat="51.893425025045872" lon="-10.390540016815066">
        <ele>40.030000000000001</ele>
        <time>2026-06-29T07:54:36Z</time>
      </trkpt>
      <trkpt lat="51.893486967310309" lon="-10.390553008764982">
        <ele>40.509999999999998</ele>
        <time>2026-06-29T07:54:37Z</time>
      </trkpt>
      <trkpt lat="51.893600039184093" lon="-10.390576981008053">
        <ele>40.990000000000002</ele>
        <time>2026-06-29T07:54:38Z</time>
      </trkpt>
      <trkpt lat="51.893633985891938" lon="-10.390531970188022">
        <ele>41.469999999999999</ele>
        <time>2026-06-29T07:54:39Z</time>
      </trkpt>
      <trkpt lat="51.893688971176744" lon="-10.390414036810398">
        <ele>41.950000000000003</ele>
        <time>2026-06-29T07:54:40Z</time>
      </trkpt>
      <trkpt lat="51.893730964511633" lon="-10.390284033492208">
        <ele>42.439999999999998</ele>
        <time>2026-06-29T07:54:41Z</time>
      </trkpt>
      <trkpt lat="51.893779998645186" lon="-10.390135003253818">
        <ele>42.920000000000002</ele>
        <time>2026-06-29T07:54:42Z</time>
      </trkpt>
      <trkpt lat="51.893832972273231" lon="-10.38996996358037">
        <ele>43.880000000000003</ele>
        <time>2026-06-29T07:54:43Z</time>
      </trkpt>
      <trkpt lat="51.893887035548687" lon="-10.389802996069193">
        <ele>44.359999999999999</ele>
        <time>2026-06-29T07:54:44Z</time>
      </trkpt>
      <trkpt lat="51.893942020833492" lon="-10.389652960002422">
        <ele>44.840000000000003</ele>
        <time>2026-06-29T07:54:45Z</time>
      </trkpt>
      <trkpt lat="51.894717011600733" lon="-10.388001976534724">
        <ele>52.049999999999997</ele>
        <time>2026-06-29T07:54:58Z</time>
      </trkpt>
      <trkpt lat="51.894736960530281" lon="-10.387959983199835">
        <ele>52.530000000000001</ele>
        <time>2026-06-29T07:54:59Z</time>
      </trkpt>
      <trkpt lat="51.894736960530281" lon="-10.387959983199835">
        <ele>54.450000000000003</ele>
        <time>2026-06-29T07:55:02Z</time>
      </trkpt>
      <trkpt lat="51.894736960530281" lon="-10.387959983199835">
        <ele>54.93</ele>
        <time>2026-06-29T07:55:03Z</time>
      </trkpt>
      <trkpt lat="51.894842991605401" lon="-10.387995019555092">
        <ele>55.890000000000001</ele>
        <time>2026-06-29T07:55:04Z</time>
      </trkpt>
      <trkpt lat="51.894956985488534" lon="-10.387534014880657">
        <ele>56.859999999999999</ele>
        <time>2026-06-29T07:55:05Z</time>
      </trkpt>
      <trkpt lat="51.895040972158313" lon="-10.387477017939091">
        <ele>58.780000000000001</ele>
        <time>2026-06-29T07:55:07Z</time>
      </trkpt>
      <trkpt lat="51.895182961598039" lon="-10.38717501796782">
        <ele>65.030000000000001</ele>
        <time>2026-06-29T07:55:16Z</time>
      </trkpt>
      <trkpt lat="51.89518597908318" lon="-10.387163031846285">
        <ele>65.510000000000005</ele>
        <time>2026-06-29T07:55:31Z</time>
      </trkpt>
      <trkpt lat="51.895173992961645" lon="-10.387221034616232">
        <ele>65.030000000000001</ele>
        <time>2026-06-29T07:55:36Z</time>
      </trkpt>
      <trkpt lat="51.895014988258481" lon="-10.387578019872308">
        <ele>61.659999999999997</ele>
        <time>2026-06-29T07:55:47Z</time>
      </trkpt>
      <trkpt lat="51.894915997982025" lon="-10.387638034299016">
        <ele>59.740000000000002</ele>
        <time>2026-06-29T07:55:50Z</time>
      </trkpt>
      <trkpt lat="51.894736960530281" lon="-10.387959983199835">
        <ele>58.780000000000001</ele>
        <time>2026-06-29T07:55:52Z</time>
      </trkpt>
      <trkpt lat="51.894736960530281" lon="-10.387959983199835">
        <ele>58.780000000000001</ele>
        <time>2026-06-29T07:55:53Z</time>
      </trkpt>
      <trkpt lat="51.894779959693551" lon="-10.387973980978131">
        <ele>54.93</ele>
        <time>2026-06-29T07:55:59Z</time>
      </trkpt>
      <trkpt lat="51.894805021584034" lon="-10.387982027605176">
        <ele>54.450000000000003</ele>
        <time>2026-06-29T07:56:00Z</time>
      </trkpt>
      <trkpt lat="51.894842991605401" lon="-10.387995019555092">
        <ele>53.969999999999999</ele>
        <time>2026-06-29T07:56:01Z</time>
      </trkpt>
      <trkpt lat="51.894891019910574" lon="-10.388011028990149">
        <ele>53.969999999999999</ele>
        <time>2026-06-29T07:56:02Z</time>
      </trkpt>
      <trkpt lat="51.89496997743845" lon="-10.388064002618194">
        <ele>53.969999999999999</ele>
        <time>2026-06-29T07:56:03Z</time>
      </trkpt>
      <trkpt lat="51.895115990191698" lon="-10.388196017593145">
        <ele>54.450000000000003</ele>
        <time>2026-06-29T07:56:05Z</time>
      </trkpt>
      <trkpt lat="51.895208023488522" lon="-10.388196017593145">
        <ele>54.93</ele>
        <time>2026-06-29T07:56:06Z</time>
      </trkpt>
      <trkpt lat="51.895302990451455" lon="-10.388196017593145">
        <ele>55.890000000000001</ele>
        <time>2026-06-29T07:56:07Z</time>
      </trkpt>
      <trkpt lat="51.895395023748279" lon="-10.388157041743398">
        <ele>56.369999999999997</ele>
        <time>2026-06-29T07:56:08Z</time>
      </trkpt>
      <trkpt lat="51.895489990711212" lon="-10.388093004003167">
        <ele>56.859999999999999</ele>
        <time>2026-06-29T07:56:09Z</time>
      </trkpt>
      <trkpt lat="51.895585963502526" lon="-10.388027038425207">
        <ele>57.82</ele>
        <time>2026-06-29T07:56:10Z</time>
      </trkpt>
      <trkpt lat="51.895684031769633" lon="-10.387959983199835">
        <ele>58.299999999999997</ele>
        <time>2026-06-29T07:56:11Z</time>
      </trkpt>
      <trkpt lat="51.895977985113859" lon="-10.387698970735073">
        <ele>60.700000000000003</ele>
        <time>2026-06-29T07:56:14Z</time>
      </trkpt>
      <trkpt lat="51.89606599509716" lon="-10.387585982680321">
        <ele>61.659999999999997</ele>
        <time>2026-06-29T07:56:15Z</time>
      </trkpt>
      <trkpt lat="51.896143024787307" lon="-10.387447010725737">
        <ele>62.140000000000001</ele>
        <time>2026-06-29T07:56:16Z</time>
      </trkpt>
      <trkpt lat="51.896205972880125" lon="-10.387287000194192">
        <ele>62.619999999999997</ele>
        <time>2026-06-29T07:56:17Z</time>
      </trkpt>
      <trkpt lat="51.896272022277117" lon="-10.387119026854634">
        <ele>63.100000000000001</ele>
        <time>2026-06-29T07:56:18Z</time>
      </trkpt>
      <trkpt lat="51.897112978622317" lon="-10.384974014014006">
        <ele>74.640000000000001</ele>
        <time>2026-06-29T07:56:31Z</time>
      </trkpt>
      <trkpt lat="51.897857040166855" lon="-10.382930003106594">
        <ele>74.640000000000001</ele>
        <time>2026-06-29T07:56:42Z</time>
      </trkpt>
      <trkpt lat="51.897939015179873" lon="-10.382566982880235">
        <ele>73.680000000000007</ele>
        <time>2026-06-29T07:56:44Z</time>
      </trkpt>
      <trkpt lat="51.89797698520124" lon="-10.382359027862549">
        <ele>72.719999999999999</ele>
        <time>2026-06-29T07:56:45Z</time>
      </trkpt>
      <trkpt lat="51.898067006841302" lon="-10.382238999009132">
        <ele>72.239999999999995</ele>
        <time>2026-06-29T07:56:46Z</time>
      </trkpt>
      <trkpt lat="51.898165997117758" lon="-10.382107989862561">
        <ele>71.760000000000005</ele>
        <time>2026-06-29T07:56:47Z</time>
      </trkpt>
      <trkpt lat="51.898265993222594" lon="-10.381973963230848">
        <ele>71.269999999999996</ele>
        <time>2026-06-29T07:56:48Z</time>
      </trkpt>
      <trkpt lat="51.899065962061286" lon="-10.380589021369815">
        <ele>67.430000000000007</ele>
        <time>2026-06-29T07:56:58Z</time>
      </trkpt>
      <trkpt lat="51.899829972535372" lon="-10.378655986860394">
        <ele>68.870000000000005</ele>
        <time>2026-06-29T07:57:10Z</time>
      </trkpt>
      <trkpt lat="51.900741001591086" lon="-10.376362027600408">
        <ele>64.069999999999993</ele>
        <time>2026-06-29T07:57:24Z</time>
      </trkpt>
      <trkpt lat="51.901883035898209" lon="-10.374500993639231">
        <ele>66.950000000000003</ele>
        <time>2026-06-29T07:57:36Z</time>
      </trkpt>
      <trkpt lat="51.902846032753587" lon="-10.37303801625967">
        <ele>70.310000000000002</ele>
        <time>2026-06-29T07:57:47Z</time>
      </trkpt>
      <trkpt lat="51.904530040919781" lon="-10.370384976267815">
        <ele>79.450000000000003</ele>
        <time>2026-06-29T07:58:05Z</time>
      </trkpt>
      <trkpt lat="51.905972985550761" lon="-10.36811700090766">
        <ele>91.939999999999998</ele>
        <time>2026-06-29T07:58:19Z</time>
      </trkpt>
      <trkpt lat="51.906772032380104" lon="-10.366794001311064">
        <ele>95.310000000000002</ele>
        <time>2026-06-29T07:58:29Z</time>
      </trkpt>
      <trkpt lat="51.907823039218783" lon="-10.364941013976932">
        <ele>102.04000000000001</ele>
        <time>2026-06-29T07:58:41Z</time>
      </trkpt>
      <trkpt lat="51.90891302190721" lon="-10.362813016399741">
        <ele>112.61</ele>
        <time>2026-06-29T07:58:53Z</time>
      </trkpt>
      <trkpt lat="51.909553986042738" lon="-10.361301004886627">
        <ele>108.29000000000001</ele>
        <time>2026-06-29T07:59:01Z</time>
      </trkpt>
      <trkpt lat="51.910580014809966" lon="-10.359021965414286">
        <ele>112.13</ele>
        <time>2026-06-29T07:59:13Z</time>
      </trkpt>
      <trkpt lat="51.911585005000234" lon="-10.356779973953962">
        <ele>115.5</ele>
        <time>2026-06-29T07:59:26Z</time>
      </trkpt>
      <trkpt lat="51.912374999374151" lon="-10.355085991322994">
        <ele>117.90000000000001</ele>
        <time>2026-06-29T07:59:36Z</time>
      </trkpt>
      <trkpt lat="51.912832986563444" lon="-10.354275964200497">
        <ele>120.3</ele>
        <time>2026-06-29T07:59:43Z</time>
      </trkpt>
      <trkpt lat="51.913102967664599" lon="-10.353854019194841">
        <ele>122.70999999999999</ele>
        <time>2026-06-29T07:59:51Z</time>
      </trkpt>
      <trkpt lat="51.913332967087626" lon="-10.353494016453624">
        <ele>123.19</ele>
        <time>2026-06-29T08:00:01Z</time>
      </trkpt>
      <trkpt lat="51.913776034489274" lon="-10.352801000699401">
        <ele>123.67</ele>
        <time>2026-06-29T08:00:09Z</time>
      </trkpt>
      <trkpt lat="51.914645992219448" lon="-10.351440031081438">
        <ele>122.70999999999999</ele>
        <time>2026-06-29T08:00:19Z</time>
      </trkpt>
      <trkpt lat="51.914892001077533" lon="-10.351054966449738">
        <ele>122.70999999999999</ele>
        <time>2026-06-29T08:00:22Z</time>
      </trkpt>
      <trkpt lat="51.914953021332622" lon="-10.350884981453419">
        <ele>122.70999999999999</ele>
        <time>2026-06-29T08:00:23Z</time>
      </trkpt>
      <trkpt lat="51.915004989132285" lon="-10.350721031427383">
        <ele>122.70999999999999</ele>
        <time>2026-06-29T08:00:24Z</time>
      </trkpt>
      <trkpt lat="51.9151889719069" lon="-10.350134968757629">
        <ele>123.67</ele>
        <time>2026-06-29T08:00:29Z</time>
      </trkpt>
      <trkpt lat="51.9152079988271" lon="-10.350075960159302">
        <ele>123.67</ele>
        <time>2026-06-29T08:00:30Z</time>
      </trkpt>
      <trkpt lat="51.915223002433777" lon="-10.350029021501541">
        <ele>124.15000000000001</ele>
        <time>2026-06-29T08:00:31Z</time>
      </trkpt>
      <trkpt lat="51.915320986881852" lon="-10.349880997091532">
        <ele>124.15000000000001</ele>
        <time>2026-06-29T08:00:32Z</time>
      </trkpt>
      <trkpt lat="51.915376977995038" lon="-10.349891977384686">
        <ele>124.15000000000001</ele>
        <time>2026-06-29T08:00:33Z</time>
      </trkpt>
      <trkpt lat="51.915440009906888" lon="-10.349903041496873">
        <ele>124.15000000000001</ele>
        <time>2026-06-29T08:00:34Z</time>
      </trkpt>
      <trkpt lat="51.915501030161977" lon="-10.349915027618408">
        <ele>124.15000000000001</ele>
        <time>2026-06-29T08:00:35Z</time>
      </trkpt>
      <trkpt lat="51.915549980476499" lon="-10.349923996254802">
        <ele>124.63</ele>
        <time>2026-06-29T08:00:36Z</time>
      </trkpt>
      <trkpt lat="51.915587028488517" lon="-10.349930031225085">
        <ele>124.63</ele>
        <time>2026-06-29T08:00:37Z</time>
      </trkpt>
      <trkpt lat="51.915613012388349" lon="-10.349934976547956">
        <ele>124.63</ele>
        <time>2026-06-29T08:00:45Z</time>
      </trkpt>
      <trkpt lat="51.915670009329915" lon="-10.349946040660143">
        <ele>125.11</ele>
        <time>2026-06-29T08:00:58Z</time>
      </trkpt>
      <trkpt lat="51.915670009329915" lon="-10.349946040660143">
        <ele>125.11</ele>
        <time>2026-06-29T08:01:44Z</time>
      </trkpt>
      <trkpt lat="51.915683001279831" lon="-10.349947968497872">
        <ele>124.63</ele>
        <time>2026-06-29T08:01:58Z</time>
      </trkpt>
      <trkpt lat="51.9157450273633" lon="-10.349960038438439">
        <ele>125.11</ele>
        <time>2026-06-29T08:02:06Z</time>
      </trkpt>
      <trkpt lat="51.91576799377799" lon="-10.34996397793293">
        <ele>125.59</ele>
        <time>2026-06-29T08:02:17Z</time>
      </trkpt>
      <trkpt lat="51.91576799377799" lon="-10.34996397793293">
        <ele>124.63</ele>
        <time>2026-06-29T08:03:05Z</time>
      </trkpt>
      <trkpt lat="51.915878970175982" lon="-10.349997002631426">
        <ele>124.63</ele>
        <time>2026-06-29T08:03:42Z</time>
      </trkpt>
      <trkpt lat="51.916534015908837" lon="-10.350419031456113">
        <ele>135.68000000000001</ele>
        <time>2026-06-29T08:03:53Z</time>
      </trkpt>
      <trkpt lat="51.917287968099117" lon="-10.351012973114848">
        <ele>153.94999999999999</ele>
        <time>2026-06-29T08:04:03Z</time>
      </trkpt>
      <trkpt lat="51.918163038790226" lon="-10.352127011865377">
        <ele>174.62</ele>
        <time>2026-06-29T08:04:13Z</time>
      </trkpt>
      <trkpt lat="51.918574003502727" lon="-10.352557003498077">
        <ele>187.11000000000001</ele>
        <time>2026-06-29T08:04:19Z</time>
      </trkpt>
      <trkpt lat="51.91862496547401" lon="-10.35258499905467">
        <ele>188.56</ele>
        <time>2026-06-29T08:04:20Z</time>
      </trkpt>
      <trkpt lat="51.918665030971169" lon="-10.352606037631631">
        <ele>190</ele>
        <time>2026-06-29T08:04:21Z</time>
      </trkpt>
      <trkpt lat="51.918703000992537" lon="-10.352625986561179">
        <ele>190.96000000000001</ele>
        <time>2026-06-29T08:04:22Z</time>
      </trkpt>
      <trkpt lat="51.918768966570497" lon="-10.352662028744817">
        <ele>191.91999999999999</ele>
        <time>2026-06-29T08:04:23Z</time>
      </trkpt>
      <trkpt lat="51.918796040117741" lon="-10.3525610268116">
        <ele>192.88</ele>
        <time>2026-06-29T08:04:24Z</time>
      </trkpt>
      <trkpt lat="51.91881800070405" lon="-10.352477040141821">
        <ele>193.84</ele>
        <time>2026-06-29T08:04:25Z</time>
      </trkpt>
      <trkpt lat="51.918843984603882" lon="-10.352378971874714">
        <ele>195.28</ele>
        <time>2026-06-29T08:04:26Z</time>
      </trkpt>
      <trkpt lat="51.918876003473997" lon="-10.352257015183568">
        <ele>196.25</ele>
        <time>2026-06-29T08:04:27Z</time>
      </trkpt>
      <trkpt lat="51.91926802508533" lon="-10.350760007277131">
        <ele>204.90000000000001</ele>
        <time>2026-06-29T08:04:36Z</time>
      </trkpt>
      <trkpt lat="51.919429963454604" lon="-10.350268995389342">
        <ele>208.25999999999999</ele>
        <time>2026-06-29T08:04:40Z</time>
      </trkpt>
      <trkpt lat="51.919460976496339" lon="-10.350198000669479">
        <ele>208.74000000000001</ele>
        <time>2026-06-29T08:04:41Z</time>
      </trkpt>
      <trkpt lat="51.919489977881312" lon="-10.350133962929249">
        <ele>209.22</ele>
        <time>2026-06-29T08:04:42Z</time>
      </trkpt>
      <trkpt lat="51.919585028663278" lon="-10.350108984857798">
        <ele>210.19</ele>
        <time>2026-06-29T08:04:43Z</time>
      </trkpt>
      <trkpt lat="51.919665997847915" lon="-10.350163970142603">
        <ele>211.63</ele>
        <time>2026-06-29T08:04:44Z</time>
      </trkpt>
      <trkpt lat="51.919760964810848" lon="-10.350229013711214">
        <ele>213.06999999999999</ele>
        <time>2026-06-29T08:04:45Z</time>
      </trkpt>
      <trkpt lat="51.920444006100297" lon="-10.35069303587079">
        <ele>226.53</ele>
        <time>2026-06-29T08:04:52Z</time>
      </trkpt>
      <trkpt lat="51.921056974679232" lon="-10.351109029725194">
        <ele>234.69999999999999</ele>
        <time>2026-06-29T08:04:59Z</time>
      </trkpt>
      <trkpt lat="51.92111799493432" lon="-10.351151023060083">
        <ele>235.66</ele>
        <time>2026-06-29T08:05:00Z</time>
      </trkpt>
      <trkpt lat="51.921171974390745" lon="-10.351186981424689">
        <ele>236.62</ele>
        <time>2026-06-29T08:05:01Z</time>
      </trkpt>
      <trkpt lat="51.921222014352679" lon="-10.351148005574942">
        <ele>237.58000000000001</ele>
        <time>2026-06-29T08:05:02Z</time>
      </trkpt>
      <trkpt lat="51.921258978545666" lon="-10.351077010855079">
        <ele>238.06</ele>
        <time>2026-06-29T08:05:03Z</time>
      </trkpt>
      <trkpt lat="51.921300971880555" lon="-10.350995035842061">
        <ele>239.02000000000001</ele>
        <time>2026-06-29T08:05:04Z</time>
      </trkpt>
      <trkpt lat="51.921350006014109" lon="-10.350897973403335">
        <ele>239.99000000000001</ele>
        <time>2026-06-29T08:05:05Z</time>
      </trkpt>
      <trkpt lat="51.921407002955675" lon="-10.350786997005343">
        <ele>240.94999999999999</ele>
        <time>2026-06-29T08:05:06Z</time>
      </trkpt>
      <trkpt lat="51.921831965446472" lon="-10.349956015124917">
        <ele>252.47999999999999</ele>
        <time>2026-06-29T08:05:14Z</time>
      </trkpt>
      <trkpt lat="51.921840012073517" lon="-10.34994101151824">
        <ele>253.93000000000001</ele>
        <time>2026-06-29T08:05:22Z</time>
      </trkpt>
      <trkpt lat="51.922050984576344" lon="-10.349527029320598">
        <ele>261.62</ele>
        <time>2026-06-29T08:05:27Z</time>
      </trkpt>
      <trkpt lat="51.922102030366659" lon="-10.349428961053491">
        <ele>263.54000000000002</ele>
        <time>2026-06-29T08:05:28Z</time>
      </trkpt>
      <trkpt lat="51.92214603535831" lon="-10.349297029897571">
        <ele>264.98000000000002</ele>
        <time>2026-06-29T08:05:29Z</time>
      </trkpt>
      <trkpt lat="51.922162966802716" lon="-10.349166020750999">
        <ele>266.89999999999998</ele>
        <time>2026-06-29T08:05:30Z</time>
      </trkpt>
      <trkpt lat="51.922231027856469" lon="-10.347929019480944">
        <ele>279.39999999999998</ele>
        <time>2026-06-29T08:05:40Z</time>
      </trkpt>
      <trkpt lat="51.922246031463146" lon="-10.34613898023963">
        <ele>282.27999999999997</ele>
        <time>2026-06-29T08:05:53Z</time>
      </trkpt>
      <trkpt lat="51.922308979555964" lon="-10.345874028280377">
        <ele>282.27999999999997</ele>
        <time>2026-06-29T08:05:56Z</time>
      </trkpt>
      <trkpt lat="51.922322977334261" lon="-10.345813008025289">
        <ele>281.80000000000001</ele>
        <time>2026-06-29T08:05:57Z</time>
      </trkpt>
      <trkpt lat="51.922335969284177" lon="-10.345760034397244">
        <ele>281.31999999999999</ele>
        <time>2026-06-29T08:05:58Z</time>
      </trkpt>
      <trkpt lat="51.922347033396363" lon="-10.345714017748833">
        <ele>280.83999999999997</ele>
        <time>2026-06-29T08:05:59Z</time>
      </trkpt>
      <trkpt lat="51.922352984547615" lon="-10.345688033849001">
        <ele>280.83999999999997</ele>
        <time>2026-06-29T08:06:00Z</time>
      </trkpt>
      <trkpt lat="51.92236497066915" lon="-10.345675963908434">
        <ele>280.36000000000001</ele>
        <time>2026-06-29T08:06:01Z</time>
      </trkpt>
      <trkpt lat="51.922378968447447" lon="-10.345661966130137">
        <ele>280.36000000000001</ele>
        <time>2026-06-29T08:06:02Z</time>
      </trkpt>
      <trkpt lat="51.922378968447447" lon="-10.345661966130137">
        <ele>279.88</ele>
        <time>2026-06-29T08:06:15Z</time>
      </trkpt>
      <trkpt lat="51.922401012852788" lon="-10.345642017200589">
        <ele>272.19</ele>
        <time>2026-06-29T08:24:32Z</time>
      </trkpt>
      <trkpt lat="51.92240503616631" lon="-10.345627013593912">
        <ele>271.70999999999998</ele>
        <time>2026-06-29T08:25:13Z</time>
      </trkpt>
      <trkpt lat="51.92240796983242" lon="-10.345625001937151">
        <ele>270.75</ele>
        <time>2026-06-29T08:25:31Z</time>
      </trkpt>
      <trkpt lat="51.922352984547615" lon="-10.345688033849001">
        <ele>270.75</ele>
        <time>2026-06-29T08:25:34Z</time>
      </trkpt>
      <trkpt lat="51.922352984547615" lon="-10.345688033849001">
        <ele>270.75</ele>
        <time>2026-06-29T08:25:35Z</time>
      </trkpt>
      <trkpt lat="51.922367988154292" lon="-10.345673030242324">
        <ele>270.75</ele>
        <time>2026-06-29T08:25:36Z</time>
      </trkpt>
      <trkpt lat="51.922332029789686" lon="-10.345777971670032">
        <ele>270.75</ele>
        <time>2026-06-29T08:25:37Z</time>
      </trkpt>
      <trkpt lat="51.922296993434429" lon="-10.34592398442328">
        <ele>270.75</ele>
        <time>2026-06-29T08:25:39Z</time>
      </trkpt>
      <trkpt lat="51.9222760386765" lon="-10.346008976921439">
        <ele>270.75</ele>
        <time>2026-06-29T08:25:40Z</time>
      </trkpt>
      <trkpt lat="51.92225600592792" lon="-10.346094975247979">
        <ele>270.75</ele>
        <time>2026-06-29T08:25:41Z</time>
      </trkpt>
      <trkpt lat="51.922245025634766" lon="-10.34620301797986">
        <ele>270.75</ele>
        <time>2026-06-29T08:25:42Z</time>
      </trkpt>
      <trkpt lat="51.922244019806385" lon="-10.346330003812909">
        <ele>270.75</ele>
        <time>2026-06-29T08:25:43Z</time>
      </trkpt>
      <trkpt lat="51.922243013978004" lon="-10.346479034051299">
        <ele>270.26999999999998</ele>
        <time>2026-06-29T08:25:44Z</time>
      </trkpt>
      <trkpt lat="51.922229016199708" lon="-10.348070003092289">
        <ele>271.23000000000002</ele>
        <time>2026-06-29T08:25:52Z</time>
      </trkpt>
      <trkpt lat="51.922155003994703" lon="-10.349226035177708">
        <ele>267.86000000000001</ele>
        <time>2026-06-29T08:26:00Z</time>
      </trkpt>
      <trkpt lat="51.922145029529929" lon="-10.349304992705584">
        <ele>266.89999999999998</ele>
        <time>2026-06-29T08:26:01Z</time>
      </trkpt>
      <trkpt lat="51.92210303619504" lon="-10.349426027387381">
        <ele>265.45999999999998</ele>
        <time>2026-06-29T08:26:03Z</time>
      </trkpt>
      <trkpt lat="51.922060959041119" lon="-10.349509008228779">
        <ele>264.98000000000002</ele>
        <time>2026-06-29T08:26:04Z</time>
      </trkpt>
      <trkpt lat="51.922009997069836" lon="-10.349609004333615">
        <ele>264.01999999999998</ele>
        <time>2026-06-29T08:26:05Z</time>
      </trkpt>
      <trkpt lat="51.921953000128269" lon="-10.349718974903226">
        <ele>263.06</ele>
        <time>2026-06-29T08:26:06Z</time>
      </trkpt>
      <trkpt lat="51.921894997358322" lon="-10.349831962957978">
        <ele>261.62</ele>
        <time>2026-06-29T08:26:07Z</time>
      </trkpt>
      <trkpt lat="51.921462994068861" lon="-10.350678032264113">
        <ele>247.19999999999999</ele>
        <time>2026-06-29T08:26:17Z</time>
      </trkpt>
      <trkpt lat="51.921206004917622" lon="-10.351179018616676">
        <ele>235.18000000000001</ele>
        <time>2026-06-29T08:26:29Z</time>
      </trkpt>
      <trkpt lat="51.921195024624467" lon="-10.351201985031366">
        <ele>233.74000000000001</ele>
        <time>2026-06-29T08:26:41Z</time>
      </trkpt>
      <trkpt lat="51.921186977997422" lon="-10.351197961717844">
        <ele>233.25999999999999</ele>
        <time>2026-06-29T08:26:52Z</time>
      </trkpt>
      <trkpt lat="51.92115998826921" lon="-10.351180024445057">
        <ele>233.25999999999999</ele>
        <time>2026-06-29T08:26:53Z</time>
      </trkpt>
      <trkpt lat="51.921122018247843" lon="-10.351153034716845">
        <ele>232.78</ele>
        <time>2026-06-29T08:26:54Z</time>
      </trkpt>
      <trkpt lat="51.920577026903629" lon="-10.350782973691821">
        <ele>227.97</ele>
        <time>2026-06-29T08:27:02Z</time>
      </trkpt>
      <trkpt lat="51.920031029731035" lon="-10.350412996485829">
        <ele>221.72</ele>
        <time>2026-06-29T08:27:10Z</time>
      </trkpt>
      <trkpt lat="51.919639008119702" lon="-10.350146032869816">
        <ele>214.50999999999999</ele>
        <time>2026-06-29T08:27:15Z</time>
      </trkpt>
      <trkpt lat="51.919581005349755" lon="-10.350106973201036">
        <ele>213.06999999999999</ele>
        <time>2026-06-29T08:27:16Z</time>
      </trkpt>
      <trkpt lat="51.919532977044582" lon="-10.350074032321572">
        <ele>211.63</ele>
        <time>2026-06-29T08:27:17Z</time>
      </trkpt>
      <trkpt lat="51.919474974274635" lon="-10.350167993456125">
        <ele>210.19</ele>
        <time>2026-06-29T08:27:18Z</time>
      </trkpt>
      <trkpt lat="51.919448990374804" lon="-10.350227002054453">
        <ele>209.22</ele>
        <time>2026-06-29T08:27:19Z</time>
      </trkpt>
      <trkpt lat="51.91941998898983" lon="-10.350291961804032">
        <ele>207.78</ele>
        <time>2026-06-29T08:27:20Z</time>
      </trkpt>
      <trkpt lat="51.919386964291334" lon="-10.350365974009037">
        <ele>206.81999999999999</ele>
        <time>2026-06-29T08:27:21Z</time>
      </trkpt>
      <trkpt lat="51.919347988441586" lon="-10.350455995649099">
        <ele>205.38</ele>
        <time>2026-06-29T08:27:22Z</time>
      </trkpt>
      <trkpt lat="51.919011035934091" lon="-10.351742031052709">
        <ele>198.16999999999999</ele>
        <time>2026-06-29T08:27:33Z</time>
      </trkpt>
      <trkpt lat="51.918783970177174" lon="-10.35260503180325">
        <ele>191.91999999999999</ele>
        <time>2026-06-29T08:27:44Z</time>
      </trkpt>
      <trkpt lat="51.918844990432262" lon="-10.352681977674365">
        <ele>190.47999999999999</ele>
        <time>2026-06-29T08:27:47Z</time>
      </trkpt>
      <trkpt lat="51.918882038444281" lon="-10.352692035958171">
        <ele>190</ele>
        <time>2026-06-29T08:27:48Z</time>
      </trkpt>
      <trkpt lat="51.919317981228232" lon="-10.352947013452649">
        <ele>190</ele>
        <time>2026-06-29T08:27:59Z</time>
      </trkpt>
      <trkpt lat="51.919762976467609" lon="-10.353339035063982">
        <ele>193.36000000000001</ele>
        <time>2026-06-29T08:28:09Z</time>
      </trkpt>
      <trkpt lat="51.919922986999154" lon="-10.353480018675327">
        <ele>197.21000000000001</ele>
        <time>2026-06-29T08:28:21Z</time>
      </trkpt>
      <trkpt lat="51.919976966455579" lon="-10.35352704115212">
        <ele>198.65000000000001</ele>
        <time>2026-06-29T08:28:37Z</time>
      </trkpt>
      <trkpt lat="51.920099006965756" lon="-10.353543972596526">
        <ele>199.13</ele>
        <time>2026-06-29T08:28:53Z</time>
      </trkpt>
      <trkpt lat="51.920484993606806" lon="-10.353555036708713">
        <ele>197.69</ele>
        <time>2026-06-29T08:28:59Z</time>
      </trkpt>
      <trkpt lat="51.921126041561365" lon="-10.3535729739815">
        <ele>194.80000000000001</ele>
        <time>2026-06-29T08:29:09Z</time>
      </trkpt>
      <trkpt lat="51.921409014612436" lon="-10.353581020608544">
        <ele>193.36000000000001</ele>
        <time>2026-06-29T08:29:18Z</time>
      </trkpt>
      <trkpt lat="51.921442039310932" lon="-10.353582026436925">
        <ele>192.40000000000001</ele>
        <time>2026-06-29T08:29:30Z</time>
      </trkpt>
      <trkpt lat="51.921442039310932" lon="-10.353582026436925">
        <ele>192.40000000000001</ele>
        <time>2026-06-29T08:29:48Z</time>
      </trkpt>
      <trkpt lat="51.921442039310932" lon="-10.353582026436925">
        <ele>192.40000000000001</ele>
        <time>2026-06-29T08:29:56Z</time>
      </trkpt>
      <trkpt lat="51.921442039310932" lon="-10.353582026436925">
        <ele>192.40000000000001</ele>
        <time>2026-06-29T08:30:10Z</time>
      </trkpt>
      <trkpt lat="51.921442039310932" lon="-10.353582026436925">
        <ele>191.91999999999999</ele>
        <time>2026-06-29T08:31:20Z</time>
      </trkpt>
      <trkpt lat="51.921433992683887" lon="-10.35359401255846">
        <ele>190.96000000000001</ele>
        <time>2026-06-29T08:35:41Z</time>
      </trkpt>
      <trkpt lat="51.92143902182579" lon="-10.353697026148438">
        <ele>192.88</ele>
        <time>2026-06-29T08:36:13Z</time>
      </trkpt>
      <trkpt lat="51.921385964378715" lon="-10.353581020608544">
        <ele>192.88</ele>
        <time>2026-06-29T08:36:18Z</time>
      </trkpt>
      <trkpt lat="51.920790011063218" lon="-10.353564005345106">
        <ele>193.84</ele>
        <time>2026-06-29T08:36:26Z</time>
      </trkpt>
      <trkpt lat="51.920129014179111" lon="-10.353545984253287">
        <ele>195.77000000000001</ele>
        <time>2026-06-29T08:36:36Z</time>
      </trkpt>
      <trkpt lat="51.92008500918746" lon="-10.353543972596526">
        <ele>195.77000000000001</ele>
        <time>2026-06-29T08:36:37Z</time>
      </trkpt>
      <trkpt lat="51.919992975890636" lon="-10.353541038930416">
        <ele>195.77000000000001</ele>
        <time>2026-06-29T08:36:38Z</time>
      </trkpt>
      <trkpt lat="51.919395010918379" lon="-10.35301499068737">
        <ele>195.28</ele>
        <time>2026-06-29T08:36:49Z</time>
      </trkpt>
      <trkpt lat="51.919012041762471" lon="-10.352725982666016">
        <ele>193.36000000000001</ele>
        <time>2026-06-29T08:37:00Z</time>
      </trkpt>
      <trkpt lat="51.918768966570497" lon="-10.352662028744817">
        <ele>190.96000000000001</ele>
        <time>2026-06-29T08:37:10Z</time>
      </trkpt>
      <trkpt lat="51.918391026556492" lon="-10.352417025715113">
        <ele>187.11000000000001</ele>
        <time>2026-06-29T08:37:17Z</time>
      </trkpt>
      <trkpt lat="51.917841006070375" lon="-10.351717974990606">
        <ele>172.69</ele>
        <time>2026-06-29T08:37:25Z</time>
      </trkpt>
      <trkpt lat="51.91718403249979" lon="-10.350880036130548">
        <ele>157.78999999999999</ele>
        <time>2026-06-29T08:37:34Z</time>
      </trkpt>
      <trkpt lat="51.917128963395953" lon="-10.350809041410685">
        <ele>156.34999999999999</ele>
        <time>2026-06-29T08:37:35Z</time>
      </trkpt>
      <trkpt lat="51.917065009474754" lon="-10.350762018933892">
        <ele>154.91</ele>
        <time>2026-06-29T08:37:36Z</time>
      </trkpt>
      <trkpt lat="51.916470983996987" lon="-10.350378965958953">
        <ele>142.41</ele>
        <time>2026-06-29T08:37:43Z</time>
      </trkpt>
      <trkpt lat="51.91583001986146" lon="-10.349975964054465">
        <ele>125.59</ele>
        <time>2026-06-29T08:37:55Z</time>
      </trkpt>
      <trkpt lat="51.915795989334583" lon="-10.349970012903214">
        <ele>123.19</ele>
        <time>2026-06-29T08:38:04Z</time>
      </trkpt>
      <trkpt lat="51.915795989334583" lon="-10.349970012903214">
        <ele>123.19</ele>
        <time>2026-06-29T08:38:32Z</time>
      </trkpt>
      <trkpt lat="51.915773022919893" lon="-10.349964983761311">
        <ele>123.19</ele>
        <time>2026-06-29T08:38:37Z</time>
      </trkpt>
      <trkpt lat="51.915439004078507" lon="-10.349903041496873">
        <ele>118.86</ele>
        <time>2026-06-29T08:38:48Z</time>
      </trkpt>
      <trkpt lat="51.915413020178676" lon="-10.34989801235497">
        <ele>117.90000000000001</ele>
        <time>2026-06-29T08:38:54Z</time>
      </trkpt>
      <trkpt lat="51.915335990488529" lon="-10.349678993225098">
        <ele>117.90000000000001</ele>
        <time>2026-06-29T08:38:55Z</time>
      </trkpt>
      <trkpt lat="51.915335990488529" lon="-10.349678993225098">
        <ele>117.42</ele>
        <time>2026-06-29T08:38:56Z</time>
      </trkpt>
      <trkpt lat="51.915328027680516" lon="-10.349703971296549">
        <ele>117.42</ele>
        <time>2026-06-29T08:38:57Z</time>
      </trkpt>
      <trkpt lat="51.915307994931936" lon="-10.349762979894876">
        <ele>116.94</ele>
        <time>2026-06-29T08:38:58Z</time>
      </trkpt>
      <trkpt lat="51.915285028517246" lon="-10.349833974614739">
        <ele>116.94</ele>
        <time>2026-06-29T08:38:59Z</time>
      </trkpt>
      <trkpt lat="51.915260972455144" lon="-10.349907986819744">
        <ele>116.94</ele>
        <time>2026-06-29T08:39:00Z</time>
      </trkpt>
      <trkpt lat="51.915051005780697" lon="-10.350576024502516">
        <ele>116.45999999999999</ele>
        <time>2026-06-29T08:39:07Z</time>
      </trkpt>
      <trkpt lat="51.914548007771373" lon="-10.351591994985938">
        <ele>116.45999999999999</ele>
        <time>2026-06-29T08:39:16Z</time>
      </trkpt>
      <trkpt lat="51.913820961490273" lon="-10.352730005979538">
        <ele>117.90000000000001</ele>
        <time>2026-06-29T08:39:26Z</time>
      </trkpt>
      <trkpt lat="51.913029039278626" lon="-10.353969018906355">
        <ele>116.94</ele>
        <time>2026-06-29T08:39:36Z</time>
      </trkpt>
      <trkpt lat="51.911980966106057" lon="-10.355896018445492">
        <ele>114.53</ele>
        <time>2026-06-29T08:39:48Z</time>
      </trkpt>
      <trkpt lat="51.91099600866437" lon="-10.358095010742545">
        <ele>110.69</ele>
        <time>2026-06-29T08:40:00Z</time>
      </trkpt>
      <trkpt lat="51.910091014578938" lon="-10.360138015821576">
        <ele>104.92</ele>
        <time>2026-06-29T08:40:12Z</time>
      </trkpt>
      <trkpt lat="51.909371009096503" lon="-10.361866028979421">
        <ele>101.56</ele>
        <time>2026-06-29T08:40:23Z</time>
      </trkpt>
      <trkpt lat="51.909234970808029" lon="-10.362141961231828">
        <ele>102.52</ele>
        <time>2026-06-29T08:40:25Z</time>
      </trkpt>
      <trkpt lat="51.909161964431405" lon="-10.362293003126979">
        <ele>103</ele>
        <time>2026-06-29T08:40:26Z</time>
      </trkpt>
      <trkpt lat="51.908221011981368" lon="-10.364194018766284">
        <ele>103.95999999999999</ele>
        <time>2026-06-29T08:40:38Z</time>
      </trkpt>
      <trkpt lat="51.907422970980406" lon="-10.365721033886075">
        <ele>96.269999999999996</ele>
        <time>2026-06-29T08:40:48Z</time>
      </trkpt>
      <trkpt lat="51.906599029898643" lon="-10.367076974362135">
        <ele>90.5</ele>
        <time>2026-06-29T08:40:58Z</time>
      </trkpt>
      <trkpt lat="51.905143009498715" lon="-10.369420973584056">
        <ele>81.849999999999994</ele>
        <time>2026-06-29T08:41:14Z</time>
      </trkpt>
      <trkpt lat="51.904493998736143" lon="-10.370440967381001">
        <ele>75.599999999999994</ele>
        <time>2026-06-29T08:41:22Z</time>
      </trkpt>
      <trkpt lat="51.904455022886395" lon="-10.37050299346447">
        <ele>75.120000000000005</ele>
        <time>2026-06-29T08:41:23Z</time>
      </trkpt>
      <trkpt lat="51.90442300401628" lon="-10.370553033426404">
        <ele>75.120000000000005</ele>
        <time>2026-06-29T08:41:24Z</time>
      </trkpt>
      <trkpt lat="51.904391990974545" lon="-10.370600977912545">
        <ele>74.640000000000001</ele>
        <time>2026-06-29T08:41:25Z</time>
      </trkpt>
      <trkpt lat="51.904363995417953" lon="-10.370644982904196">
        <ele>74.640000000000001</ele>
        <time>2026-06-29T08:41:26Z</time>
      </trkpt>
      <trkpt lat="51.904340023174882" lon="-10.37052302621305">
        <ele>74.159999999999997</ele>
        <time>2026-06-29T08:41:27Z</time>
      </trkpt>
      <trkpt lat="51.904308004304767" lon="-10.370477009564638">
        <ele>74.159999999999997</ele>
        <time>2026-06-29T08:41:28Z</time>
      </trkpt>
      <trkpt lat="51.904269028455019" lon="-10.370420012623072">
        <ele>74.159999999999997</ele>
        <time>2026-06-29T08:41:29Z</time>
      </trkpt>
      <trkpt lat="51.904214965179563" lon="-10.370341977104545">
        <ele>74.159999999999997</ele>
        <time>2026-06-29T08:41:30Z</time>
      </trkpt>
      <trkpt lat="51.903723031282425" lon="-10.369627000764012">
        <ele>73.680000000000007</ele>
        <time>2026-06-29T08:41:37Z</time>
      </trkpt>
      <trkpt lat="51.903640972450376" lon="-10.369562963023782">
        <ele>73.200000000000003</ele>
        <time>2026-06-29T08:41:38Z</time>
      </trkpt>
      <trkpt lat="51.90356302075088" lon="-10.369550976902246">
        <ele>73.200000000000003</ele>
        <time>2026-06-29T08:41:39Z</time>
      </trkpt>
      <trkpt lat="51.903474004939198" lon="-10.369535973295569">
        <ele>72.719999999999999</ele>
        <time>2026-06-29T08:41:40Z</time>
      </trkpt>
      <trkpt lat="51.903376020491123" lon="-10.369519963860512">
        <ele>72.239999999999995</ele>
        <time>2026-06-29T08:41:41Z</time>
      </trkpt>
      <trkpt lat="51.90287503413856" lon="-10.369449974969029">
        <ele>70.310000000000002</ele>
        <time>2026-06-29T08:41:46Z</time>
      </trkpt>
      <trkpt lat="51.902786018326879" lon="-10.369498003274202">
        <ele>69.829999999999998</ele>
        <time>2026-06-29T08:41:47Z</time>
      </trkpt>
      <trkpt lat="51.9027020316571" lon="-10.369543014094234">
        <ele>69.349999999999994</ele>
        <time>2026-06-29T08:41:48Z</time>
      </trkpt>
      <trkpt lat="51.902406988665462" lon="-10.369702018797398">
        <ele>68.870000000000005</ele>
        <time>2026-06-29T08:41:54Z</time>
      </trkpt>
      <trkpt lat="51.902388967573643" lon="-10.369711993262172">
        <ele>68.390000000000001</ele>
        <time>2026-06-29T08:41:55Z</time>
      </trkpt>
      <trkpt lat="51.902350997552276" lon="-10.369649967178702">
        <ele>67.909999999999997</ele>
        <time>2026-06-29T08:41:56Z</time>
      </trkpt>
      <trkpt lat="51.902362983673811" lon="-10.369590036571026">
        <ele>67.430000000000007</ele>
        <time>2026-06-29T08:41:57Z</time>
      </trkpt>
      <trkpt lat="51.902375975623727" lon="-10.369527004659176">
        <ele>66.950000000000003</ele>
        <time>2026-06-29T08:41:58Z</time>
      </trkpt>
      <trkpt lat="51.902416963130236" lon="-10.369424996897578">
        <ele>66.469999999999999</ele>
        <time>2026-06-29T08:41:59Z</time>
      </trkpt>
      <trkpt lat="51.902459040284157" lon="-10.369320977479219">
        <ele>65.989999999999995</ele>
        <time>2026-06-29T08:42:00Z</time>
      </trkpt>
      <trkpt lat="51.902868999168277" lon="-10.368294026702642">
        <ele>59.740000000000002</ele>
        <time>2026-06-29T08:42:07Z</time>
      </trkpt>
      <trkpt lat="51.90291803330183" lon="-10.368170980364084">
        <ele>59.259999999999998</ele>
        <time>2026-06-29T08:42:08Z</time>
      </trkpt>
      <trkpt lat="51.902944017201662" lon="-10.368041982874274">
        <ele>58.299999999999997</ele>
        <time>2026-06-29T08:42:09Z</time>
      </trkpt>
      <trkpt lat="51.9029610324651" lon="-10.367897981777787">
        <ele>57.340000000000003</ele>
        <time>2026-06-29T08:42:10Z</time>
      </trkpt>
      <trkpt lat="51.903075026348233" lon="-10.366061003878713">
        <ele>50.609999999999999</ele>
        <time>2026-06-29T08:42:20Z</time>
      </trkpt>
      <trkpt lat="51.903380965813994" lon="-10.363780036568642">
        <ele>40.990000000000002</ele>
        <time>2026-06-29T08:42:32Z</time>
      </trkpt>
      <trkpt lat="51.903809029608965" lon="-10.36096204072237">
        <ele>32.340000000000003</ele>
        <time>2026-06-29T08:42:45Z</time>
      </trkpt>
      <trkpt lat="51.903825961053371" lon="-10.360573958605528">
        <ele>31.859999999999999</ele>
        <time>2026-06-29T08:42:47Z</time>
      </trkpt>
      <trkpt lat="51.903816992416978" lon="-10.360372960567474">
        <ele>31.379999999999999</ele>
        <time>2026-06-29T08:42:48Z</time>
      </trkpt>
      <trkpt lat="51.903798971325159" lon="-10.36016701720655">
        <ele>31.379999999999999</ele>
        <time>2026-06-29T08:42:49Z</time>
      </trkpt>
      <trkpt lat="51.903540976345539" lon="-10.358118982985616">
        <ele>28.02</ele>
        <time>2026-06-29T08:42:58Z</time>
      </trkpt>
      <trkpt lat="51.903512980788946" lon="-10.357189010828733">
        <ele>27.530000000000001</ele>
        <time>2026-06-29T08:43:02Z</time>
      </trkpt>
      <trkpt lat="51.903490014374256" lon="-10.357039980590343">
        <ele>27.530000000000001</ele>
        <time>2026-06-29T08:43:03Z</time>
      </trkpt>
      <trkpt lat="51.903464030474424" lon="-10.356877958402038">
        <ele>27.530000000000001</ele>
        <time>2026-06-29T08:43:04Z</time>
      </trkpt>
      <trkpt lat="51.903388006612659" lon="-10.356738986447453">
        <ele>28.02</ele>
        <time>2026-06-29T08:43:05Z</time>
      </trkpt>
      <trkpt lat="51.903308965265751" lon="-10.356681989505887">
        <ele>28.02</ele>
        <time>2026-06-29T08:43:06Z</time>
      </trkpt>
      <trkpt lat="51.903215004131198" lon="-10.356616023927927">
        <ele>28.02</ele>
        <time>2026-06-29T08:43:07Z</time>
      </trkpt>
      <trkpt lat="51.90311199054122" lon="-10.356543017551303">
        <ele>28.02</ele>
        <time>2026-06-29T08:43:08Z</time>
      </trkpt>
      <trkpt lat="51.902711000293493" lon="-10.356201035901904">
        <ele>28.5</ele>
        <time>2026-06-29T08:43:12Z</time>
      </trkpt>
      <trkpt lat="51.902636988088489" lon="-10.356088969856501">
        <ele>28.5</ele>
        <time>2026-06-29T08:43:13Z</time>
      </trkpt>
      <trkpt lat="51.90257697366178" lon="-10.355959972366691">
        <ele>28.5</ele>
        <time>2026-06-29T08:43:14Z</time>
      </trkpt>
      <trkpt lat="51.902522994205356" lon="-10.355815971270204">
        <ele>28.5</ele>
        <time>2026-06-29T08:43:15Z</time>
      </trkpt>
      <trkpt lat="51.90246700309217" lon="-10.355667024850845">
        <ele>28.02</ele>
        <time>2026-06-29T08:43:16Z</time>
      </trkpt>
      <trkpt lat="51.901950007304549" lon="-10.354291973635554">
        <ele>25.129999999999999</ele>
        <time>2026-06-29T08:43:25Z</time>
      </trkpt>
      <trkpt lat="51.901706010103226" lon="-10.353642962872982">
        <ele>24.170000000000002</ele>
        <time>2026-06-29T08:43:30Z</time>
      </trkpt>
      <trkpt lat="51.901668040081859" lon="-10.353525029495358">
        <ele>23.690000000000001</ele>
        <time>2026-06-29T08:43:31Z</time>
      </trkpt>
      <trkpt lat="51.901666028425097" lon="-10.353383962064981">
        <ele>23.210000000000001</ele>
        <time>2026-06-29T08:43:32Z</time>
      </trkpt>
      <trkpt lat="51.901664016768336" lon="-10.353226969018579">
        <ele>22.73</ele>
        <time>2026-06-29T08:43:33Z</time>
      </trkpt>
      <trkpt lat="51.901662005111575" lon="-10.353061007335782">
        <ele>22.73</ele>
        <time>2026-06-29T08:43:34Z</time>
      </trkpt>
      <trkpt lat="51.901647001504898" lon="-10.351933976635337">
        <ele>20.809999999999999</ele>
        <time>2026-06-29T08:43:41Z</time>
      </trkpt>
      <trkpt lat="51.901628980413079" lon="-10.351761979982257">
        <ele>20.809999999999999</ele>
        <time>2026-06-29T08:43:42Z</time>
      </trkpt>
      <trkpt lat="51.9012669660151" lon="-10.350325992330909">
        <ele>19.359999999999999</ele>
        <time>2026-06-29T08:43:52Z</time>
      </trkpt>
      <trkpt lat="51.901225978508592" lon="-10.350189032033086">
        <ele>19.359999999999999</ele>
        <time>2026-06-29T08:43:55Z</time>
      </trkpt>
      <trkpt lat="51.901150960475206" lon="-10.350186014547944">
        <ele>19.359999999999999</ele>
        <time>2026-06-29T08:43:56Z</time>
      </trkpt>
      <trkpt lat="51.901132017374039" lon="-10.350230019539595">
        <ele>19.84</ele>
        <time>2026-06-29T08:43:57Z</time>
      </trkpt>
      <trkpt lat="51.901102010160685" lon="-10.350296990945935">
        <ele>19.84</ele>
        <time>2026-06-29T08:43:58Z</time>
      </trkpt>
      <trkpt lat="51.901061022654176" lon="-10.350390030071139">
        <ele>20.32</ele>
        <time>2026-06-29T08:43:59Z</time>
      </trkpt>
      <trkpt lat="51.901014000177383" lon="-10.350493965670466">
        <ele>20.809999999999999</ele>
        <time>2026-06-29T08:44:00Z</time>
      </trkpt>
      <trkpt lat="51.900506978854537" lon="-10.351632982492447">
        <ele>23.690000000000001</ele>
        <time>2026-06-29T08:44:08Z</time>
      </trkpt>
      <trkpt lat="51.899341978132725" lon="-10.354246962815523">
        <ele>28.02</ele>
        <time>2026-06-29T08:44:22Z</time>
      </trkpt>
      <trkpt lat="51.898356014862657" lon="-10.356378983706236">
        <ele>31.859999999999999</ele>
        <time>2026-06-29T08:44:34Z</time>
      </trkpt>
      <trkpt lat="51.897529978305101" lon="-10.357760991901159">
        <ele>31.379999999999999</ele>
        <time>2026-06-29T08:44:41Z</time>
      </trkpt>
      <trkpt lat="51.895774975419044" lon="-10.361469984054565">
        <ele>28.5</ele>
        <time>2026-06-29T08:44:56Z</time>
      </trkpt>
      <trkpt lat="51.894893031567335" lon="-10.363334035500884">
        <ele>29.460000000000001</ele>
        <time>2026-06-29T08:45:05Z</time>
      </trkpt>
      <trkpt lat="51.894271010532975" lon="-10.364792989566922">
        <ele>29.940000000000001</ele>
        <time>2026-06-29T08:45:15Z</time>
      </trkpt>
      <trkpt lat="51.893770024180412" lon="-10.36633400246501">
        <ele>31.859999999999999</ele>
        <time>2026-06-29T08:45:22Z</time>
      </trkpt>
      <trkpt lat="51.893096035346389" lon="-10.368541963398457">
        <ele>33.299999999999997</ele>
        <time>2026-06-29T08:45:31Z</time>
      </trkpt>
      <trkpt lat="51.892623966559768" lon="-10.3697519749403">
        <ele>31.859999999999999</ele>
        <time>2026-06-29T08:45:38Z</time>
      </trkpt>
      <trkpt lat="51.892569987103343" lon="-10.369835961610079">
        <ele>31.859999999999999</ele>
        <time>2026-06-29T08:45:39Z</time>
      </trkpt>
      <trkpt lat="51.892521036788821" lon="-10.369863035157323">
        <ele>31.379999999999999</ele>
        <time>2026-06-29T08:45:40Z</time>
      </trkpt>
      <trkpt lat="51.892463034018874" lon="-10.369845014065504">
        <ele>31.379999999999999</ele>
        <time>2026-06-29T08:45:41Z</time>
      </trkpt>
      <trkpt lat="51.892392039299011" lon="-10.369823975488544">
        <ele>30.899999999999999</ele>
        <time>2026-06-29T08:45:42Z</time>
      </trkpt>
      <trkpt lat="51.892305035144091" lon="-10.369773013517261">
        <ele>30.420000000000002</ele>
        <time>2026-06-29T08:45:43Z</time>
      </trkpt>
      <trkpt lat="51.892216019332409" lon="-10.369667988270521">
        <ele>29.940000000000001</ele>
        <time>2026-06-29T08:45:44Z</time>
      </trkpt>
      <trkpt lat="51.892116023227572" lon="-10.369549971073866">
        <ele>28.98</ele>
        <time>2026-06-29T08:45:45Z</time>
      </trkpt>
      <trkpt lat="51.891132993623614" lon="-10.368393016979098">
        <ele>22.73</ele>
        <time>2026-06-29T08:45:53Z</time>
      </trkpt>
      <trkpt lat="51.889901021495461" lon="-10.366933979094028">
        <ele>13.119999999999999</ele>
        <time>2026-06-29T08:46:04Z</time>
      </trkpt>
      <trkpt lat="51.888408036902547" lon="-10.365315014496446">
        <ele>10.23</ele>
        <time>2026-06-29T08:46:18Z</time>
      </trkpt>
      <trkpt lat="51.886833999305964" lon="-10.363608961924911">
        <ele>10.23</ele>
        <time>2026-06-29T08:46:32Z</time>
      </trkpt>
      <trkpt lat="51.885420978069305" lon="-10.361877009272575">
        <ele>8.789999999999999</ele>
        <time>2026-06-29T08:46:44Z</time>
      </trkpt>
      <trkpt lat="51.885336991399527" lon="-10.361697971820831">
        <ele>8.789999999999999</ele>
        <time>2026-06-29T08:46:45Z</time>
      </trkpt>
      <trkpt lat="51.885270019993186" lon="-10.361483981832862">
        <ele>8.789999999999999</ele>
        <time>2026-06-29T08:46:46Z</time>
      </trkpt>
      <trkpt lat="51.885230960324407" lon="-10.361249037086964">
        <ele>8.789999999999999</ele>
        <time>2026-06-29T08:46:47Z</time>
      </trkpt>
      <trkpt lat="51.885230960324407" lon="-10.361018031835556">
        <ele>8.789999999999999</ele>
        <time>2026-06-29T08:46:48Z</time>
      </trkpt>
      <trkpt lat="51.885230960324407" lon="-10.360785014927387">
        <ele>8.310000000000001</ele>
        <time>2026-06-29T08:46:49Z</time>
      </trkpt>
      <trkpt lat="51.885230960324407" lon="-10.360562978312373">
        <ele>8.310000000000001</ele>
        <time>2026-06-29T08:46:50Z</time>
      </trkpt>
      <trkpt lat="51.885230960324407" lon="-10.360353011637926">
        <ele>8.310000000000001</ele>
        <time>2026-06-29T08:46:51Z</time>
      </trkpt>
      <trkpt lat="51.885211011394858" lon="-10.36014698445797">
        <ele>8.789999999999999</ele>
        <time>2026-06-29T08:46:52Z</time>
      </trkpt>
      <trkpt lat="51.885162983089685" lon="-10.359936011955142">
        <ele>8.789999999999999</ele>
        <time>2026-06-29T08:46:53Z</time>
      </trkpt>
      <trkpt lat="51.885076984763145" lon="-10.359539967030287">
        <ele>9.27</ele>
        <time>2026-06-29T08:46:55Z</time>
      </trkpt>
      <trkpt lat="51.885049995034933" lon="-10.35935397259891">
        <ele>9.27</ele>
        <time>2026-06-29T08:46:56Z</time>
      </trkpt>
      <trkpt lat="51.885049995034933" lon="-10.359165966510773">
        <ele>9.27</ele>
        <time>2026-06-29T08:46:57Z</time>
      </trkpt>
      <trkpt lat="51.885071033611894" lon="-10.358969997614622">
        <ele>9.27</ele>
        <time>2026-06-29T08:46:58Z</time>
      </trkpt>
      <trkpt lat="51.885118978098035" lon="-10.35877101123333">
        <ele>8.789999999999999</ele>
        <time>2026-06-29T08:46:59Z</time>
      </trkpt>
      <trkpt lat="51.885179998353124" lon="-10.358571019023657">
        <ele>8.310000000000001</ele>
        <time>2026-06-29T08:47:00Z</time>
      </trkpt>
      <trkpt lat="51.88536498695612" lon="-10.357930976897478">
        <ele>7.35</ele>
        <time>2026-06-29T08:47:03Z</time>
      </trkpt>
      <trkpt lat="51.885403962805867" lon="-10.357706006616354">
        <ele>7.35</ele>
        <time>2026-06-29T08:47:04Z</time>
      </trkpt>
      <trkpt lat="51.885417038574815" lon="-10.357466032728553">
        <ele>7.35</ele>
        <time>2026-06-29T08:47:05Z</time>
      </trkpt>
      <trkpt lat="51.885397005826235" lon="-10.357226980850101">
        <ele>7.83</ele>
        <time>2026-06-29T08:47:06Z</time>
      </trkpt>
      <trkpt lat="51.885374961420894" lon="-10.356978960335255">
        <ele>7.83</ele>
        <time>2026-06-29T08:47:07Z</time>
      </trkpt>
      <trkpt lat="51.885176980867982" lon="-10.354293985292315">
        <ele>8.310000000000001</ele>
        <time>2026-06-29T08:47:17Z</time>
      </trkpt>
      <trkpt lat="51.88515099696815" lon="-10.354035990312696">
        <ele>8.310000000000001</ele>
        <time>2026-06-29T08:47:18Z</time>
      </trkpt>
      <trkpt lat="51.885091988369823" lon="-10.353801967576146">
        <ele>8.310000000000001</ele>
        <time>2026-06-29T08:47:19Z</time>
      </trkpt>
      <trkpt lat="51.885038008913398" lon="-10.353584038093686">
        <ele>8.310000000000001</ele>
        <time>2026-06-29T08:47:20Z</time>
      </trkpt>
      <trkpt lat="51.884919991716743" lon="-10.353423021733761">
        <ele>8.310000000000001</ele>
        <time>2026-06-29T08:47:21Z</time>
      </trkpt>
      <trkpt lat="51.884801974520087" lon="-10.353263011202216">
        <ele>8.310000000000001</ele>
        <time>2026-06-29T08:47:22Z</time>
      </trkpt>
      <trkpt lat="51.884673982858658" lon="-10.353177012875676">
        <ele>8.310000000000001</ele>
        <time>2026-06-29T08:47:23Z</time>
      </trkpt>
      <trkpt lat="51.884530987590551" lon="-10.353081962093711">
        <ele>8.310000000000001</ele>
        <time>2026-06-29T08:47:24Z</time>
      </trkpt>
      <trkpt lat="51.882454035803676" lon="-10.351924002170563">
        <ele>16</ele>
        <time>2026-06-29T08:47:38Z</time>
      </trkpt>
      <trkpt lat="51.88154200091958" lon="-10.351418992504478">
        <ele>19.359999999999999</ele>
        <time>2026-06-29T08:47:46Z</time>
      </trkpt>
      <trkpt lat="51.881468994542956" lon="-10.351345986127853">
        <ele>19.359999999999999</ele>
        <time>2026-06-29T08:47:47Z</time>
      </trkpt>
      <trkpt lat="51.88139003701508" lon="-10.351267028599977">
        <ele>19.359999999999999</ele>
        <time>2026-06-29T08:47:48Z</time>
      </trkpt>
      <trkpt lat="51.881347959861159" lon="-10.351162003353238">
        <ele>19.84</ele>
        <time>2026-06-29T08:47:49Z</time>
      </trkpt>
      <trkpt lat="51.8813700042665" lon="-10.350997969508171">
        <ele>19.84</ele>
        <time>2026-06-29T08:47:50Z</time>
      </trkpt>
      <trkpt lat="51.881396993994713" lon="-10.350832007825375">
        <ele>19.84</ele>
        <time>2026-06-29T08:47:51Z</time>
      </trkpt>
      <trkpt lat="51.881443010643125" lon="-10.350652970373631">
        <ele>20.32</ele>
        <time>2026-06-29T08:47:52Z</time>
      </trkpt>
      <trkpt lat="51.881894962862134" lon="-10.348945995792747">
        <ele>20.32</ele>
        <time>2026-06-29T08:47:59Z</time>
      </trkpt>
      <trkpt lat="51.88313003629446" lon="-10.344414990395308">
        <ele>25.129999999999999</ele>
        <time>2026-06-29T08:48:15Z</time>
      </trkpt>
      <trkpt lat="51.883502025157213" lon="-10.34312903881073">
        <ele>27.530000000000001</ele>
        <time>2026-06-29T08:48:20Z</time>
      </trkpt>
      <trkpt lat="51.883614007383585" lon="-10.342950001358986">
        <ele>27.530000000000001</ele>
        <time>2026-06-29T08:48:21Z</time>
      </trkpt>
      <trkpt lat="51.883737975731492" lon="-10.342776998877525">
        <ele>28.02</ele>
        <time>2026-06-29T08:48:22Z</time>
      </trkpt>
      <trkpt lat="51.883881976827979" lon="-10.342616988345981">
        <ele>28.02</ele>
        <time>2026-06-29T08:48:23Z</time>
      </trkpt>
      <trkpt lat="51.88403301872313" lon="-10.342449015006423">
        <ele>27.530000000000001</ele>
        <time>2026-06-29T08:48:24Z</time>
      </trkpt>
      <trkpt lat="51.885480992496014" lon="-10.341456010937691">
        <ele>26.09</ele>
        <time>2026-06-29T08:48:32Z</time>
      </trkpt>
      <trkpt lat="51.887521985918283" lon="-10.340049024671316">
        <ele>21.77</ele>
        <time>2026-06-29T08:48:44Z</time>
      </trkpt>
      <trkpt lat="51.88781401142478" lon="-10.339773008599877">
        <ele>21.77</ele>
        <time>2026-06-29T08:48:46Z</time>
      </trkpt>
      <trkpt lat="51.887948038056493" lon="-10.339587014168501">
        <ele>21.289999999999999</ele>
        <time>2026-06-29T08:48:47Z</time>
      </trkpt>
      <trkpt lat="51.888074018061161" lon="-10.33937101252377">
        <ele>20.809999999999999</ele>
        <time>2026-06-29T08:48:48Z</time>
      </trkpt>
      <trkpt lat="51.888187006115913" lon="-10.339129026979208">
        <ele>20.809999999999999</ele>
        <time>2026-06-29T08:48:49Z</time>
      </trkpt>
      <trkpt lat="51.888299994170666" lon="-10.338886035606265">
        <ele>20.32</ele>
        <time>2026-06-29T08:48:50Z</time>
      </trkpt>
      <trkpt lat="51.888389009982347" lon="-10.338607002049685">
        <ele>20.32</ele>
        <time>2026-06-29T08:48:51Z</time>
      </trkpt>
      <trkpt lat="51.889328034594655" lon="-10.335598988458514">
        <ele>17.920000000000002</ele>
        <time>2026-06-29T08:49:02Z</time>
      </trkpt>
      <trkpt lat="51.889779986813664" lon="-10.334014976397157">
        <ele>16.960000000000001</ele>
        <time>2026-06-29T08:49:08Z</time>
      </trkpt>
      <trkpt lat="51.889803037047386" lon="-10.333733009174466">
        <ele>16.960000000000001</ele>
        <time>2026-06-29T08:49:09Z</time>
      </trkpt>
      <trkpt lat="51.890014009550214" lon="-10.330330962315202">
        <ele>13.6</ele>
        <time>2026-06-29T08:49:20Z</time>
      </trkpt>
      <trkpt lat="51.890077041462064" lon="-10.327379023656249">
        <ele>13.6</ele>
        <time>2026-06-29T08:49:30Z</time>
      </trkpt>
      <trkpt lat="51.890063965693116" lon="-10.327115999534726">
        <ele>13.6</ele>
        <time>2026-06-29T08:49:31Z</time>
      </trkpt>
      <trkpt lat="51.89002800732851" lon="-10.326850041747093">
        <ele>13.119999999999999</ele>
        <time>2026-06-29T08:49:32Z</time>
      </trkpt>
      <trkpt lat="51.889348989352584" lon="-10.323110958561301">
        <ele>11.67</ele>
        <time>2026-06-29T08:49:45Z</time>
      </trkpt>
      <trkpt lat="51.889174981042743" lon="-10.322012007236481">
        <ele>11.19</ele>
        <time>2026-06-29T08:49:49Z</time>
      </trkpt>
      <trkpt lat="51.889152014628053" lon="-10.32173004001379">
        <ele>11.19</ele>
        <time>2026-06-29T08:49:50Z</time>
      </trkpt>
      <trkpt lat="51.889285035431385" lon="-10.319095021113753">
        <ele>15.039999999999999</ele>
        <time>2026-06-29T08:49:59Z</time>
      </trkpt>
      <trkpt lat="51.889840001240373" lon="-10.315863965079188">
        <ele>24.649999999999999</ele>
        <time>2026-06-29T08:50:11Z</time>
      </trkpt>
      <trkpt lat="51.890827976167202" lon="-10.311989011242986">
        <ele>29.940000000000001</ele>
        <time>2026-06-29T08:50:25Z</time>
      </trkpt>
      <trkpt lat="51.892064977437258" lon="-10.308039961382747">
        <ele>28.5</ele>
        <time>2026-06-29T08:50:39Z</time>
      </trkpt>
      <trkpt lat="51.892530005425215" lon="-10.305301006883383">
        <ele>26.09</ele>
        <time>2026-06-29T08:50:48Z</time>
      </trkpt>
      <trkpt lat="51.892520030960441" lon="-10.302918031811714">
        <ele>23.690000000000001</ele>
        <time>2026-06-29T08:50:56Z</time>
      </trkpt>
      <trkpt lat="51.892041005194187" lon="-10.301121035590768">
        <ele>22.73</ele>
        <time>2026-06-29T08:51:03Z</time>
      </trkpt>
      <trkpt lat="51.890981029719114" lon="-10.298873009160161">
        <ele>20.32</ele>
        <time>2026-06-29T08:51:13Z</time>
      </trkpt>
      <trkpt lat="51.890805009752512" lon="-10.298436982557178">
        <ele>19.359999999999999</ele>
        <time>2026-06-29T08:51:15Z</time>
      </trkpt>
      <trkpt lat="51.890752958133817" lon="-10.298194997012615">
        <ele>18.879999999999999</ele>
        <time>2026-06-29T08:51:16Z</time>
      </trkpt>
      <trkpt lat="51.890707025304437" lon="-10.297937002032995">
        <ele>18.399999999999999</ele>
        <time>2026-06-29T08:51:17Z</time>
      </trkpt>
      <trkpt lat="51.890687998384237" lon="-10.297656962648034">
        <ele>17.440000000000001</ele>
        <time>2026-06-29T08:51:18Z</time>
      </trkpt>
      <trkpt lat="51.890701996162534" lon="-10.29736602678895">
        <ele>16.960000000000001</ele>
        <time>2026-06-29T08:51:19Z</time>
      </trkpt>
      <trkpt lat="51.89071599394083" lon="-10.297066960483789">
        <ele>16.48</ele>
        <time>2026-06-29T08:51:20Z</time>
      </trkpt>
      <trkpt lat="51.891107009723783" lon="-10.291693992912769">
        <ele>17.440000000000001</ele>
        <time>2026-06-29T08:51:37Z</time>
      </trkpt>
      <trkpt lat="51.891430970281363" lon="-10.28742098249495">
        <ele>19.84</ele>
        <time>2026-06-29T08:51:51Z</time>
      </trkpt>
      <trkpt lat="51.891365004703403" lon="-10.284622013568878">
        <ele>19.84</ele>
        <time>2026-06-29T08:52:00Z</time>
      </trkpt>
      <trkpt lat="51.890841973945498" lon="-10.282694008201361">
        <ele>19.84</ele>
        <time>2026-06-29T08:52:07Z</time>
      </trkpt>
      <trkpt lat="51.890467973425984" lon="-10.281519033014774">
        <ele>19.359999999999999</ele>
        <time>2026-06-29T08:52:12Z</time>
      </trkpt>
      <trkpt lat="51.890423968434334" lon="-10.281291967257857">
        <ele>19.359999999999999</ele>
        <time>2026-06-29T08:52:13Z</time>
      </trkpt>
      <trkpt lat="51.890423968434334" lon="-10.281051993370056">
        <ele>19.359999999999999</ele>
        <time>2026-06-29T08:52:14Z</time>
      </trkpt>
      <trkpt lat="51.890450036153197" lon="-10.280806990340352">
        <ele>19.84</ele>
        <time>2026-06-29T08:52:15Z</time>
      </trkpt>
      <trkpt lat="51.890494963154197" lon="-10.280556036159396">
        <ele>19.84</ele>
        <time>2026-06-29T08:52:16Z</time>
      </trkpt>
      <trkpt lat="51.89054299145937" lon="-10.280293012037873">
        <ele>19.84</ele>
        <time>2026-06-29T08:52:17Z</time>
      </trkpt>
      <trkpt lat="51.89105998724699" lon="-10.276824999600649">
        <ele>25.129999999999999</ele>
        <time>2026-06-29T08:52:29Z</time>
      </trkpt>
      <trkpt lat="51.891759959980845" lon="-10.272458028048277">
        <ele>22.73</ele>
        <time>2026-06-29T08:52:44Z</time>
      </trkpt>
      <trkpt lat="51.892302017658949" lon="-10.270072035491467">
        <ele>19.359999999999999</ele>
        <time>2026-06-29T08:52:53Z</time>
      </trkpt>
      <trkpt lat="51.893453020602465" lon="-10.266588013619184">
        <ele>21.289999999999999</ele>
        <time>2026-06-29T08:53:05Z</time>
      </trkpt>
      <trkpt lat="51.894390033558011" lon="-10.263732969760895">
        <ele>25.609999999999999</ele>
        <time>2026-06-29T08:53:16Z</time>
      </trkpt>
      <trkpt lat="51.895323023200035" lon="-10.260436031967402">
        <ele>26.09</ele>
        <time>2026-06-29T08:53:28Z</time>
      </trkpt>
      <trkpt lat="51.896405965089798" lon="-10.256495028734207">
        <ele>20.32</ele>
        <time>2026-06-29T08:53:43Z</time>
      </trkpt>
      <trkpt lat="51.8972900044173" lon="-10.253088036552072">
        <ele>11.19</ele>
        <time>2026-06-29T08:53:56Z</time>
      </trkpt>
      <trkpt lat="51.897678002715111" lon="-10.25164601393044">
        <ele>8.789999999999999</ele>
        <time>2026-06-29T08:54:03Z</time>
      </trkpt>
      <trkpt lat="51.89810598269105" lon="-10.249913977459073">
        <ele>6.39</ele>
        <time>2026-06-29T08:54:11Z</time>
      </trkpt>
      <trkpt lat="51.898179994896054" lon="-10.249736029654741">
        <ele>6.39</ele>
        <time>2026-06-29T08:54:12Z</time>
      </trkpt>
      <trkpt lat="51.898274039849639" lon="-10.249578030779958">
        <ele>6.87</ele>
        <time>2026-06-29T08:54:13Z</time>
      </trkpt>
      <trkpt lat="51.898392979055643" lon="-10.249425983056426">
        <ele>6.87</ele>
        <time>2026-06-29T08:54:14Z</time>
      </trkpt>
      <trkpt lat="51.89853597432375" lon="-10.249297991394997">
        <ele>6.87</ele>
        <time>2026-06-29T08:54:15Z</time>
      </trkpt>
      <trkpt lat="51.900003980845213" lon="-10.248035006225109">
        <ele>8.310000000000001</ele>
        <time>2026-06-29T08:54:24Z</time>
      </trkpt>
      <trkpt lat="51.900992961600423" lon="-10.247304020449519">
        <ele>8.310000000000001</ele>
        <time>2026-06-29T08:54:30Z</time>
      </trkpt>
      <trkpt lat="51.901132017374039" lon="-10.24713696911931">
        <ele>8.310000000000001</ele>
        <time>2026-06-29T08:54:31Z</time>
      </trkpt>
      <trkpt lat="51.901255985721946" lon="-10.246938988566399">
        <ele>8.310000000000001</ele>
        <time>2026-06-29T08:54:32Z</time>
      </trkpt>
      <trkpt lat="51.90268199890852" lon="-10.244457023218274">
        <ele>12.630000000000001</ele>
        <time>2026-06-29T08:54:43Z</time>
      </trkpt>
      <trkpt lat="51.904258970171213" lon="-10.24171999655664">
        <ele>15.52</ele>
        <time>2026-06-29T08:54:56Z</time>
      </trkpt>
      <trkpt lat="51.905722031369805" lon="-10.239548999816179">
        <ele>16</ele>
        <time>2026-06-29T08:55:08Z</time>
      </trkpt>
      <trkpt lat="51.907540988177061" lon="-10.236852960661054">
        <ele>16</ele>
        <time>2026-06-29T08:55:23Z</time>
      </trkpt>
      <trkpt lat="51.909103961661458" lon="-10.234439978376031">
        <ele>17.920000000000002</ele>
        <time>2026-06-29T08:55:35Z</time>
      </trkpt>
      <trkpt lat="51.910064024850726" lon="-10.233107004314661">
        <ele>15.52</ele>
        <time>2026-06-29T08:55:43Z</time>
      </trkpt>
      <trkpt lat="51.910324031487107" lon="-10.232822019606829">
        <ele>14.56</ele>
        <time>2026-06-29T08:55:49Z</time>
      </trkpt>
      <trkpt lat="51.910473983734846" lon="-10.232769967988133">
        <ele>15.039999999999999</ele>
        <time>2026-06-29T08:55:57Z</time>
      </trkpt>
      <trkpt lat="51.910514971241355" lon="-10.232813972979784">
        <ele>15.039999999999999</ele>
        <time>2026-06-29T08:55:58Z</time>
      </trkpt>
      <trkpt lat="51.910575991496444" lon="-10.232881028205156">
        <ele>15.039999999999999</ele>
        <time>2026-06-29T08:55:59Z</time>
      </trkpt>
      <trkpt lat="51.910648997873068" lon="-10.232960991561413">
        <ele>15.039999999999999</ele>
        <time>2026-06-29T08:56:00Z</time>
      </trkpt>
      <trkpt lat="51.911350982263684" lon="-10.233885012567043">
        <ele>16.48</ele>
        <time>2026-06-29T08:56:07Z</time>
      </trkpt>
      <trkpt lat="51.911752978339791" lon="-10.234752036631107">
        <ele>18.879999999999999</ele>
        <time>2026-06-29T08:56:11Z</time>
      </trkpt>
      <trkpt lat="51.911905026063323" lon="-10.234949011355639">
        <ele>19.359999999999999</ele>
        <time>2026-06-29T08:56:12Z</time>
      </trkpt>
      <trkpt lat="51.912052966654301" lon="-10.235141040757298">
        <ele>19.359999999999999</ele>
        <time>2026-06-29T08:56:13Z</time>
      </trkpt>
      <trkpt lat="51.913607977330685" lon="-10.236697979271412">
        <ele>22.73</ele>
        <time>2026-06-29T08:56:23Z</time>
      </trkpt>
      <trkpt lat="51.914663007482886" lon="-10.237366016954184">
        <ele>25.129999999999999</ele>
        <time>2026-06-29T08:56:30Z</time>
      </trkpt>
      <trkpt lat="51.916942968964577" lon="-10.238279979676008">
        <ele>30.420000000000002</ele>
        <time>2026-06-29T08:56:43Z</time>
      </trkpt>
      <trkpt lat="51.91901003010571" lon="-10.238779960200191">
        <ele>34.259999999999998</ele>
        <time>2026-06-29T08:56:55Z</time>
      </trkpt>
      <trkpt lat="51.921586040407419" lon="-10.239403992891312">
        <ele>37.149999999999999</ele>
        <time>2026-06-29T08:57:09Z</time>
      </trkpt>
      <trkpt lat="51.924349972978234" lon="-10.24023899808526">
        <ele>42.439999999999998</ele>
        <time>2026-06-29T08:57:24Z</time>
      </trkpt>
      <trkpt lat="51.927013993263245" lon="-10.241063022986054">
        <ele>49.159999999999997</ele>
        <time>2026-06-29T08:57:39Z</time>
      </trkpt>
      <trkpt lat="51.929750014096498" lon="-10.241722008213401">
        <ele>48.200000000000003</ele>
        <time>2026-06-29T08:57:54Z</time>
      </trkpt>
      <trkpt lat="51.931782038882375" lon="-10.241696024313569">
        <ele>45.799999999999997</ele>
        <time>2026-06-29T08:58:06Z</time>
      </trkpt>
      <trkpt lat="51.933191958814859" lon="-10.241609020158648">
        <ele>44.840000000000003</ele>
        <time>2026-06-29T08:58:16Z</time>
      </trkpt>
      <trkpt lat="51.934512024745345" lon="-10.241320012137294">
        <ele>39.07</ele>
        <time>2026-06-29T08:58:27Z</time>
      </trkpt>
      <trkpt lat="51.935578035190701" lon="-10.240740990266204">
        <ele>36.670000000000002</ele>
        <time>2026-06-29T08:58:37Z</time>
      </trkpt>
      <trkpt lat="51.936475988477468" lon="-10.240221982821822">
        <ele>35.710000000000001</ele>
        <time>2026-06-29T08:58:48Z</time>
      </trkpt>
      <trkpt lat="51.937311999499798" lon="-10.239782016724348">
        <ele>33.299999999999997</ele>
        <time>2026-06-29T08:59:00Z</time>
      </trkpt>
      <trkpt lat="51.937500005587935" lon="-10.239687971770763">
        <ele>32.82</ele>
        <time>2026-06-29T08:59:05Z</time>
      </trkpt>
      <trkpt lat="51.938248006626964" lon="-10.239393012598157">
        <ele>34.259999999999998</ele>
        <time>2026-06-29T08:59:17Z</time>
      </trkpt>
      <trkpt lat="51.939130034297705" lon="-10.239090006798506">
        <ele>32.82</ele>
        <time>2026-06-29T08:59:28Z</time>
      </trkpt>
      <trkpt lat="51.939797988161445" lon="-10.238400008529425">
        <ele>29.460000000000001</ele>
        <time>2026-06-29T08:59:37Z</time>
      </trkpt>
      <trkpt lat="51.940240971744061" lon="-10.237600039690733">
        <ele>23.690000000000001</ele>
        <time>2026-06-29T08:59:48Z</time>
      </trkpt>
      <trkpt lat="51.94081999361515" lon="-10.23664902895689">
        <ele>21.77</ele>
        <time>2026-06-29T08:59:57Z</time>
      </trkpt>
      <trkpt lat="51.94178600795567" lon="-10.235350001603365">
        <ele>23.210000000000001</ele>
        <time>2026-06-29T09:00:09Z</time>
      </trkpt>
      <trkpt lat="51.942617995664477" lon="-10.234264964237809">
        <ele>19.359999999999999</ele>
        <time>2026-06-29T09:00:20Z</time>
      </trkpt>
      <trkpt lat="51.943177990615368" lon="-10.233579995110631">
        <ele>16.960000000000001</ele>
        <time>2026-06-29T09:00:30Z</time>
      </trkpt>
      <trkpt lat="51.943635977804661" lon="-10.233001979067922">
        <ele>14.08</ele>
        <time>2026-06-29T09:00:39Z</time>
      </trkpt>
      <trkpt lat="51.943994974717498" lon="-10.23250300437212">
        <ele>11.67</ele>
        <time>2026-06-29T09:00:47Z</time>
      </trkpt>
      <trkpt lat="51.944622024893761" lon="-10.231434982270002">
        <ele>11.19</ele>
        <time>2026-06-29T09:00:59Z</time>
      </trkpt>
      <trkpt lat="51.945068025961518" lon="-10.230051968246698">
        <ele>12.630000000000001</ele>
        <time>2026-06-29T09:01:11Z</time>
      </trkpt>
      <trkpt lat="51.945342030376196" lon="-10.229118978604674">
        <ele>13.119999999999999</ele>
        <time>2026-06-29T09:01:19Z</time>
      </trkpt>
      <trkpt lat="51.945472033694386" lon="-10.228626038879156">
        <ele>13.119999999999999</ele>
        <time>2026-06-29T09:01:23Z</time>
      </trkpt>
      <trkpt lat="51.945828013122082" lon="-10.22734897211194">
        <ele>14.08</ele>
        <time>2026-06-29T09:01:34Z</time>
      </trkpt>
      <trkpt lat="51.945975031703711" lon="-10.226969020441175">
        <ele>14.08</ele>
        <time>2026-06-29T09:01:40Z</time>
      </trkpt>
      <trkpt lat="51.946213999763131" lon="-10.226350016891956">
        <ele>13.6</ele>
        <time>2026-06-29T09:01:51Z</time>
      </trkpt>
      <trkpt lat="51.946239983662963" lon="-10.226282961666584">
        <ele>13.6</ele>
        <time>2026-06-29T09:01:52Z</time>
      </trkpt>
      <trkpt lat="51.946264039725065" lon="-10.226221019402146">
        <ele>13.6</ele>
        <time>2026-06-29T09:01:53Z</time>
      </trkpt>
      <trkpt lat="51.946319025009871" lon="-10.22607902996242">
        <ele>13.119999999999999</ele>
        <time>2026-06-29T09:01:55Z</time>
      </trkpt>
      <trkpt lat="51.946669975295663" lon="-10.225192978978157">
        <ele>11.19</ele>
        <time>2026-06-29T09:02:05Z</time>
      </trkpt>
      <trkpt lat="51.946741975843906" lon="-10.225015031173825">
        <ele>11.67</ele>
        <time>2026-06-29T09:02:07Z</time>
      </trkpt>
      <trkpt lat="51.946777012199163" lon="-10.224928027018905">
        <ele>11.67</ele>
        <time>2026-06-29T09:02:08Z</time>
      </trkpt>
      <trkpt lat="51.94722200743854" lon="-10.22354400716722">
        <ele>16.960000000000001</ele>
        <time>2026-06-29T09:02:21Z</time>
      </trkpt>
      <trkpt lat="51.947483019903302" lon="-10.222385041415691">
        <ele>20.809999999999999</ele>
        <time>2026-06-29T09:02:30Z</time>
      </trkpt>
      <trkpt lat="51.94797595962882" lon="-10.220558037981391">
        <ele>21.289999999999999</ele>
        <time>2026-06-29T09:02:45Z</time>
      </trkpt>
      <trkpt lat="51.94844601675868" lon="-10.219086008146405">
        <ele>20.809999999999999</ele>
        <time>2026-06-29T09:02:55Z</time>
      </trkpt>
      <trkpt lat="51.94911397062242" lon="-10.217507025226951">
        <ele>17.920000000000002</ele>
        <time>2026-06-29T09:03:05Z</time>
      </trkpt>
      <trkpt lat="51.949217990040779" lon="-10.217383978888392">
        <ele>17.920000000000002</ele>
        <time>2026-06-29T09:03:06Z</time>
      </trkpt>
      <trkpt lat="51.950002033263445" lon="-10.216393992304802">
        <ele>18.879999999999999</ele>
        <time>2026-06-29T09:03:14Z</time>
      </trkpt>
      <trkpt lat="51.950089959427714" lon="-10.216241022571921">
        <ele>18.879999999999999</ele>
        <time>2026-06-29T09:03:15Z</time>
      </trkpt>
      <trkpt lat="51.950520034879446" lon="-10.215211976319551">
        <ele>20.32</ele>
        <time>2026-06-29T09:03:23Z</time>
      </trkpt>
      <trkpt lat="51.950545012950897" lon="-10.215150034055114">
        <ele>20.32</ele>
        <time>2026-06-29T09:03:32Z</time>
      </trkpt>
      <trkpt lat="51.950545012950897" lon="-10.215150034055114">
        <ele>20.32</ele>
        <time>2026-06-29T09:04:17Z</time>
      </trkpt>
      <trkpt lat="51.950545012950897" lon="-10.215150034055114">
        <ele>20.809999999999999</ele>
        <time>2026-06-29T09:05:08Z</time>
      </trkpt>
      <trkpt lat="51.950545012950897" lon="-10.215150034055114">
        <ele>20.32</ele>
        <time>2026-06-29T09:05:57Z</time>
      </trkpt>
      <trkpt lat="51.95055196993053" lon="-10.215132012963295">
        <ele>20.32</ele>
        <time>2026-06-29T09:06:35Z</time>
      </trkpt>
      <trkpt lat="51.950651966035366" lon="-10.214887009933591">
        <ele>20.809999999999999</ele>
        <time>2026-06-29T09:06:38Z</time>
      </trkpt>
      <trkpt lat="51.951082041487098" lon="-10.213543977588415">
        <ele>21.289999999999999</ele>
        <time>2026-06-29T09:06:46Z</time>
      </trkpt>
      <trkpt lat="51.951508009806275" lon="-10.211464008316398">
        <ele>17.440000000000001</ele>
        <time>2026-06-29T09:06:55Z</time>
      </trkpt>
      <trkpt lat="51.951514966785908" lon="-10.209287982434034">
        <ele>12.15</ele>
        <time>2026-06-29T09:07:03Z</time>
      </trkpt>
      <trkpt lat="51.951732980087399" lon="-10.206610970199108">
        <ele>6.39</ele>
        <time>2026-06-29T09:07:14Z</time>
      </trkpt>
      <trkpt lat="51.951702972874045" lon="-10.20450996235013">
        <ele>8.789999999999999</ele>
        <time>2026-06-29T09:07:22Z</time>
      </trkpt>
      <trkpt lat="51.951631978154182" lon="-10.201528016477823">
        <ele>11.19</ele>
        <time>2026-06-29T09:07:32Z</time>
      </trkpt>
      <trkpt lat="51.952115027233958" lon="-10.199047978967428">
        <ele>14.08</ele>
        <time>2026-06-29T09:07:40Z</time>
      </trkpt>
      <trkpt lat="51.952940979972482" lon="-10.197133971378207">
        <ele>17.440000000000001</ele>
        <time>2026-06-29T09:07:47Z</time>
      </trkpt>
      <trkpt lat="51.953089004382491" lon="-10.196916963905096">
        <ele>17.920000000000002</ele>
        <time>2026-06-29T09:07:48Z</time>
      </trkpt>
      <trkpt lat="51.953244991600513" lon="-10.19670900888741">
        <ele>18.399999999999999</ele>
        <time>2026-06-29T09:07:49Z</time>
      </trkpt>
      <trkpt lat="51.953422017395496" lon="-10.196535000577569">
        <ele>18.879999999999999</ele>
        <time>2026-06-29T09:07:50Z</time>
      </trkpt>
      <trkpt lat="51.955393021926284" lon="-10.194584028795362">
        <ele>19.84</ele>
        <time>2026-06-29T09:08:01Z</time>
      </trkpt>
      <trkpt lat="51.95650496520102" lon="-10.193281983956695">
        <ele>20.32</ele>
        <time>2026-06-29T09:08:08Z</time>
      </trkpt>
      <trkpt lat="51.956633040681481" lon="-10.193074028939009">
        <ele>19.84</ele>
        <time>2026-06-29T09:08:09Z</time>
      </trkpt>
      <trkpt lat="51.957767028361559" lon="-10.190676972270012">
        <ele>16.960000000000001</ele>
        <time>2026-06-29T09:08:18Z</time>
      </trkpt>
      <trkpt lat="51.958999000489712" lon="-10.187851013615727">
        <ele>10.23</ele>
        <time>2026-06-29T09:08:29Z</time>
      </trkpt>
      <trkpt lat="51.960259974002838" lon="-10.184975014999509">
        <ele>7.83</ele>
        <time>2026-06-29T09:08:41Z</time>
      </trkpt>
      <trkpt lat="51.961707025766373" lon="-10.181811014190316">
        <ele>8.310000000000001</ele>
        <time>2026-06-29T09:08:53Z</time>
      </trkpt>
      <trkpt lat="51.962395012378693" lon="-10.180331021547318">
        <ele>9.27</ele>
        <time>2026-06-29T09:09:00Z</time>
      </trkpt>
      <trkpt lat="51.963274022564292" lon="-10.178415002301335">
        <ele>6.39</ele>
        <time>2026-06-29T09:09:09Z</time>
      </trkpt>
      <trkpt lat="51.964499037712812" lon="-10.175746958702803">
        <ele>6.87</ele>
        <time>2026-06-29T09:09:20Z</time>
      </trkpt>
      <trkpt lat="51.965966038405895" lon="-10.172565020620823">
        <ele>7.83</ele>
        <time>2026-06-29T09:09:34Z</time>
      </trkpt>
      <trkpt lat="51.966336015611887" lon="-10.171817019581795">
        <ele>8.789999999999999</ele>
        <time>2026-06-29T09:09:38Z</time>
      </trkpt>
      <trkpt lat="51.966456966474652" lon="-10.171682992950082">
        <ele>9.27</ele>
        <time>2026-06-29T09:09:40Z</time>
      </trkpt>
      <trkpt lat="51.966498959809542" lon="-10.171560030430555">
        <ele>9.27</ele>
        <time>2026-06-29T09:09:41Z</time>
      </trkpt>
      <trkpt lat="51.966510023921728" lon="-10.171435978263617">
        <ele>9.27</ele>
        <time>2026-06-29T09:09:42Z</time>
      </trkpt>
      <trkpt lat="51.966593004763126" lon="-10.170522015541792">
        <ele>8.789999999999999</ele>
        <time>2026-06-29T09:09:48Z</time>
      </trkpt>
      <trkpt lat="51.966628041118383" lon="-10.170365022495389">
        <ele>9.27</ele>
        <time>2026-06-29T09:09:49Z</time>
      </trkpt>
      <trkpt lat="51.966672968119383" lon="-10.170210963115096">
        <ele>9.27</ele>
        <time>2026-06-29T09:09:50Z</time>
      </trkpt>
      <trkpt lat="51.966719990596175" lon="-10.170049024745822">
        <ele>9.27</ele>
        <time>2026-06-29T09:09:51Z</time>
      </trkpt>
      <trkpt lat="51.966772964224219" lon="-10.169884990900755">
        <ele>8.789999999999999</ele>
        <time>2026-06-29T09:09:52Z</time>
      </trkpt>
      <trkpt lat="51.966829961165786" lon="-10.169729003682733">
        <ele>8.310000000000001</ele>
        <time>2026-06-29T09:09:53Z</time>
      </trkpt>
      <trkpt lat="51.966886036098003" lon="-10.169577961787581">
        <ele>8.310000000000001</ele>
        <time>2026-06-29T09:09:54Z</time>
      </trkpt>
      <trkpt lat="51.966964993625879" lon="-10.169472014531493">
        <ele>7.83</ele>
        <time>2026-06-29T09:09:55Z</time>
      </trkpt>
      <trkpt lat="51.967050991952419" lon="-10.169381992891431">
        <ele>7.83</ele>
        <time>2026-06-29T09:09:56Z</time>
      </trkpt>
      <trkpt lat="51.967232963070273" lon="-10.169190969318151">
        <ele>7.83</ele>
        <time>2026-06-29T09:09:58Z</time>
      </trkpt>
      <trkpt lat="51.967638982459903" lon="-10.168623011559248">
        <ele>9.27</ele>
        <time>2026-06-29T09:10:03Z</time>
      </trkpt>
      <trkpt lat="51.968194032087922" lon="-10.167363965883851">
        <ele>10.710000000000001</ele>
        <time>2026-06-29T09:10:11Z</time>
      </trkpt>
      <trkpt lat="51.968831978738308" lon="-10.165766039863229">
        <ele>12.630000000000001</ele>
        <time>2026-06-29T09:10:21Z</time>
      </trkpt>
      <trkpt lat="51.969564976170659" lon="-10.164005002006888">
        <ele>11.67</ele>
        <time>2026-06-29T09:10:32Z</time>
      </trkpt>
      <trkpt lat="51.970528978854418" lon="-10.162131981924176">
        <ele>12.15</ele>
        <time>2026-06-29T09:10:43Z</time>
      </trkpt>
      <trkpt lat="51.971420980989933" lon="-10.160224009305239">
        <ele>10.23</ele>
        <time>2026-06-29T09:10:53Z</time>
      </trkpt>
      <trkpt lat="51.972021041437984" lon="-10.158393988385797">
        <ele>16</ele>
        <time>2026-06-29T09:11:02Z</time>
      </trkpt>
      <trkpt lat="51.972608026117086" lon="-10.15614696778357">
        <ele>13.6</ele>
        <time>2026-06-29T09:11:12Z</time>
      </trkpt>
      <trkpt lat="51.972820004448295" lon="-10.155339958146214">
        <ele>13.6</ele>
        <time>2026-06-29T09:11:16Z</time>
      </trkpt>
      <trkpt lat="51.972848000004888" lon="-10.155146000906825">
        <ele>14.08</ele>
        <time>2026-06-29T09:11:17Z</time>
      </trkpt>
      <trkpt lat="51.972858980298042" lon="-10.154954977333546">
        <ele>14.56</ele>
        <time>2026-06-29T09:11:18Z</time>
      </trkpt>
      <trkpt lat="51.973057966679335" lon="-10.153458975255489">
        <ele>12.630000000000001</ele>
        <time>2026-06-29T09:11:26Z</time>
      </trkpt>
      <trkpt lat="51.973127033561468" lon="-10.153346993029118">
        <ele>12.630000000000001</ele>
        <time>2026-06-29T09:11:27Z</time>
      </trkpt>
      <trkpt lat="51.973209008574486" lon="-10.153246996924281">
        <ele>12.630000000000001</ele>
        <time>2026-06-29T09:11:28Z</time>
      </trkpt>
      <trkpt lat="51.973301041871309" lon="-10.153138032183051">
        <ele>12.630000000000001</ele>
        <time>2026-06-29T09:11:29Z</time>
      </trkpt>
      <trkpt lat="51.973403971642256" lon="-10.153023032471538">
        <ele>12.630000000000001</ele>
        <time>2026-06-29T09:11:30Z</time>
      </trkpt>
      <trkpt lat="51.974425977095962" lon="-10.152138993144035">
        <ele>16</ele>
        <time>2026-06-29T09:11:40Z</time>
      </trkpt>
      <trkpt lat="51.975250001996756" lon="-10.151043981313705">
        <ele>25.609999999999999</ele>
        <time>2026-06-29T09:11:50Z</time>
      </trkpt>
      <trkpt lat="51.976222973316908" lon="-10.149749983102083">
        <ele>30.420000000000002</ele>
        <time>2026-06-29T09:12:00Z</time>
      </trkpt>
      <trkpt lat="51.977120004594326" lon="-10.14853997156024">
        <ele>29.940000000000001</ele>
        <time>2026-06-29T09:12:10Z</time>
      </trkpt>
      <trkpt lat="51.977668013423681" lon="-10.147430961951613">
        <ele>29.940000000000001</ele>
        <time>2026-06-29T09:12:18Z</time>
      </trkpt>
      <trkpt lat="51.977846967056394" lon="-10.147060984745622">
        <ele>29.460000000000001</ele>
        <time>2026-06-29T09:12:22Z</time>
      </trkpt>
      <trkpt lat="51.977883009240031" lon="-10.146986972540617">
        <ele>28.98</ele>
        <time>2026-06-29T09:12:23Z</time>
      </trkpt>
      <trkpt lat="51.977918967604637" lon="-10.146912038326263">
        <ele>28.5</ele>
        <time>2026-06-29T09:12:24Z</time>
      </trkpt>
      <trkpt lat="51.977989040315151" lon="-10.146767031401396">
        <ele>28.02</ele>
        <time>2026-06-29T09:12:26Z</time>
      </trkpt>
      <trkpt lat="51.978018963709474" lon="-10.146705005317926">
        <ele>28.02</ele>
        <time>2026-06-29T09:12:27Z</time>
      </trkpt>
      <trkpt lat="51.978096999228001" lon="-10.146666029468179">
        <ele>27.530000000000001</ele>
        <time>2026-06-29T09:12:28Z</time>
      </trkpt>
      <trkpt lat="51.978142010048032" lon="-10.146711962297559">
        <ele>27.530000000000001</ele>
        <time>2026-06-29T09:12:29Z</time>
      </trkpt>
      <trkpt lat="51.97820202447474" lon="-10.146772982552648">
        <ele>27.530000000000001</ele>
        <time>2026-06-29T09:12:30Z</time>
      </trkpt>
      <trkpt lat="51.978272013366222" lon="-10.146843977272511">
        <ele>27.530000000000001</ele>
        <time>2026-06-29T09:12:31Z</time>
      </trkpt>
      <trkpt lat="51.979066031053662" lon="-10.147654004395008">
        <ele>30.420000000000002</ele>
        <time>2026-06-29T09:12:41Z</time>
      </trkpt>
      <trkpt lat="51.979130990803242" lon="-10.147719969972968">
        <ele>30.899999999999999</ele>
        <time>2026-06-29T09:12:42Z</time>
      </trkpt>
      <trkpt lat="51.979198968037963" lon="-10.147877968847752">
        <ele>31.379999999999999</ele>
        <time>2026-06-29T09:12:44Z</time>
      </trkpt>
      <trkpt lat="51.979215983301401" lon="-10.147956004366279">
        <ele>30.899999999999999</ele>
        <time>2026-06-29T09:12:45Z</time>
      </trkpt>
      <trkpt lat="51.979207014665008" lon="-10.148040996864438">
        <ele>31.379999999999999</ele>
        <time>2026-06-29T09:12:46Z</time>
      </trkpt>
      <trkpt lat="51.979096038267016" lon="-10.149127040058374">
        <ele>29.460000000000001</ele>
        <time>2026-06-29T09:12:54Z</time>
      </trkpt>
      <trkpt lat="51.979065025225282" lon="-10.149424010887742">
        <ele>29.460000000000001</ele>
        <time>2026-06-29T09:12:57Z</time>
      </trkpt>
      <trkpt lat="51.979048009961843" lon="-10.149590978398919">
        <ele>28.98</ele>
        <time>2026-06-29T09:13:00Z</time>
      </trkpt>
      <trkpt lat="51.979071982204914" lon="-10.149642024189234">
        <ele>28.98</ele>
        <time>2026-06-29T09:13:01Z</time>
      </trkpt>
      <trkpt lat="51.979115987196565" lon="-10.149660967290401">
        <ele>28.5</ele>
        <time>2026-06-29T09:13:02Z</time>
      </trkpt>
      <trkpt lat="51.979177007451653" lon="-10.149688040837646">
        <ele>28.5</ele>
        <time>2026-06-29T09:13:03Z</time>
      </trkpt>
      <trkpt lat="51.979248002171516" lon="-10.149719975888729">
        <ele>28.5</ele>
        <time>2026-06-29T09:13:04Z</time>
      </trkpt>
      <trkpt lat="51.979326037690043" lon="-10.149755012243986">
        <ele>28.02</ele>
        <time>2026-06-29T09:13:05Z</time>
      </trkpt>
      <trkpt lat="51.980040008202195" lon="-10.150074027478695">
        <ele>28.98</ele>
        <time>2026-06-29T09:13:13Z</time>
      </trkpt>
      <trkpt lat="51.98009398765862" lon="-10.150188021361828">
        <ele>29.460000000000001</ele>
        <time>2026-06-29T09:13:14Z</time>
      </trkpt>
      <trkpt lat="51.980156013742089" lon="-10.150260021910071">
        <ele>29.940000000000001</ele>
        <time>2026-06-29T09:13:15Z</time>
      </trkpt>
      <trkpt lat="51.980796977877617" lon="-10.150910038501024">
        <ele>33.780000000000001</ele>
        <time>2026-06-29T09:13:24Z</time>
      </trkpt>
      <trkpt lat="51.981222024187446" lon="-10.151142971590161">
        <ele>40.030000000000001</ele>
        <time>2026-06-29T09:13:32Z</time>
      </trkpt>
      <trkpt lat="51.981242978945374" lon="-10.151154035702348">
        <ele>42.439999999999998</ele>
        <time>2026-06-29T09:13:42Z</time>
      </trkpt>
      <trkpt lat="51.981282960623503" lon="-10.151175996288657">
        <ele>43.399999999999999</ele>
        <time>2026-06-29T09:13:53Z</time>
      </trkpt>
      <trkpt lat="51.981351021677256" lon="-10.151158981025219">
        <ele>43.880000000000003</ele>
        <time>2026-06-29T09:13:54Z</time>
      </trkpt>
      <trkpt lat="51.981415981426835" lon="-10.151085974648595">
        <ele>44.840000000000003</ele>
        <time>2026-06-29T09:13:55Z</time>
      </trkpt>
      <trkpt lat="51.982002966105938" lon="-10.150551041588187">
        <ele>47.240000000000002</ele>
        <time>2026-06-29T09:14:00Z</time>
      </trkpt>
      <trkpt lat="51.982488026842475" lon="-10.150168994441628">
        <ele>48.68</ele>
        <time>2026-06-29T09:14:03Z</time>
      </trkpt>
      <trkpt lat="51.982648959383368" lon="-10.149974031373858">
        <ele>49.649999999999999</ele>
        <time>2026-06-29T09:14:04Z</time>
      </trkpt>
      <trkpt lat="51.982808969914913" lon="-10.149747971445322">
        <ele>50.609999999999999</ele>
        <time>2026-06-29T09:14:05Z</time>
      </trkpt>
      <trkpt lat="51.982961017638445" lon="-10.149475978687406">
        <ele>51.090000000000003</ele>
        <time>2026-06-29T09:14:06Z</time>
      </trkpt>
      <trkpt lat="51.98312102816999" lon="-10.149186970666051">
        <ele>52.049999999999997</ele>
        <time>2026-06-29T09:14:07Z</time>
      </trkpt>
      <trkpt lat="51.984589034691453" lon="-10.146581958979368">
        <ele>58.299999999999997</ele>
        <time>2026-06-29T09:14:15Z</time>
      </trkpt>
      <trkpt lat="51.985634006559849" lon="-10.144967017695308">
        <ele>62.619999999999997</ele>
        <time>2026-06-29T09:14:21Z</time>
      </trkpt>
      <trkpt lat="51.986284023150802" lon="-10.143380993977189">
        <ele>65.989999999999995</ele>
        <time>2026-06-29T09:14:27Z</time>
      </trkpt>
      <trkpt lat="51.986985001713037" lon="-10.141558013856411">
        <ele>69.829999999999998</ele>
        <time>2026-06-29T09:14:34Z</time>
      </trkpt>
      <trkpt lat="51.987681034952402" lon="-10.139927985146642">
        <ele>73.200000000000003</ele>
        <time>2026-06-29T09:14:40Z</time>
      </trkpt>
      <trkpt lat="51.988602038472891" lon="-10.138036021962762">
        <ele>78</ele>
        <time>2026-06-29T09:14:48Z</time>
      </trkpt>
      <trkpt lat="51.989278960973024" lon="-10.135979019105434">
        <ele>82.810000000000002</ele>
        <time>2026-06-29T09:14:55Z</time>
      </trkpt>
      <trkpt lat="51.989865023642778" lon="-10.134440017864108">
        <ele>86.180000000000007</ele>
        <time>2026-06-29T09:15:01Z</time>
      </trkpt>
      <trkpt lat="51.990698017179966" lon="-10.132269021123648">
        <ele>90.980000000000004</ele>
        <time>2026-06-29T09:15:10Z</time>
      </trkpt>
      <trkpt lat="51.991472002118826" lon="-10.128959007561207">
        <ele>97.709999999999994</ele>
        <time>2026-06-29T09:15:22Z</time>
      </trkpt>
      <trkpt lat="51.99221296235919" lon="-10.126855988055468">
        <ele>103</ele>
        <time>2026-06-29T09:15:30Z</time>
      </trkpt>
      <trkpt lat="51.993041010573506" lon="-10.124971987679601">
        <ele>106.36</ele>
        <time>2026-06-29T09:15:36Z</time>
      </trkpt>
      <trkpt lat="51.993302023038268" lon="-10.124504026025534">
        <ele>106.84</ele>
        <time>2026-06-29T09:15:38Z</time>
      </trkpt>
      <trkpt lat="51.993449041619897" lon="-10.124310990795493">
        <ele>107.31999999999999</ele>
        <time>2026-06-29T09:15:39Z</time>
      </trkpt>
      <trkpt lat="51.993613997474313" lon="-10.124094989150763">
        <ele>107.81</ele>
        <time>2026-06-29T09:15:40Z</time>
      </trkpt>
      <trkpt lat="51.99377803131938" lon="-10.123973032459617">
        <ele>107.81</ele>
        <time>2026-06-29T09:15:41Z</time>
      </trkpt>
      <trkpt lat="51.993965031579137" lon="-10.123833976686001">
        <ele>108.29000000000001</ele>
        <time>2026-06-29T09:15:42Z</time>
      </trkpt>
      <trkpt lat="51.994529971852899" lon="-10.123413037508726">
        <ele>110.20999999999999</ele>
        <time>2026-06-29T09:15:45Z</time>
      </trkpt>
      <trkpt lat="51.994676990434527" lon="-10.123181026428938">
        <ele>110.69</ele>
        <time>2026-06-29T09:15:46Z</time>
      </trkpt>
      <trkpt lat="51.994823003187776" lon="-10.122947003692389">
        <ele>111.17</ele>
        <time>2026-06-29T09:15:47Z</time>
      </trkpt>
      <trkpt lat="51.994972033426166" lon="-10.122708035632968">
        <ele>112.13</ele>
        <time>2026-06-29T09:15:48Z</time>
      </trkpt>
      <trkpt lat="51.995103964582086" lon="-10.122449034824967">
        <ele>113.09</ele>
        <time>2026-06-29T09:15:49Z</time>
      </trkpt>
      <trkpt lat="51.996305007487535" lon="-10.119683006778359">
        <ele>119.34</ele>
        <time>2026-06-29T09:15:59Z</time>
      </trkpt>
      <trkpt lat="51.997565981000662" lon="-10.116257993504405">
        <ele>127.98999999999999</ele>
        <time>2026-06-29T09:16:11Z</time>
      </trkpt>
      <trkpt lat="51.998324040323496" lon="-10.113414013758302">
        <ele>127.98999999999999</ele>
        <time>2026-06-29T09:16:20Z</time>
      </trkpt>
      <trkpt lat="51.998483967036009" lon="-10.112506002187729">
        <ele>127.03</ele>
        <time>2026-06-29T09:16:23Z</time>
      </trkpt>
      <trkpt lat="51.998503999784589" lon="-10.112208025529981">
        <ele>126.06999999999999</ele>
        <time>2026-06-29T09:16:24Z</time>
      </trkpt>
      <trkpt lat="51.998523026704788" lon="-10.111909965053201">
        <ele>125.59</ele>
        <time>2026-06-29T09:16:25Z</time>
      </trkpt>
      <trkpt lat="51.998520009219646" lon="-10.110957026481628">
        <ele>124.63</ele>
        <time>2026-06-29T09:16:28Z</time>
      </trkpt>
      <trkpt lat="51.998548004776239" lon="-10.110630970448256">
        <ele>124.15000000000001</ele>
        <time>2026-06-29T09:16:29Z</time>
      </trkpt>
      <trkpt lat="51.998620005324483" lon="-10.110327964648604">
        <ele>123.67</ele>
        <time>2026-06-29T09:16:30Z</time>
      </trkpt>
      <trkpt lat="51.998697035014629" lon="-10.110012972727418">
        <ele>123.19</ele>
        <time>2026-06-29T09:16:31Z</time>
      </trkpt>
      <trkpt lat="51.998773980885744" lon="-10.109696974977851">
        <ele>123.19</ele>
        <time>2026-06-29T09:16:32Z</time>
      </trkpt>
      <trkpt lat="51.998990988358855" lon="-10.108760967850685">
        <ele>121.73999999999999</ele>
        <time>2026-06-29T09:16:35Z</time>
      </trkpt>
      <trkpt lat="51.999031975865364" lon="-10.108436001464725">
        <ele>121.26000000000001</ele>
        <time>2026-06-29T09:16:36Z</time>
      </trkpt>
      <trkpt lat="51.999174971133471" lon="-10.107464035972953">
        <ele>119.81999999999999</ele>
        <time>2026-06-29T09:16:39Z</time>
      </trkpt>
      <trkpt lat="51.999459033831954" lon="-10.105451960116625">
        <ele>117.42</ele>
        <time>2026-06-29T09:16:46Z</time>
      </trkpt>
      <trkpt lat="51.999444030225277" lon="-10.105187008157372">
        <ele>116.94</ele>
        <time>2026-06-29T09:16:47Z</time>
      </trkpt>
      <trkpt lat="51.999423997476697" lon="-10.104907974600792">
        <ele>116.45999999999999</ele>
        <time>2026-06-29T09:16:48Z</time>
      </trkpt>
      <trkpt lat="51.999373035505414" lon="-10.104631036520004">
        <ele>116.45999999999999</ele>
        <time>2026-06-29T09:16:49Z</time>
      </trkpt>
      <trkpt lat="51.999072963371873" lon="-10.102851977571845">
        <ele>115.01000000000001</ele>
        <time>2026-06-29T09:16:55Z</time>
      </trkpt>
      <trkpt lat="51.999071035534143" lon="-10.102551989257336">
        <ele>115.5</ele>
        <time>2026-06-29T09:16:56Z</time>
      </trkpt>
      <trkpt lat="51.999090984463692" lon="-10.102248983457685">
        <ele>115.5</ele>
        <time>2026-06-29T09:16:57Z</time>
      </trkpt>
      <trkpt lat="51.999235991388559" lon="-10.101009970530868">
        <ele>115.01000000000001</ele>
        <time>2026-06-29T09:17:01Z</time>
      </trkpt>
      <trkpt lat="51.999235991388559" lon="-10.100689027458429">
        <ele>115.01000000000001</ele>
        <time>2026-06-29T09:17:02Z</time>
      </trkpt>
      <trkpt lat="51.999235991388559" lon="-10.099786967039108">
        <ele>114.53</ele>
        <time>2026-06-29T09:17:05Z</time>
      </trkpt>
      <trkpt lat="51.999264992773533" lon="-10.099517991766334">
        <ele>114.53</ele>
        <time>2026-06-29T09:17:06Z</time>
      </trkpt>
      <trkpt lat="51.999330036342144" lon="-10.099283969029784">
        <ele>114.05</ele>
        <time>2026-06-29T09:17:07Z</time>
      </trkpt>
      <trkpt lat="51.999421985819936" lon="-10.099070984870195">
        <ele>113.56999999999999</ele>
        <time>2026-06-29T09:17:08Z</time>
      </trkpt>
      <trkpt lat="51.999554000794888" lon="-10.098899994045496">
        <ele>113.56999999999999</ele>
        <time>2026-06-29T09:17:09Z</time>
      </trkpt>
      <trkpt lat="51.999694984406233" lon="-10.098727997392416">
        <ele>113.09</ele>
        <time>2026-06-29T09:17:10Z</time>
      </trkpt>
      <trkpt lat="51.999842002987862" lon="-10.098557006567717">
        <ele>112.61</ele>
        <time>2026-06-29T09:17:11Z</time>
      </trkpt>
      <trkpt lat="52.001761039718986" lon="-10.096777025610209">
        <ele>113.09</ele>
        <time>2026-06-29T09:17:22Z</time>
      </trkpt>
      <trkpt lat="52.002527983859181" lon="-10.096345022320747">
        <ele>112.61</ele>
        <time>2026-06-29T09:17:26Z</time>
      </trkpt>
      <trkpt lat="52.00271800160408" lon="-10.096333036199212">
        <ele>112.61</ele>
        <time>2026-06-29T09:17:27Z</time>
      </trkpt>
      <trkpt lat="52.00290902517736" lon="-10.096320966258645">
        <ele>112.61</ele>
        <time>2026-06-29T09:17:28Z</time>
      </trkpt>
      <trkpt lat="52.004605019465089" lon="-10.095976972952485">
        <ele>109.73</ele>
        <time>2026-06-29T09:17:37Z</time>
      </trkpt>
      <trkpt lat="52.005526022985578" lon="-10.095528038218617">
        <ele>107.31999999999999</ele>
        <time>2026-06-29T09:17:43Z</time>
      </trkpt>
      <trkpt lat="52.005673041567206" lon="-10.09544899687171">
        <ele>106.84</ele>
        <time>2026-06-29T09:17:44Z</time>
      </trkpt>
      <trkpt lat="52.005825005471706" lon="-10.095456037670374">
        <ele>106.36</ele>
        <time>2026-06-29T09:17:45Z</time>
      </trkpt>
      <trkpt lat="52.007218999788165" lon="-10.095869014039636">
        <ele>103</ele>
        <time>2026-06-29T09:17:53Z</time>
      </trkpt>
      <trkpt lat="52.007387978956103" lon="-10.095978984609246">
        <ele>102.52</ele>
        <time>2026-06-29T09:17:54Z</time>
      </trkpt>
      <trkpt lat="52.007556958124042" lon="-10.096112005412579">
        <ele>102.04000000000001</ele>
        <time>2026-06-29T09:17:55Z</time>
      </trkpt>
      <trkpt lat="52.007709005847573" lon="-10.096272015944123">
        <ele>101.56</ele>
        <time>2026-06-29T09:17:56Z</time>
      </trkpt>
      <trkpt lat="52.007854012772441" lon="-10.096424985677004">
        <ele>101.08</ele>
        <time>2026-06-29T09:17:57Z</time>
      </trkpt>
      <trkpt lat="52.008132040500641" lon="-10.096718017011881">
        <ele>99.150000000000006</ele>
        <time>2026-06-29T09:17:59Z</time>
      </trkpt>
      <trkpt lat="52.00826003216207" lon="-10.096853971481323">
        <ele>98.189999999999998</ele>
        <time>2026-06-29T09:18:00Z</time>
      </trkpt>
      <trkpt lat="52.008545016869903" lon="-10.096981963142753">
        <ele>96.75</ele>
        <time>2026-06-29T09:18:02Z</time>
      </trkpt>
      <trkpt lat="52.008709972724319" lon="-10.097020016983151">
        <ele>96.269999999999996</ele>
        <time>2026-06-29T09:18:03Z</time>
      </trkpt>
      <trkpt lat="52.008886998519301" lon="-10.097033008933067">
        <ele>95.310000000000002</ele>
        <time>2026-06-29T09:18:04Z</time>
      </trkpt>
      <trkpt lat="52.009586971253157" lon="-10.097096962854266">
        <ele>94.349999999999994</ele>
        <time>2026-06-29T09:18:08Z</time>
      </trkpt>
      <trkpt lat="52.009754022583365" lon="-10.097194025292993">
        <ele>94.349999999999994</ele>
        <time>2026-06-29T09:18:09Z</time>
      </trkpt>
      <trkpt lat="52.011232003569603" lon="-10.098034981638193">
        <ele>92.420000000000002</ele>
        <time>2026-06-29T09:18:18Z</time>
      </trkpt>
      <trkpt lat="52.012287033721805" lon="-10.098344022408128">
        <ele>90.980000000000004</ele>
        <time>2026-06-29T09:18:25Z</time>
      </trkpt>
      <trkpt lat="52.012415025383234" lon="-10.09843597188592">
        <ele>90.980000000000004</ele>
        <time>2026-06-29T09:18:26Z</time>
      </trkpt>
      <trkpt lat="52.012527007609606" lon="-10.09856496937573">
        <ele>90.5</ele>
        <time>2026-06-29T09:18:27Z</time>
      </trkpt>
      <trkpt lat="52.012641001492739" lon="-10.098696984350681">
        <ele>90.5</ele>
        <time>2026-06-29T09:18:28Z</time>
      </trkpt>
      <trkpt lat="52.012753989547491" lon="-10.098841991275549">
        <ele>90.5</ele>
        <time>2026-06-29T09:18:29Z</time>
      </trkpt>
      <trkpt lat="52.013131007552147" lon="-10.099278017878532">
        <ele>90.019999999999996</ele>
        <time>2026-06-29T09:18:32Z</time>
      </trkpt>
      <trkpt lat="52.01326897367835" lon="-10.099378013983369">
        <ele>89.540000000000006</ele>
        <time>2026-06-29T09:18:33Z</time>
      </trkpt>
      <trkpt lat="52.013415992259979" lon="-10.099399974569678">
        <ele>89.060000000000002</ele>
        <time>2026-06-29T09:18:34Z</time>
      </trkpt>
      <trkpt lat="52.013563010841608" lon="-10.099367033690214">
        <ele>89.060000000000002</ele>
        <time>2026-06-29T09:18:35Z</time>
      </trkpt>
      <trkpt lat="52.013720003888011" lon="-10.099331997334957">
        <ele>89.060000000000002</ele>
        <time>2026-06-29T09:18:36Z</time>
      </trkpt>
      <trkpt lat="52.013854030519724" lon="-10.099183972924948">
        <ele>88.579999999999998</ele>
        <time>2026-06-29T09:18:37Z</time>
      </trkpt>
      <trkpt lat="52.013991996645927" lon="-10.099017005413771">
        <ele>88.579999999999998</ele>
        <time>2026-06-29T09:18:38Z</time>
      </trkpt>
      <trkpt lat="52.014139015227556" lon="-10.098840985447168">
        <ele>88.099999999999994</ele>
        <time>2026-06-29T09:18:39Z</time>
      </trkpt>
      <trkpt lat="52.015741970390081" lon="-10.096733020618558">
        <ele>84.730000000000004</ele>
        <time>2026-06-29T09:18:49Z</time>
      </trkpt>
      <trkpt lat="52.017196984961629" lon="-10.095443967729807">
        <ele>79.930000000000007</ele>
        <time>2026-06-29T09:18:57Z</time>
      </trkpt>
      <trkpt lat="52.018958022817969" lon="-10.094462027773261">
        <ele>80.409999999999997</ele>
        <time>2026-06-29T09:19:06Z</time>
      </trkpt>
      <trkpt lat="52.019700994715095" lon="-10.093884011730552">
        <ele>79.450000000000003</ele>
        <time>2026-06-29T09:19:10Z</time>
      </trkpt>
      <trkpt lat="52.019891012459993" lon="-10.093785021454096">
        <ele>79.450000000000003</ele>
        <time>2026-06-29T09:19:11Z</time>
      </trkpt>
      <trkpt lat="52.021313002333045" lon="-10.093284035101533">
        <ele>79.930000000000007</ele>
        <time>2026-06-29T09:19:19Z</time>
      </trkpt>
      <trkpt lat="52.023309990763664" lon="-10.092910034582019">
        <ele>82.810000000000002</ele>
        <time>2026-06-29T09:19:29Z</time>
      </trkpt>
      <trkpt lat="52.025428013876081" lon="-10.092346016317606">
        <ele>80.890000000000001</ele>
        <time>2026-06-29T09:19:40Z</time>
      </trkpt>
      <trkpt lat="52.027029963210225" lon="-10.091038020327687">
        <ele>75.120000000000005</ele>
        <time>2026-06-29T09:19:49Z</time>
      </trkpt>
      <trkpt lat="52.028502998873591" lon="-10.090207038447261">
        <ele>68.870000000000005</ele>
        <time>2026-06-29T09:19:57Z</time>
      </trkpt>
      <trkpt lat="52.029641009867191" lon="-10.089848041534424">
        <ele>65.030000000000001</ele>
        <time>2026-06-29T09:20:03Z</time>
      </trkpt>
      <trkpt lat="52.029803032055497" lon="-10.089708985760808">
        <ele>65.030000000000001</ele>
        <time>2026-06-29T09:20:04Z</time>
      </trkpt>
      <trkpt lat="52.029980979859829" lon="-10.089545035734773">
        <ele>65.030000000000001</ele>
        <time>2026-06-29T09:20:05Z</time>
      </trkpt>
      <trkpt lat="52.030152976512909" lon="-10.089344959706068">
        <ele>65.510000000000005</ele>
        <time>2026-06-29T09:20:06Z</time>
      </trkpt>
      <trkpt lat="52.030299995094538" lon="-10.089099034667015">
        <ele>65.510000000000005</ele>
        <time>2026-06-29T09:20:07Z</time>
      </trkpt>
      <trkpt lat="52.030438967049122" lon="-10.088835004717112">
        <ele>65.510000000000005</ele>
        <time>2026-06-29T09:20:08Z</time>
      </trkpt>
      <trkpt lat="52.030578022822738" lon="-10.088569968938828">
        <ele>65.989999999999995</ele>
        <time>2026-06-29T09:20:09Z</time>
      </trkpt>
      <trkpt lat="52.030699979513884" lon="-10.08829697035253">
        <ele>66.469999999999999</ele>
        <time>2026-06-29T09:20:10Z</time>
      </trkpt>
      <trkpt lat="52.032071007415652" lon="-10.08487799204886">
        <ele>72.239999999999995</ele>
        <time>2026-06-29T09:20:23Z</time>
      </trkpt>
      <trkpt lat="52.032680036500096" lon="-10.082590989768505">
        <ele>73.200000000000003</ele>
        <time>2026-06-29T09:20:31Z</time>
      </trkpt>
      <trkpt lat="52.032859995961189" lon="-10.079805012792349">
        <ele>75.120000000000005</ele>
        <time>2026-06-29T09:20:39Z</time>
      </trkpt>
      <trkpt lat="52.03288396820426" lon="-10.077413991093636">
        <ele>75.599999999999994</ele>
        <time>2026-06-29T09:20:47Z</time>
      </trkpt>
      <trkpt lat="52.032718006521463" lon="-10.074978964403272">
        <ele>75.599999999999994</ele>
        <time>2026-06-29T09:20:56Z</time>
      </trkpt>
      <trkpt lat="52.032605018466711" lon="-10.074493987485766">
        <ele>75.120000000000005</ele>
        <time>2026-06-29T09:20:58Z</time>
      </trkpt>
      <trkpt lat="52.032385999336839" lon="-10.073498971760273">
        <ele>74.159999999999997</ele>
        <time>2026-06-29T09:21:02Z</time>
      </trkpt>
      <trkpt lat="52.032377030700445" lon="-10.073261009529233">
        <ele>73.200000000000003</ele>
        <time>2026-06-29T09:21:03Z</time>
      </trkpt>
      <trkpt lat="52.0323689840734" lon="-10.073025980964303">
        <ele>71.760000000000005</ele>
        <time>2026-06-29T09:21:04Z</time>
      </trkpt>
      <trkpt lat="52.032334031537175" lon="-10.072263982146978">
        <ele>68.390000000000001</ele>
        <time>2026-06-29T09:21:07Z</time>
      </trkpt>
      <trkpt lat="52.03230201266706" lon="-10.071995006874204">
        <ele>67.430000000000007</ele>
        <time>2026-06-29T09:21:08Z</time>
      </trkpt>
      <trkpt lat="52.032208973541856" lon="-10.071742963045835">
        <ele>66.469999999999999</ele>
        <time>2026-06-29T09:21:09Z</time>
      </trkpt>
      <trkpt lat="52.032123981043696" lon="-10.071509024128318">
        <ele>65.510000000000005</ele>
        <time>2026-06-29T09:21:10Z</time>
      </trkpt>
      <trkpt lat="52.032033037394285" lon="-10.071281958371401">
        <ele>64.549999999999997</ele>
        <time>2026-06-29T09:21:11Z</time>
      </trkpt>
      <trkpt lat="52.031932035461068" lon="-10.071065034717321">
        <ele>63.579999999999998</ele>
        <time>2026-06-29T09:21:12Z</time>
      </trkpt>
      <trkpt lat="52.03144496306777" lon="-10.069926017895341">
        <ele>59.740000000000002</ele>
        <time>2026-06-29T09:21:18Z</time>
      </trkpt>
      <trkpt lat="52.031387966126204" lon="-10.069749997928739">
        <ele>58.780000000000001</ele>
        <time>2026-06-29T09:21:19Z</time>
      </trkpt>
      <trkpt lat="52.031338009983301" lon="-10.069576995447278">
        <ele>58.780000000000001</ele>
        <time>2026-06-29T09:21:20Z</time>
      </trkpt>
      <trkpt lat="52.031330969184637" lon="-10.069393012672663">
        <ele>58.299999999999997</ele>
        <time>2026-06-29T09:21:21Z</time>
      </trkpt>
      <trkpt lat="52.031325018033385" lon="-10.069213975220919">
        <ele>58.299999999999997</ele>
        <time>2026-06-29T09:21:22Z</time>
      </trkpt>
      <trkpt lat="52.031318983063102" lon="-10.069040972739458">
        <ele>57.82</ele>
        <time>2026-06-29T09:21:23Z</time>
      </trkpt>
      <trkpt lat="52.031317977234721" lon="-10.068898983299732">
        <ele>57.340000000000003</ele>
        <time>2026-06-29T09:21:24Z</time>
      </trkpt>
      <trkpt lat="52.031329963356256" lon="-10.068771997466683">
        <ele>57.340000000000003</ele>
        <time>2026-06-29T09:21:25Z</time>
      </trkpt>
      <trkpt lat="52.031354019418359" lon="-10.068672001361847">
        <ele>57.340000000000003</ele>
        <time>2026-06-29T09:21:26Z</time>
      </trkpt>
      <trkpt lat="52.031401041895151" lon="-10.068562030792236">
        <ele>57.82</ele>
        <time>2026-06-29T09:21:27Z</time>
      </trkpt>
      <trkpt lat="52.031482011079788" lon="-10.068514002487063">
        <ele>57.82</ele>
        <time>2026-06-29T09:21:28Z</time>
      </trkpt>
      <trkpt lat="52.031615031883121" lon="-10.068433033302426">
        <ele>57.82</ele>
        <time>2026-06-29T09:21:29Z</time>
      </trkpt>
      <trkpt lat="52.031694995239377" lon="-10.068473014980555">
        <ele>57.82</ele>
        <time>2026-06-29T09:21:30Z</time>
      </trkpt>
      <trkpt lat="52.031817035749555" lon="-10.068552978336811">
        <ele>57.82</ele>
        <time>2026-06-29T09:21:31Z</time>
      </trkpt>
      <trkpt lat="52.031942009925842" lon="-10.068648029118776">
        <ele>58.299999999999997</ele>
        <time>2026-06-29T09:21:32Z</time>
      </trkpt>
      <trkpt lat="52.032070001587272" lon="-10.068746013566852">
        <ele>59.259999999999998</ele>
        <time>2026-06-29T09:21:33Z</time>
      </trkpt>
      <trkpt lat="52.032192964106798" lon="-10.068838968873024">
        <ele>59.740000000000002</ele>
        <time>2026-06-29T09:21:34Z</time>
      </trkpt>
      <trkpt lat="52.032296983525157" lon="-10.068903006613255">
        <ele>60.219999999999999</ele>
        <time>2026-06-29T09:21:35Z</time>
      </trkpt>
      <trkpt lat="52.032422963529825" lon="-10.068886997178197">
        <ele>60.700000000000003</ele>
        <time>2026-06-29T09:21:36Z</time>
      </trkpt>
      <trkpt lat="52.032548021525145" lon="-10.068869981914759">
        <ele>61.18</ele>
        <time>2026-06-29T09:21:37Z</time>
      </trkpt>
      <trkpt lat="52.0326660387218" lon="-10.068798987194896">
        <ele>61.659999999999997</ele>
        <time>2026-06-29T09:21:38Z</time>
      </trkpt>
      <trkpt lat="52.032772991806269" lon="-10.068692034110427">
        <ele>61.659999999999997</ele>
        <time>2026-06-29T09:21:39Z</time>
      </trkpt>
      <trkpt lat="52.032874999567866" lon="-10.068546021357179">
        <ele>62.140000000000001</ele>
        <time>2026-06-29T09:21:40Z</time>
      </trkpt>
      <trkpt lat="52.032993016764522" lon="-10.068358015269041">
        <ele>62.140000000000001</ele>
        <time>2026-06-29T09:21:41Z</time>
      </trkpt>
      <trkpt lat="52.03309996984899" lon="-10.068106977269053">
        <ele>62.619999999999997</ele>
        <time>2026-06-29T09:21:42Z</time>
      </trkpt>
      <trkpt lat="52.033759038895369" lon="-10.066518019884825">
        <ele>65.510000000000005</ele>
        <time>2026-06-29T09:21:47Z</time>
      </trkpt>
      <trkpt lat="52.034728992730379" lon="-10.064005963504314">
        <ele>68.390000000000001</ele>
        <time>2026-06-29T09:21:56Z</time>
      </trkpt>
      <trkpt lat="52.036165986210108" lon="-10.060523031279445">
        <ele>66.469999999999999</ele>
        <time>2026-06-29T09:22:09Z</time>
      </trkpt>
      <trkpt lat="52.037144992500544" lon="-10.05784803070128">
        <ele>65.510000000000005</ele>
        <time>2026-06-29T09:22:19Z</time>
      </trkpt>
      <trkpt lat="52.03795300796628" lon="-10.05563898012042">
        <ele>63.100000000000001</ele>
        <time>2026-06-29T09:22:27Z</time>
      </trkpt>
      <trkpt lat="52.038030037656426" lon="-10.055339997634292">
        <ele>63.100000000000001</ele>
        <time>2026-06-29T09:22:28Z</time>
      </trkpt>
      <trkpt lat="52.038100026547909" lon="-10.055016959086061">
        <ele>63.100000000000001</ele>
        <time>2026-06-29T09:22:29Z</time>
      </trkpt>
      <trkpt lat="52.038130033761263" lon="-10.054668020457029">
        <ele>63.579999999999998</ele>
        <time>2026-06-29T09:22:30Z</time>
      </trkpt>
      <trkpt lat="52.038160962983966" lon="-10.054311035200953">
        <ele>63.579999999999998</ele>
        <time>2026-06-29T09:22:31Z</time>
      </trkpt>
      <trkpt lat="52.038195999339223" lon="-10.053621958941221">
        <ele>64.549999999999997</ele>
        <time>2026-06-29T09:22:33Z</time>
      </trkpt>
      <trkpt lat="52.038184013217688" lon="-10.053287018090487">
        <ele>65.030000000000001</ele>
        <time>2026-06-29T09:22:34Z</time>
      </trkpt>
      <trkpt lat="52.038161968812346" lon="-10.052672037854791">
        <ele>65.989999999999995</ele>
        <time>2026-06-29T09:22:36Z</time>
      </trkpt>
      <trkpt lat="52.038153000175953" lon="-10.05241496488452">
        <ele>65.989999999999995</ele>
        <time>2026-06-29T09:22:37Z</time>
      </trkpt>
      <trkpt lat="52.038099020719528" lon="-10.051739970222116">
        <ele>65.989999999999995</ele>
        <time>2026-06-29T09:22:40Z</time>
      </trkpt>
      <trkpt lat="52.038065996021032" lon="-10.051507037132978">
        <ele>66.469999999999999</ele>
        <time>2026-06-29T09:22:41Z</time>
      </trkpt>
      <trkpt lat="52.038030959665775" lon="-10.051266979426146">
        <ele>66.469999999999999</ele>
        <time>2026-06-29T09:22:42Z</time>
      </trkpt>
      <trkpt lat="52.037546988576651" lon="-10.049095982685685">
        <ele>71.760000000000005</ele>
        <time>2026-06-29T09:22:52Z</time>
      </trkpt>
      <trkpt lat="52.0369210280478" lon="-10.047178035601974">
        <ele>77.040000000000006</ele>
        <time>2026-06-29T09:23:02Z</time>
      </trkpt>
      <trkpt lat="52.036747019737959" lon="-10.046691969037056">
        <ele>76.560000000000002</ele>
        <time>2026-06-29T09:23:05Z</time>
      </trkpt>
      <trkpt lat="52.036302024498582" lon="-10.045627970248461">
        <ele>78.969999999999999</ele>
        <time>2026-06-29T09:23:12Z</time>
      </trkpt>
      <trkpt lat="52.036264976486564" lon="-10.0454739946872">
        <ele>78.969999999999999</ele>
        <time>2026-06-29T09:23:13Z</time>
      </trkpt>
      <trkpt lat="52.03614997677505" lon="-10.044993041083217">
        <ele>78</ele>
        <time>2026-06-29T09:23:16Z</time>
      </trkpt>
      <trkpt lat="52.035575984045863" lon="-10.043790992349386">
        <ele>78</ele>
        <time>2026-06-29T09:23:25Z</time>
      </trkpt>
      <trkpt lat="52.035520998761058" lon="-10.043693007901311">
        <ele>78</ele>
        <time>2026-06-29T09:23:26Z</time>
      </trkpt>
      <trkpt lat="52.035520998761058" lon="-10.043553030118346">
        <ele>78.480000000000004</ele>
        <time>2026-06-29T09:23:27Z</time>
      </trkpt>
      <trkpt lat="52.035520998761058" lon="-10.043396959081292">
        <ele>78</ele>
        <time>2026-06-29T09:23:28Z</time>
      </trkpt>
      <trkpt lat="52.035520998761058" lon="-10.043225968256593">
        <ele>78</ele>
        <time>2026-06-29T09:23:29Z</time>
      </trkpt>
      <trkpt lat="52.035520998761058" lon="-10.043040979653597">
        <ele>78</ele>
        <time>2026-06-29T09:23:30Z</time>
      </trkpt>
      <trkpt lat="52.035520998761058" lon="-10.042846016585827">
        <ele>78</ele>
        <time>2026-06-29T09:23:31Z</time>
      </trkpt>
      <trkpt lat="52.035505995154381" lon="-10.042645018547773">
        <ele>78</ele>
        <time>2026-06-29T09:23:32Z</time>
      </trkpt>
      <trkpt lat="52.035480011254549" lon="-10.042448965832591">
        <ele>78</ele>
        <time>2026-06-29T09:23:33Z</time>
      </trkpt>
      <trkpt lat="52.035328969359398" lon="-10.04134900867939">
        <ele>78.480000000000004</ele>
        <time>2026-06-29T09:23:39Z</time>
      </trkpt>
      <trkpt lat="52.035306002944708" lon="-10.041182041168213">
        <ele>78</ele>
        <time>2026-06-29T09:23:40Z</time>
      </trkpt>
      <trkpt lat="52.035327041521668" lon="-10.041013984009624">
        <ele>78</ele>
        <time>2026-06-29T09:23:41Z</time>
      </trkpt>
      <trkpt lat="52.035488979890943" lon="-10.039686961099505">
        <ele>76.560000000000002</ele>
        <time>2026-06-29T09:23:46Z</time>
      </trkpt>
      <trkpt lat="52.035721996799111" lon="-10.037136012688279">
        <ele>74.640000000000001</ele>
        <time>2026-06-29T09:23:54Z</time>
      </trkpt>
      <trkpt lat="52.035819981247187" lon="-10.03492696210742">
        <ele>74.640000000000001</ele>
        <time>2026-06-29T09:24:03Z</time>
      </trkpt>
      <trkpt lat="52.035852000117302" lon="-10.032717995345592">
        <ele>75.120000000000005</ele>
        <time>2026-06-29T09:24:12Z</time>
      </trkpt>
      <trkpt lat="52.035861974582076" lon="-10.032021040096879">
        <ele>75.120000000000005</ele>
        <time>2026-06-29T09:24:14Z</time>
      </trkpt>
      <trkpt lat="52.035985020920634" lon="-10.029930006712675">
        <ele>73.200000000000003</ele>
        <time>2026-06-29T09:24:20Z</time>
      </trkpt>
      <trkpt lat="52.036166992038488" lon="-10.028437022119761">
        <ele>72.719999999999999</ele>
        <time>2026-06-29T09:24:25Z</time>
      </trkpt>
      <trkpt lat="52.036248967051506" lon="-10.028141979128122">
        <ele>72.719999999999999</ele>
        <time>2026-06-29T09:24:26Z</time>
      </trkpt>
      <trkpt lat="52.036851961165667" lon="-10.025613997131586">
        <ele>71.269999999999996</ele>
        <time>2026-06-29T09:24:34Z</time>
      </trkpt>
      <trkpt lat="52.036876017227769" lon="-10.024643959477544">
        <ele>71.269999999999996</ele>
        <time>2026-06-29T09:24:37Z</time>
      </trkpt>
      <trkpt lat="52.036841986700892" lon="-10.024329973384738">
        <ele>70.790000000000006</ele>
        <time>2026-06-29T09:24:38Z</time>
      </trkpt>
      <trkpt lat="52.036797981709242" lon="-10.024014981463552">
        <ele>70.790000000000006</ele>
        <time>2026-06-29T09:24:39Z</time>
      </trkpt>
      <trkpt lat="52.036742996424437" lon="-10.023723039776087">
        <ele>70.310000000000002</ele>
        <time>2026-06-29T09:24:40Z</time>
      </trkpt>
      <trkpt lat="52.0366430003196" lon="-10.023466972634196">
        <ele>70.310000000000002</ele>
        <time>2026-06-29T09:24:41Z</time>
      </trkpt>
      <trkpt lat="52.036532023921609" lon="-10.023208977654576">
        <ele>70.310000000000002</ele>
        <time>2026-06-29T09:24:42Z</time>
      </trkpt>
      <trkpt lat="52.036399003118277" lon="-10.022949976846576">
        <ele>70.310000000000002</ele>
        <time>2026-06-29T09:24:43Z</time>
      </trkpt>
      <trkpt lat="52.036259025335312" lon="-10.022677984088659">
        <ele>70.790000000000006</ele>
        <time>2026-06-29T09:24:44Z</time>
      </trkpt>
      <trkpt lat="52.035615965723991" lon="-10.021434025838971">
        <ele>75.599999999999994</ele>
        <time>2026-06-29T09:24:49Z</time>
      </trkpt>
      <trkpt lat="52.0355240162462" lon="-10.021192962303758">
        <ele>76.560000000000002</ele>
        <time>2026-06-29T09:24:50Z</time>
      </trkpt>
      <trkpt lat="52.035470958799124" lon="-10.020933961495757">
        <ele>78</ele>
        <time>2026-06-29T09:24:51Z</time>
      </trkpt>
      <trkpt lat="52.035413039848208" lon="-10.020646965131164">
        <ele>79.450000000000003</ele>
        <time>2026-06-29T09:24:52Z</time>
      </trkpt>
      <trkpt lat="52.035386972129345" lon="-10.020398022606969">
        <ele>80.409999999999997</ele>
        <time>2026-06-29T09:24:53Z</time>
      </trkpt>
      <trkpt lat="52.035356964915991" lon="-10.020116977393627">
        <ele>81.370000000000005</ele>
        <time>2026-06-29T09:24:54Z</time>
      </trkpt>
      <trkpt lat="52.035327041521668" lon="-10.019834004342556">
        <ele>82.329999999999998</ele>
        <time>2026-06-29T09:24:55Z</time>
      </trkpt>
      <trkpt lat="52.035297034308314" lon="-10.019552959129214">
        <ele>82.810000000000002</ele>
        <time>2026-06-29T09:24:56Z</time>
      </trkpt>
      <trkpt lat="52.035169964656234" lon="-10.018739998340607">
        <ele>86.180000000000007</ele>
        <time>2026-06-29T09:24:59Z</time>
      </trkpt>
      <trkpt lat="52.035110034048557" lon="-10.018484015017748">
        <ele>86.659999999999997</ele>
        <time>2026-06-29T09:25:00Z</time>
      </trkpt>
      <trkpt lat="52.034496981650591" lon="-10.015977993607521">
        <ele>91.939999999999998</ele>
        <time>2026-06-29T09:25:09Z</time>
      </trkpt>
      <trkpt lat="52.033760966733098" lon="-10.012729000300169">
        <ele>99.150000000000006</ele>
        <time>2026-06-29T09:25:20Z</time>
      </trkpt>
      <trkpt lat="52.033760966733098" lon="-10.012467987835407">
        <ele>99.150000000000006</ele>
        <time>2026-06-29T09:25:21Z</time>
      </trkpt>
      <trkpt lat="52.033760966733098" lon="-10.012180991470814">
        <ele>99.629999999999995</ele>
        <time>2026-06-29T09:25:22Z</time>
      </trkpt>
      <trkpt lat="52.033788040280342" lon="-10.011888965964317">
        <ele>100.11</ele>
        <time>2026-06-29T09:25:23Z</time>
      </trkpt>
      <trkpt lat="52.033843025565147" lon="-10.011614039540291">
        <ele>100.59999999999999</ele>
        <time>2026-06-29T09:25:24Z</time>
      </trkpt>
      <trkpt lat="52.033898010849953" lon="-10.011338023468852">
        <ele>100.59999999999999</ele>
        <time>2026-06-29T09:25:25Z</time>
      </trkpt>
      <trkpt lat="52.033972023054957" lon="-10.011067036539316">
        <ele>100.59999999999999</ele>
        <time>2026-06-29T09:25:26Z</time>
      </trkpt>
      <trkpt lat="52.03488003462553" lon="-10.008976003155112">
        <ele>102.04000000000001</ele>
        <time>2026-06-29T09:25:34Z</time>
      </trkpt>
      <trkpt lat="52.036187024787068" lon="-10.006075026467443">
        <ele>108.29000000000001</ele>
        <time>2026-06-29T09:25:45Z</time>
      </trkpt>
      <trkpt lat="52.036327002570033" lon="-10.005475971847773">
        <ele>108.77</ele>
        <time>2026-06-29T09:25:47Z</time>
      </trkpt>
      <trkpt lat="52.036425992846489" lon="-10.004865014925599">
        <ele>109.25</ele>
        <time>2026-06-29T09:25:49Z</time>
      </trkpt>
      <trkpt lat="52.036659009754658" lon="-10.002570971846581">
        <ele>108.77</ele>
        <time>2026-06-29T09:25:57Z</time>
      </trkpt>
      <trkpt lat="52.036851039156318" lon="-9.999922960996628">
        <ele>105.40000000000001</ele>
        <time>2026-06-29T09:26:06Z</time>
      </trkpt>
      <trkpt lat="52.03666496090591" lon="-9.997922033071518">
        <ele>105.40000000000001</ele>
        <time>2026-06-29T09:26:13Z</time>
      </trkpt>
      <trkpt lat="52.036122987046838" lon="-9.995746007189155">
        <ele>108.77</ele>
        <time>2026-06-29T09:26:21Z</time>
      </trkpt>
      <trkpt lat="52.035625018179417" lon="-9.994048001244664">
        <ele>104.44</ele>
        <time>2026-06-29T09:26:28Z</time>
      </trkpt>
      <trkpt lat="52.035572966560721" lon="-9.993812972679734">
        <ele>103.48</ele>
        <time>2026-06-29T09:26:29Z</time>
      </trkpt>
      <trkpt lat="52.035510018467903" lon="-9.993622032925487">
        <ele>102.04000000000001</ele>
        <time>2026-06-29T09:26:30Z</time>
      </trkpt>
      <trkpt lat="52.035411028191447" lon="-9.9934590049088">
        <ele>101.56</ele>
        <time>2026-06-29T09:26:31Z</time>
      </trkpt>
      <trkpt lat="52.035304997116327" lon="-9.993284996598959">
        <ele>100.59999999999999</ele>
        <time>2026-06-29T09:26:32Z</time>
      </trkpt>
      <trkpt lat="52.035191003233194" lon="-9.993105037137866">
        <ele>99.629999999999995</ele>
        <time>2026-06-29T09:26:33Z</time>
      </trkpt>
      <trkpt lat="52.035068040713668" lon="-9.992920970544219">
        <ele>98.670000000000002</ele>
        <time>2026-06-29T09:26:34Z</time>
      </trkpt>
      <trkpt lat="52.034940971061587" lon="-9.992731036618352">
        <ele>98.189999999999998</ele>
        <time>2026-06-29T09:26:35Z</time>
      </trkpt>
      <trkpt lat="52.034019967541099" lon="-9.990931022912264">
        <ele>92.900000000000006</ele>
        <time>2026-06-29T09:26:44Z</time>
      </trkpt>
      <trkpt lat="52.033944027498364" lon="-9.990700017660856">
        <ele>92.420000000000002</ele>
        <time>2026-06-29T09:26:45Z</time>
      </trkpt>
      <trkpt lat="52.033399036154151" lon="-9.98873102478683">
        <ele>88.099999999999994</ele>
        <time>2026-06-29T09:26:53Z</time>
      </trkpt>
      <trkpt lat="52.03305697068572" lon="-9.987135026603937">
        <ele>86.659999999999997</ele>
        <time>2026-06-29T09:26:59Z</time>
      </trkpt>
      <trkpt lat="52.033008020371199" lon="-9.986876025795937">
        <ele>86.659999999999997</ele>
        <time>2026-06-29T09:27:00Z</time>
      </trkpt>
      <trkpt lat="52.03299100510776" lon="-9.986610990017653">
        <ele>86.659999999999997</ele>
        <time>2026-06-29T09:27:01Z</time>
      </trkpt>
      <trkpt lat="52.032779026776552" lon="-9.982835026457906">
        <ele>83.769999999999996</ele>
        <time>2026-06-29T09:27:15Z</time>
      </trkpt>
      <trkpt lat="52.032791012898088" lon="-9.9799860175699">
        <ele>78.480000000000004</ele>
        <time>2026-06-29T09:27:25Z</time>
      </trkpt>
      <trkpt lat="52.032901989296079" lon="-9.976855963468552">
        <ele>71.760000000000005</ele>
        <time>2026-06-29T09:27:36Z</time>
      </trkpt>
      <trkpt lat="52.03294700011611" lon="-9.97637702152133">
        <ele>69.829999999999998</ele>
        <time>2026-06-29T09:27:38Z</time>
      </trkpt>
      <trkpt lat="52.032983964309096" lon="-9.976167976856232">
        <ele>68.870000000000005</ele>
        <time>2026-06-29T09:27:39Z</time>
      </trkpt>
      <trkpt lat="52.03307599760592" lon="-9.975753994658589">
        <ele>66.950000000000003</ele>
        <time>2026-06-29T09:27:41Z</time>
      </trkpt>
      <trkpt lat="52.033155960962176" lon="-9.975570011883974">
        <ele>65.989999999999995</ele>
        <time>2026-06-29T09:27:42Z</time>
      </trkpt>
      <trkpt lat="52.033240031450987" lon="-9.975377982482314">
        <ele>65.030000000000001</ele>
        <time>2026-06-29T09:27:43Z</time>
      </trkpt>
      <trkpt lat="52.033840008080006" lon="-9.974472988396883">
        <ele>62.140000000000001</ele>
        <time>2026-06-29T09:27:48Z</time>
      </trkpt>
      <trkpt lat="52.033977974206209" lon="-9.974322030320764">
        <ele>61.659999999999997</ele>
        <time>2026-06-29T09:27:49Z</time>
      </trkpt>
      <trkpt lat="52.034756988286972" lon="-9.973652986809611">
        <ele>58.299999999999997</ele>
        <time>2026-06-29T09:27:54Z</time>
      </trkpt>
      <trkpt lat="52.034918004646897" lon="-9.973598001524806">
        <ele>57.82</ele>
        <time>2026-06-29T09:27:55Z</time>
      </trkpt>
      <trkpt lat="52.035070974379778" lon="-9.973577968776226">
        <ele>56.859999999999999</ele>
        <time>2026-06-29T09:27:56Z</time>
      </trkpt>
      <trkpt lat="52.035230984911323" lon="-9.973582997918129">
        <ele>55.890000000000001</ele>
        <time>2026-06-29T09:27:57Z</time>
      </trkpt>
      <trkpt lat="52.035386972129345" lon="-9.9736069701612">
        <ele>55.409999999999997</ele>
        <time>2026-06-29T09:27:58Z</time>
      </trkpt>
      <trkpt lat="52.035537008196115" lon="-9.973629014566541">
        <ele>54.450000000000003</ele>
        <time>2026-06-29T09:27:59Z</time>
      </trkpt>
      <trkpt lat="52.035674974322319" lon="-9.973589032888413">
        <ele>53.490000000000002</ele>
        <time>2026-06-29T09:28:00Z</time>
      </trkpt>
      <trkpt lat="52.035813024267554" lon="-9.973506974056363">
        <ele>52.530000000000001</ele>
        <time>2026-06-29T09:28:01Z</time>
      </trkpt>
      <trkpt lat="52.035941015928984" lon="-9.973355010151863">
        <ele>52.049999999999997</ele>
        <time>2026-06-29T09:28:02Z</time>
      </trkpt>
      <trkpt lat="52.036069007590413" lon="-9.973173039034009">
        <ele>52.049999999999997</ele>
        <time>2026-06-29T09:28:03Z</time>
      </trkpt>
      <trkpt lat="52.036189958453178" lon="-9.972958965227008">
        <ele>51.57</ele>
        <time>2026-06-29T09:28:04Z</time>
      </trkpt>
      <trkpt lat="52.036317028105259" lon="-9.972735000774264">
        <ele>51.090000000000003</ele>
        <time>2026-06-29T09:28:05Z</time>
      </trkpt>
      <trkpt lat="52.036580974236131" lon="-9.972270978614688">
        <ele>49.649999999999999</ele>
        <time>2026-06-29T09:28:07Z</time>
      </trkpt>
      <trkpt lat="52.036745008081198" lon="-9.972089007496834">
        <ele>48.68</ele>
        <time>2026-06-29T09:28:08Z</time>
      </trkpt>
      <trkpt lat="52.036918010562658" lon="-9.97195296920836">
        <ele>48.200000000000003</ele>
        <time>2026-06-29T09:28:09Z</time>
      </trkpt>
      <trkpt lat="52.037314977496862" lon="-9.971604030579329">
        <ele>47.719999999999999</ele>
        <time>2026-06-29T09:28:13Z</time>
      </trkpt>
      <trkpt lat="52.037411034107208" lon="-9.971481990069151">
        <ele>48.200000000000003</ele>
        <time>2026-06-29T09:28:19Z</time>
      </trkpt>
      <trkpt lat="52.037411034107208" lon="-9.971481990069151">
        <ele>48.200000000000003</ele>
        <time>2026-06-29T09:28:53Z</time>
      </trkpt>
      <trkpt lat="52.037472976371646" lon="-9.971402026712894">
        <ele>49.159999999999997</ele>
        <time>2026-06-29T09:29:12Z</time>
      </trkpt>
      <trkpt lat="52.037758966907859" lon="-9.970820993185043">
        <ele>49.649999999999999</ele>
        <time>2026-06-29T09:29:17Z</time>
      </trkpt>
      <trkpt lat="52.038466986268759" lon="-9.969436973333359">
        <ele>48.68</ele>
        <time>2026-06-29T09:29:24Z</time>
      </trkpt>
      <trkpt lat="52.039347002282739" lon="-9.967814991250634">
        <ele>44.840000000000003</ele>
        <time>2026-06-29T09:29:32Z</time>
      </trkpt>
      <trkpt lat="52.039396958425641" lon="-9.967640982940793">
        <ele>44.359999999999999</ele>
        <time>2026-06-29T09:29:33Z</time>
      </trkpt>
      <trkpt lat="52.039442975074053" lon="-9.967479966580868">
        <ele>43.880000000000003</ele>
        <time>2026-06-29T09:29:34Z</time>
      </trkpt>
      <trkpt lat="52.039455967023969" lon="-9.967305036261678">
        <ele>43.399999999999999</ele>
        <time>2026-06-29T09:29:35Z</time>
      </trkpt>
      <trkpt lat="52.03943501226604" lon="-9.967167992144823">
        <ele>43.399999999999999</ele>
        <time>2026-06-29T09:29:36Z</time>
      </trkpt>
      <trkpt lat="52.039397964254022" lon="-9.967038994655013">
        <ele>43.399999999999999</ele>
        <time>2026-06-29T09:29:37Z</time>
      </trkpt>
      <trkpt lat="52.039345996454358" lon="-9.9669049680233">
        <ele>43.399999999999999</ele>
        <time>2026-06-29T09:29:38Z</time>
      </trkpt>
      <trkpt lat="52.039290005341172" lon="-9.966761972755194">
        <ele>43.399999999999999</ele>
        <time>2026-06-29T09:29:39Z</time>
      </trkpt>
      <trkpt lat="52.03926301561296" lon="-9.966591987758875">
        <ele>42.920000000000002</ele>
        <time>2026-06-29T09:29:40Z</time>
      </trkpt>
      <trkpt lat="52.039244994521141" lon="-9.966396018862724">
        <ele>42.920000000000002</ele>
        <time>2026-06-29T09:29:41Z</time>
      </trkpt>
      <trkpt lat="52.039249017834663" lon="-9.966197032481432">
        <ele>42.920000000000002</ele>
        <time>2026-06-29T09:29:42Z</time>
      </trkpt>
      <trkpt lat="52.039287993684411" lon="-9.966011960059404">
        <ele>42.920000000000002</ele>
        <time>2026-06-29T09:29:43Z</time>
      </trkpt>
      <trkpt lat="52.0393299870193" lon="-9.965839041396976">
        <ele>42.920000000000002</ele>
        <time>2026-06-29T09:29:44Z</time>
      </trkpt>
      <trkpt lat="52.039396958425641" lon="-9.965676013380289">
        <ele>42.920000000000002</ele>
        <time>2026-06-29T09:29:45Z</time>
      </trkpt>
      <trkpt lat="52.039466025307775" lon="-9.965507034212351">
        <ele>42.920000000000002</ele>
        <time>2026-06-29T09:29:46Z</time>
      </trkpt>
      <trkpt lat="52.040163986384869" lon="-9.963828977197409">
        <ele>41.950000000000003</ele>
        <time>2026-06-29T09:29:54Z</time>
      </trkpt>
      <trkpt lat="52.041296968236566" lon="-9.96103503741324">
        <ele>42.439999999999998</ele>
        <time>2026-06-29T09:30:05Z</time>
      </trkpt>
      <trkpt lat="52.041553035378456" lon="-9.959924016147852">
        <ele>41.469999999999999</ele>
        <time>2026-06-29T09:30:09Z</time>
      </trkpt>
      <trkpt lat="52.041617995128036" lon="-9.959644982591271">
        <ele>40.509999999999998</ele>
        <time>2026-06-29T09:30:10Z</time>
      </trkpt>
      <trkpt lat="52.042344035580754" lon="-9.957215990871191">
        <ele>37.149999999999999</ele>
        <time>2026-06-29T09:30:19Z</time>
      </trkpt>
      <trkpt lat="52.043319018557668" lon="-9.955051029101014">
        <ele>37.630000000000003</ele>
        <time>2026-06-29T09:30:28Z</time>
      </trkpt>
      <trkpt lat="52.044695997610688" lon="-9.952800991013646">
        <ele>38.590000000000003</ele>
        <time>2026-06-29T09:30:38Z</time>
      </trkpt>
      <trkpt lat="52.046280009672046" lon="-9.950132025405765">
        <ele>40.030000000000001</ele>
        <time>2026-06-29T09:30:50Z</time>
      </trkpt>
      <trkpt lat="52.047484992071986" lon="-9.948941040784121">
        <ele>33.299999999999997</ele>
        <time>2026-06-29T09:30:57Z</time>
      </trkpt>
      <trkpt lat="52.048181025311351" lon="-9.948279960080981">
        <ele>30.899999999999999</ele>
        <time>2026-06-29T09:31:01Z</time>
      </trkpt>
      <trkpt lat="52.048344975337386" lon="-9.948087008669972">
        <ele>30.420000000000002</ele>
        <time>2026-06-29T09:31:02Z</time>
      </trkpt>
      <trkpt lat="52.049503019079566" lon="-9.946882026270032">
        <ele>27.050000000000001</ele>
        <time>2026-06-29T09:31:09Z</time>
      </trkpt>
      <trkpt lat="52.050828030332923" lon="-9.946133019402623">
        <ele>25.609999999999999</ele>
        <time>2026-06-29T09:31:16Z</time>
      </trkpt>
      <trkpt lat="52.052600970491767" lon="-9.945187037810683">
        <ele>24.649999999999999</ele>
        <time>2026-06-29T09:31:26Z</time>
      </trkpt>
      <trkpt lat="52.053711991757154" lon="-9.944953015074134">
        <ele>22.25</ele>
        <time>2026-06-29T09:31:34Z</time>
      </trkpt>
      <trkpt lat="52.054468039423227" lon="-9.944729972630739">
        <ele>20.809999999999999</ele>
        <time>2026-06-29T09:31:40Z</time>
      </trkpt>
      <trkpt lat="52.054571975022554" lon="-9.944625031203032">
        <ele>20.32</ele>
        <time>2026-06-29T09:31:41Z</time>
      </trkpt>
      <trkpt lat="52.054671971127391" lon="-9.944526040926576">
        <ele>19.84</ele>
        <time>2026-06-29T09:31:42Z</time>
      </trkpt>
      <trkpt lat="52.054768027737737" lon="-9.94442998431623">
        <ele>19.359999999999999</ele>
        <time>2026-06-29T09:31:43Z</time>
      </trkpt>
      <trkpt lat="52.05486198887229" lon="-9.944336023181677">
        <ele>19.359999999999999</ele>
        <time>2026-06-29T09:31:44Z</time>
      </trkpt>
      <trkpt lat="52.054942036047578" lon="-9.944224962964654">
        <ele>18.879999999999999</ele>
        <time>2026-06-29T09:31:45Z</time>
      </trkpt>
      <trkpt lat="52.055003978312016" lon="-9.944084985181689">
        <ele>18.879999999999999</ele>
        <time>2026-06-29T09:31:46Z</time>
      </trkpt>
      <trkpt lat="52.055064998567104" lon="-9.943932015448809">
        <ele>18.879999999999999</ele>
        <time>2026-06-29T09:31:47Z</time>
      </trkpt>
      <trkpt lat="52.055127024650574" lon="-9.943774016574025">
        <ele>19.359999999999999</ele>
        <time>2026-06-29T09:31:48Z</time>
      </trkpt>
      <trkpt lat="52.055191984400153" lon="-9.943609982728958">
        <ele>19.84</ele>
        <time>2026-06-29T09:31:49Z</time>
      </trkpt>
      <trkpt lat="52.055643014609814" lon="-9.942226968705654">
        <ele>27.050000000000001</ele>
        <time>2026-06-29T09:31:58Z</time>
      </trkpt>
      <trkpt lat="52.056133020669222" lon="-9.940527034923434">
        <ele>31.859999999999999</ele>
        <time>2026-06-29T09:32:09Z</time>
      </trkpt>
      <trkpt lat="52.056587990373373" lon="-9.938645968213677">
        <ele>32.340000000000003</ele>
        <time>2026-06-29T09:32:21Z</time>
      </trkpt>
      <trkpt lat="52.056979006156325" lon="-9.937067991122603">
        <ele>32.82</ele>
        <time>2026-06-29T09:32:29Z</time>
      </trkpt>
      <trkpt lat="52.057476975023746" lon="-9.935158006846905">
        <ele>35.229999999999997</ele>
        <time>2026-06-29T09:32:39Z</time>
      </trkpt>
      <trkpt lat="52.058063037693501" lon="-9.933049036189914">
        <ele>39.549999999999997</ele>
        <time>2026-06-29T09:32:48Z</time>
      </trkpt>
      <trkpt lat="52.058611968532205" lon="-9.930833028629422">
        <ele>40.030000000000001</ele>
        <time>2026-06-29T09:32:58Z</time>
      </trkpt>
      <trkpt lat="52.059239018708467" lon="-9.927647989243269">
        <ele>44.840000000000003</ele>
        <time>2026-06-29T09:33:12Z</time>
      </trkpt>
      <trkpt lat="52.059536995366216" lon="-9.925125958397985">
        <ele>47.240000000000002</ele>
        <time>2026-06-29T09:33:22Z</time>
      </trkpt>
      <trkpt lat="52.059554010629654" lon="-9.924852959811688">
        <ele>46.759999999999998</ele>
        <time>2026-06-29T09:33:23Z</time>
      </trkpt>
      <trkpt lat="52.059570020064712" lon="-9.924584990367293">
        <ele>46.280000000000001</ele>
        <time>2026-06-29T09:33:24Z</time>
      </trkpt>
      <trkpt lat="52.0596310403198" lon="-9.924326995387673">
        <ele>45.799999999999997</ele>
        <time>2026-06-29T09:33:25Z</time>
      </trkpt>
      <trkpt lat="52.05971997231245" lon="-9.924089033156633">
        <ele>45.32</ele>
        <time>2026-06-29T09:33:26Z</time>
      </trkpt>
      <trkpt lat="52.059841006994247" lon="-9.923892980441451">
        <ele>44.840000000000003</ele>
        <time>2026-06-29T09:33:27Z</time>
      </trkpt>
      <trkpt lat="52.059965981170535" lon="-9.923689970746636">
        <ele>43.880000000000003</ele>
        <time>2026-06-29T09:33:28Z</time>
      </trkpt>
      <trkpt lat="52.060092967003584" lon="-9.923483021557331">
        <ele>43.399999999999999</ele>
        <time>2026-06-29T09:33:29Z</time>
      </trkpt>
      <trkpt lat="52.060465961694717" lon="-9.922828981652856">
        <ele>40.030000000000001</ele>
        <time>2026-06-29T09:33:32Z</time>
      </trkpt>
      <trkpt lat="52.060551960021257" lon="-9.922570986673236">
        <ele>39.549999999999997</ele>
        <time>2026-06-29T09:33:33Z</time>
      </trkpt>
      <trkpt lat="52.060636030510068" lon="-9.922319026663899">
        <ele>38.590000000000003</ele>
        <time>2026-06-29T09:33:34Z</time>
      </trkpt>
      <trkpt lat="52.060718005523086" lon="-9.922074023634195">
        <ele>37.630000000000003</ele>
        <time>2026-06-29T09:33:35Z</time>
      </trkpt>
      <trkpt lat="52.060775002464652" lon="-9.921822985634208">
        <ele>37.149999999999999</ele>
        <time>2026-06-29T09:33:36Z</time>
      </trkpt>
      <trkpt lat="52.060811966657639" lon="-9.921562978997827">
        <ele>36.670000000000002</ele>
        <time>2026-06-29T09:33:37Z</time>
      </trkpt>
      <trkpt lat="52.060841973870993" lon="-9.921312024816871">
        <ele>36.189999999999998</ele>
        <time>2026-06-29T09:33:38Z</time>
      </trkpt>
      <trkpt lat="52.060847003012896" lon="-9.921066015958786">
        <ele>36.189999999999998</ele>
        <time>2026-06-29T09:33:39Z</time>
      </trkpt>
      <trkpt lat="52.060852032154799" lon="-9.920832999050617">
        <ele>36.189999999999998</ele>
        <time>2026-06-29T09:33:40Z</time>
      </trkpt>
      <trkpt lat="52.060968959704041" lon="-9.918895019218326">
        <ele>33.299999999999997</ele>
        <time>2026-06-29T09:33:49Z</time>
      </trkpt>
      <trkpt lat="52.06102997995913" lon="-9.918687986209989">
        <ele>32.82</ele>
        <time>2026-06-29T09:33:50Z</time>
      </trkpt>
      <trkpt lat="52.061095023527741" lon="-9.918465027585626">
        <ele>31.859999999999999</ele>
        <time>2026-06-29T09:33:51Z</time>
      </trkpt>
      <trkpt lat="52.061858028173447" lon="-9.916674988344312">
        <ele>27.530000000000001</ele>
        <time>2026-06-29T09:33:59Z</time>
      </trkpt>
      <trkpt lat="52.062776014208794" lon="-9.914803979918361">
        <ele>26.57</ele>
        <time>2026-06-29T09:34:06Z</time>
      </trkpt>
      <trkpt lat="52.063675979152322" lon="-9.913219967857003">
        <ele>24.170000000000002</ele>
        <time>2026-06-29T09:34:14Z</time>
      </trkpt>
      <trkpt lat="52.064839974045753" lon="-9.911636961624026">
        <ele>19.359999999999999</ele>
        <time>2026-06-29T09:34:24Z</time>
      </trkpt>
      <trkpt lat="52.065182039514184" lon="-9.911159025505185">
        <ele>18.879999999999999</ele>
        <time>2026-06-29T09:34:27Z</time>
      </trkpt>
      <trkpt lat="52.065287986770272" lon="-9.910981999710202">
        <ele>18.879999999999999</ele>
        <time>2026-06-29T09:34:28Z</time>
      </trkpt>
      <trkpt lat="52.065386977046728" lon="-9.910802040249109">
        <ele>18.399999999999999</ele>
        <time>2026-06-29T09:34:29Z</time>
      </trkpt>
      <trkpt lat="52.065469035878778" lon="-9.910597018897533">
        <ele>17.920000000000002</ele>
        <time>2026-06-29T09:34:30Z</time>
      </trkpt>
      <trkpt lat="52.065552016720176" lon="-9.910389985889196">
        <ele>16.960000000000001</ele>
        <time>2026-06-29T09:34:31Z</time>
      </trkpt>
      <trkpt lat="52.066444018855691" lon="-9.908143971115351">
        <ele>17.920000000000002</ele>
        <time>2026-06-29T09:34:42Z</time>
      </trkpt>
      <trkpt lat="52.067050030454993" lon="-9.906775960698724">
        <ele>19.359999999999999</ele>
        <time>2026-06-29T09:34:48Z</time>
      </trkpt>
      <trkpt lat="52.068073963746428" lon="-9.9049639608711">
        <ele>18.879999999999999</ele>
        <time>2026-06-29T09:34:56Z</time>
      </trkpt>
      <trkpt lat="52.068308992311358" lon="-9.90440396592021">
        <ele>16.960000000000001</ele>
        <time>2026-06-29T09:34:59Z</time>
      </trkpt>
      <trkpt lat="52.068350985646248" lon="-9.904260970652103">
        <ele>16.960000000000001</ele>
        <time>2026-06-29T09:35:00Z</time>
      </trkpt>
      <trkpt lat="52.068350985646248" lon="-9.904094003140926">
        <ele>16.48</ele>
        <time>2026-06-29T09:35:01Z</time>
      </trkpt>
      <trkpt lat="52.068350985646248" lon="-9.903943967074156">
        <ele>16</ele>
        <time>2026-06-29T09:35:02Z</time>
      </trkpt>
      <trkpt lat="52.068350985646248" lon="-9.903804995119572">
        <ele>15.52</ele>
        <time>2026-06-29T09:35:03Z</time>
      </trkpt>
      <trkpt lat="52.068350985646248" lon="-9.90367298014462">
        <ele>15.52</ele>
        <time>2026-06-29T09:35:04Z</time>
      </trkpt>
      <trkpt lat="52.068350985646248" lon="-9.903076021000743">
        <ele>14.56</ele>
        <time>2026-06-29T09:35:09Z</time>
      </trkpt>
      <trkpt lat="52.068332964554429" lon="-9.902997985482216">
        <ele>14.08</ele>
        <time>2026-06-29T09:35:10Z</time>
      </trkpt>
      <trkpt lat="52.068286025896668" lon="-9.902891032397747">
        <ele>14.56</ele>
        <time>2026-06-29T09:35:11Z</time>
      </trkpt>
      <trkpt lat="52.068216037005186" lon="-9.902791958302259">
        <ele>14.56</ele>
        <time>2026-06-29T09:35:12Z</time>
      </trkpt>
      <trkpt lat="52.068128027021885" lon="-9.902695985510945">
        <ele>15.039999999999999</ele>
        <time>2026-06-29T09:35:13Z</time>
      </trkpt>
      <trkpt lat="52.068026019260287" lon="-9.902586014941335">
        <ele>15.52</ele>
        <time>2026-06-29T09:35:14Z</time>
      </trkpt>
      <trkpt lat="52.067802976816893" lon="-9.902344029396772">
        <ele>16.48</ele>
        <time>2026-06-29T09:35:16Z</time>
      </trkpt>
      <trkpt lat="52.067699041217566" lon="-9.90218997001648">
        <ele>16.960000000000001</ele>
        <time>2026-06-29T09:35:17Z</time>
      </trkpt>
      <trkpt lat="52.067599967122078" lon="-9.902005987241864">
        <ele>17.920000000000002</ele>
        <time>2026-06-29T09:35:18Z</time>
      </trkpt>
      <trkpt lat="52.067529978230596" lon="-9.901799038052559">
        <ele>18.399999999999999</ele>
        <time>2026-06-29T09:35:19Z</time>
      </trkpt>
      <trkpt lat="52.067470969632268" lon="-9.901599967852235">
        <ele>18.879999999999999</ele>
        <time>2026-06-29T09:35:20Z</time>
      </trkpt>
      <trkpt lat="52.067449009045959" lon="-9.901366028934717">
        <ele>19.359999999999999</ele>
        <time>2026-06-29T09:35:21Z</time>
      </trkpt>
      <trkpt lat="52.06743199378252" lon="-9.901129994541407">
        <ele>19.84</ele>
        <time>2026-06-29T09:35:22Z</time>
      </trkpt>
      <trkpt lat="52.067472981289029" lon="-9.900908963754773">
        <ele>20.32</ele>
        <time>2026-06-29T09:35:23Z</time>
      </trkpt>
      <trkpt lat="52.067539030686021" lon="-9.900697991251946">
        <ele>20.809999999999999</ele>
        <time>2026-06-29T09:35:24Z</time>
      </trkpt>
      <trkpt lat="52.06762402318418" lon="-9.900500010699034">
        <ele>21.77</ele>
        <time>2026-06-29T09:35:25Z</time>
      </trkpt>
      <trkpt lat="52.067722007632256" lon="-9.900304041802883">
        <ele>22.25</ele>
        <time>2026-06-29T09:35:26Z</time>
      </trkpt>
      <trkpt lat="52.067841030657291" lon="-9.900137996301055">
        <ele>22.73</ele>
        <time>2026-06-29T09:35:27Z</time>
      </trkpt>
      <trkpt lat="52.069059005007148" lon="-9.898381987586618">
        <ele>27.530000000000001</ele>
        <time>2026-06-29T09:35:37Z</time>
      </trkpt>
      <trkpt lat="52.069840030744672" lon="-9.897009031847119">
        <ele>30.899999999999999</ele>
        <time>2026-06-29T09:35:44Z</time>
      </trkpt>
      <trkpt lat="52.070339005440474" lon="-9.894965020939708">
        <ele>30.899999999999999</ele>
        <time>2026-06-29T09:35:53Z</time>
      </trkpt>
      <trkpt lat="52.070428021252155" lon="-9.893995989114046">
        <ele>30.899999999999999</ele>
        <time>2026-06-29T09:35:57Z</time>
      </trkpt>
      <trkpt lat="52.070214031264186" lon="-9.891820969060063">
        <ele>33.299999999999997</ele>
        <time>2026-06-29T09:36:05Z</time>
      </trkpt>
      <trkpt lat="52.070116968825459" lon="-9.891271032392979">
        <ele>33.780000000000001</ele>
        <time>2026-06-29T09:36:07Z</time>
      </trkpt>
      <trkpt lat="52.070037005469203" lon="-9.889268008992076">
        <ele>36.670000000000002</ele>
        <time>2026-06-29T09:36:13Z</time>
      </trkpt>
      <trkpt lat="52.069989982992411" lon="-9.888013992458582">
        <ele>38.590000000000003</ele>
        <time>2026-06-29T09:36:17Z</time>
      </trkpt>
      <trkpt lat="52.069990988820791" lon="-9.88773001357913">
        <ele>38.590000000000003</ele>
        <time>2026-06-29T09:36:18Z</time>
      </trkpt>
      <trkpt lat="52.070037005469203" lon="-9.887461038306356">
        <ele>38.590000000000003</ele>
        <time>2026-06-29T09:36:19Z</time>
      </trkpt>
      <trkpt lat="52.070105988532305" lon="-9.887204971164465">
        <ele>39.07</ele>
        <time>2026-06-29T09:36:20Z</time>
      </trkpt>
      <trkpt lat="52.070215037092566" lon="-9.886968014761806">
        <ele>40.030000000000001</ele>
        <time>2026-06-29T09:36:21Z</time>
      </trkpt>
      <trkpt lat="52.07033297047019" lon="-9.886714965105057">
        <ele>40.990000000000002</ele>
        <time>2026-06-29T09:36:22Z</time>
      </trkpt>
      <trkpt lat="52.070457022637129" lon="-9.886445989832282">
        <ele>41.950000000000003</ele>
        <time>2026-06-29T09:36:23Z</time>
      </trkpt>
      <trkpt lat="52.070581996813416" lon="-9.886177014559507">
        <ele>42.439999999999998</ele>
        <time>2026-06-29T09:36:24Z</time>
      </trkpt>
      <trkpt lat="52.070684004575014" lon="-9.885888006538153">
        <ele>42.920000000000002</ele>
        <time>2026-06-29T09:36:25Z</time>
      </trkpt>
      <trkpt lat="52.071217009797692" lon="-9.883924964815378">
        <ele>43.880000000000003</ele>
        <time>2026-06-29T09:36:32Z</time>
      </trkpt>
      <trkpt lat="52.071278030052781" lon="-9.8836699873209">
        <ele>43.880000000000003</ele>
        <time>2026-06-29T09:36:33Z</time>
      </trkpt>
      <trkpt lat="52.071389006450772" lon="-9.883441999554634">
        <ele>44.359999999999999</ele>
        <time>2026-06-29T09:36:34Z</time>
      </trkpt>
      <trkpt lat="52.071506017819047" lon="-9.883231027051806">
        <ele>44.359999999999999</ele>
        <time>2026-06-29T09:36:35Z</time>
      </trkpt>
      <trkpt lat="52.071649013087153" lon="-9.883065987378359">
        <ele>44.840000000000003</ele>
        <time>2026-06-29T09:36:36Z</time>
      </trkpt>
      <trkpt lat="52.071797037497163" lon="-9.882900025695562">
        <ele>45.32</ele>
        <time>2026-06-29T09:36:37Z</time>
      </trkpt>
      <trkpt lat="52.071960987523198" lon="-9.882773039862514">
        <ele>45.799999999999997</ele>
        <time>2026-06-29T09:36:38Z</time>
      </trkpt>
      <trkpt lat="52.073798971250653" lon="-9.881380973383784">
        <ele>45.32</ele>
        <time>2026-06-29T09:36:48Z</time>
      </trkpt>
      <trkpt lat="52.07593702711165" lon="-9.879316007718444">
        <ele>40.509999999999998</ele>
        <time>2026-06-29T09:36:59Z</time>
      </trkpt>
      <trkpt lat="52.077708039432764" lon="-9.877468971535564">
        <ele>39.549999999999997</ele>
        <time>2026-06-29T09:37:09Z</time>
      </trkpt>
      <trkpt lat="52.079985989257693" lon="-9.875065041705966">
        <ele>36.189999999999998</ele>
        <time>2026-06-29T09:37:22Z</time>
      </trkpt>
      <trkpt lat="52.081444021314383" lon="-9.873138964176178">
        <ele>36.189999999999998</ele>
        <time>2026-06-29T09:37:32Z</time>
      </trkpt>
      <trkpt lat="52.081557009369135" lon="-9.872875018045306">
        <ele>36.189999999999998</ele>
        <time>2026-06-29T09:37:33Z</time>
      </trkpt>
      <trkpt lat="52.082753023132682" lon="-9.869184968993068">
        <ele>36.670000000000002</ele>
        <time>2026-06-29T09:37:45Z</time>
      </trkpt>
      <trkpt lat="52.083935961127281" lon="-9.86542996019125">
        <ele>40.509999999999998</ele>
        <time>2026-06-29T09:37:57Z</time>
      </trkpt>
      <trkpt lat="52.085053017362952" lon="-9.861703030765057">
        <ele>38.109999999999999</ele>
        <time>2026-06-29T09:38:09Z</time>
      </trkpt>
      <trkpt lat="52.085924986749887" lon="-9.858857961371541">
        <ele>37.630000000000003</ele>
        <time>2026-06-29T09:38:19Z</time>
      </trkpt>
      <trkpt lat="52.086260011419654" lon="-9.857636969536543">
        <ele>36.189999999999998</ele>
        <time>2026-06-29T09:38:26Z</time>
      </trkpt>
      <trkpt lat="52.086706012487411" lon="-9.856095034629107">
        <ele>37.630000000000003</ele>
        <time>2026-06-29T09:38:32Z</time>
      </trkpt>
      <trkpt lat="52.087472034618258" lon="-9.853516006842256">
        <ele>37.630000000000003</ele>
        <time>2026-06-29T09:38:40Z</time>
      </trkpt>
      <trkpt lat="52.088237972930074" lon="-9.851119033992291">
        <ele>36.670000000000002</ele>
        <time>2026-06-29T09:38:49Z</time>
      </trkpt>
      <trkpt lat="52.088347021490335" lon="-9.850879982113838">
        <ele>36.670000000000002</ele>
        <time>2026-06-29T09:38:50Z</time>
      </trkpt>
      <trkpt lat="52.089370032772422" lon="-9.84940099529922">
        <ele>38.109999999999999</ele>
        <time>2026-06-29T09:38:57Z</time>
      </trkpt>
      <trkpt lat="52.091097962111235" lon="-9.847093960270286">
        <ele>37.149999999999999</ele>
        <time>2026-06-29T09:39:08Z</time>
      </trkpt>
      <trkpt lat="52.092751963064075" lon="-9.844966968521476">
        <ele>36.189999999999998</ele>
        <time>2026-06-29T09:39:19Z</time>
      </trkpt>
      <trkpt lat="52.092886995524168" lon="-9.844743004068732">
        <ele>35.229999999999997</ele>
        <time>2026-06-29T09:39:20Z</time>
      </trkpt>
      <trkpt lat="52.092992020770907" lon="-9.844485009089112">
        <ele>34.740000000000002</ele>
        <time>2026-06-29T09:39:21Z</time>
      </trkpt>
      <trkpt lat="52.093077013269067" lon="-9.844209998846054">
        <ele>33.780000000000001</ele>
        <time>2026-06-29T09:39:22Z</time>
      </trkpt>
      <trkpt lat="52.093162005767226" lon="-9.843931971117854">
        <ele>33.299999999999997</ele>
        <time>2026-06-29T09:39:23Z</time>
      </trkpt>
      <trkpt lat="52.094218041747808" lon="-9.840494971722364">
        <ele>29.940000000000001</ele>
        <time>2026-06-29T09:39:35Z</time>
      </trkpt>
      <trkpt lat="52.095062015578151" lon="-9.837731039151549">
        <ele>28.98</ele>
        <time>2026-06-29T09:39:44Z</time>
      </trkpt>
      <trkpt lat="52.096111010760069" lon="-9.834266966208816">
        <ele>24.649999999999999</ele>
        <time>2026-06-29T09:39:55Z</time>
      </trkpt>
      <trkpt lat="52.096901005133986" lon="-9.831697996705771">
        <ele>22.73</ele>
        <time>2026-06-29T09:40:04Z</time>
      </trkpt>
      <trkpt lat="52.097572982311249" lon="-9.829537980258465">
        <ele>23.210000000000001</ele>
        <time>2026-06-29T09:40:12Z</time>
      </trkpt>
      <trkpt lat="52.098581995815039" lon="-9.826375991106033">
        <ele>23.210000000000001</ele>
        <time>2026-06-29T09:40:23Z</time>
      </trkpt>
      <trkpt lat="52.09871300496161" lon="-9.826134005561471">
        <ele>23.210000000000001</ele>
        <time>2026-06-29T09:40:24Z</time>
      </trkpt>
      <trkpt lat="52.098858011886477" lon="-9.825910963118076">
        <ele>23.210000000000001</ele>
        <time>2026-06-29T09:40:25Z</time>
      </trkpt>
      <trkpt lat="52.099006036296487" lon="-9.825684987008572">
        <ele>22.73</ele>
        <time>2026-06-29T09:40:26Z</time>
      </trkpt>
      <trkpt lat="52.099180966615677" lon="-9.825504021719098">
        <ele>22.25</ele>
        <time>2026-06-29T09:40:27Z</time>
      </trkpt>
      <trkpt lat="52.099355980753899" lon="-9.825340993702412">
        <ele>21.77</ele>
        <time>2026-06-29T09:40:28Z</time>
      </trkpt>
      <trkpt lat="52.099544992670417" lon="-9.825209984555841">
        <ele>21.289999999999999</ele>
        <time>2026-06-29T09:40:29Z</time>
      </trkpt>
      <trkpt lat="52.099740039557219" lon="-9.825090961530805">
        <ele>21.289999999999999</ele>
        <time>2026-06-29T09:40:30Z</time>
      </trkpt>
      <trkpt lat="52.099944977089763" lon="-9.825027007609606">
        <ele>20.809999999999999</ele>
        <time>2026-06-29T09:40:31Z</time>
      </trkpt>
      <trkpt lat="52.101932996883988" lon="-9.824491990730166">
        <ele>24.170000000000002</ele>
        <time>2026-06-29T09:40:41Z</time>
      </trkpt>
      <trkpt lat="52.102122008800507" lon="-9.824420996010304">
        <ele>25.129999999999999</ele>
        <time>2026-06-29T09:40:42Z</time>
      </trkpt>
      <trkpt lat="52.102304985746741" lon="-9.824303984642029">
        <ele>26.09</ele>
        <time>2026-06-29T09:40:43Z</time>
      </trkpt>
      <trkpt lat="52.102487962692976" lon="-9.824187979102135">
        <ele>26.57</ele>
        <time>2026-06-29T09:40:44Z</time>
      </trkpt>
      <trkpt lat="52.102654008194804" lon="-9.82402503490448">
        <ele>27.530000000000001</ele>
        <time>2026-06-29T09:40:45Z</time>
      </trkpt>
      <trkpt lat="52.102815024554729" lon="-9.823845997452736">
        <ele>28.02</ele>
        <time>2026-06-29T09:40:46Z</time>
      </trkpt>
      <trkpt lat="52.102969000115991" lon="-9.823638964444399">
        <ele>28.02</ele>
        <time>2026-06-29T09:40:47Z</time>
      </trkpt>
      <trkpt lat="52.103105038404465" lon="-9.823390021920204">
        <ele>28.02</ele>
        <time>2026-06-29T09:40:48Z</time>
      </trkpt>
      <trkpt lat="52.103240992873907" lon="-9.823139989748597">
        <ele>28.02</ele>
        <time>2026-06-29T09:40:49Z</time>
      </trkpt>
      <trkpt lat="52.103362027555704" lon="-9.822873026132584">
        <ele>27.530000000000001</ele>
        <time>2026-06-29T09:40:50Z</time>
      </trkpt>
      <trkpt lat="52.103470992296934" lon="-9.822588041424751">
        <ele>27.050000000000001</ele>
        <time>2026-06-29T09:40:51Z</time>
      </trkpt>
      <trkpt lat="52.103537041693926" lon="-9.822273971512914">
        <ele>26.57</ele>
        <time>2026-06-29T09:40:52Z</time>
      </trkpt>
      <trkpt lat="52.103599989786744" lon="-9.821955962106586">
        <ele>25.609999999999999</ele>
        <time>2026-06-29T09:40:53Z</time>
      </trkpt>
      <trkpt lat="52.103652041405439" lon="-9.821638036519289">
        <ele>24.649999999999999</ele>
        <time>2026-06-29T09:40:54Z</time>
      </trkpt>
      <trkpt lat="52.103668972849846" lon="-9.821308963000774">
        <ele>23.210000000000001</ele>
        <time>2026-06-29T09:40:55Z</time>
      </trkpt>
      <trkpt lat="52.103684982284904" lon="-9.820980979129672">
        <ele>22.25</ele>
        <time>2026-06-29T09:40:56Z</time>
      </trkpt>
      <trkpt lat="52.103677019476891" lon="-9.820657018572092">
        <ele>20.32</ele>
        <time>2026-06-29T09:40:58Z</time>
      </trkpt>
      <trkpt lat="52.103477027267218" lon="-9.817784959450364">
        <ele>18.879999999999999</ele>
        <time>2026-06-29T09:41:06Z</time>
      </trkpt>
      <trkpt lat="52.103507034480572" lon="-9.817468961700797">
        <ele>18.879999999999999</ele>
        <time>2026-06-29T09:41:07Z</time>
      </trkpt>
      <trkpt lat="52.103849016129971" lon="-9.814710980281234">
        <ele>20.809999999999999</ele>
        <time>2026-06-29T09:41:16Z</time>
      </trkpt>
      <trkpt lat="52.103971978649497" lon="-9.812933010980487">
        <ele>21.77</ele>
        <time>2026-06-29T09:41:22Z</time>
      </trkpt>
      <trkpt lat="52.103949012234807" lon="-9.812653977423906">
        <ele>21.77</ele>
        <time>2026-06-29T09:41:23Z</time>
      </trkpt>
      <trkpt lat="52.103925962001085" lon="-9.812373016029596">
        <ele>21.77</ele>
        <time>2026-06-29T09:41:24Z</time>
      </trkpt>
      <trkpt lat="52.103262031450868" lon="-9.809354022145271">
        <ele>23.210000000000001</ele>
        <time>2026-06-29T09:41:35Z</time>
      </trkpt>
      <trkpt lat="52.102961037307978" lon="-9.807669008150697">
        <ele>24.649999999999999</ele>
        <time>2026-06-29T09:41:41Z</time>
      </trkpt>
      <trkpt lat="52.102947039529681" lon="-9.807406989857554">
        <ele>25.129999999999999</ele>
        <time>2026-06-29T09:41:42Z</time>
      </trkpt>
      <trkpt lat="52.10294796153903" lon="-9.807146983221173">
        <ele>25.129999999999999</ele>
        <time>2026-06-29T09:41:43Z</time>
      </trkpt>
      <trkpt lat="52.102961959317327" lon="-9.806842971593142">
        <ele>25.609999999999999</ele>
        <time>2026-06-29T09:41:44Z</time>
      </trkpt>
      <trkpt lat="52.103007975965738" lon="-9.806620012968779">
        <ele>25.129999999999999</ele>
        <time>2026-06-29T09:41:45Z</time>
      </trkpt>
      <trkpt lat="52.103490019217134" lon="-9.804265033453703">
        <ele>25.129999999999999</ele>
        <time>2026-06-29T09:41:55Z</time>
      </trkpt>
      <trkpt lat="52.103994023054838" lon="-9.801792036741972">
        <ele>26.09</ele>
        <time>2026-06-29T09:42:06Z</time>
      </trkpt>
      <trkpt lat="52.104572039097548" lon="-9.799090968444943">
        <ele>28.5</ele>
        <time>2026-06-29T09:42:18Z</time>
      </trkpt>
      <trkpt lat="52.105166986584663" lon="-9.796233996748924">
        <ele>29.460000000000001</ele>
        <time>2026-06-29T09:42:31Z</time>
      </trkpt>
      <trkpt lat="52.105585997924209" lon="-9.794300962239504">
        <ele>29.940000000000001</ele>
        <time>2026-06-29T09:42:41Z</time>
      </trkpt>
      <trkpt lat="52.105940971523523" lon="-9.792543025687337">
        <ele>29.940000000000001</ele>
        <time>2026-06-29T09:42:52Z</time>
      </trkpt>
      <trkpt lat="52.10632000118494" lon="-9.7907679900527">
        <ele>28.5</ele>
        <time>2026-06-29T09:43:04Z</time>
      </trkpt>
      <trkpt lat="52.106499038636684" lon="-9.789990987628698">
        <ele>29.940000000000001</ele>
        <time>2026-06-29T09:43:12Z</time>
      </trkpt>
      <trkpt lat="52.106816964223981" lon="-9.788481993600726">
        <ele>29.460000000000001</ele>
        <time>2026-06-29T09:43:22Z</time>
      </trkpt>
      <trkpt lat="52.106916038319468" lon="-9.788193991407752">
        <ele>29.460000000000001</ele>
        <time>2026-06-29T09:43:25Z</time>
      </trkpt>
      <trkpt lat="52.106933975592256" lon="-9.78814797475934">
        <ele>29.460000000000001</ele>
        <time>2026-06-29T09:43:26Z</time>
      </trkpt>
      <trkpt lat="52.106971023604274" lon="-9.788056025281549">
        <ele>29.460000000000001</ele>
        <time>2026-06-29T09:43:33Z</time>
      </trkpt>
      <trkpt lat="52.106994995847344" lon="-9.787997016683221">
        <ele>29.460000000000001</ele>
        <time>2026-06-29T09:43:34Z</time>
      </trkpt>
      <trkpt lat="52.107042018324137" lon="-9.787933984771371">
        <ele>29.460000000000001</ele>
        <time>2026-06-29T09:43:35Z</time>
      </trkpt>
      <trkpt lat="52.107103038579226" lon="-9.787767017260194">
        <ele>29.940000000000001</ele>
        <time>2026-06-29T09:43:36Z</time>
      </trkpt>
      <trkpt lat="52.107127010822296" lon="-9.787744972854853">
        <ele>29.940000000000001</ele>
        <time>2026-06-29T09:43:37Z</time>
      </trkpt>
      <trkpt lat="52.107196999713778" lon="-9.787679007276893">
        <ele>29.940000000000001</ele>
        <time>2026-06-29T09:43:38Z</time>
      </trkpt>
      <trkpt lat="52.107267994433641" lon="-9.787612035870552">
        <ele>29.940000000000001</ele>
        <time>2026-06-29T09:43:39Z</time>
      </trkpt>
      <trkpt lat="52.107344018295407" lon="-9.787541041150689">
        <ele>29.940000000000001</ele>
        <time>2026-06-29T09:43:40Z</time>
      </trkpt>
      <trkpt lat="52.107419036328793" lon="-9.787470968440175">
        <ele>29.940000000000001</ele>
        <time>2026-06-29T09:43:41Z</time>
      </trkpt>
      <trkpt lat="52.107654986903071" lon="-9.787171985954046">
        <ele>29.940000000000001</ele>
        <time>2026-06-29T09:43:46Z</time>
      </trkpt>
      <trkpt lat="52.107688011601567" lon="-9.787127980962396">
        <ele>29.460000000000001</ele>
        <time>2026-06-29T09:43:47Z</time>
      </trkpt>
      <trkpt lat="52.107911976054311" lon="-9.78681399486959">
        <ele>28.98</ele>
        <time>2026-06-29T09:43:57Z</time>
      </trkpt>
      <trkpt lat="52.10799696855247" lon="-9.786645015701652">
        <ele>28.98</ele>
        <time>2026-06-29T09:43:59Z</time>
      </trkpt>
      <trkpt lat="52.108281031250954" lon="-9.785886034369469">
        <ele>27.530000000000001</ele>
        <time>2026-06-29T09:44:05Z</time>
      </trkpt>
      <trkpt lat="52.108319001272321" lon="-9.785660980269313">
        <ele>26.09</ele>
        <time>2026-06-29T09:44:07Z</time>
      </trkpt>
      <trkpt lat="52.108308020979166" lon="-9.785551009699702">
        <ele>25.609999999999999</ele>
        <time>2026-06-29T09:44:08Z</time>
      </trkpt>
      <trkpt lat="52.108287988230586" lon="-9.78550398722291">
        <ele>25.129999999999999</ele>
        <time>2026-06-29T09:44:09Z</time>
      </trkpt>
      <trkpt lat="52.108229985460639" lon="-9.785470040515065">
        <ele>24.649999999999999</ele>
        <time>2026-06-29T09:44:10Z</time>
      </trkpt>
      <trkpt lat="52.108162008225918" lon="-9.785430980846286">
        <ele>24.170000000000002</ele>
        <time>2026-06-29T09:44:11Z</time>
      </trkpt>
      <trkpt lat="52.10808296687901" lon="-9.785384964197874">
        <ele>23.690000000000001</ele>
        <time>2026-06-29T09:44:12Z</time>
      </trkpt>
      <trkpt lat="52.107998980209231" lon="-9.785349005833268">
        <ele>23.210000000000001</ele>
        <time>2026-06-29T09:44:13Z</time>
      </trkpt>
      <trkpt lat="52.107733022421598" lon="-9.785268036648631">
        <ele>21.77</ele>
        <time>2026-06-29T09:44:16Z</time>
      </trkpt>
      <trkpt lat="52.10765196941793" lon="-9.785242974758148">
        <ele>21.289999999999999</ele>
        <time>2026-06-29T09:44:17Z</time>
      </trkpt>
      <trkpt lat="52.107567982748151" lon="-9.785216990858316">
        <ele>21.289999999999999</ele>
        <time>2026-06-29T09:44:18Z</time>
      </trkpt>
      <trkpt lat="52.106682015582919" lon="-9.784932006150484">
        <ele>16.960000000000001</ele>
        <time>2026-06-29T09:44:28Z</time>
      </trkpt>
      <trkpt lat="52.106502978131175" lon="-9.784849025309086">
        <ele>13.6</ele>
        <time>2026-06-29T09:44:35Z</time>
      </trkpt>
      <trkpt lat="52.106373980641365" lon="-9.784698989242315">
        <ele>11.67</ele>
        <time>2026-06-29T09:44:40Z</time>
      </trkpt>
      <trkpt lat="52.106368029490113" lon="-9.784613996744156">
        <ele>11.67</ele>
        <time>2026-06-29T09:44:41Z</time>
      </trkpt>
      <trkpt lat="52.106359982863069" lon="-9.784492962062359">
        <ele>11.19</ele>
        <time>2026-06-29T09:44:42Z</time>
      </trkpt>
      <trkpt lat="52.106372974812984" lon="-9.784132959321141">
        <ele>10.710000000000001</ele>
        <time>2026-06-29T09:44:45Z</time>
      </trkpt>
      <trkpt lat="52.106387978419662" lon="-9.783951994031668">
        <ele>10.710000000000001</ele>
        <time>2026-06-29T09:44:47Z</time>
      </trkpt>
      <trkpt lat="52.10647196508944" lon="-9.782900987192988">
        <ele>11.19</ele>
        <time>2026-06-29T09:44:58Z</time>
      </trkpt>
      <trkpt lat="52.106527034193277" lon="-9.78217301890254">
        <ele>11.67</ele>
        <time>2026-06-29T09:45:07Z</time>
      </trkpt>
      <trkpt lat="52.10655502974987" lon="-9.781869007274509">
        <ele>12.15</ele>
        <time>2026-06-29T09:45:12Z</time>
      </trkpt>
      <trkpt lat="52.106567015871406" lon="-9.781736992299557">
        <ele>12.15</ele>
        <time>2026-06-29T09:45:13Z</time>
      </trkpt>
      <trkpt lat="52.106595011427999" lon="-9.781682007014751">
        <ele>12.630000000000001</ele>
        <time>2026-06-29T09:45:14Z</time>
      </trkpt>
      <trkpt lat="52.106695007532835" lon="-9.781638002023101">
        <ele>12.630000000000001</ele>
        <time>2026-06-29T09:45:15Z</time>
      </trkpt>
      <trkpt lat="52.106780000030994" lon="-9.781625010073185">
        <ele>12.630000000000001</ele>
        <time>2026-06-29T09:45:16Z</time>
      </trkpt>
      <trkpt lat="52.106873039156199" lon="-9.781610006466508">
        <ele>12.15</ele>
        <time>2026-06-29T09:45:17Z</time>
      </trkpt>
      <trkpt lat="52.107509979978204" lon="-9.781341031193733">
        <ele>11.67</ele>
        <time>2026-06-29T09:45:23Z</time>
      </trkpt>
      <trkpt lat="52.107592960819602" lon="-9.7812270373106">
        <ele>12.15</ele>
        <time>2026-06-29T09:45:24Z</time>
      </trkpt>
      <trkpt lat="52.107674013823271" lon="-9.781088987365365">
        <ele>12.630000000000001</ele>
        <time>2026-06-29T09:45:25Z</time>
      </trkpt>
      <trkpt lat="52.107752971351147" lon="-9.780938029289246">
        <ele>13.119999999999999</ele>
        <time>2026-06-29T09:45:26Z</time>
      </trkpt>
      <trkpt lat="52.107794964686036" lon="-9.780743988230825">
        <ele>13.119999999999999</ele>
        <time>2026-06-29T09:45:27Z</time>
      </trkpt>
      <trkpt lat="52.107838969677687" lon="-9.780542990192771">
        <ele>13.6</ele>
        <time>2026-06-29T09:45:28Z</time>
      </trkpt>
      <trkpt lat="52.107882974669337" lon="-9.780339980497956">
        <ele>14.08</ele>
        <time>2026-06-29T09:45:29Z</time>
      </trkpt>
      <trkpt lat="52.108420003205538" lon="-9.778261017054319">
        <ele>18.879999999999999</ele>
        <time>2026-06-29T09:45:39Z</time>
      </trkpt>
      <trkpt lat="52.109399009495974" lon="-9.77613695897162">
        <ele>19.359999999999999</ele>
        <time>2026-06-29T09:45:50Z</time>
      </trkpt>
      <trkpt lat="52.110344991087914" lon="-9.774122033268213">
        <ele>26.57</ele>
        <time>2026-06-29T09:46:01Z</time>
      </trkpt>
      <trkpt lat="52.110429983586073" lon="-9.773947019129992">
        <ele>26.57</ele>
        <time>2026-06-29T09:46:02Z</time>
      </trkpt>
      <trkpt lat="52.111693974584341" lon="-9.771838970482349">
        <ele>24.649999999999999</ele>
        <time>2026-06-29T09:46:14Z</time>
      </trkpt>
      <trkpt lat="52.112865010276437" lon="-9.770061001181603">
        <ele>22.25</ele>
        <time>2026-06-29T09:46:25Z</time>
      </trkpt>
      <trkpt lat="52.114280965179205" lon="-9.768222011625767">
        <ele>17.920000000000002</ele>
        <time>2026-06-29T09:46:37Z</time>
      </trkpt>
      <trkpt lat="52.115362985059619" lon="-9.766500033438206">
        <ele>21.289999999999999</ele>
        <time>2026-06-29T09:46:45Z</time>
      </trkpt>
      <trkpt lat="52.116449028253555" lon="-9.765453971922398">
        <ele>21.289999999999999</ele>
        <time>2026-06-29T09:46:51Z</time>
      </trkpt>
      <trkpt lat="52.118146028369665" lon="-9.764678981155157">
        <ele>19.359999999999999</ele>
        <time>2026-06-29T09:47:00Z</time>
      </trkpt>
      <trkpt lat="52.120544007048011" lon="-9.763520015403628">
        <ele>20.809999999999999</ele>
        <time>2026-06-29T09:47:13Z</time>
      </trkpt>
      <trkpt lat="52.122169006615877" lon="-9.762846026569605">
        <ele>20.809999999999999</ele>
        <time>2026-06-29T09:47:22Z</time>
      </trkpt>
      <trkpt lat="52.124447040259838" lon="-9.761773981153965">
        <ele>24.649999999999999</ele>
        <time>2026-06-29T09:47:34Z</time>
      </trkpt>
      <trkpt lat="52.126183016225696" lon="-9.760697996243835">
        <ele>25.129999999999999</ele>
        <time>2026-06-29T09:47:43Z</time>
      </trkpt>
      <trkpt lat="52.127386992797256" lon="-9.759396035224199">
        <ele>28.02</ele>
        <time>2026-06-29T09:47:49Z</time>
      </trkpt>
      <trkpt lat="52.128386031836271" lon="-9.757505999878049">
        <ele>32.340000000000003</ele>
        <time>2026-06-29T09:47:56Z</time>
      </trkpt>
      <trkpt lat="52.129972977563739" lon="-9.75396397523582">
        <ele>39.549999999999997</ele>
        <time>2026-06-29T09:48:08Z</time>
      </trkpt>
      <trkpt lat="52.1313910279423" lon="-9.751434987410903">
        <ele>46.280000000000001</ele>
        <time>2026-06-29T09:48:17Z</time>
      </trkpt>
      <trkpt lat="52.133482983335853" lon="-9.748990992084146">
        <ele>61.18</ele>
        <time>2026-06-29T09:48:28Z</time>
      </trkpt>
      <trkpt lat="52.135374024510384" lon="-9.746712036430836">
        <ele>74.159999999999997</ele>
        <time>2026-06-29T09:48:38Z</time>
      </trkpt>
      <trkpt lat="52.13656903244555" lon="-9.744215989485383">
        <ele>85.209999999999994</ele>
        <time>2026-06-29T09:48:46Z</time>
      </trkpt>
      <trkpt lat="52.137569999322295" lon="-9.740660972893238">
        <ele>95.310000000000002</ele>
        <time>2026-06-29T09:48:56Z</time>
      </trkpt>
      <trkpt lat="52.138948990032077" lon="-9.735578019171953">
        <ele>87.620000000000005</ele>
        <time>2026-06-29T09:49:10Z</time>
      </trkpt>
      <trkpt lat="52.140085995197296" lon="-9.731253040954471">
        <ele>70.790000000000006</ele>
        <time>2026-06-29T09:49:22Z</time>
      </trkpt>
      <trkpt lat="52.140927035361528" lon="-9.728058027103543">
        <ele>58.780000000000001</ele>
        <time>2026-06-29T09:49:32Z</time>
      </trkpt>
      <trkpt lat="52.141559030860662" lon="-9.725676979869604">
        <ele>53.969999999999999</ele>
        <time>2026-06-29T09:49:41Z</time>
      </trkpt>
      <trkpt lat="52.141894977539778" lon="-9.72463502548635">
        <ele>53.009999999999998</ele>
        <time>2026-06-29T09:49:48Z</time>
      </trkpt>
      <trkpt lat="52.141923978924751" lon="-9.724580962210894">
        <ele>53.009999999999998</ele>
        <time>2026-06-29T09:49:49Z</time>
      </trkpt>
      <trkpt lat="52.141950968652964" lon="-9.724531006067991">
        <ele>53.009999999999998</ele>
        <time>2026-06-29T09:49:50Z</time>
      </trkpt>
      <trkpt lat="52.142131011933088" lon="-9.724444001913071">
        <ele>52.530000000000001</ele>
        <time>2026-06-29T09:49:52Z</time>
      </trkpt>
      <trkpt lat="52.142179040238261" lon="-9.724296983331442">
        <ele>52.049999999999997</ele>
        <time>2026-06-29T09:49:53Z</time>
      </trkpt>
      <trkpt lat="52.142154984176159" lon="-9.724152982234955">
        <ele>52.049999999999997</ele>
        <time>2026-06-29T09:49:54Z</time>
      </trkpt>
      <trkpt lat="52.142109973356128" lon="-9.724039994180203">
        <ele>52.049999999999997</ele>
        <time>2026-06-29T09:49:55Z</time>
      </trkpt>
      <trkpt lat="52.142101004719734" lon="-9.72386104054749">
        <ele>52.049999999999997</ele>
        <time>2026-06-29T09:49:56Z</time>
      </trkpt>
      <trkpt lat="52.142101004719734" lon="-9.723678985610604">
        <ele>52.049999999999997</ele>
        <time>2026-06-29T09:49:57Z</time>
      </trkpt>
      <trkpt lat="52.142115002498031" lon="-9.723479999229312">
        <ele>52.049999999999997</ele>
        <time>2026-06-29T09:49:58Z</time>
      </trkpt>
      <trkpt lat="52.142141992226243" lon="-9.723267015069723">
        <ele>51.57</ele>
        <time>2026-06-29T09:49:59Z</time>
      </trkpt>
      <trkpt lat="52.142304014414549" lon="-9.721549982205033">
        <ele>48.200000000000003</ele>
        <time>2026-06-29T09:50:07Z</time>
      </trkpt>
      <trkpt lat="52.142383977770805" lon="-9.721132982522249">
        <ele>47.719999999999999</ele>
        <time>2026-06-29T09:50:09Z</time>
      </trkpt>
      <trkpt lat="52.142436029389501" lon="-9.720931984484196">
        <ele>47.240000000000002</ele>
        <time>2026-06-29T09:50:10Z</time>
      </trkpt>
      <trkpt lat="52.142620012164116" lon="-9.720349023118615">
        <ele>44.359999999999999</ele>
        <time>2026-06-29T09:50:13Z</time>
      </trkpt>
      <trkpt lat="52.142687989398837" lon="-9.720162022858858">
        <ele>43.399999999999999</ele>
        <time>2026-06-29T09:50:14Z</time>
      </trkpt>
      <trkpt lat="52.143128039315343" lon="-9.719443023204804">
        <ele>42.439999999999998</ele>
        <time>2026-06-29T09:50:19Z</time>
      </trkpt>
      <trkpt lat="52.143298024311662" lon="-9.719263985753059">
        <ele>40.990000000000002</ele>
        <time>2026-06-29T09:50:21Z</time>
      </trkpt>
      <trkpt lat="52.143442025408149" lon="-9.719123002141714">
        <ele>39.549999999999997</ele>
        <time>2026-06-29T09:50:23Z</time>
      </trkpt>
      <trkpt lat="52.14372499845922" lon="-9.719109004363418">
        <ele>37.149999999999999</ele>
        <time>2026-06-29T09:50:26Z</time>
      </trkpt>
      <trkpt lat="52.143837986513972" lon="-9.719103975221515">
        <ele>36.189999999999998</ele>
        <time>2026-06-29T09:50:27Z</time>
      </trkpt>
      <trkpt lat="52.143952986225486" lon="-9.719101963564754">
        <ele>35.229999999999997</ele>
        <time>2026-06-29T09:50:28Z</time>
      </trkpt>
      <trkpt lat="52.144065974280238" lon="-9.719101963564754">
        <ele>34.259999999999998</ele>
        <time>2026-06-29T09:50:29Z</time>
      </trkpt>
      <trkpt lat="52.144162030890584" lon="-9.719083020463586">
        <ele>32.82</ele>
        <time>2026-06-29T09:50:30Z</time>
      </trkpt>
      <trkpt lat="52.144243000075221" lon="-9.719010014086962">
        <ele>31.859999999999999</ele>
        <time>2026-06-29T09:50:31Z</time>
      </trkpt>
      <trkpt lat="52.144319023936987" lon="-9.718942958861589">
        <ele>30.420000000000002</ele>
        <time>2026-06-29T09:50:32Z</time>
      </trkpt>
      <trkpt lat="52.144365040585399" lon="-9.718853021040559">
        <ele>29.460000000000001</ele>
        <time>2026-06-29T09:50:33Z</time>
      </trkpt>
      <trkpt lat="52.144420025870204" lon="-9.718723017722368">
        <ele>28.98</ele>
        <time>2026-06-29T09:50:34Z</time>
      </trkpt>
      <trkpt lat="52.144480040296912" lon="-9.718581028282642">
        <ele>28.5</ele>
        <time>2026-06-29T09:50:35Z</time>
      </trkpt>
      <trkpt lat="52.144779022783041" lon="-9.717740993946791">
        <ele>30.420000000000002</ele>
        <time>2026-06-29T09:50:41Z</time>
      </trkpt>
      <trkpt lat="52.144837025552988" lon="-9.717637980356813">
        <ele>30.420000000000002</ele>
        <time>2026-06-29T09:50:42Z</time>
      </trkpt>
      <trkpt lat="52.144894022494555" lon="-9.717534966766834">
        <ele>30.899999999999999</ele>
        <time>2026-06-29T09:50:43Z</time>
      </trkpt>
      <trkpt lat="52.145031988620758" lon="-9.717289041727781">
        <ele>32.82</ele>
        <time>2026-06-29T09:50:46Z</time>
      </trkpt>
      <trkpt lat="52.145107006654143" lon="-9.717305973172188">
        <ele>33.299999999999997</ele>
        <time>2026-06-29T09:50:47Z</time>
      </trkpt>
      <trkpt lat="52.145148999989033" lon="-9.717369005084038">
        <ele>33.780000000000001</ele>
        <time>2026-06-29T09:50:48Z</time>
      </trkpt>
      <trkpt lat="52.145199961960316" lon="-9.717448968440294">
        <ele>33.780000000000001</ele>
        <time>2026-06-29T09:50:49Z</time>
      </trkpt>
      <trkpt lat="52.145256958901882" lon="-9.717536978423595">
        <ele>34.259999999999998</ele>
        <time>2026-06-29T09:50:50Z</time>
      </trkpt>
      <trkpt lat="52.14531697332859" lon="-9.717607973143458">
        <ele>34.259999999999998</ele>
        <time>2026-06-29T09:50:51Z</time>
      </trkpt>
      <trkpt lat="52.145394003018737" lon="-9.717638986185193">
        <ele>34.259999999999998</ele>
        <time>2026-06-29T09:50:52Z</time>
      </trkpt>
      <trkpt lat="52.145475978031754" lon="-9.717571008950472">
        <ele>34.259999999999998</ele>
        <time>2026-06-29T09:50:53Z</time>
      </trkpt>
      <trkpt lat="52.145555019378662" lon="-9.717490039765835">
        <ele>34.259999999999998</ele>
        <time>2026-06-29T09:50:54Z</time>
      </trkpt>
      <trkpt lat="52.145643029361963" lon="-9.717400018125773">
        <ele>34.259999999999998</ele>
        <time>2026-06-29T09:50:55Z</time>
      </trkpt>
      <trkpt lat="52.146247029304504" lon="-9.716789983212948">
        <ele>32.340000000000003</ele>
        <time>2026-06-29T09:51:01Z</time>
      </trkpt>
      <trkpt lat="52.146364962682128" lon="-9.716717982664704">
        <ele>31.859999999999999</ele>
        <time>2026-06-29T09:51:02Z</time>
      </trkpt>
      <trkpt lat="52.146485997363925" lon="-9.7166439704597">
        <ele>31.379999999999999</ele>
        <time>2026-06-29T09:51:03Z</time>
      </trkpt>
      <trkpt lat="52.147856019437313" lon="-9.716391004621983">
        <ele>28.02</ele>
        <time>2026-06-29T09:51:13Z</time>
      </trkpt>
      <trkpt lat="52.148417020216584" lon="-9.716613041236997">
        <ele>26.57</ele>
        <time>2026-06-29T09:51:17Z</time>
      </trkpt>
      <trkpt lat="52.149884020909667" lon="-9.717625994235277">
        <ele>24.170000000000002</ele>
        <time>2026-06-29T09:51:28Z</time>
      </trkpt>
      <trkpt lat="52.150866966694593" lon="-9.717849036678672">
        <ele>22.73</ele>
        <time>2026-06-29T09:51:35Z</time>
      </trkpt>
      <trkpt lat="52.151023037731647" lon="-9.717801008373499">
        <ele>22.73</ele>
        <time>2026-06-29T09:51:36Z</time>
      </trkpt>
      <trkpt lat="52.15118195861578" lon="-9.717751974239945">
        <ele>23.210000000000001</ele>
        <time>2026-06-29T09:51:37Z</time>
      </trkpt>
      <trkpt lat="52.151342974975705" lon="-9.717702018097043">
        <ele>23.210000000000001</ele>
        <time>2026-06-29T09:51:38Z</time>
      </trkpt>
      <trkpt lat="52.151495022699237" lon="-9.717607973143458">
        <ele>23.210000000000001</ele>
        <time>2026-06-29T09:51:39Z</time>
      </trkpt>
      <trkpt lat="52.151644974946976" lon="-9.717493979260325">
        <ele>23.210000000000001</ele>
        <time>2026-06-29T09:51:40Z</time>
      </trkpt>
      <trkpt lat="52.151796016842127" lon="-9.717378979548812">
        <ele>23.210000000000001</ele>
        <time>2026-06-29T09:51:41Z</time>
      </trkpt>
      <trkpt lat="52.151940017938614" lon="-9.717248976230621">
        <ele>22.73</ele>
        <time>2026-06-29T09:51:42Z</time>
      </trkpt>
      <trkpt lat="52.153665013611317" lon="-9.715542001649737">
        <ele>19.84</ele>
        <time>2026-06-29T09:51:55Z</time>
      </trkpt>
      <trkpt lat="52.154377978295088" lon="-9.714659973978996">
        <ele>18.879999999999999</ele>
        <time>2026-06-29T09:52:01Z</time>
      </trkpt>
      <trkpt lat="52.154460959136486" lon="-9.714467022567987">
        <ele>18.879999999999999</ele>
        <time>2026-06-29T09:52:02Z</time>
      </trkpt>
      <trkpt lat="52.154518961906433" lon="-9.71423601731658">
        <ele>18.879999999999999</ele>
        <time>2026-06-29T09:52:03Z</time>
      </trkpt>
      <trkpt lat="52.154578976333141" lon="-9.71400098875165">
        <ele>18.879999999999999</ele>
        <time>2026-06-29T09:52:04Z</time>
      </trkpt>
      <trkpt lat="52.15463999658823" lon="-9.713762020692229">
        <ele>18.879999999999999</ele>
        <time>2026-06-29T09:52:05Z</time>
      </trkpt>
      <trkpt lat="52.155225975438952" lon="-9.711884977295995">
        <ele>18.879999999999999</ele>
        <time>2026-06-29T09:52:14Z</time>
      </trkpt>
      <trkpt lat="52.156167011708021" lon="-9.710169034078717">
        <ele>18.399999999999999</ele>
        <time>2026-06-29T09:52:23Z</time>
      </trkpt>
      <trkpt lat="52.157069994136691" lon="-9.708745032548904">
        <ele>18.399999999999999</ele>
        <time>2026-06-29T09:52:29Z</time>
      </trkpt>
      <trkpt lat="52.158415960147977" lon="-9.706649975851178">
        <ele>16</ele>
        <time>2026-06-29T09:52:38Z</time>
      </trkpt>
      <trkpt lat="52.159721022471786" lon="-9.704620968550444">
        <ele>16</ele>
        <time>2026-06-29T09:52:46Z</time>
      </trkpt>
      <trkpt lat="52.160174986347556" lon="-9.704030966386199">
        <ele>15.52</ele>
        <time>2026-06-29T09:52:49Z</time>
      </trkpt>
      <trkpt lat="52.160352012142539" lon="-9.703909009695053">
        <ele>15.52</ele>
        <time>2026-06-29T09:52:50Z</time>
      </trkpt>
      <trkpt lat="52.161948010325432" lon="-9.702918017283082">
        <ele>14.08</ele>
        <time>2026-06-29T09:52:59Z</time>
      </trkpt>
      <trkpt lat="52.163305040448904" lon="-9.702074965462089">
        <ele>15.52</ele>
        <time>2026-06-29T09:53:08Z</time>
      </trkpt>
      <trkpt lat="52.163420962169766" lon="-9.701961977407336">
        <ele>15.52</ele>
        <time>2026-06-29T09:53:09Z</time>
      </trkpt>
      <trkpt lat="52.163514001294971" lon="-9.701798027381301">
        <ele>16</ele>
        <time>2026-06-29T09:53:10Z</time>
      </trkpt>
      <trkpt lat="52.163609974086285" lon="-9.70162795856595">
        <ele>16</ele>
        <time>2026-06-29T09:53:11Z</time>
      </trkpt>
      <trkpt lat="52.163693038746715" lon="-9.701438024640083">
        <ele>16</ele>
        <time>2026-06-29T09:53:12Z</time>
      </trkpt>
      <trkpt lat="52.163759004324675" lon="-9.701210958883166">
        <ele>16.48</ele>
        <time>2026-06-29T09:53:13Z</time>
      </trkpt>
      <trkpt lat="52.163827987387776" lon="-9.700977019965649">
        <ele>16.48</ele>
        <time>2026-06-29T09:53:14Z</time>
      </trkpt>
      <trkpt lat="52.163884984329343" lon="-9.700742997229099">
        <ele>16.48</ele>
        <time>2026-06-29T09:53:15Z</time>
      </trkpt>
      <trkpt lat="52.163907028734684" lon="-9.700474021956325">
        <ele>16.960000000000001</ele>
        <time>2026-06-29T09:53:16Z</time>
      </trkpt>
      <trkpt lat="52.163929995149374" lon="-9.700189959257841">
        <ele>16.960000000000001</ele>
        <time>2026-06-29T09:53:17Z</time>
      </trkpt>
      <trkpt lat="52.163953967392445" lon="-9.699902040883899">
        <ele>17.440000000000001</ele>
        <time>2026-06-29T09:53:18Z</time>
      </trkpt>
      <trkpt lat="52.163888001814485" lon="-9.698460018262267">
        <ele>18.399999999999999</ele>
        <time>2026-06-29T09:53:23Z</time>
      </trkpt>
      <trkpt lat="52.163837961852551" lon="-9.698188025504351">
        <ele>18.399999999999999</ele>
        <time>2026-06-29T09:53:24Z</time>
      </trkpt>
      <trkpt lat="52.16344803571701" lon="-9.696337971836329">
        <ele>16.960000000000001</ele>
        <time>2026-06-29T09:53:32Z</time>
      </trkpt>
      <trkpt lat="52.162795001640916" lon="-9.694045018404722">
        <ele>20.809999999999999</ele>
        <time>2026-06-29T09:53:42Z</time>
      </trkpt>
      <trkpt lat="52.161877015605569" lon="-9.69161200337112">
        <ele>25.129999999999999</ele>
        <time>2026-06-29T09:53:51Z</time>
      </trkpt>
      <trkpt lat="52.1617959626019" lon="-9.691304974257946">
        <ele>25.609999999999999</ele>
        <time>2026-06-29T09:53:52Z</time>
      </trkpt>
      <trkpt lat="52.161453980952501" lon="-9.689284013584256">
        <ele>26.09</ele>
        <time>2026-06-29T09:53:58Z</time>
      </trkpt>
      <trkpt lat="52.161302017048001" lon="-9.688656041398644">
        <ele>26.57</ele>
        <time>2026-06-29T09:54:00Z</time>
      </trkpt>
      <trkpt lat="52.161245020106435" lon="-9.688341971486807">
        <ele>26.57</ele>
        <time>2026-06-29T09:54:01Z</time>
      </trkpt>
      <trkpt lat="52.161136977374554" lon="-9.687747023999691">
        <ele>26.57</ele>
        <time>2026-06-29T09:54:03Z</time>
      </trkpt>
      <trkpt lat="52.161022983491421" lon="-9.687491962686181">
        <ele>26.57</ele>
        <time>2026-06-29T09:54:04Z</time>
      </trkpt>
      <trkpt lat="52.160895997658372" lon="-9.687217036262155">
        <ele>27.050000000000001</ele>
        <time>2026-06-29T09:54:05Z</time>
      </trkpt>
      <trkpt lat="52.159792017191648" lon="-9.684945037588477">
        <ele>26.57</ele>
        <time>2026-06-29T09:54:13Z</time>
      </trkpt>
      <trkpt lat="52.159460010007024" lon="-9.684298038482666">
        <ele>26.09</ele>
        <time>2026-06-29T09:54:16Z</time>
      </trkpt>
      <trkpt lat="52.159397983923554" lon="-9.68405001796782">
        <ele>26.57</ele>
        <time>2026-06-29T09:54:17Z</time>
      </trkpt>
      <trkpt lat="52.159355990588665" lon="-9.683805014938116">
        <ele>26.57</ele>
        <time>2026-06-29T09:54:18Z</time>
      </trkpt>
      <trkpt lat="52.159025995060802" lon="-9.680931027978659">
        <ele>30.420000000000002</ele>
        <time>2026-06-29T09:54:28Z</time>
      </trkpt>
      <trkpt lat="52.158716032281518" lon="-9.67792896553874">
        <ele>30.899999999999999</ele>
        <time>2026-06-29T09:54:38Z</time>
      </trkpt>
      <trkpt lat="52.158433981239796" lon="-9.675183976069093">
        <ele>35.229999999999997</ele>
        <time>2026-06-29T09:54:47Z</time>
      </trkpt>
      <trkpt lat="52.158391987904906" lon="-9.674634039402008">
        <ele>35.229999999999997</ele>
        <time>2026-06-29T09:54:49Z</time>
      </trkpt>
      <trkpt lat="52.158410008996725" lon="-9.674354000017047">
        <ele>34.740000000000002</ele>
        <time>2026-06-29T09:54:50Z</time>
      </trkpt>
      <trkpt lat="52.15844202786684" lon="-9.674063986167312">
        <ele>34.740000000000002</ele>
        <time>2026-06-29T09:54:51Z</time>
      </trkpt>
      <trkpt lat="52.158847041428089" lon="-9.671081034466624">
        <ele>30.899999999999999</ele>
        <time>2026-06-29T09:55:00Z</time>
      </trkpt>
      <trkpt lat="52.159456992521882" lon="-9.666743986308575">
        <ele>25.129999999999999</ele>
        <time>2026-06-29T09:55:14Z</time>
      </trkpt>
      <trkpt lat="52.160044983029366" lon="-9.662634003907442">
        <ele>28.02</ele>
        <time>2026-06-29T09:55:27Z</time>
      </trkpt>
      <trkpt lat="52.160460976883769" lon="-9.65953697450459">
        <ele>26.09</ele>
        <time>2026-06-29T09:55:37Z</time>
      </trkpt>
      <trkpt lat="52.160938996821642" lon="-9.655993022024632">
        <ele>25.609999999999999</ele>
        <time>2026-06-29T09:55:49Z</time>
      </trkpt>
      <trkpt lat="52.161516007035971" lon="-9.651760999113321">
        <ele>25.129999999999999</ele>
        <time>2026-06-29T09:56:03Z</time>
      </trkpt>
      <trkpt lat="52.162027973681688" lon="-9.648205982521176">
        <ele>24.170000000000002</ele>
        <time>2026-06-29T09:56:15Z</time>
      </trkpt>
      <trkpt lat="52.162638008594513" lon="-9.643989969044924">
        <ele>25.609999999999999</ele>
        <time>2026-06-29T09:56:28Z</time>
      </trkpt>
      <trkpt lat="52.163292970508337" lon="-9.639521995559335">
        <ele>26.09</ele>
        <time>2026-06-29T09:56:42Z</time>
      </trkpt>
      <trkpt lat="52.16377199627459" lon="-9.636101005598903">
        <ele>21.77</ele>
        <time>2026-06-29T09:56:53Z</time>
      </trkpt>
      <trkpt lat="52.163822958245873" lon="-9.63551796041429">
        <ele>22.73</ele>
        <time>2026-06-29T09:56:55Z</time>
      </trkpt>
      <trkpt lat="52.163832010701299" lon="-9.63521596044302">
        <ele>23.210000000000001</ele>
        <time>2026-06-29T09:56:56Z</time>
      </trkpt>
      <trkpt lat="52.163721034303308" lon="-9.63201398961246">
        <ele>26.09</ele>
        <time>2026-06-29T09:57:06Z</time>
      </trkpt>
      <trkpt lat="52.16361902654171" lon="-9.6292610373348">
        <ele>28.02</ele>
        <time>2026-06-29T09:57:16Z</time>
      </trkpt>
      <trkpt lat="52.163632018491626" lon="-9.626313038170338">
        <ele>30.420000000000002</ele>
        <time>2026-06-29T09:57:26Z</time>
      </trkpt>
      <trkpt lat="52.163650961592793" lon="-9.623510967940092">
        <ele>30.420000000000002</ele>
        <time>2026-06-29T09:57:35Z</time>
      </trkpt>
      <trkpt lat="52.16366303153336" lon="-9.620681991800666">
        <ele>30.899999999999999</ele>
        <time>2026-06-29T09:57:45Z</time>
      </trkpt>
      <trkpt lat="52.163665965199471" lon="-9.617804987356067">
        <ele>31.859999999999999</ele>
        <time>2026-06-29T09:57:55Z</time>
      </trkpt>
      <trkpt lat="52.163687003776431" lon="-9.613769017159939">
        <ele>30.420000000000002</ele>
        <time>2026-06-29T09:58:08Z</time>
      </trkpt>
      <trkpt lat="52.163720028474927" lon="-9.608850013464689">
        <ele>40.509999999999998</ele>
        <time>2026-06-29T09:58:25Z</time>
      </trkpt>
      <trkpt lat="52.163751963526011" lon="-9.606556976214051">
        <ele>46.280000000000001</ele>
        <time>2026-06-29T09:58:34Z</time>
      </trkpt>
      <trkpt lat="52.163783982396126" lon="-9.60638196207583">
        <ele>46.280000000000001</ele>
        <time>2026-06-29T09:58:35Z</time>
      </trkpt>
      <trkpt lat="52.163846008479595" lon="-9.606249025091529">
        <ele>46.280000000000001</ele>
        <time>2026-06-29T09:58:36Z</time>
      </trkpt>
      <trkpt lat="52.163922032341361" lon="-9.60616403259337">
        <ele>45.799999999999997</ele>
        <time>2026-06-29T09:58:37Z</time>
      </trkpt>
      <trkpt lat="52.164003001525998" lon="-9.606136959046125">
        <ele>45.32</ele>
        <time>2026-06-29T09:58:38Z</time>
      </trkpt>
      <trkpt lat="52.164096962660551" lon="-9.606155985966325">
        <ele>44.840000000000003</ele>
        <time>2026-06-29T09:58:39Z</time>
      </trkpt>
      <trkpt lat="52.164188995957375" lon="-9.606197979301214">
        <ele>44.359999999999999</ele>
        <time>2026-06-29T09:58:40Z</time>
      </trkpt>
      <trkpt lat="52.164278011769056" lon="-9.606262017041445">
        <ele>43.880000000000003</ele>
        <time>2026-06-29T09:58:41Z</time>
      </trkpt>
      <trkpt lat="52.164370967075229" lon="-9.606329994276166">
        <ele>43.399999999999999</ele>
        <time>2026-06-29T09:58:42Z</time>
      </trkpt>
      <trkpt lat="52.165307980030775" lon="-9.606979005038738">
        <ele>38.109999999999999</ele>
        <time>2026-06-29T09:58:51Z</time>
      </trkpt>
      <trkpt lat="52.165400013327599" lon="-9.607017980888486">
        <ele>37.630000000000003</ele>
        <time>2026-06-29T09:58:52Z</time>
      </trkpt>
      <trkpt lat="52.165491040796041" lon="-9.6069619897753">
        <ele>37.149999999999999</ele>
        <time>2026-06-29T09:58:53Z</time>
      </trkpt>
      <trkpt lat="52.165582990273833" lon="-9.606905998662114">
        <ele>36.189999999999998</ele>
        <time>2026-06-29T09:58:54Z</time>
      </trkpt>
      <trkpt lat="52.165673011913896" lon="-9.606841960921884">
        <ele>35.710000000000001</ele>
        <time>2026-06-29T09:58:55Z</time>
      </trkpt>
      <trkpt lat="52.165764961391687" lon="-9.606712963432074">
        <ele>35.229999999999997</ele>
        <time>2026-06-29T09:58:56Z</time>
      </trkpt>
      <trkpt lat="52.165866969153285" lon="-9.606568962335587">
        <ele>34.740000000000002</ele>
        <time>2026-06-29T09:58:57Z</time>
      </trkpt>
      <trkpt lat="52.166860979050398" lon="-9.60515895858407">
        <ele>32.340000000000003</ele>
        <time>2026-06-29T09:59:05Z</time>
      </trkpt>
      <trkpt lat="52.167934030294418" lon="-9.603637978434563">
        <ele>31.379999999999999</ele>
        <time>2026-06-29T09:59:15Z</time>
      </trkpt>
      <trkpt lat="52.168700974434614" lon="-9.602052038535476">
        <ele>30.420000000000002</ele>
        <time>2026-06-29T09:59:24Z</time>
      </trkpt>
      <trkpt lat="52.169502032920718" lon="-9.6002790145576">
        <ele>27.530000000000001</ele>
        <time>2026-06-29T09:59:36Z</time>
      </trkpt>
      <trkpt lat="52.169863041490316" lon="-9.5994639582932">
        <ele>28.02</ele>
        <time>2026-06-29T09:59:42Z</time>
      </trkpt>
      <trkpt lat="52.170465029776096" lon="-9.598440025001764">
        <ele>27.050000000000001</ele>
        <time>2026-06-29T09:59:51Z</time>
      </trkpt>
      <trkpt lat="52.170489002019167" lon="-9.598359977826476">
        <ele>26.57</ele>
        <time>2026-06-29T09:59:52Z</time>
      </trkpt>
      <trkpt lat="52.170463018119335" lon="-9.598255958408117">
        <ele>26.57</ele>
        <time>2026-06-29T09:59:53Z</time>
      </trkpt>
      <trkpt lat="52.1704320050776" lon="-9.598129978403449">
        <ele>27.050000000000001</ele>
        <time>2026-06-29T09:59:54Z</time>
      </trkpt>
      <trkpt lat="52.170398980379105" lon="-9.597998969256878">
        <ele>27.050000000000001</ele>
        <time>2026-06-29T09:59:55Z</time>
      </trkpt>
      <trkpt lat="52.170361010357738" lon="-9.597848011180759">
        <ele>27.530000000000001</ele>
        <time>2026-06-29T09:59:56Z</time>
      </trkpt>
      <trkpt lat="52.170321028679609" lon="-9.597685988992453">
        <ele>28.02</ele>
        <time>2026-06-29T09:59:57Z</time>
      </trkpt>
      <trkpt lat="52.170060016214848" lon="-9.595922017470002">
        <ele>32.82</ele>
        <time>2026-06-29T10:00:07Z</time>
      </trkpt>
      <trkpt lat="52.170199993997812" lon="-9.594356026500464">
        <ele>34.740000000000002</ele>
        <time>2026-06-29T10:00:15Z</time>
      </trkpt>
      <trkpt lat="52.170182978734374" lon="-9.594173971563578">
        <ele>35.229999999999997</ele>
        <time>2026-06-29T10:00:16Z</time>
      </trkpt>
      <trkpt lat="52.170089017599821" lon="-9.592803027480841">
        <ele>36.189999999999998</ele>
        <time>2026-06-29T10:00:25Z</time>
      </trkpt>
      <trkpt lat="52.170058004558086" lon="-9.591198982670903">
        <ele>36.189999999999998</ele>
        <time>2026-06-29T10:00:32Z</time>
      </trkpt>
      <trkpt lat="52.170048030093312" lon="-9.590122997760773">
        <ele>33.780000000000001</ele>
        <time>2026-06-29T10:00:36Z</time>
      </trkpt>
      <trkpt lat="52.170043000951409" lon="-9.589642966166139">
        <ele>32.340000000000003</ele>
        <time>2026-06-29T10:00:38Z</time>
      </trkpt>
      <trkpt lat="52.170000001788139" lon="-9.587273988872767">
        <ele>28.02</ele>
        <time>2026-06-29T10:00:48Z</time>
      </trkpt>
      <trkpt lat="52.169932024553418" lon="-9.584093978628516">
        <ele>26.09</ele>
        <time>2026-06-29T10:01:00Z</time>
      </trkpt>
      <trkpt lat="52.169871004298329" lon="-9.5811159722507">
        <ele>23.690000000000001</ele>
        <time>2026-06-29T10:01:10Z</time>
      </trkpt>
      <trkpt lat="52.169776037335396" lon="-9.575635967776179">
        <ele>28.5</ele>
        <time>2026-06-29T10:01:29Z</time>
      </trkpt>
      <trkpt lat="52.169686015695333" lon="-9.571455996483564">
        <ele>35.710000000000001</ele>
        <time>2026-06-29T10:01:44Z</time>
      </trkpt>
      <trkpt lat="52.169642010703683" lon="-9.568694997578859">
        <ele>42.920000000000002</ele>
        <time>2026-06-29T10:01:55Z</time>
      </trkpt>
      <trkpt lat="52.169601023197174" lon="-9.566598013043404">
        <ele>49.649999999999999</ele>
        <time>2026-06-29T10:02:04Z</time>
      </trkpt>
      <trkpt lat="52.169594988226891" lon="-9.566355021670461">
        <ele>50.130000000000003</ele>
        <time>2026-06-29T10:02:05Z</time>
      </trkpt>
      <trkpt lat="52.169524999335408" lon="-9.563083983957768">
        <ele>57.340000000000003</ele>
        <time>2026-06-29T10:02:19Z</time>
      </trkpt>
      <trkpt lat="52.169509995728731" lon="-9.560562958940864">
        <ele>55.890000000000001</ele>
        <time>2026-06-29T10:02:29Z</time>
      </trkpt>
      <trkpt lat="52.169598005712032" lon="-9.558437978848815">
        <ele>53.969999999999999</ele>
        <time>2026-06-29T10:02:38Z</time>
      </trkpt>
      <trkpt lat="52.169847032055259" lon="-9.55617000348866">
        <ele>48.200000000000003</ele>
        <time>2026-06-29T10:02:46Z</time>
      </trkpt>
      <trkpt lat="52.17004400677979" lon="-9.554469985887408">
        <ele>44.359999999999999</ele>
        <time>2026-06-29T10:02:53Z</time>
      </trkpt>
      <trkpt lat="52.170349024236202" lon="-9.551893975585699">
        <ele>47.240000000000002</ele>
        <time>2026-06-29T10:03:05Z</time>
      </trkpt>
      <trkpt lat="52.170515991747379" lon="-9.550325972959399">
        <ele>45.799999999999997</ele>
        <time>2026-06-29T10:03:14Z</time>
      </trkpt>
      <trkpt lat="52.170552033931017" lon="-9.549964964389801">
        <ele>45.799999999999997</ele>
        <time>2026-06-29T10:03:20Z</time>
      </trkpt>
      <trkpt lat="52.170552033931017" lon="-9.549964964389801">
        <ele>46.280000000000001</ele>
        <time>2026-06-29T10:03:35Z</time>
      </trkpt>
      <trkpt lat="52.17056100256741" lon="-9.549876032397151">
        <ele>47.240000000000002</ele>
        <time>2026-06-29T10:03:40Z</time>
      </trkpt>
      <trkpt lat="52.170608025044203" lon="-9.549752986058593">
        <ele>47.240000000000002</ele>
        <time>2026-06-29T10:03:41Z</time>
      </trkpt>
      <trkpt lat="52.170633003115654" lon="-9.549765978008509">
        <ele>47.240000000000002</ele>
        <time>2026-06-29T10:03:42Z</time>
      </trkpt>
      <trkpt lat="52.170633003115654" lon="-9.549765978008509">
        <ele>47.719999999999999</ele>
        <time>2026-06-29T10:03:43Z</time>
      </trkpt>
      <trkpt lat="52.170707015320659" lon="-9.549803026020527">
        <ele>50.130000000000003</ele>
        <time>2026-06-29T10:03:52Z</time>
      </trkpt>
      <trkpt lat="52.170707015320659" lon="-9.549803026020527">
        <ele>50.130000000000003</ele>
        <time>2026-06-29T10:04:29Z</time>
      </trkpt>
      <trkpt lat="52.170707015320659" lon="-9.549803026020527">
        <ele>50.609999999999999</ele>
        <time>2026-06-29T10:05:11Z</time>
      </trkpt>
      <trkpt lat="52.170707015320659" lon="-9.549803026020527">
        <ele>51.090000000000003</ele>
        <time>2026-06-29T10:06:02Z</time>
      </trkpt>
      <trkpt lat="52.170707015320659" lon="-9.549803026020527">
        <ele>51.57</ele>
        <time>2026-06-29T10:06:52Z</time>
      </trkpt>
      <trkpt lat="52.170707015320659" lon="-9.549803026020527">
        <ele>54.93</ele>
        <time>2026-06-29T10:07:22Z</time>
      </trkpt>
      <trkpt lat="52.170807011425495" lon="-9.549852982163429">
        <ele>54.93</ele>
        <time>2026-06-29T10:07:47Z</time>
      </trkpt>
      <trkpt lat="52.17077599838376" lon="-9.549837978556752">
        <ele>54.93</ele>
        <time>2026-06-29T10:07:48Z</time>
      </trkpt>
      <trkpt lat="52.170719001442194" lon="-9.549808977171779">
        <ele>55.409999999999997</ele>
        <time>2026-06-29T10:07:49Z</time>
      </trkpt>
      <trkpt lat="52.170637026429176" lon="-9.54976798966527">
        <ele>55.409999999999997</ele>
        <time>2026-06-29T10:07:50Z</time>
      </trkpt>
      <trkpt lat="52.17054096981883" lon="-9.549723984673619">
        <ele>55.409999999999997</ele>
        <time>2026-06-29T10:07:51Z</time>
      </trkpt>
      <trkpt lat="52.170433010905981" lon="-9.549679979681969">
        <ele>55.409999999999997</ele>
        <time>2026-06-29T10:07:52Z</time>
      </trkpt>
      <trkpt lat="52.17032203450799" lon="-9.549635974690318">
        <ele>55.409999999999997</ele>
        <time>2026-06-29T10:07:53Z</time>
      </trkpt>
      <trkpt lat="52.168875988572836" lon="-9.549103975296021">
        <ele>60.700000000000003</ele>
        <time>2026-06-29T10:08:05Z</time>
      </trkpt>
      <trkpt lat="52.167768990620971" lon="-9.548196969553828">
        <ele>64.069999999999993</ele>
        <time>2026-06-29T10:08:14Z</time>
      </trkpt>
      <trkpt lat="52.166702980175614" lon="-9.547183010727167">
        <ele>71.269999999999996</ele>
        <time>2026-06-29T10:08:22Z</time>
      </trkpt>
      <trkpt lat="52.166561996564269" lon="-9.547045966610313">
        <ele>72.239999999999995</ele>
        <time>2026-06-29T10:08:23Z</time>
      </trkpt>
      <trkpt lat="52.165548037737608" lon="-9.546163016930223">
        <ele>78.969999999999999</ele>
        <time>2026-06-29T10:08:30Z</time>
      </trkpt>
      <trkpt lat="52.165350979194045" lon="-9.546085987240076">
        <ele>79.450000000000003</ele>
        <time>2026-06-29T10:08:31Z</time>
      </trkpt>
      <trkpt lat="52.165150986984372" lon="-9.546027984470129">
        <ele>80.409999999999997</ele>
        <time>2026-06-29T10:08:32Z</time>
      </trkpt>
      <trkpt lat="52.164956023916602" lon="-9.545970987528563">
        <ele>80.890000000000001</ele>
        <time>2026-06-29T10:08:33Z</time>
      </trkpt>
      <trkpt lat="52.164743961766362" lon="-9.545959001407027">
        <ele>81.849999999999994</ele>
        <time>2026-06-29T10:08:34Z</time>
      </trkpt>
      <trkpt lat="52.164515974000096" lon="-9.546005018055439">
        <ele>82.329999999999998</ele>
        <time>2026-06-29T10:08:35Z</time>
      </trkpt>
      <trkpt lat="52.164283962920308" lon="-9.546057991683483">
        <ele>82.329999999999998</ele>
        <time>2026-06-29T10:08:36Z</time>
      </trkpt>
      <trkpt lat="52.164063015952706" lon="-9.546159999445081">
        <ele>82.810000000000002</ele>
        <time>2026-06-29T10:08:37Z</time>
      </trkpt>
      <trkpt lat="52.163865035399795" lon="-9.546309029683471">
        <ele>82.329999999999998</ele>
        <time>2026-06-29T10:08:38Z</time>
      </trkpt>
      <trkpt lat="52.163670994341373" lon="-9.546467028558254">
        <ele>82.810000000000002</ele>
        <time>2026-06-29T10:08:39Z</time>
      </trkpt>
      <trkpt lat="52.163476031273603" lon="-9.546629972755909">
        <ele>82.810000000000002</ele>
        <time>2026-06-29T10:08:40Z</time>
      </trkpt>
      <trkpt lat="52.161864023655653" lon="-9.547657007351518">
        <ele>83.290000000000006</ele>
        <time>2026-06-29T10:08:48Z</time>
      </trkpt>
      <trkpt lat="52.159490017220378" lon="-9.548477008938789">
        <ele>90.980000000000004</ele>
        <time>2026-06-29T10:08:59Z</time>
      </trkpt>
      <trkpt lat="52.157415999099612" lon="-9.549163989722729">
        <ele>105.40000000000001</ele>
        <time>2026-06-29T10:09:09Z</time>
      </trkpt>
      <trkpt lat="52.15721701271832" lon="-9.549308996647596">
        <ele>106.84</ele>
        <time>2026-06-29T10:09:10Z</time>
      </trkpt>
      <trkpt lat="52.157026994973421" lon="-9.549480993300676">
        <ele>107.81</ele>
        <time>2026-06-29T10:09:11Z</time>
      </trkpt>
      <trkpt lat="52.156843012198806" lon="-9.549656007438898">
        <ele>109.25</ele>
        <time>2026-06-29T10:09:12Z</time>
      </trkpt>
      <trkpt lat="52.155196974053979" lon="-9.551762966439128">
        <ele>119.34</ele>
        <time>2026-06-29T10:09:22Z</time>
      </trkpt>
      <trkpt lat="52.153335018083453" lon="-9.554163040593267">
        <ele>124.15000000000001</ele>
        <time>2026-06-29T10:09:33Z</time>
      </trkpt>
      <trkpt lat="52.152706040069461" lon="-9.554864019155502">
        <ele>126.06999999999999</ele>
        <time>2026-06-29T10:09:37Z</time>
      </trkpt>
      <trkpt lat="52.152537982910872" lon="-9.555008020251989">
        <ele>126.55</ele>
        <time>2026-06-29T10:09:38Z</time>
      </trkpt>
      <trkpt lat="52.152349976822734" lon="-9.555078009143472">
        <ele>126.55</ele>
        <time>2026-06-29T10:09:39Z</time>
      </trkpt>
      <trkpt lat="52.152156019583344" lon="-9.555144980549812">
        <ele>127.03</ele>
        <time>2026-06-29T10:09:40Z</time>
      </trkpt>
      <trkpt lat="52.151971030980349" lon="-9.555209018290043">
        <ele>127.51000000000001</ele>
        <time>2026-06-29T10:09:41Z</time>
      </trkpt>
      <trkpt lat="52.151765003800392" lon="-9.555183034390211">
        <ele>128.47</ele>
        <time>2026-06-29T10:09:42Z</time>
      </trkpt>
      <trkpt lat="52.151564005762339" lon="-9.555157972499728">
        <ele>128.94999999999999</ele>
        <time>2026-06-29T10:09:43Z</time>
      </trkpt>
      <trkpt lat="52.151359990239143" lon="-9.555131988599896">
        <ele>129.43000000000001</ele>
        <time>2026-06-29T10:09:44Z</time>
      </trkpt>
      <trkpt lat="52.151161003857851" lon="-9.55505495890975">
        <ele>129.43000000000001</ele>
        <time>2026-06-29T10:09:45Z</time>
      </trkpt>
      <trkpt lat="52.1509650349617" lon="-9.554946999996901">
        <ele>129.43000000000001</ele>
        <time>2026-06-29T10:09:46Z</time>
      </trkpt>
      <trkpt lat="52.150770993903279" lon="-9.554826971143484">
        <ele>128.94999999999999</ele>
        <time>2026-06-29T10:09:47Z</time>
      </trkpt>
      <trkpt lat="52.150578964501619" lon="-9.554692022502422">
        <ele>128.47</ele>
        <time>2026-06-29T10:09:48Z</time>
      </trkpt>
      <trkpt lat="52.149797016754746" lon="-9.554139990359545">
        <ele>125.11</ele>
        <time>2026-06-29T10:09:52Z</time>
      </trkpt>
      <trkpt lat="52.149584032595158" lon="-9.554046029224992">
        <ele>124.63</ele>
        <time>2026-06-29T10:09:53Z</time>
      </trkpt>
      <trkpt lat="52.149368030950427" lon="-9.553994983434677">
        <ele>123.67</ele>
        <time>2026-06-29T10:09:54Z</time>
      </trkpt>
      <trkpt lat="52.146700993180275" lon="-9.553770013153553">
        <ele>121.26000000000001</ele>
        <time>2026-06-29T10:10:06Z</time>
      </trkpt>
      <trkpt lat="52.144610965624452" lon="-9.553668005391955">
        <ele>123.67</ele>
        <time>2026-06-29T10:10:16Z</time>
      </trkpt>
      <trkpt lat="52.142332009971142" lon="-9.55387000925839">
        <ele>124.15000000000001</ele>
        <time>2026-06-29T10:10:29Z</time>
      </trkpt>
      <trkpt lat="52.140188002958894" lon="-9.55380697734654">
        <ele>123.67</ele>
        <time>2026-06-29T10:10:41Z</time>
      </trkpt>
      <trkpt lat="52.138325963169336" lon="-9.553260980173945">
        <ele>121.73999999999999</ele>
        <time>2026-06-29T10:10:50Z</time>
      </trkpt>
      <trkpt lat="52.136585963889956" lon="-9.552977001294494">
        <ele>120.78</ele>
        <time>2026-06-29T10:10:58Z</time>
      </trkpt>
      <trkpt lat="52.136179022490978" lon="-9.552869964390993">
        <ele>120.3</ele>
        <time>2026-06-29T10:11:00Z</time>
      </trkpt>
      <trkpt lat="52.135980036109686" lon="-9.552744990214706">
        <ele>119.81999999999999</ele>
        <time>2026-06-29T10:11:01Z</time>
      </trkpt>
      <trkpt lat="52.135784989222884" lon="-9.552622027695179">
        <ele>119.34</ele>
        <time>2026-06-29T10:11:02Z</time>
      </trkpt>
      <trkpt lat="52.135598994791508" lon="-9.552505016326904">
        <ele>118.86</ele>
        <time>2026-06-29T10:11:03Z</time>
      </trkpt>
      <trkpt lat="52.135416017845273" lon="-9.552278034389019">
        <ele>117.90000000000001</ele>
        <time>2026-06-29T10:11:04Z</time>
      </trkpt>
      <trkpt lat="52.135242009535432" lon="-9.552063038572669">
        <ele>117.42</ele>
        <time>2026-06-29T10:11:05Z</time>
      </trkpt>
      <trkpt lat="52.135080993175507" lon="-9.551828010007739">
        <ele>116.45999999999999</ele>
        <time>2026-06-29T10:11:06Z</time>
      </trkpt>
      <trkpt lat="52.1349379979074" lon="-9.551555011421442">
        <ele>115.5</ele>
        <time>2026-06-29T10:11:07Z</time>
      </trkpt>
      <trkpt lat="52.134812017902732" lon="-9.551258962601423">
        <ele>114.53</ele>
        <time>2026-06-29T10:11:08Z</time>
      </trkpt>
      <trkpt lat="52.134687965735793" lon="-9.550966015085578">
        <ele>114.05</ele>
        <time>2026-06-29T10:11:09Z</time>
      </trkpt>
      <trkpt lat="52.133791018277407" lon="-9.547981973737478">
        <ele>105.40000000000001</ele>
        <time>2026-06-29T10:11:18Z</time>
      </trkpt>
      <trkpt lat="52.13238000869751" lon="-9.543003039434552">
        <ele>93.390000000000001</ele>
        <time>2026-06-29T10:11:34Z</time>
      </trkpt>
      <trkpt lat="52.132276995107532" lon="-9.542734986171126">
        <ele>91.939999999999998</ele>
        <time>2026-06-29T10:11:35Z</time>
      </trkpt>
      <trkpt lat="52.132155038416386" lon="-9.542489983141422">
        <ele>90.980000000000004</ele>
        <time>2026-06-29T10:11:36Z</time>
      </trkpt>
      <trkpt lat="52.130891969427466" lon="-9.540660968050361">
        <ele>81.849999999999994</ele>
        <time>2026-06-29T10:11:44Z</time>
      </trkpt>
      <trkpt lat="52.130720978602767" lon="-9.540472039952874">
        <ele>81.370000000000005</ele>
        <time>2026-06-29T10:11:45Z</time>
      </trkpt>
      <trkpt lat="52.130539007484913" lon="-9.540320998057723">
        <ele>81.370000000000005</ele>
        <time>2026-06-29T10:11:46Z</time>
      </trkpt>
      <trkpt lat="52.130354018881917" lon="-9.540179008617997">
        <ele>81.370000000000005</ele>
        <time>2026-06-29T10:11:47Z</time>
      </trkpt>
      <trkpt lat="52.128828009590507" lon="-9.539139987900853">
        <ele>83.290000000000006</ele>
        <time>2026-06-29T10:11:55Z</time>
      </trkpt>
      <trkpt lat="52.127467039972544" lon="-9.537577014416456">
        <ele>87.140000000000001</ele>
        <time>2026-06-29T10:12:03Z</time>
      </trkpt>
      <trkpt lat="52.126032980158925" lon="-9.535475000739098">
        <ele>88.099999999999994</ele>
        <time>2026-06-29T10:12:12Z</time>
      </trkpt>
      <trkpt lat="52.124793967232108" lon="-9.53290100209415">
        <ele>88.099999999999994</ele>
        <time>2026-06-29T10:12:21Z</time>
      </trkpt>
      <trkpt lat="52.124618031084538" lon="-9.532695980742574">
        <ele>88.579999999999998</ele>
        <time>2026-06-29T10:12:22Z</time>
      </trkpt>
      <trkpt lat="52.123231999576092" lon="-9.531233003363013">
        <ele>90.5</ele>
        <time>2026-06-29T10:12:30Z</time>
      </trkpt>
      <trkpt lat="52.123085986822844" lon="-9.531013984233141">
        <ele>90.980000000000004</ele>
        <time>2026-06-29T10:12:31Z</time>
      </trkpt>
      <trkpt lat="52.122969981282949" lon="-9.53075498342514">
        <ele>91.459999999999994</ele>
        <time>2026-06-29T10:12:32Z</time>
      </trkpt>
      <trkpt lat="52.122853975743055" lon="-9.530494976788759">
        <ele>91.939999999999998</ele>
        <time>2026-06-29T10:12:33Z</time>
      </trkpt>
      <trkpt lat="52.122745011001825" lon="-9.530222984030843">
        <ele>92.420000000000002</ele>
        <time>2026-06-29T10:12:34Z</time>
      </trkpt>
      <trkpt lat="52.122651971876621" lon="-9.529924001544714">
        <ele>92.420000000000002</ele>
        <time>2026-06-29T10:12:35Z</time>
      </trkpt>
      <trkpt lat="52.122585000470281" lon="-9.529609009623528">
        <ele>92.420000000000002</ele>
        <time>2026-06-29T10:12:36Z</time>
      </trkpt>
      <trkpt lat="52.122275959700346" lon="-9.527964983135462">
        <ele>92.900000000000006</ele>
        <time>2026-06-29T10:12:41Z</time>
      </trkpt>
      <trkpt lat="52.122249975800514" lon="-9.527624007314444">
        <ele>92.420000000000002</ele>
        <time>2026-06-29T10:12:42Z</time>
      </trkpt>
      <trkpt lat="52.122234972193837" lon="-9.527284959331155">
        <ele>92.420000000000002</ele>
        <time>2026-06-29T10:12:43Z</time>
      </trkpt>
      <trkpt lat="52.122293980792165" lon="-9.524829983711243">
        <ele>94.349999999999994</ele>
        <time>2026-06-29T10:12:50Z</time>
      </trkpt>
      <trkpt lat="52.122270008549094" lon="-9.524499988183379">
        <ele>94.829999999999998</ele>
        <time>2026-06-29T10:12:51Z</time>
      </trkpt>
      <trkpt lat="52.122232960537076" lon="-9.524184996262193">
        <ele>95.310000000000002</ele>
        <time>2026-06-29T10:12:52Z</time>
      </trkpt>
      <trkpt lat="52.122162971645594" lon="-9.523882996290922">
        <ele>95.790000000000006</ele>
        <time>2026-06-29T10:12:53Z</time>
      </trkpt>
      <trkpt lat="52.12208803743124" lon="-9.523587031289935">
        <ele>96.75</ele>
        <time>2026-06-29T10:12:54Z</time>
      </trkpt>
      <trkpt lat="52.121975971385837" lon="-9.523316966369748">
        <ele>97.709999999999994</ele>
        <time>2026-06-29T10:12:55Z</time>
      </trkpt>
      <trkpt lat="52.121861977502704" lon="-9.523041034117341">
        <ele>98.189999999999998</ele>
        <time>2026-06-29T10:12:56Z</time>
      </trkpt>
      <trkpt lat="52.121730968356133" lon="-9.522791001945734">
        <ele>99.150000000000006</ele>
        <time>2026-06-29T10:12:57Z</time>
      </trkpt>
      <trkpt lat="52.121598031371832" lon="-9.522544993087649">
        <ele>99.629999999999995</ele>
        <time>2026-06-29T10:12:58Z</time>
      </trkpt>
      <trkpt lat="52.12099595926702" lon="-9.521639999002218">
        <ele>101.56</ele>
        <time>2026-06-29T10:13:02Z</time>
      </trkpt>
      <trkpt lat="52.120817005634308" lon="-9.521456016227603">
        <ele>101.56</ele>
        <time>2026-06-29T10:13:03Z</time>
      </trkpt>
      <trkpt lat="52.12043303065002" lon="-9.521163990721107">
        <ele>102.52</ele>
        <time>2026-06-29T10:13:05Z</time>
      </trkpt>
      <trkpt lat="52.120238989591599" lon="-9.521061982959509">
        <ele>103</ele>
        <time>2026-06-29T10:13:06Z</time>
      </trkpt>
      <trkpt lat="52.118794033303857" lon="-9.520381037145853">
        <ele>105.88</ele>
        <time>2026-06-29T10:13:13Z</time>
      </trkpt>
      <trkpt lat="52.117686029523611" lon="-9.519398007541895">
        <ele>104.92</ele>
        <time>2026-06-29T10:13:19Z</time>
      </trkpt>
      <trkpt lat="52.116392031311989" lon="-9.518150025978684">
        <ele>103</ele>
        <time>2026-06-29T10:13:27Z</time>
      </trkpt>
      <trkpt lat="52.115182019770145" lon="-9.517549965530634">
        <ele>98.189999999999998</ele>
        <time>2026-06-29T10:13:33Z</time>
      </trkpt>
      <trkpt lat="52.113910987973213" lon="-9.516952000558376">
        <ele>91.459999999999994</ele>
        <time>2026-06-29T10:13:40Z</time>
      </trkpt>
      <trkpt lat="52.113125016912818" lon="-9.516575988382101">
        <ele>87.140000000000001</ele>
        <time>2026-06-29T10:13:47Z</time>
      </trkpt>
      <trkpt lat="52.113072965294123" lon="-9.51655101031065">
        <ele>86.659999999999997</ele>
        <time>2026-06-29T10:13:48Z</time>
      </trkpt>
      <trkpt lat="52.112967018038034" lon="-9.516396028921008">
        <ele>86.659999999999997</ele>
        <time>2026-06-29T10:13:49Z</time>
      </trkpt>
      <trkpt lat="52.112973975017667" lon="-9.516257978975773">
        <ele>86.180000000000007</ele>
        <time>2026-06-29T10:13:50Z</time>
      </trkpt>
      <trkpt lat="52.112982021644711" lon="-9.516081959009171">
        <ele>86.180000000000007</ele>
        <time>2026-06-29T10:13:51Z</time>
      </trkpt>
      <trkpt lat="52.112993001937866" lon="-9.515880038961768">
        <ele>85.689999999999998</ele>
        <time>2026-06-29T10:13:52Z</time>
      </trkpt>
      <trkpt lat="52.113046981394291" lon="-9.51457598246634">
        <ele>84.730000000000004</ele>
        <time>2026-06-29T10:13:58Z</time>
      </trkpt>
      <trkpt lat="52.113026026636362" lon="-9.511878015473485">
        <ele>87.140000000000001</ele>
        <time>2026-06-29T10:14:09Z</time>
      </trkpt>
      <trkpt lat="52.112867021933198" lon="-9.510003989562392">
        <ele>87.140000000000001</ele>
        <time>2026-06-29T10:14:17Z</time>
      </trkpt>
      <trkpt lat="52.112579019740224" lon="-9.507975988090038">
        <ele>89.540000000000006</ele>
        <time>2026-06-29T10:14:26Z</time>
      </trkpt>
      <trkpt lat="52.112046014517546" lon="-9.506214028224349">
        <ele>92.900000000000006</ele>
        <time>2026-06-29T10:14:35Z</time>
      </trkpt>
      <trkpt lat="52.111910982057452" lon="-9.505628971382976">
        <ele>94.349999999999994</ele>
        <time>2026-06-29T10:14:39Z</time>
      </trkpt>
      <trkpt lat="52.11182196624577" lon="-9.505537021905184">
        <ele>94.349999999999994</ele>
        <time>2026-06-29T10:14:40Z</time>
      </trkpt>
      <trkpt lat="52.111773015931249" lon="-9.505539033561945">
        <ele>94.829999999999998</ele>
        <time>2026-06-29T10:14:41Z</time>
      </trkpt>
      <trkpt lat="52.111714007332921" lon="-9.505540961399674">
        <ele>94.829999999999998</ele>
        <time>2026-06-29T10:14:42Z</time>
      </trkpt>
      <trkpt lat="52.11164996959269" lon="-9.505543978884816">
        <ele>95.310000000000002</ele>
        <time>2026-06-29T10:14:43Z</time>
      </trkpt>
      <trkpt lat="52.111436985433102" lon="-9.505553031340241">
        <ele>96.269999999999996</ele>
        <time>2026-06-29T10:14:47Z</time>
      </trkpt>
      <trkpt lat="52.111374037340283" lon="-9.505555965006352">
        <ele>97.230000000000004</ele>
        <time>2026-06-29T10:14:54Z</time>
      </trkpt>
      <trkpt lat="52.111374037340283" lon="-9.505555965006352">
        <ele>97.230000000000004</ele>
        <time>2026-06-29T10:15:17Z</time>
      </trkpt>
      <trkpt lat="52.111374037340283" lon="-9.505555965006352">
        <ele>97.230000000000004</ele>
        <time>2026-06-29T10:15:19Z</time>
      </trkpt>
      <trkpt lat="52.111374037340283" lon="-9.505555965006352">
        <ele>97.230000000000004</ele>
        <time>2026-06-29T10:15:20Z</time>
      </trkpt>
      <trkpt lat="52.111374037340283" lon="-9.505555965006352">
        <ele>96.75</ele>
        <time>2026-06-29T10:15:34Z</time>
      </trkpt>
      <trkpt lat="52.111374037340283" lon="-9.505555965006352">
        <ele>96.75</ele>
        <time>2026-06-29T10:15:49Z</time>
      </trkpt>
      <trkpt lat="52.111374037340283" lon="-9.505555965006352">
        <ele>96.75</ele>
        <time>2026-06-29T10:16:11Z</time>
      </trkpt>
      <trkpt lat="52.111374037340283" lon="-9.505555965006352">
        <ele>97.230000000000004</ele>
        <time>2026-06-29T10:16:56Z</time>
      </trkpt>
      <trkpt lat="52.111374037340283" lon="-9.505555965006352">
        <ele>97.709999999999994</ele>
        <time>2026-06-29T10:17:48Z</time>
      </trkpt>
      <trkpt lat="52.111374037340283" lon="-9.505555965006352">
        <ele>98.670000000000002</ele>
        <time>2026-06-29T10:18:51Z</time>
      </trkpt>
    </trkseg>
  </trk>

</gpx>